<?xml version="1.0" encoding="UTF-8" standalone="no" ?>
<gpx xmlns="http://www.topografix.com/GPX/1/1" xmlns:xsi="http://www.w3.org/2001/XMLSchema-instance" xsi:schemaLocation="http://www.topografix.com/GPX/1/1 http://www.topografix.com/GPX/1/1/gpx.xsd" version="1.1" creator="VisuGPX - https://www.visugpx.com">
  <metadata>
    <name>Trail du Petit Saint Bernard avec un Benji bien en forme. Super journée </name>
  </metadata>
  <trk>
    <name><![CDATA[Trail du Petit Saint Bernard avec un Benji bien en forme. Super journée ]]></name>
    <trkseg>
      <trkpt lat="45.67175" lon="6.87568">
        <ele>2156.6</ele>
        <time>2021-10-03T06:00:32Z</time>
      </trkpt>
      <trkpt lat="45.67177" lon="6.87574">
        <ele>2156.8</ele>
        <time>2021-10-03T06:00:36Z</time>
      </trkpt>
      <trkpt lat="45.67179" lon="6.87583">
        <ele>2156.8</ele>
        <time>2021-10-03T06:00:39Z</time>
      </trkpt>
      <trkpt lat="45.67183" lon="6.87597">
        <ele>2157.8</ele>
        <time>2021-10-03T06:00:43Z</time>
      </trkpt>
      <trkpt lat="45.67185" lon="6.87603">
        <ele>2159</ele>
        <time>2021-10-03T06:00:45Z</time>
      </trkpt>
      <trkpt lat="45.67201" lon="6.87618">
        <ele>2159.2</ele>
        <time>2021-10-03T06:00:54Z</time>
      </trkpt>
      <trkpt lat="45.67218" lon="6.87634">
        <ele>2158.8</ele>
        <time>2021-10-03T06:01:04Z</time>
      </trkpt>
      <trkpt lat="45.67234" lon="6.87649">
        <ele>2158.4</ele>
        <time>2021-10-03T06:01:12Z</time>
      </trkpt>
      <trkpt lat="45.67241" lon="6.87654">
        <ele>2157.8</ele>
        <time>2021-10-03T06:01:15Z</time>
      </trkpt>
      <trkpt lat="45.67256" lon="6.87665">
        <ele>2156.6</ele>
        <time>2021-10-03T06:01:21Z</time>
      </trkpt>
      <trkpt lat="45.67272" lon="6.87679">
        <ele>2157.4</ele>
        <time>2021-10-03T06:01:29Z</time>
      </trkpt>
      <trkpt lat="45.67288" lon="6.87692">
        <ele>2157.6</ele>
        <time>2021-10-03T06:01:36Z</time>
      </trkpt>
      <trkpt lat="45.67297" lon="6.87698">
        <ele>2158.6</ele>
        <time>2021-10-03T06:01:40Z</time>
      </trkpt>
      <trkpt lat="45.67311" lon="6.87715">
        <ele>2159.2</ele>
        <time>2021-10-03T06:01:48Z</time>
      </trkpt>
      <trkpt lat="45.67325" lon="6.87727">
        <ele>2159.8</ele>
        <time>2021-10-03T06:01:55Z</time>
      </trkpt>
      <trkpt lat="45.67333" lon="6.87734">
        <ele>2161</ele>
        <time>2021-10-03T06:01:59Z</time>
      </trkpt>
      <trkpt lat="45.6735" lon="6.87751">
        <ele>2161.6</ele>
        <time>2021-10-03T06:02:07Z</time>
      </trkpt>
      <trkpt lat="45.67361" lon="6.87762">
        <ele>2162.4</ele>
        <time>2021-10-03T06:02:13Z</time>
      </trkpt>
      <trkpt lat="45.67378" lon="6.87777">
        <ele>2163</ele>
        <time>2021-10-03T06:02:22Z</time>
      </trkpt>
      <trkpt lat="45.67383" lon="6.87779">
        <ele>2163.4</ele>
        <time>2021-10-03T06:02:24Z</time>
      </trkpt>
      <trkpt lat="45.67398" lon="6.87794">
        <ele>2164.2</ele>
        <time>2021-10-03T06:02:32Z</time>
      </trkpt>
      <trkpt lat="45.674" lon="6.87797">
        <ele>2164.4</ele>
        <time>2021-10-03T06:02:33Z</time>
      </trkpt>
      <trkpt lat="45.67409" lon="6.87809">
        <ele>2165.4</ele>
        <time>2021-10-03T06:02:38Z</time>
      </trkpt>
      <trkpt lat="45.67424" lon="6.87825">
        <ele>2166</ele>
        <time>2021-10-03T06:02:45Z</time>
      </trkpt>
      <trkpt lat="45.67439" lon="6.87841">
        <ele>2164.4</ele>
        <time>2021-10-03T06:02:52Z</time>
      </trkpt>
      <trkpt lat="45.67456" lon="6.87856">
        <ele>2165.6</ele>
        <time>2021-10-03T06:03:00Z</time>
      </trkpt>
      <trkpt lat="45.67468" lon="6.87868">
        <ele>2166.6</ele>
        <time>2021-10-03T06:03:06Z</time>
      </trkpt>
      <trkpt lat="45.67476" lon="6.87876">
        <ele>2167.6</ele>
        <time>2021-10-03T06:03:10Z</time>
      </trkpt>
      <trkpt lat="45.67488" lon="6.87886">
        <ele>2167</ele>
        <time>2021-10-03T06:03:15Z</time>
      </trkpt>
      <trkpt lat="45.67493" lon="6.87891">
        <ele>2166.4</ele>
        <time>2021-10-03T06:03:17Z</time>
      </trkpt>
      <trkpt lat="45.67509" lon="6.87906">
        <ele>2165.4</ele>
        <time>2021-10-03T06:03:24Z</time>
      </trkpt>
      <trkpt lat="45.67526" lon="6.87921">
        <ele>2166.2</ele>
        <time>2021-10-03T06:03:32Z</time>
      </trkpt>
      <trkpt lat="45.67542" lon="6.87936">
        <ele>2165.4</ele>
        <time>2021-10-03T06:03:39Z</time>
      </trkpt>
      <trkpt lat="45.67549" lon="6.87943">
        <ele>2164.4</ele>
        <time>2021-10-03T06:03:42Z</time>
      </trkpt>
      <trkpt lat="45.67566" lon="6.87958">
        <ele>2164.6</ele>
        <time>2021-10-03T06:03:49Z</time>
      </trkpt>
      <trkpt lat="45.67581" lon="6.87973">
        <ele>2163.8</ele>
        <time>2021-10-03T06:03:56Z</time>
      </trkpt>
      <trkpt lat="45.67597" lon="6.87988">
        <ele>2163.8</ele>
        <time>2021-10-03T06:04:03Z</time>
      </trkpt>
      <trkpt lat="45.67605" lon="6.87996">
        <ele>2163.2</ele>
        <time>2021-10-03T06:04:06Z</time>
      </trkpt>
      <trkpt lat="45.67617" lon="6.88007">
        <ele>2162</ele>
        <time>2021-10-03T06:04:11Z</time>
      </trkpt>
      <trkpt lat="45.67634" lon="6.88024">
        <ele>2161.6</ele>
        <time>2021-10-03T06:04:18Z</time>
      </trkpt>
      <trkpt lat="45.6765" lon="6.88038">
        <ele>2161.8</ele>
        <time>2021-10-03T06:04:25Z</time>
      </trkpt>
      <trkpt lat="45.67663" lon="6.8805">
        <ele>2163.2</ele>
        <time>2021-10-03T06:04:32Z</time>
      </trkpt>
      <trkpt lat="45.67668" lon="6.88055">
        <ele>2164.4</ele>
        <time>2021-10-03T06:04:35Z</time>
      </trkpt>
      <trkpt lat="45.67679" lon="6.88065">
        <ele>2165.4</ele>
        <time>2021-10-03T06:04:41Z</time>
      </trkpt>
      <trkpt lat="45.67696" lon="6.88081">
        <ele>2165.6</ele>
        <time>2021-10-03T06:04:49Z</time>
      </trkpt>
      <trkpt lat="45.67709" lon="6.88095">
        <ele>2166.6</ele>
        <time>2021-10-03T06:04:56Z</time>
      </trkpt>
      <trkpt lat="45.67715" lon="6.881">
        <ele>2168</ele>
        <time>2021-10-03T06:04:59Z</time>
      </trkpt>
      <trkpt lat="45.67721" lon="6.88105">
        <ele>2169</ele>
        <time>2021-10-03T06:05:02Z</time>
      </trkpt>
      <trkpt lat="45.67731" lon="6.88113">
        <ele>2170</ele>
        <time>2021-10-03T06:05:07Z</time>
      </trkpt>
      <trkpt lat="45.67746" lon="6.88127">
        <ele>2171.2</ele>
        <time>2021-10-03T06:05:15Z</time>
      </trkpt>
      <trkpt lat="45.67751" lon="6.88132">
        <ele>2172.4</ele>
        <time>2021-10-03T06:05:18Z</time>
      </trkpt>
      <trkpt lat="45.67756" lon="6.88136">
        <ele>2172.8</ele>
        <time>2021-10-03T06:05:21Z</time>
      </trkpt>
      <trkpt lat="45.6776" lon="6.8814">
        <ele>2173.4</ele>
        <time>2021-10-03T06:05:23Z</time>
      </trkpt>
      <trkpt lat="45.67771" lon="6.88153">
        <ele>2174.6</ele>
        <time>2021-10-03T06:05:30Z</time>
      </trkpt>
      <trkpt lat="45.67786" lon="6.88166">
        <ele>2175.8</ele>
        <time>2021-10-03T06:05:38Z</time>
      </trkpt>
      <trkpt lat="45.67802" lon="6.8818">
        <ele>2176.8</ele>
        <time>2021-10-03T06:05:46Z</time>
      </trkpt>
      <trkpt lat="45.67809" lon="6.88187">
        <ele>2177</ele>
        <time>2021-10-03T06:05:50Z</time>
      </trkpt>
      <trkpt lat="45.67818" lon="6.88192">
        <ele>2178.2</ele>
        <time>2021-10-03T06:05:54Z</time>
      </trkpt>
      <trkpt lat="45.67831" lon="6.882">
        <ele>2179.2</ele>
        <time>2021-10-03T06:06:00Z</time>
      </trkpt>
      <trkpt lat="45.6784" lon="6.88206">
        <ele>2180.4</ele>
        <time>2021-10-03T06:06:05Z</time>
      </trkpt>
      <trkpt lat="45.67846" lon="6.88209">
        <ele>2181.4</ele>
        <time>2021-10-03T06:06:08Z</time>
      </trkpt>
      <trkpt lat="45.67854" lon="6.88213">
        <ele>2182.4</ele>
        <time>2021-10-03T06:06:12Z</time>
      </trkpt>
      <trkpt lat="45.67868" lon="6.88214">
        <ele>2183.6</ele>
        <time>2021-10-03T06:06:19Z</time>
      </trkpt>
      <trkpt lat="45.67883" lon="6.88219">
        <ele>2184.6</ele>
        <time>2021-10-03T06:06:25Z</time>
      </trkpt>
      <trkpt lat="45.67898" lon="6.88233">
        <ele>2185</ele>
        <time>2021-10-03T06:06:33Z</time>
      </trkpt>
      <trkpt lat="45.67909" lon="6.88241">
        <ele>2185.8</ele>
        <time>2021-10-03T06:06:39Z</time>
      </trkpt>
      <trkpt lat="45.67924" lon="6.88256">
        <ele>2186.6</ele>
        <time>2021-10-03T06:06:48Z</time>
      </trkpt>
      <trkpt lat="45.67928" lon="6.88258">
        <ele>2186.8</ele>
        <time>2021-10-03T06:06:50Z</time>
      </trkpt>
      <trkpt lat="45.67938" lon="6.88262">
        <ele>2188</ele>
        <time>2021-10-03T06:06:54Z</time>
      </trkpt>
      <trkpt lat="45.67955" lon="6.88267">
        <ele>2189.2</ele>
        <time>2021-10-03T06:07:02Z</time>
      </trkpt>
      <trkpt lat="45.67966" lon="6.88272">
        <ele>2190.4</ele>
        <time>2021-10-03T06:07:06Z</time>
      </trkpt>
      <trkpt lat="45.67984" lon="6.8828">
        <ele>2189.8</ele>
        <time>2021-10-03T06:07:13Z</time>
      </trkpt>
      <trkpt lat="45.68" lon="6.8829">
        <ele>2190.2</ele>
        <time>2021-10-03T06:07:23Z</time>
      </trkpt>
      <trkpt lat="45.68012" lon="6.88308">
        <ele>2191.2</ele>
        <time>2021-10-03T06:07:31Z</time>
      </trkpt>
      <trkpt lat="45.6803" lon="6.88321">
        <ele>2191.4</ele>
        <time>2021-10-03T06:07:40Z</time>
      </trkpt>
      <trkpt lat="45.68036" lon="6.88326">
        <ele>2191.4</ele>
        <time>2021-10-03T06:07:43Z</time>
      </trkpt>
      <trkpt lat="45.68052" lon="6.8834">
        <ele>2190.2</ele>
        <time>2021-10-03T06:07:50Z</time>
      </trkpt>
      <trkpt lat="45.68064" lon="6.88354">
        <ele>2189</ele>
        <time>2021-10-03T06:07:56Z</time>
      </trkpt>
      <trkpt lat="45.68078" lon="6.88373">
        <ele>2190</ele>
        <time>2021-10-03T06:08:03Z</time>
      </trkpt>
      <trkpt lat="45.6808" lon="6.88376">
        <ele>2190.2</ele>
        <time>2021-10-03T06:08:04Z</time>
      </trkpt>
      <trkpt lat="45.68094" lon="6.88394">
        <ele>2189.2</ele>
        <time>2021-10-03T06:08:11Z</time>
      </trkpt>
      <trkpt lat="45.68111" lon="6.88402">
        <ele>2189.8</ele>
        <time>2021-10-03T06:08:18Z</time>
      </trkpt>
      <trkpt lat="45.68129" lon="6.88407">
        <ele>2190</ele>
        <time>2021-10-03T06:08:25Z</time>
      </trkpt>
      <trkpt lat="45.68132" lon="6.88407">
        <ele>2190.2</ele>
        <time>2021-10-03T06:08:26Z</time>
      </trkpt>
      <trkpt lat="45.68148" lon="6.8841">
        <ele>2191.2</ele>
        <time>2021-10-03T06:08:32Z</time>
      </trkpt>
      <trkpt lat="45.68158" lon="6.88414">
        <ele>2191.4</ele>
        <time>2021-10-03T06:08:36Z</time>
      </trkpt>
      <trkpt lat="45.68177" lon="6.88423">
        <ele>2190.4</ele>
        <time>2021-10-03T06:08:43Z</time>
      </trkpt>
      <trkpt lat="45.6818" lon="6.88425">
        <ele>2190.2</ele>
        <time>2021-10-03T06:08:44Z</time>
      </trkpt>
      <trkpt lat="45.68195" lon="6.88439">
        <ele>2188.8</ele>
        <time>2021-10-03T06:08:50Z</time>
      </trkpt>
      <trkpt lat="45.68208" lon="6.8845">
        <ele>2187.8</ele>
        <time>2021-10-03T06:08:55Z</time>
      </trkpt>
      <trkpt lat="45.68215" lon="6.88461">
        <ele>2186.4</ele>
        <time>2021-10-03T06:08:58Z</time>
      </trkpt>
      <trkpt lat="45.6822" lon="6.88469">
        <ele>2185.4</ele>
        <time>2021-10-03T06:09:00Z</time>
      </trkpt>
      <trkpt lat="45.68224" lon="6.88475">
        <ele>2184</ele>
        <time>2021-10-03T06:09:02Z</time>
      </trkpt>
      <trkpt lat="45.68229" lon="6.88481">
        <ele>2182.8</ele>
        <time>2021-10-03T06:09:04Z</time>
      </trkpt>
      <trkpt lat="45.68242" lon="6.88502">
        <ele>2182.6</ele>
        <time>2021-10-03T06:09:11Z</time>
      </trkpt>
      <trkpt lat="45.68258" lon="6.88516">
        <ele>2183.2</ele>
        <time>2021-10-03T06:09:18Z</time>
      </trkpt>
      <trkpt lat="45.68275" lon="6.88528">
        <ele>2183.2</ele>
        <time>2021-10-03T06:09:25Z</time>
      </trkpt>
      <trkpt lat="45.68292" lon="6.88534">
        <ele>2184</ele>
        <time>2021-10-03T06:09:32Z</time>
      </trkpt>
      <trkpt lat="45.6831" lon="6.8854">
        <ele>2183.8</ele>
        <time>2021-10-03T06:09:41Z</time>
      </trkpt>
      <trkpt lat="45.68318" lon="6.88545">
        <ele>2182.8</ele>
        <time>2021-10-03T06:09:44Z</time>
      </trkpt>
      <trkpt lat="45.68329" lon="6.88554">
        <ele>2181.6</ele>
        <time>2021-10-03T06:09:48Z</time>
      </trkpt>
      <trkpt lat="45.68343" lon="6.88569">
        <ele>2181.6</ele>
        <time>2021-10-03T06:09:55Z</time>
      </trkpt>
      <trkpt lat="45.68358" lon="6.88583">
        <ele>2180.6</ele>
        <time>2021-10-03T06:10:02Z</time>
      </trkpt>
      <trkpt lat="45.68368" lon="6.88591">
        <ele>2179</ele>
        <time>2021-10-03T06:10:06Z</time>
      </trkpt>
      <trkpt lat="45.68388" lon="6.88595">
        <ele>2179.6</ele>
        <time>2021-10-03T06:10:13Z</time>
      </trkpt>
      <trkpt lat="45.68393" lon="6.88594">
        <ele>2180.2</ele>
        <time>2021-10-03T06:10:15Z</time>
      </trkpt>
      <trkpt lat="45.68411" lon="6.8859">
        <ele>2180.6</ele>
        <time>2021-10-03T06:10:21Z</time>
      </trkpt>
      <trkpt lat="45.68424" lon="6.88598">
        <ele>2181.4</ele>
        <time>2021-10-03T06:10:26Z</time>
      </trkpt>
      <trkpt lat="45.68437" lon="6.88617">
        <ele>2181.8</ele>
        <time>2021-10-03T06:10:33Z</time>
      </trkpt>
      <trkpt lat="45.68449" lon="6.88638">
        <ele>2182</ele>
        <time>2021-10-03T06:10:40Z</time>
      </trkpt>
      <trkpt lat="45.68462" lon="6.88657">
        <ele>2181.8</ele>
        <time>2021-10-03T06:10:47Z</time>
      </trkpt>
      <trkpt lat="45.68472" lon="6.88672">
        <ele>2180</ele>
        <time>2021-10-03T06:10:53Z</time>
      </trkpt>
      <trkpt lat="45.68476" lon="6.88681">
        <ele>2178.8</ele>
        <time>2021-10-03T06:10:56Z</time>
      </trkpt>
      <trkpt lat="45.68481" lon="6.8869">
        <ele>2177.6</ele>
        <time>2021-10-03T06:10:59Z</time>
      </trkpt>
      <trkpt lat="45.68484" lon="6.88696">
        <ele>2176.2</ele>
        <time>2021-10-03T06:11:01Z</time>
      </trkpt>
      <trkpt lat="45.68488" lon="6.88703">
        <ele>2175</ele>
        <time>2021-10-03T06:11:03Z</time>
      </trkpt>
      <trkpt lat="45.68493" lon="6.88709">
        <ele>2173.8</ele>
        <time>2021-10-03T06:11:05Z</time>
      </trkpt>
      <trkpt lat="45.68496" lon="6.88714">
        <ele>2172.4</ele>
        <time>2021-10-03T06:11:07Z</time>
      </trkpt>
      <trkpt lat="45.685" lon="6.88719">
        <ele>2170.6</ele>
        <time>2021-10-03T06:11:09Z</time>
      </trkpt>
      <trkpt lat="45.68503" lon="6.88722">
        <ele>2168.8</ele>
        <time>2021-10-03T06:11:11Z</time>
      </trkpt>
      <trkpt lat="45.68506" lon="6.88723">
        <ele>2167.8</ele>
        <time>2021-10-03T06:11:12Z</time>
      </trkpt>
      <trkpt lat="45.68508" lon="6.88723">
        <ele>2167</ele>
        <time>2021-10-03T06:11:13Z</time>
      </trkpt>
      <trkpt lat="45.68511" lon="6.88726">
        <ele>2165.8</ele>
        <time>2021-10-03T06:11:15Z</time>
      </trkpt>
      <trkpt lat="45.68514" lon="6.88731">
        <ele>2164.6</ele>
        <time>2021-10-03T06:11:17Z</time>
      </trkpt>
      <trkpt lat="45.68518" lon="6.88733">
        <ele>2163.8</ele>
        <time>2021-10-03T06:11:19Z</time>
      </trkpt>
      <trkpt lat="45.6852" lon="6.88732">
        <ele>2163.6</ele>
        <time>2021-10-03T06:11:20Z</time>
      </trkpt>
      <trkpt lat="45.68533" lon="6.88726">
        <ele>2164.8</ele>
        <time>2021-10-03T06:11:29Z</time>
      </trkpt>
      <trkpt lat="45.68536" lon="6.88727">
        <ele>2166.2</ele>
        <time>2021-10-03T06:11:31Z</time>
      </trkpt>
      <trkpt lat="45.68542" lon="6.8873">
        <ele>2167</ele>
        <time>2021-10-03T06:11:34Z</time>
      </trkpt>
      <trkpt lat="45.68561" lon="6.88733">
        <ele>2166.6</ele>
        <time>2021-10-03T06:11:43Z</time>
      </trkpt>
      <trkpt lat="45.68577" lon="6.88746">
        <ele>2165</ele>
        <time>2021-10-03T06:11:51Z</time>
      </trkpt>
      <trkpt lat="45.68578" lon="6.88748">
        <ele>2164</ele>
        <time>2021-10-03T06:11:52Z</time>
      </trkpt>
      <trkpt lat="45.68581" lon="6.88753">
        <ele>2162.6</ele>
        <time>2021-10-03T06:11:54Z</time>
      </trkpt>
      <trkpt lat="45.68586" lon="6.88761">
        <ele>2161.2</ele>
        <time>2021-10-03T06:11:57Z</time>
      </trkpt>
      <trkpt lat="45.68593" lon="6.88771">
        <ele>2160.6</ele>
        <time>2021-10-03T06:12:01Z</time>
      </trkpt>
      <trkpt lat="45.68599" lon="6.88773">
        <ele>2160.2</ele>
        <time>2021-10-03T06:12:03Z</time>
      </trkpt>
      <trkpt lat="45.68612" lon="6.88777">
        <ele>2159.2</ele>
        <time>2021-10-03T06:12:08Z</time>
      </trkpt>
      <trkpt lat="45.6863" lon="6.88779">
        <ele>2158.8</ele>
        <time>2021-10-03T06:12:16Z</time>
      </trkpt>
      <trkpt lat="45.68639" lon="6.88783">
        <ele>2157.6</ele>
        <time>2021-10-03T06:12:19Z</time>
      </trkpt>
      <trkpt lat="45.68644" lon="6.88786">
        <ele>2156.4</ele>
        <time>2021-10-03T06:12:21Z</time>
      </trkpt>
      <trkpt lat="45.68649" lon="6.88788">
        <ele>2155.2</ele>
        <time>2021-10-03T06:12:23Z</time>
      </trkpt>
      <trkpt lat="45.68659" lon="6.88792">
        <ele>2154.2</ele>
        <time>2021-10-03T06:12:27Z</time>
      </trkpt>
      <trkpt lat="45.68669" lon="6.88796">
        <ele>2153</ele>
        <time>2021-10-03T06:12:31Z</time>
      </trkpt>
      <trkpt lat="45.68675" lon="6.888">
        <ele>2151.4</ele>
        <time>2021-10-03T06:12:34Z</time>
      </trkpt>
      <trkpt lat="45.6868" lon="6.88802">
        <ele>2150.4</ele>
        <time>2021-10-03T06:12:36Z</time>
      </trkpt>
      <trkpt lat="45.68691" lon="6.88803">
        <ele>2149.2</ele>
        <time>2021-10-03T06:12:40Z</time>
      </trkpt>
      <trkpt lat="45.68697" lon="6.88804">
        <ele>2147.4</ele>
        <time>2021-10-03T06:12:42Z</time>
      </trkpt>
      <trkpt lat="45.68699" lon="6.88804">
        <ele>2146.2</ele>
        <time>2021-10-03T06:12:43Z</time>
      </trkpt>
      <trkpt lat="45.68702" lon="6.88804">
        <ele>2145</ele>
        <time>2021-10-03T06:12:44Z</time>
      </trkpt>
      <trkpt lat="45.68707" lon="6.88806">
        <ele>2143.2</ele>
        <time>2021-10-03T06:12:46Z</time>
      </trkpt>
      <trkpt lat="45.68713" lon="6.88807">
        <ele>2142</ele>
        <time>2021-10-03T06:12:48Z</time>
      </trkpt>
      <trkpt lat="45.68721" lon="6.88808">
        <ele>2140.6</ele>
        <time>2021-10-03T06:12:51Z</time>
      </trkpt>
      <trkpt lat="45.68727" lon="6.88809">
        <ele>2139.2</ele>
        <time>2021-10-03T06:12:53Z</time>
      </trkpt>
      <trkpt lat="45.68732" lon="6.8881">
        <ele>2138</ele>
        <time>2021-10-03T06:12:55Z</time>
      </trkpt>
      <trkpt lat="45.68739" lon="6.88811">
        <ele>2137</ele>
        <time>2021-10-03T06:12:58Z</time>
      </trkpt>
      <trkpt lat="45.68748" lon="6.88809">
        <ele>2135.6</ele>
        <time>2021-10-03T06:13:01Z</time>
      </trkpt>
      <trkpt lat="45.68753" lon="6.88808">
        <ele>2134.2</ele>
        <time>2021-10-03T06:13:03Z</time>
      </trkpt>
      <trkpt lat="45.68759" lon="6.88807">
        <ele>2132.8</ele>
        <time>2021-10-03T06:13:05Z</time>
      </trkpt>
      <trkpt lat="45.68767" lon="6.88805">
        <ele>2131.4</ele>
        <time>2021-10-03T06:13:08Z</time>
      </trkpt>
      <trkpt lat="45.6878" lon="6.888">
        <ele>2130</ele>
        <time>2021-10-03T06:13:14Z</time>
      </trkpt>
      <trkpt lat="45.6879" lon="6.88801">
        <ele>2128.8</ele>
        <time>2021-10-03T06:13:20Z</time>
      </trkpt>
      <trkpt lat="45.688" lon="6.88802">
        <ele>2127.6</ele>
        <time>2021-10-03T06:13:24Z</time>
      </trkpt>
      <trkpt lat="45.68815" lon="6.88793">
        <ele>2126.4</ele>
        <time>2021-10-03T06:13:31Z</time>
      </trkpt>
      <trkpt lat="45.68834" lon="6.88796">
        <ele>2125.8</ele>
        <time>2021-10-03T06:13:38Z</time>
      </trkpt>
      <trkpt lat="45.68839" lon="6.88795">
        <ele>2125.4</ele>
        <time>2021-10-03T06:13:40Z</time>
      </trkpt>
      <trkpt lat="45.68858" lon="6.88791">
        <ele>2125</ele>
        <time>2021-10-03T06:13:48Z</time>
      </trkpt>
      <trkpt lat="45.68869" lon="6.88792">
        <ele>2124.2</ele>
        <time>2021-10-03T06:13:52Z</time>
      </trkpt>
      <trkpt lat="45.68878" lon="6.88792">
        <ele>2122.6</ele>
        <time>2021-10-03T06:13:55Z</time>
      </trkpt>
      <trkpt lat="45.68886" lon="6.8879">
        <ele>2121.6</ele>
        <time>2021-10-03T06:13:58Z</time>
      </trkpt>
      <trkpt lat="45.68894" lon="6.88789">
        <ele>2120.2</ele>
        <time>2021-10-03T06:14:01Z</time>
      </trkpt>
      <trkpt lat="45.68903" lon="6.8879">
        <ele>2118.8</ele>
        <time>2021-10-03T06:14:04Z</time>
      </trkpt>
      <trkpt lat="45.68911" lon="6.88792">
        <ele>2117.6</ele>
        <time>2021-10-03T06:14:07Z</time>
      </trkpt>
      <trkpt lat="45.6892" lon="6.88797">
        <ele>2116.6</ele>
        <time>2021-10-03T06:14:10Z</time>
      </trkpt>
      <trkpt lat="45.68928" lon="6.88798">
        <ele>2115.4</ele>
        <time>2021-10-03T06:14:13Z</time>
      </trkpt>
      <trkpt lat="45.68946" lon="6.88805">
        <ele>2114.4</ele>
        <time>2021-10-03T06:14:19Z</time>
      </trkpt>
      <trkpt lat="45.68953" lon="6.88812">
        <ele>2112.8</ele>
        <time>2021-10-03T06:14:22Z</time>
      </trkpt>
      <trkpt lat="45.68958" lon="6.88815">
        <ele>2111.6</ele>
        <time>2021-10-03T06:14:24Z</time>
      </trkpt>
      <trkpt lat="45.68977" lon="6.88818">
        <ele>2111.6</ele>
        <time>2021-10-03T06:14:31Z</time>
      </trkpt>
      <trkpt lat="45.68998" lon="6.88823">
        <ele>2111.8</ele>
        <time>2021-10-03T06:14:38Z</time>
      </trkpt>
      <trkpt lat="45.69017" lon="6.88826">
        <ele>2110.6</ele>
        <time>2021-10-03T06:14:44Z</time>
      </trkpt>
      <trkpt lat="45.69031" lon="6.88838">
        <ele>2109.4</ele>
        <time>2021-10-03T06:14:49Z</time>
      </trkpt>
      <trkpt lat="45.69048" lon="6.88856">
        <ele>2108.4</ele>
        <time>2021-10-03T06:14:56Z</time>
      </trkpt>
      <trkpt lat="45.69055" lon="6.8886">
        <ele>2108</ele>
        <time>2021-10-03T06:14:58Z</time>
      </trkpt>
      <trkpt lat="45.69061" lon="6.88862">
        <ele>2106.8</ele>
        <time>2021-10-03T06:15:00Z</time>
      </trkpt>
      <trkpt lat="45.69071" lon="6.88865">
        <ele>2105.6</ele>
        <time>2021-10-03T06:15:03Z</time>
      </trkpt>
      <trkpt lat="45.69091" lon="6.88859">
        <ele>2104.4</ele>
        <time>2021-10-03T06:15:10Z</time>
      </trkpt>
      <trkpt lat="45.691" lon="6.88857">
        <ele>2103.2</ele>
        <time>2021-10-03T06:15:13Z</time>
      </trkpt>
      <trkpt lat="45.69105" lon="6.88855">
        <ele>2102</ele>
        <time>2021-10-03T06:15:15Z</time>
      </trkpt>
      <trkpt lat="45.69115" lon="6.88847">
        <ele>2100.8</ele>
        <time>2021-10-03T06:15:19Z</time>
      </trkpt>
      <trkpt lat="45.69129" lon="6.88829">
        <ele>2100</ele>
        <time>2021-10-03T06:15:26Z</time>
      </trkpt>
      <trkpt lat="45.69138" lon="6.88806">
        <ele>2100</ele>
        <time>2021-10-03T06:15:33Z</time>
      </trkpt>
      <trkpt lat="45.69135" lon="6.88776">
        <ele>2100</ele>
        <time>2021-10-03T06:15:40Z</time>
      </trkpt>
      <trkpt lat="45.69134" lon="6.88771">
        <ele>2099.6</ele>
        <time>2021-10-03T06:15:41Z</time>
      </trkpt>
      <trkpt lat="45.69132" lon="6.8875">
        <ele>2098.6</ele>
        <time>2021-10-03T06:15:46Z</time>
      </trkpt>
      <trkpt lat="45.69128" lon="6.88723">
        <ele>2097.8</ele>
        <time>2021-10-03T06:15:53Z</time>
      </trkpt>
      <trkpt lat="45.69126" lon="6.88715">
        <ele>2097.6</ele>
        <time>2021-10-03T06:15:55Z</time>
      </trkpt>
      <trkpt lat="45.6912" lon="6.88687">
        <ele>2096.8</ele>
        <time>2021-10-03T06:16:02Z</time>
      </trkpt>
      <trkpt lat="45.69117" lon="6.88678">
        <ele>2096.4</ele>
        <time>2021-10-03T06:16:04Z</time>
      </trkpt>
      <trkpt lat="45.69112" lon="6.88654">
        <ele>2095.8</ele>
        <time>2021-10-03T06:16:10Z</time>
      </trkpt>
      <trkpt lat="45.69115" lon="6.88626">
        <ele>2096.6</ele>
        <time>2021-10-03T06:16:17Z</time>
      </trkpt>
      <trkpt lat="45.69128" lon="6.88608">
        <ele>2096.6</ele>
        <time>2021-10-03T06:16:23Z</time>
      </trkpt>
      <trkpt lat="45.69147" lon="6.88597">
        <ele>2095.8</ele>
        <time>2021-10-03T06:16:29Z</time>
      </trkpt>
      <trkpt lat="45.69165" lon="6.88592">
        <ele>2095.4</ele>
        <time>2021-10-03T06:16:35Z</time>
      </trkpt>
      <trkpt lat="45.69168" lon="6.88592">
        <ele>2095.2</ele>
        <time>2021-10-03T06:16:36Z</time>
      </trkpt>
      <trkpt lat="45.69185" lon="6.88584">
        <ele>2094.4</ele>
        <time>2021-10-03T06:16:42Z</time>
      </trkpt>
      <trkpt lat="45.69197" lon="6.88565">
        <ele>2094.2</ele>
        <time>2021-10-03T06:16:48Z</time>
      </trkpt>
      <trkpt lat="45.69215" lon="6.88551">
        <ele>2095</ele>
        <time>2021-10-03T06:16:55Z</time>
      </trkpt>
      <trkpt lat="45.69234" lon="6.88549">
        <ele>2093.6</ele>
        <time>2021-10-03T06:17:01Z</time>
      </trkpt>
      <trkpt lat="45.69251" lon="6.88539">
        <ele>2093.4</ele>
        <time>2021-10-03T06:17:07Z</time>
      </trkpt>
      <trkpt lat="45.69256" lon="6.88535">
        <ele>2093.2</ele>
        <time>2021-10-03T06:17:09Z</time>
      </trkpt>
      <trkpt lat="45.6927" lon="6.88518">
        <ele>2092.8</ele>
        <time>2021-10-03T06:17:15Z</time>
      </trkpt>
      <trkpt lat="45.69284" lon="6.88502">
        <ele>2092.4</ele>
        <time>2021-10-03T06:17:21Z</time>
      </trkpt>
      <trkpt lat="45.69287" lon="6.885">
        <ele>2092</ele>
        <time>2021-10-03T06:17:22Z</time>
      </trkpt>
      <trkpt lat="45.69295" lon="6.88486">
        <ele>2091.2</ele>
        <time>2021-10-03T06:17:27Z</time>
      </trkpt>
      <trkpt lat="45.69294" lon="6.88481">
        <ele>2090.8</ele>
        <time>2021-10-03T06:17:28Z</time>
      </trkpt>
      <trkpt lat="45.69291" lon="6.88459">
        <ele>2089.6</ele>
        <time>2021-10-03T06:17:33Z</time>
      </trkpt>
      <trkpt lat="45.69299" lon="6.88437">
        <ele>2088.8</ele>
        <time>2021-10-03T06:17:39Z</time>
      </trkpt>
      <trkpt lat="45.69303" lon="6.88435">
        <ele>2088.6</ele>
        <time>2021-10-03T06:17:40Z</time>
      </trkpt>
      <trkpt lat="45.69321" lon="6.88437">
        <ele>2087.2</ele>
        <time>2021-10-03T06:17:45Z</time>
      </trkpt>
      <trkpt lat="45.69326" lon="6.88444">
        <ele>2086.2</ele>
        <time>2021-10-03T06:17:47Z</time>
      </trkpt>
      <trkpt lat="45.69331" lon="6.88451">
        <ele>2085.2</ele>
        <time>2021-10-03T06:17:49Z</time>
      </trkpt>
      <trkpt lat="45.69339" lon="6.88462">
        <ele>2084</ele>
        <time>2021-10-03T06:17:53Z</time>
      </trkpt>
      <trkpt lat="45.69349" lon="6.88463">
        <ele>2082.8</ele>
        <time>2021-10-03T06:17:57Z</time>
      </trkpt>
      <trkpt lat="45.69358" lon="6.8846">
        <ele>2081.4</ele>
        <time>2021-10-03T06:18:01Z</time>
      </trkpt>
      <trkpt lat="45.6936" lon="6.8846">
        <ele>2080.2</ele>
        <time>2021-10-03T06:18:03Z</time>
      </trkpt>
      <trkpt lat="45.69364" lon="6.88457">
        <ele>2079.2</ele>
        <time>2021-10-03T06:18:05Z</time>
      </trkpt>
      <trkpt lat="45.6937" lon="6.88455">
        <ele>2077.6</ele>
        <time>2021-10-03T06:18:07Z</time>
      </trkpt>
      <trkpt lat="45.69374" lon="6.88451">
        <ele>2075.6</ele>
        <time>2021-10-03T06:18:09Z</time>
      </trkpt>
      <trkpt lat="45.69376" lon="6.88447">
        <ele>2074.6</ele>
        <time>2021-10-03T06:18:10Z</time>
      </trkpt>
      <trkpt lat="45.69378" lon="6.88443">
        <ele>2073.4</ele>
        <time>2021-10-03T06:18:11Z</time>
      </trkpt>
      <trkpt lat="45.69382" lon="6.88435">
        <ele>2072</ele>
        <time>2021-10-03T06:18:13Z</time>
      </trkpt>
      <trkpt lat="45.69395" lon="6.88417">
        <ele>2071.8</ele>
        <time>2021-10-03T06:18:19Z</time>
      </trkpt>
      <trkpt lat="45.69402" lon="6.88408">
        <ele>2072.2</ele>
        <time>2021-10-03T06:18:22Z</time>
      </trkpt>
      <trkpt lat="45.69419" lon="6.88394">
        <ele>2071.6</ele>
        <time>2021-10-03T06:18:28Z</time>
      </trkpt>
      <trkpt lat="45.69431" lon="6.8838">
        <ele>2070.8</ele>
        <time>2021-10-03T06:18:33Z</time>
      </trkpt>
      <trkpt lat="45.69443" lon="6.88367">
        <ele>2069.6</ele>
        <time>2021-10-03T06:18:38Z</time>
      </trkpt>
      <trkpt lat="45.69453" lon="6.88342">
        <ele>2069</ele>
        <time>2021-10-03T06:18:45Z</time>
      </trkpt>
      <trkpt lat="45.69455" lon="6.88334">
        <ele>2068.6</ele>
        <time>2021-10-03T06:18:47Z</time>
      </trkpt>
      <trkpt lat="45.69463" lon="6.88315">
        <ele>2067.4</ele>
        <time>2021-10-03T06:18:52Z</time>
      </trkpt>
      <trkpt lat="45.69476" lon="6.88295">
        <ele>2066.6</ele>
        <time>2021-10-03T06:18:58Z</time>
      </trkpt>
      <trkpt lat="45.69479" lon="6.88293">
        <ele>2066.4</ele>
        <time>2021-10-03T06:18:59Z</time>
      </trkpt>
      <trkpt lat="45.69487" lon="6.88277">
        <ele>2065.4</ele>
        <time>2021-10-03T06:19:04Z</time>
      </trkpt>
      <trkpt lat="45.69498" lon="6.88264">
        <ele>2064.2</ele>
        <time>2021-10-03T06:19:09Z</time>
      </trkpt>
      <trkpt lat="45.6951" lon="6.88244">
        <ele>2063.8</ele>
        <time>2021-10-03T06:19:16Z</time>
      </trkpt>
      <trkpt lat="45.69513" lon="6.88235">
        <ele>2063</ele>
        <time>2021-10-03T06:19:19Z</time>
      </trkpt>
      <trkpt lat="45.69517" lon="6.88225">
        <ele>2062</ele>
        <time>2021-10-03T06:19:22Z</time>
      </trkpt>
      <trkpt lat="45.69525" lon="6.882">
        <ele>2061</ele>
        <time>2021-10-03T06:19:30Z</time>
      </trkpt>
      <trkpt lat="45.69526" lon="6.88196">
        <ele>2060.8</ele>
        <time>2021-10-03T06:19:31Z</time>
      </trkpt>
      <trkpt lat="45.6953" lon="6.88183">
        <ele>2059.4</ele>
        <time>2021-10-03T06:19:35Z</time>
      </trkpt>
      <trkpt lat="45.69542" lon="6.88165">
        <ele>2058.6</ele>
        <time>2021-10-03T06:19:42Z</time>
      </trkpt>
      <trkpt lat="45.69547" lon="6.88159">
        <ele>2058.2</ele>
        <time>2021-10-03T06:19:44Z</time>
      </trkpt>
      <trkpt lat="45.6956" lon="6.88141">
        <ele>2057</ele>
        <time>2021-10-03T06:19:50Z</time>
      </trkpt>
      <trkpt lat="45.69574" lon="6.8813">
        <ele>2055.6</ele>
        <time>2021-10-03T06:19:55Z</time>
      </trkpt>
      <trkpt lat="45.6959" lon="6.88117">
        <ele>2054.8</ele>
        <time>2021-10-03T06:20:01Z</time>
      </trkpt>
      <trkpt lat="45.69592" lon="6.88114">
        <ele>2054.4</ele>
        <time>2021-10-03T06:20:02Z</time>
      </trkpt>
      <trkpt lat="45.69602" lon="6.88105">
        <ele>2053.2</ele>
        <time>2021-10-03T06:20:06Z</time>
      </trkpt>
      <trkpt lat="45.69618" lon="6.8809">
        <ele>2052</ele>
        <time>2021-10-03T06:20:12Z</time>
      </trkpt>
      <trkpt lat="45.69628" lon="6.88082">
        <ele>2050.8</ele>
        <time>2021-10-03T06:20:16Z</time>
      </trkpt>
      <trkpt lat="45.69645" lon="6.88077">
        <ele>2049.6</ele>
        <time>2021-10-03T06:20:22Z</time>
      </trkpt>
      <trkpt lat="45.69658" lon="6.88078">
        <ele>2048.4</ele>
        <time>2021-10-03T06:20:27Z</time>
      </trkpt>
      <trkpt lat="45.69669" lon="6.88072">
        <ele>2047.2</ele>
        <time>2021-10-03T06:20:32Z</time>
      </trkpt>
      <trkpt lat="45.69679" lon="6.88064">
        <ele>2046.2</ele>
        <time>2021-10-03T06:20:38Z</time>
      </trkpt>
      <trkpt lat="45.6969" lon="6.88051">
        <ele>2045.2</ele>
        <time>2021-10-03T06:20:43Z</time>
      </trkpt>
      <trkpt lat="45.697" lon="6.88038">
        <ele>2044</ele>
        <time>2021-10-03T06:20:48Z</time>
      </trkpt>
      <trkpt lat="45.69709" lon="6.88031">
        <ele>2042.4</ele>
        <time>2021-10-03T06:20:52Z</time>
      </trkpt>
      <trkpt lat="45.69713" lon="6.88027">
        <ele>2040.6</ele>
        <time>2021-10-03T06:20:54Z</time>
      </trkpt>
      <trkpt lat="45.69716" lon="6.88026">
        <ele>2039.2</ele>
        <time>2021-10-03T06:20:56Z</time>
      </trkpt>
      <trkpt lat="45.69719" lon="6.88026">
        <ele>2038</ele>
        <time>2021-10-03T06:20:58Z</time>
      </trkpt>
      <trkpt lat="45.69723" lon="6.88026">
        <ele>2037</ele>
        <time>2021-10-03T06:21:00Z</time>
      </trkpt>
      <trkpt lat="45.69729" lon="6.88029">
        <ele>2035.6</ele>
        <time>2021-10-03T06:21:04Z</time>
      </trkpt>
      <trkpt lat="45.69732" lon="6.8803">
        <ele>2034.2</ele>
        <time>2021-10-03T06:21:06Z</time>
      </trkpt>
      <trkpt lat="45.69735" lon="6.88029">
        <ele>2033.4</ele>
        <time>2021-10-03T06:21:08Z</time>
      </trkpt>
      <trkpt lat="45.69736" lon="6.88028">
        <ele>2033</ele>
        <time>2021-10-03T06:21:09Z</time>
      </trkpt>
      <trkpt lat="45.69739" lon="6.88027">
        <ele>2031.8</ele>
        <time>2021-10-03T06:21:11Z</time>
      </trkpt>
      <trkpt lat="45.69741" lon="6.88026">
        <ele>2030</ele>
        <time>2021-10-03T06:21:13Z</time>
      </trkpt>
      <trkpt lat="45.69745" lon="6.88025">
        <ele>2028.8</ele>
        <time>2021-10-03T06:21:15Z</time>
      </trkpt>
      <trkpt lat="45.69749" lon="6.88023">
        <ele>2028.2</ele>
        <time>2021-10-03T06:21:17Z</time>
      </trkpt>
      <trkpt lat="45.69752" lon="6.88021">
        <ele>2027.6</ele>
        <time>2021-10-03T06:21:19Z</time>
      </trkpt>
      <trkpt lat="45.69756" lon="6.88021">
        <ele>2026.8</ele>
        <time>2021-10-03T06:21:21Z</time>
      </trkpt>
      <trkpt lat="45.69757" lon="6.88022">
        <ele>2026.4</ele>
        <time>2021-10-03T06:21:22Z</time>
      </trkpt>
      <trkpt lat="45.69758" lon="6.88022">
        <ele>2026</ele>
        <time>2021-10-03T06:21:23Z</time>
      </trkpt>
      <trkpt lat="45.6976" lon="6.88022">
        <ele>2025.4</ele>
        <time>2021-10-03T06:21:24Z</time>
      </trkpt>
      <trkpt lat="45.69761" lon="6.88024">
        <ele>2024.4</ele>
        <time>2021-10-03T06:21:25Z</time>
      </trkpt>
      <trkpt lat="45.69763" lon="6.88026">
        <ele>2023.6</ele>
        <time>2021-10-03T06:21:26Z</time>
      </trkpt>
      <trkpt lat="45.69768" lon="6.88027">
        <ele>2021.8</ele>
        <time>2021-10-03T06:21:28Z</time>
      </trkpt>
      <trkpt lat="45.69772" lon="6.88029">
        <ele>2020.2</ele>
        <time>2021-10-03T06:21:30Z</time>
      </trkpt>
      <trkpt lat="45.69776" lon="6.8803">
        <ele>2018.6</ele>
        <time>2021-10-03T06:21:32Z</time>
      </trkpt>
      <trkpt lat="45.69781" lon="6.88032">
        <ele>2017.4</ele>
        <time>2021-10-03T06:21:34Z</time>
      </trkpt>
      <trkpt lat="45.69785" lon="6.88033">
        <ele>2016.4</ele>
        <time>2021-10-03T06:21:36Z</time>
      </trkpt>
      <trkpt lat="45.6979" lon="6.88035">
        <ele>2015.2</ele>
        <time>2021-10-03T06:21:38Z</time>
      </trkpt>
      <trkpt lat="45.69794" lon="6.88039">
        <ele>2014.2</ele>
        <time>2021-10-03T06:21:40Z</time>
      </trkpt>
      <trkpt lat="45.69803" lon="6.88044">
        <ele>2013</ele>
        <time>2021-10-03T06:21:44Z</time>
      </trkpt>
      <trkpt lat="45.69812" lon="6.88047">
        <ele>2013.6</ele>
        <time>2021-10-03T06:21:48Z</time>
      </trkpt>
      <trkpt lat="45.69822" lon="6.88044">
        <ele>2014.2</ele>
        <time>2021-10-03T06:21:52Z</time>
      </trkpt>
      <trkpt lat="45.69836" lon="6.8803">
        <ele>2013.2</ele>
        <time>2021-10-03T06:21:59Z</time>
      </trkpt>
      <trkpt lat="45.69839" lon="6.88028">
        <ele>2013.2</ele>
        <time>2021-10-03T06:22:00Z</time>
      </trkpt>
      <trkpt lat="45.69844" lon="6.8802">
        <ele>2012</ele>
        <time>2021-10-03T06:22:04Z</time>
      </trkpt>
      <trkpt lat="45.69848" lon="6.88017">
        <ele>2010.6</ele>
        <time>2021-10-03T06:22:07Z</time>
      </trkpt>
      <trkpt lat="45.69852" lon="6.88011">
        <ele>2009.6</ele>
        <time>2021-10-03T06:22:10Z</time>
      </trkpt>
      <trkpt lat="45.69857" lon="6.88003">
        <ele>2008</ele>
        <time>2021-10-03T06:22:13Z</time>
      </trkpt>
      <trkpt lat="45.69861" lon="6.87995">
        <ele>2006.6</ele>
        <time>2021-10-03T06:22:16Z</time>
      </trkpt>
      <trkpt lat="45.69865" lon="6.87986">
        <ele>2005.4</ele>
        <time>2021-10-03T06:22:19Z</time>
      </trkpt>
      <trkpt lat="45.69871" lon="6.87978">
        <ele>2004.4</ele>
        <time>2021-10-03T06:22:22Z</time>
      </trkpt>
      <trkpt lat="45.69878" lon="6.87964">
        <ele>2003.2</ele>
        <time>2021-10-03T06:22:26Z</time>
      </trkpt>
      <trkpt lat="45.69884" lon="6.87953">
        <ele>2002.2</ele>
        <time>2021-10-03T06:22:30Z</time>
      </trkpt>
      <trkpt lat="45.6989" lon="6.87942">
        <ele>2000.8</ele>
        <time>2021-10-03T06:22:34Z</time>
      </trkpt>
      <trkpt lat="45.69897" lon="6.87933">
        <ele>1999.6</ele>
        <time>2021-10-03T06:22:38Z</time>
      </trkpt>
      <trkpt lat="45.69906" lon="6.87922">
        <ele>1998.8</ele>
        <time>2021-10-03T06:22:43Z</time>
      </trkpt>
      <trkpt lat="45.69923" lon="6.87914">
        <ele>2000</ele>
        <time>2021-10-03T06:22:51Z</time>
      </trkpt>
      <trkpt lat="45.69929" lon="6.87911">
        <ele>2000.6</ele>
        <time>2021-10-03T06:22:55Z</time>
      </trkpt>
      <trkpt lat="45.69932" lon="6.8791">
        <ele>2001</ele>
        <time>2021-10-03T06:22:56Z</time>
      </trkpt>
      <trkpt lat="45.69938" lon="6.87913">
        <ele>2002.2</ele>
        <time>2021-10-03T06:22:59Z</time>
      </trkpt>
      <trkpt lat="45.69941" lon="6.87915">
        <ele>2003.4</ele>
        <time>2021-10-03T06:23:01Z</time>
      </trkpt>
      <trkpt lat="45.69945" lon="6.87916">
        <ele>2005</ele>
        <time>2021-10-03T06:23:03Z</time>
      </trkpt>
      <trkpt lat="45.69947" lon="6.87915">
        <ele>2006.4</ele>
        <time>2021-10-03T06:23:05Z</time>
      </trkpt>
      <trkpt lat="45.69948" lon="6.8791">
        <ele>2007.4</ele>
        <time>2021-10-03T06:23:08Z</time>
      </trkpt>
      <trkpt lat="45.69966" lon="6.87899">
        <ele>2006.2</ele>
        <time>2021-10-03T06:23:18Z</time>
      </trkpt>
      <trkpt lat="45.69968" lon="6.87898">
        <ele>2006</ele>
        <time>2021-10-03T06:23:19Z</time>
      </trkpt>
      <trkpt lat="45.69981" lon="6.87891">
        <ele>2007.2</ele>
        <time>2021-10-03T06:23:27Z</time>
      </trkpt>
      <trkpt lat="45.69989" lon="6.87885">
        <ele>2008.6</ele>
        <time>2021-10-03T06:23:31Z</time>
      </trkpt>
      <trkpt lat="45.69998" lon="6.87878">
        <ele>2009</ele>
        <time>2021-10-03T06:23:35Z</time>
      </trkpt>
      <trkpt lat="45.70005" lon="6.87855">
        <ele>2008.2</ele>
        <time>2021-10-03T06:23:43Z</time>
      </trkpt>
      <trkpt lat="45.69996" lon="6.87831">
        <ele>2008</ele>
        <time>2021-10-03T06:23:49Z</time>
      </trkpt>
      <trkpt lat="45.69995" lon="6.87822">
        <ele>2007.6</ele>
        <time>2021-10-03T06:23:51Z</time>
      </trkpt>
      <trkpt lat="45.69996" lon="6.87808">
        <ele>2006.4</ele>
        <time>2021-10-03T06:23:54Z</time>
      </trkpt>
      <trkpt lat="45.69998" lon="6.87792">
        <ele>2005.2</ele>
        <time>2021-10-03T06:23:58Z</time>
      </trkpt>
      <trkpt lat="45.69999" lon="6.87779">
        <ele>2004</ele>
        <time>2021-10-03T06:24:01Z</time>
      </trkpt>
      <trkpt lat="45.70001" lon="6.87766">
        <ele>2002.8</ele>
        <time>2021-10-03T06:24:04Z</time>
      </trkpt>
      <trkpt lat="45.70003" lon="6.87754">
        <ele>2001.8</ele>
        <time>2021-10-03T06:24:07Z</time>
      </trkpt>
      <trkpt lat="45.7001" lon="6.87739">
        <ele>2000.4</ele>
        <time>2021-10-03T06:24:11Z</time>
      </trkpt>
      <trkpt lat="45.70013" lon="6.87723">
        <ele>1999.2</ele>
        <time>2021-10-03T06:24:15Z</time>
      </trkpt>
      <trkpt lat="45.70017" lon="6.8771">
        <ele>1998</ele>
        <time>2021-10-03T06:24:18Z</time>
      </trkpt>
      <trkpt lat="45.70029" lon="6.87694">
        <ele>1997.2</ele>
        <time>2021-10-03T06:24:23Z</time>
      </trkpt>
      <trkpt lat="45.7004" lon="6.87685">
        <ele>1996.8</ele>
        <time>2021-10-03T06:24:27Z</time>
      </trkpt>
      <trkpt lat="45.70048" lon="6.87679">
        <ele>1995.8</ele>
        <time>2021-10-03T06:24:30Z</time>
      </trkpt>
      <trkpt lat="45.70065" lon="6.87667">
        <ele>1995</ele>
        <time>2021-10-03T06:24:36Z</time>
      </trkpt>
      <trkpt lat="45.70069" lon="6.87663">
        <ele>1994.6</ele>
        <time>2021-10-03T06:24:38Z</time>
      </trkpt>
      <trkpt lat="45.70087" lon="6.87654">
        <ele>1993.4</ele>
        <time>2021-10-03T06:24:45Z</time>
      </trkpt>
      <trkpt lat="45.70101" lon="6.87666">
        <ele>1992.2</ele>
        <time>2021-10-03T06:24:50Z</time>
      </trkpt>
      <trkpt lat="45.70104" lon="6.87684">
        <ele>1991</ele>
        <time>2021-10-03T06:24:54Z</time>
      </trkpt>
      <trkpt lat="45.70104" lon="6.87699">
        <ele>1989.6</ele>
        <time>2021-10-03T06:24:57Z</time>
      </trkpt>
      <trkpt lat="45.70104" lon="6.87713">
        <ele>1988.4</ele>
        <time>2021-10-03T06:25:00Z</time>
      </trkpt>
      <trkpt lat="45.70104" lon="6.87729">
        <ele>1987.4</ele>
        <time>2021-10-03T06:25:03Z</time>
      </trkpt>
      <trkpt lat="45.70106" lon="6.87744">
        <ele>1986.2</ele>
        <time>2021-10-03T06:25:06Z</time>
      </trkpt>
      <trkpt lat="45.7011" lon="6.87756">
        <ele>1984.8</ele>
        <time>2021-10-03T06:25:09Z</time>
      </trkpt>
      <trkpt lat="45.70114" lon="6.87764">
        <ele>1983.8</ele>
        <time>2021-10-03T06:25:11Z</time>
      </trkpt>
      <trkpt lat="45.70118" lon="6.87771">
        <ele>1982.6</ele>
        <time>2021-10-03T06:25:13Z</time>
      </trkpt>
      <trkpt lat="45.70123" lon="6.87783">
        <ele>1981.2</ele>
        <time>2021-10-03T06:25:16Z</time>
      </trkpt>
      <trkpt lat="45.70126" lon="6.87791">
        <ele>1980</ele>
        <time>2021-10-03T06:25:18Z</time>
      </trkpt>
      <trkpt lat="45.70129" lon="6.87805">
        <ele>1978.8</ele>
        <time>2021-10-03T06:25:21Z</time>
      </trkpt>
      <trkpt lat="45.70131" lon="6.87815">
        <ele>1977.8</ele>
        <time>2021-10-03T06:25:23Z</time>
      </trkpt>
      <trkpt lat="45.70131" lon="6.87825">
        <ele>1976.8</ele>
        <time>2021-10-03T06:25:25Z</time>
      </trkpt>
      <trkpt lat="45.70131" lon="6.87841">
        <ele>1975.6</ele>
        <time>2021-10-03T06:25:28Z</time>
      </trkpt>
      <trkpt lat="45.7013" lon="6.87863">
        <ele>1974.2</ele>
        <time>2021-10-03T06:25:32Z</time>
      </trkpt>
      <trkpt lat="45.7013" lon="6.87878">
        <ele>1973</ele>
        <time>2021-10-03T06:25:35Z</time>
      </trkpt>
      <trkpt lat="45.7013" lon="6.87893">
        <ele>1971.8</ele>
        <time>2021-10-03T06:25:38Z</time>
      </trkpt>
      <trkpt lat="45.70128" lon="6.87913">
        <ele>1970.6</ele>
        <time>2021-10-03T06:25:42Z</time>
      </trkpt>
      <trkpt lat="45.70125" lon="6.87923">
        <ele>1969.6</ele>
        <time>2021-10-03T06:25:44Z</time>
      </trkpt>
      <trkpt lat="45.70122" lon="6.87932">
        <ele>1968.2</ele>
        <time>2021-10-03T06:25:46Z</time>
      </trkpt>
      <trkpt lat="45.70119" lon="6.8794">
        <ele>1967.2</ele>
        <time>2021-10-03T06:25:48Z</time>
      </trkpt>
      <trkpt lat="45.70116" lon="6.87953">
        <ele>1966</ele>
        <time>2021-10-03T06:25:51Z</time>
      </trkpt>
      <trkpt lat="45.70112" lon="6.87968">
        <ele>1965</ele>
        <time>2021-10-03T06:25:54Z</time>
      </trkpt>
      <trkpt lat="45.70106" lon="6.87986">
        <ele>1963.8</ele>
        <time>2021-10-03T06:25:58Z</time>
      </trkpt>
      <trkpt lat="45.70101" lon="6.88002">
        <ele>1962.4</ele>
        <time>2021-10-03T06:26:02Z</time>
      </trkpt>
      <trkpt lat="45.70096" lon="6.88016">
        <ele>1961.2</ele>
        <time>2021-10-03T06:26:05Z</time>
      </trkpt>
      <trkpt lat="45.70086" lon="6.8804">
        <ele>1960.4</ele>
        <time>2021-10-03T06:26:11Z</time>
      </trkpt>
      <trkpt lat="45.70084" lon="6.88044">
        <ele>1960.2</ele>
        <time>2021-10-03T06:26:12Z</time>
      </trkpt>
      <trkpt lat="45.70075" lon="6.88065">
        <ele>1958.8</ele>
        <time>2021-10-03T06:26:17Z</time>
      </trkpt>
      <trkpt lat="45.70068" lon="6.88082">
        <ele>1957.8</ele>
        <time>2021-10-03T06:26:21Z</time>
      </trkpt>
      <trkpt lat="45.70059" lon="6.88108">
        <ele>1957</ele>
        <time>2021-10-03T06:26:27Z</time>
      </trkpt>
      <trkpt lat="45.70057" lon="6.88111">
        <ele>1956.6</ele>
        <time>2021-10-03T06:26:28Z</time>
      </trkpt>
      <trkpt lat="45.70052" lon="6.88124">
        <ele>1955.6</ele>
        <time>2021-10-03T06:26:32Z</time>
      </trkpt>
      <trkpt lat="45.70044" lon="6.8814">
        <ele>1954.2</ele>
        <time>2021-10-03T06:26:37Z</time>
      </trkpt>
      <trkpt lat="45.70041" lon="6.88147">
        <ele>1953</ele>
        <time>2021-10-03T06:26:39Z</time>
      </trkpt>
      <trkpt lat="45.70038" lon="6.88153">
        <ele>1951.6</ele>
        <time>2021-10-03T06:26:41Z</time>
      </trkpt>
      <trkpt lat="45.70035" lon="6.88158">
        <ele>1949.8</ele>
        <time>2021-10-03T06:26:43Z</time>
      </trkpt>
      <trkpt lat="45.70034" lon="6.88166">
        <ele>1948.2</ele>
        <time>2021-10-03T06:26:45Z</time>
      </trkpt>
      <trkpt lat="45.70031" lon="6.88176">
        <ele>1946.8</ele>
        <time>2021-10-03T06:26:47Z</time>
      </trkpt>
      <trkpt lat="45.70028" lon="6.88183">
        <ele>1945.6</ele>
        <time>2021-10-03T06:26:49Z</time>
      </trkpt>
      <trkpt lat="45.70025" lon="6.88185">
        <ele>1945</ele>
        <time>2021-10-03T06:26:50Z</time>
      </trkpt>
      <trkpt lat="45.70011" lon="6.8819">
        <ele>1944.4</ele>
        <time>2021-10-03T06:26:54Z</time>
      </trkpt>
      <trkpt lat="45.69994" lon="6.882">
        <ele>1944.2</ele>
        <time>2021-10-03T06:27:00Z</time>
      </trkpt>
      <trkpt lat="45.6998" lon="6.88218">
        <ele>1944</ele>
        <time>2021-10-03T06:27:06Z</time>
      </trkpt>
      <trkpt lat="45.69967" lon="6.88238">
        <ele>1944.2</ele>
        <time>2021-10-03T06:27:12Z</time>
      </trkpt>
      <trkpt lat="45.69954" lon="6.88258">
        <ele>1944.6</ele>
        <time>2021-10-03T06:27:18Z</time>
      </trkpt>
      <trkpt lat="45.69944" lon="6.88276">
        <ele>1945.6</ele>
        <time>2021-10-03T06:27:24Z</time>
      </trkpt>
      <trkpt lat="45.69934" lon="6.88302">
        <ele>1946.4</ele>
        <time>2021-10-03T06:27:31Z</time>
      </trkpt>
      <trkpt lat="45.69927" lon="6.88327">
        <ele>1946.2</ele>
        <time>2021-10-03T06:27:37Z</time>
      </trkpt>
      <trkpt lat="45.69924" lon="6.8834">
        <ele>1946.6</ele>
        <time>2021-10-03T06:27:40Z</time>
      </trkpt>
      <trkpt lat="45.6992" lon="6.88367">
        <ele>1946</ele>
        <time>2021-10-03T06:27:46Z</time>
      </trkpt>
      <trkpt lat="45.69916" lon="6.88384">
        <ele>1945.4</ele>
        <time>2021-10-03T06:27:50Z</time>
      </trkpt>
      <trkpt lat="45.69913" lon="6.88407">
        <ele>1944.4</ele>
        <time>2021-10-03T06:27:55Z</time>
      </trkpt>
      <trkpt lat="45.69911" lon="6.8843">
        <ele>1943.2</ele>
        <time>2021-10-03T06:28:00Z</time>
      </trkpt>
      <trkpt lat="45.69912" lon="6.8846">
        <ele>1941.8</ele>
        <time>2021-10-03T06:28:06Z</time>
      </trkpt>
      <trkpt lat="45.69913" lon="6.88473">
        <ele>1940.8</ele>
        <time>2021-10-03T06:28:09Z</time>
      </trkpt>
      <trkpt lat="45.69916" lon="6.88496">
        <ele>1939.6</ele>
        <time>2021-10-03T06:28:14Z</time>
      </trkpt>
      <trkpt lat="45.69916" lon="6.88524">
        <ele>1938.8</ele>
        <time>2021-10-03T06:28:20Z</time>
      </trkpt>
      <trkpt lat="45.69915" lon="6.88528">
        <ele>1938.6</ele>
        <time>2021-10-03T06:28:21Z</time>
      </trkpt>
      <trkpt lat="45.6991" lon="6.88551">
        <ele>1937.4</ele>
        <time>2021-10-03T06:28:26Z</time>
      </trkpt>
      <trkpt lat="45.69909" lon="6.88565">
        <ele>1936.2</ele>
        <time>2021-10-03T06:28:29Z</time>
      </trkpt>
      <trkpt lat="45.69907" lon="6.88575">
        <ele>1935.2</ele>
        <time>2021-10-03T06:28:31Z</time>
      </trkpt>
      <trkpt lat="45.69903" lon="6.88594">
        <ele>1934</ele>
        <time>2021-10-03T06:28:35Z</time>
      </trkpt>
      <trkpt lat="45.69897" lon="6.88616">
        <ele>1932.8</ele>
        <time>2021-10-03T06:28:40Z</time>
      </trkpt>
      <trkpt lat="45.6989" lon="6.88632">
        <ele>1931.8</ele>
        <time>2021-10-03T06:28:44Z</time>
      </trkpt>
      <trkpt lat="45.6988" lon="6.88654">
        <ele>1931.2</ele>
        <time>2021-10-03T06:28:50Z</time>
      </trkpt>
      <trkpt lat="45.69875" lon="6.88665">
        <ele>1930.8</ele>
        <time>2021-10-03T06:28:53Z</time>
      </trkpt>
      <trkpt lat="45.69866" lon="6.88689">
        <ele>1930</ele>
        <time>2021-10-03T06:28:59Z</time>
      </trkpt>
      <trkpt lat="45.69864" lon="6.88697">
        <ele>1929.8</ele>
        <time>2021-10-03T06:29:01Z</time>
      </trkpt>
      <trkpt lat="45.69859" lon="6.88723">
        <ele>1928.8</ele>
        <time>2021-10-03T06:29:07Z</time>
      </trkpt>
      <trkpt lat="45.69859" lon="6.88728">
        <ele>1928.6</ele>
        <time>2021-10-03T06:29:08Z</time>
      </trkpt>
      <trkpt lat="45.6986" lon="6.88754">
        <ele>1928.2</ele>
        <time>2021-10-03T06:29:13Z</time>
      </trkpt>
      <trkpt lat="45.69865" lon="6.88773">
        <ele>1927.4</ele>
        <time>2021-10-03T06:29:17Z</time>
      </trkpt>
      <trkpt lat="45.69874" lon="6.88794">
        <ele>1926.2</ele>
        <time>2021-10-03T06:29:22Z</time>
      </trkpt>
      <trkpt lat="45.69884" lon="6.8882">
        <ele>1925.2</ele>
        <time>2021-10-03T06:29:28Z</time>
      </trkpt>
      <trkpt lat="45.69891" lon="6.88838">
        <ele>1924</ele>
        <time>2021-10-03T06:29:32Z</time>
      </trkpt>
      <trkpt lat="45.69898" lon="6.88856">
        <ele>1922.8</ele>
        <time>2021-10-03T06:29:36Z</time>
      </trkpt>
      <trkpt lat="45.69906" lon="6.88877">
        <ele>1921.6</ele>
        <time>2021-10-03T06:29:41Z</time>
      </trkpt>
      <trkpt lat="45.69912" lon="6.8889">
        <ele>1920.4</ele>
        <time>2021-10-03T06:29:44Z</time>
      </trkpt>
      <trkpt lat="45.69915" lon="6.88898">
        <ele>1919.4</ele>
        <time>2021-10-03T06:29:46Z</time>
      </trkpt>
      <trkpt lat="45.69921" lon="6.88914">
        <ele>1918.4</ele>
        <time>2021-10-03T06:29:50Z</time>
      </trkpt>
      <trkpt lat="45.69927" lon="6.88934">
        <ele>1917.2</ele>
        <time>2021-10-03T06:29:55Z</time>
      </trkpt>
      <trkpt lat="45.69933" lon="6.88946">
        <ele>1916</ele>
        <time>2021-10-03T06:29:58Z</time>
      </trkpt>
      <trkpt lat="45.69941" lon="6.88973">
        <ele>1914.8</ele>
        <time>2021-10-03T06:30:04Z</time>
      </trkpt>
      <trkpt lat="45.69944" lon="6.88988">
        <ele>1913.8</ele>
        <time>2021-10-03T06:30:07Z</time>
      </trkpt>
      <trkpt lat="45.69944" lon="6.89003">
        <ele>1912.8</ele>
        <time>2021-10-03T06:30:10Z</time>
      </trkpt>
      <trkpt lat="45.69944" lon="6.89008">
        <ele>1912.6</ele>
        <time>2021-10-03T06:30:11Z</time>
      </trkpt>
      <trkpt lat="45.69942" lon="6.89034">
        <ele>1911.6</ele>
        <time>2021-10-03T06:30:17Z</time>
      </trkpt>
      <trkpt lat="45.6994" lon="6.89052">
        <ele>1911.4</ele>
        <time>2021-10-03T06:30:21Z</time>
      </trkpt>
      <trkpt lat="45.69936" lon="6.89078">
        <ele>1911</ele>
        <time>2021-10-03T06:30:27Z</time>
      </trkpt>
      <trkpt lat="45.69933" lon="6.89104">
        <ele>1911.4</ele>
        <time>2021-10-03T06:30:33Z</time>
      </trkpt>
      <trkpt lat="45.69932" lon="6.89134">
        <ele>1911.2</ele>
        <time>2021-10-03T06:30:40Z</time>
      </trkpt>
      <trkpt lat="45.69931" lon="6.8916">
        <ele>1911.2</ele>
        <time>2021-10-03T06:30:46Z</time>
      </trkpt>
      <trkpt lat="45.69932" lon="6.89185">
        <ele>1910.4</ele>
        <time>2021-10-03T06:30:51Z</time>
      </trkpt>
      <trkpt lat="45.69937" lon="6.89213">
        <ele>1910.4</ele>
        <time>2021-10-03T06:30:57Z</time>
      </trkpt>
      <trkpt lat="45.69942" lon="6.89242">
        <ele>1909.8</ele>
        <time>2021-10-03T06:31:03Z</time>
      </trkpt>
      <trkpt lat="45.69949" lon="6.89267">
        <ele>1909.8</ele>
        <time>2021-10-03T06:31:09Z</time>
      </trkpt>
      <trkpt lat="45.69953" lon="6.89287">
        <ele>1909.4</ele>
        <time>2021-10-03T06:31:14Z</time>
      </trkpt>
      <trkpt lat="45.69961" lon="6.89311">
        <ele>1909.2</ele>
        <time>2021-10-03T06:31:20Z</time>
      </trkpt>
      <trkpt lat="45.69969" lon="6.89337">
        <ele>1909.2</ele>
        <time>2021-10-03T06:31:26Z</time>
      </trkpt>
      <trkpt lat="45.69978" lon="6.89361">
        <ele>1908.8</ele>
        <time>2021-10-03T06:31:33Z</time>
      </trkpt>
      <trkpt lat="45.69989" lon="6.89385">
        <ele>1908.8</ele>
        <time>2021-10-03T06:31:40Z</time>
      </trkpt>
      <trkpt lat="45.70004" lon="6.89406">
        <ele>1908.8</ele>
        <time>2021-10-03T06:31:46Z</time>
      </trkpt>
      <trkpt lat="45.70008" lon="6.89412">
        <ele>1908.2</ele>
        <time>2021-10-03T06:31:48Z</time>
      </trkpt>
      <trkpt lat="45.70013" lon="6.89418">
        <ele>1907.2</ele>
        <time>2021-10-03T06:31:50Z</time>
      </trkpt>
      <trkpt lat="45.70026" lon="6.89438">
        <ele>1906.2</ele>
        <time>2021-10-03T06:31:56Z</time>
      </trkpt>
      <trkpt lat="45.7003" lon="6.89446">
        <ele>1906.2</ele>
        <time>2021-10-03T06:31:58Z</time>
      </trkpt>
      <trkpt lat="45.70043" lon="6.89464">
        <ele>1904.8</ele>
        <time>2021-10-03T06:32:04Z</time>
      </trkpt>
      <trkpt lat="45.7005" lon="6.8947">
        <ele>1903.8</ele>
        <time>2021-10-03T06:32:07Z</time>
      </trkpt>
      <trkpt lat="45.70058" lon="6.89476">
        <ele>1902.8</ele>
        <time>2021-10-03T06:32:10Z</time>
      </trkpt>
      <trkpt lat="45.70067" lon="6.89482">
        <ele>1901.6</ele>
        <time>2021-10-03T06:32:13Z</time>
      </trkpt>
      <trkpt lat="45.70083" lon="6.89494">
        <ele>1900.6</ele>
        <time>2021-10-03T06:32:19Z</time>
      </trkpt>
      <trkpt lat="45.70088" lon="6.89498">
        <ele>1900.6</ele>
        <time>2021-10-03T06:32:21Z</time>
      </trkpt>
      <trkpt lat="45.70104" lon="6.89512">
        <ele>1899.6</ele>
        <time>2021-10-03T06:32:27Z</time>
      </trkpt>
      <trkpt lat="45.70111" lon="6.89521">
        <ele>1898.4</ele>
        <time>2021-10-03T06:32:30Z</time>
      </trkpt>
      <trkpt lat="45.7012" lon="6.89544">
        <ele>1897.6</ele>
        <time>2021-10-03T06:32:36Z</time>
      </trkpt>
      <trkpt lat="45.70123" lon="6.89557">
        <ele>1897.4</ele>
        <time>2021-10-03T06:32:39Z</time>
      </trkpt>
      <trkpt lat="45.70129" lon="6.89583">
        <ele>1896</ele>
        <time>2021-10-03T06:32:45Z</time>
      </trkpt>
      <trkpt lat="45.70132" lon="6.896">
        <ele>1895</ele>
        <time>2021-10-03T06:32:49Z</time>
      </trkpt>
      <trkpt lat="45.70138" lon="6.89628">
        <ele>1894.2</ele>
        <time>2021-10-03T06:32:56Z</time>
      </trkpt>
      <trkpt lat="45.70142" lon="6.89654">
        <ele>1894.2</ele>
        <time>2021-10-03T06:33:02Z</time>
      </trkpt>
      <trkpt lat="45.70145" lon="6.89667">
        <ele>1893.8</ele>
        <time>2021-10-03T06:33:05Z</time>
      </trkpt>
      <trkpt lat="45.7015" lon="6.89692">
        <ele>1893.4</ele>
        <time>2021-10-03T06:33:11Z</time>
      </trkpt>
      <trkpt lat="45.70153" lon="6.8971">
        <ele>1892.8</ele>
        <time>2021-10-03T06:33:15Z</time>
      </trkpt>
      <trkpt lat="45.70157" lon="6.89736">
        <ele>1892.6</ele>
        <time>2021-10-03T06:33:21Z</time>
      </trkpt>
      <trkpt lat="45.70162" lon="6.89762">
        <ele>1892.6</ele>
        <time>2021-10-03T06:33:27Z</time>
      </trkpt>
      <trkpt lat="45.70167" lon="6.89788">
        <ele>1892.2</ele>
        <time>2021-10-03T06:33:33Z</time>
      </trkpt>
      <trkpt lat="45.70171" lon="6.898">
        <ele>1891.6</ele>
        <time>2021-10-03T06:33:36Z</time>
      </trkpt>
      <trkpt lat="45.70179" lon="6.89823">
        <ele>1890.6</ele>
        <time>2021-10-03T06:33:42Z</time>
      </trkpt>
      <trkpt lat="45.7019" lon="6.89844">
        <ele>1889.8</ele>
        <time>2021-10-03T06:33:49Z</time>
      </trkpt>
      <trkpt lat="45.70192" lon="6.89845">
        <ele>1889.6</ele>
        <time>2021-10-03T06:33:50Z</time>
      </trkpt>
      <trkpt lat="45.70193" lon="6.89845">
        <ele>1889.2</ele>
        <time>2021-10-03T06:33:51Z</time>
      </trkpt>
      <trkpt lat="45.70193" lon="6.89846">
        <ele>1888.6</ele>
        <time>2021-10-03T06:33:53Z</time>
      </trkpt>
      <trkpt lat="45.70193" lon="6.89844">
        <ele>1888.2</ele>
        <time>2021-10-03T06:33:57Z</time>
      </trkpt>
      <trkpt lat="45.70193" lon="6.89847">
        <ele>1888.2</ele>
        <time>2021-10-03T06:34:21Z</time>
      </trkpt>
      <trkpt lat="45.70193" lon="6.8985">
        <ele>1888.2</ele>
        <time>2021-10-03T06:34:24Z</time>
      </trkpt>
      <trkpt lat="45.70197" lon="6.8985">
        <ele>1887.2</ele>
        <time>2021-10-03T06:34:34Z</time>
      </trkpt>
      <trkpt lat="45.70202" lon="6.89858">
        <ele>1887</ele>
        <time>2021-10-03T06:34:40Z</time>
      </trkpt>
      <trkpt lat="45.70212" lon="6.89868">
        <ele>1886.4</ele>
        <time>2021-10-03T06:34:44Z</time>
      </trkpt>
      <trkpt lat="45.70214" lon="6.89871">
        <ele>1886</ele>
        <time>2021-10-03T06:34:45Z</time>
      </trkpt>
      <trkpt lat="45.70224" lon="6.89878">
        <ele>1884.8</ele>
        <time>2021-10-03T06:34:48Z</time>
      </trkpt>
      <trkpt lat="45.70235" lon="6.89885">
        <ele>1883.6</ele>
        <time>2021-10-03T06:34:51Z</time>
      </trkpt>
      <trkpt lat="45.70245" lon="6.89892">
        <ele>1882.4</ele>
        <time>2021-10-03T06:34:54Z</time>
      </trkpt>
      <trkpt lat="45.70254" lon="6.899">
        <ele>1881</ele>
        <time>2021-10-03T06:34:57Z</time>
      </trkpt>
      <trkpt lat="45.7026" lon="6.89904">
        <ele>1879.8</ele>
        <time>2021-10-03T06:34:59Z</time>
      </trkpt>
      <trkpt lat="45.7027" lon="6.89912">
        <ele>1878.8</ele>
        <time>2021-10-03T06:35:02Z</time>
      </trkpt>
      <trkpt lat="45.70278" lon="6.89919">
        <ele>1877.6</ele>
        <time>2021-10-03T06:35:05Z</time>
      </trkpt>
      <trkpt lat="45.70283" lon="6.89924">
        <ele>1876.2</ele>
        <time>2021-10-03T06:35:07Z</time>
      </trkpt>
      <trkpt lat="45.70291" lon="6.89933">
        <ele>1874.8</ele>
        <time>2021-10-03T06:35:10Z</time>
      </trkpt>
      <trkpt lat="45.70296" lon="6.89938">
        <ele>1873.8</ele>
        <time>2021-10-03T06:35:12Z</time>
      </trkpt>
      <trkpt lat="45.70303" lon="6.89946">
        <ele>1872</ele>
        <time>2021-10-03T06:35:15Z</time>
      </trkpt>
      <trkpt lat="45.70306" lon="6.89952">
        <ele>1870.8</ele>
        <time>2021-10-03T06:35:17Z</time>
      </trkpt>
      <trkpt lat="45.70315" lon="6.89964">
        <ele>1869.6</ele>
        <time>2021-10-03T06:35:21Z</time>
      </trkpt>
      <trkpt lat="45.70327" lon="6.89978">
        <ele>1868.2</ele>
        <time>2021-10-03T06:35:25Z</time>
      </trkpt>
      <trkpt lat="45.70334" lon="6.89991">
        <ele>1867.2</ele>
        <time>2021-10-03T06:35:28Z</time>
      </trkpt>
      <trkpt lat="45.70348" lon="6.90006">
        <ele>1865.8</ele>
        <time>2021-10-03T06:35:32Z</time>
      </trkpt>
      <trkpt lat="45.70357" lon="6.90017">
        <ele>1864.6</ele>
        <time>2021-10-03T06:35:35Z</time>
      </trkpt>
      <trkpt lat="45.70365" lon="6.90032">
        <ele>1863</ele>
        <time>2021-10-03T06:35:39Z</time>
      </trkpt>
      <trkpt lat="45.70371" lon="6.90039">
        <ele>1862</ele>
        <time>2021-10-03T06:35:41Z</time>
      </trkpt>
      <trkpt lat="45.70377" lon="6.90045">
        <ele>1860.8</ele>
        <time>2021-10-03T06:35:43Z</time>
      </trkpt>
      <trkpt lat="45.70386" lon="6.90052">
        <ele>1859.8</ele>
        <time>2021-10-03T06:35:46Z</time>
      </trkpt>
      <trkpt lat="45.70395" lon="6.9006">
        <ele>1858.8</ele>
        <time>2021-10-03T06:35:49Z</time>
      </trkpt>
      <trkpt lat="45.70404" lon="6.90068">
        <ele>1857.4</ele>
        <time>2021-10-03T06:35:52Z</time>
      </trkpt>
      <trkpt lat="45.70412" lon="6.90073">
        <ele>1856.4</ele>
        <time>2021-10-03T06:35:54Z</time>
      </trkpt>
      <trkpt lat="45.7042" lon="6.9008">
        <ele>1854.8</ele>
        <time>2021-10-03T06:35:57Z</time>
      </trkpt>
      <trkpt lat="45.70429" lon="6.90086">
        <ele>1853.6</ele>
        <time>2021-10-03T06:36:00Z</time>
      </trkpt>
      <trkpt lat="45.70438" lon="6.90092">
        <ele>1852.6</ele>
        <time>2021-10-03T06:36:03Z</time>
      </trkpt>
      <trkpt lat="45.70447" lon="6.901">
        <ele>1851.6</ele>
        <time>2021-10-03T06:36:06Z</time>
      </trkpt>
      <trkpt lat="45.70454" lon="6.9011">
        <ele>1850.4</ele>
        <time>2021-10-03T06:36:09Z</time>
      </trkpt>
      <trkpt lat="45.70463" lon="6.90125">
        <ele>1849.4</ele>
        <time>2021-10-03T06:36:13Z</time>
      </trkpt>
      <trkpt lat="45.70479" lon="6.90143">
        <ele>1848.4</ele>
        <time>2021-10-03T06:36:18Z</time>
      </trkpt>
      <trkpt lat="45.70482" lon="6.90146">
        <ele>1848</ele>
        <time>2021-10-03T06:36:19Z</time>
      </trkpt>
      <trkpt lat="45.70497" lon="6.90164">
        <ele>1847.2</ele>
        <time>2021-10-03T06:36:25Z</time>
      </trkpt>
      <trkpt lat="45.70514" lon="6.9018">
        <ele>1847.6</ele>
        <time>2021-10-03T06:36:31Z</time>
      </trkpt>
      <trkpt lat="45.70528" lon="6.90198">
        <ele>1848</ele>
        <time>2021-10-03T06:36:38Z</time>
      </trkpt>
      <trkpt lat="45.7054" lon="6.90213">
        <ele>1849.4</ele>
        <time>2021-10-03T06:36:44Z</time>
      </trkpt>
      <trkpt lat="45.70545" lon="6.9022">
        <ele>1850</ele>
        <time>2021-10-03T06:36:47Z</time>
      </trkpt>
      <trkpt lat="45.70547" lon="6.90231">
        <ele>1850.4</ele>
        <time>2021-10-03T06:36:51Z</time>
      </trkpt>
      <trkpt lat="45.70552" lon="6.90248">
        <ele>1851.8</ele>
        <time>2021-10-03T06:36:57Z</time>
      </trkpt>
      <trkpt lat="45.70559" lon="6.90259">
        <ele>1852.8</ele>
        <time>2021-10-03T06:37:02Z</time>
      </trkpt>
      <trkpt lat="45.70565" lon="6.90264">
        <ele>1854.2</ele>
        <time>2021-10-03T06:37:06Z</time>
      </trkpt>
      <trkpt lat="45.70575" lon="6.90269">
        <ele>1855.4</ele>
        <time>2021-10-03T06:37:11Z</time>
      </trkpt>
      <trkpt lat="45.70588" lon="6.90275">
        <ele>1856.4</ele>
        <time>2021-10-03T06:37:16Z</time>
      </trkpt>
      <trkpt lat="45.70597" lon="6.9028">
        <ele>1857.6</ele>
        <time>2021-10-03T06:37:20Z</time>
      </trkpt>
      <trkpt lat="45.70602" lon="6.90284">
        <ele>1858.8</ele>
        <time>2021-10-03T06:37:23Z</time>
      </trkpt>
      <trkpt lat="45.70609" lon="6.90288">
        <ele>1859.8</ele>
        <time>2021-10-03T06:37:27Z</time>
      </trkpt>
      <trkpt lat="45.70612" lon="6.90292">
        <ele>1860.4</ele>
        <time>2021-10-03T06:37:29Z</time>
      </trkpt>
      <trkpt lat="45.70615" lon="6.90295">
        <ele>1861</ele>
        <time>2021-10-03T06:37:31Z</time>
      </trkpt>
      <trkpt lat="45.70628" lon="6.90304">
        <ele>1862.2</ele>
        <time>2021-10-03T06:37:36Z</time>
      </trkpt>
      <trkpt lat="45.70635" lon="6.90316">
        <ele>1863.4</ele>
        <time>2021-10-03T06:37:41Z</time>
      </trkpt>
      <trkpt lat="45.70644" lon="6.90332">
        <ele>1864.6</ele>
        <time>2021-10-03T06:37:47Z</time>
      </trkpt>
      <trkpt lat="45.70652" lon="6.90344">
        <ele>1865.6</ele>
        <time>2021-10-03T06:37:54Z</time>
      </trkpt>
      <trkpt lat="45.70653" lon="6.90352">
        <ele>1866.2</ele>
        <time>2021-10-03T06:37:58Z</time>
      </trkpt>
      <trkpt lat="45.70653" lon="6.90354">
        <ele>1866.8</ele>
        <time>2021-10-03T06:37:59Z</time>
      </trkpt>
      <trkpt lat="45.70654" lon="6.90355">
        <ele>1867.2</ele>
        <time>2021-10-03T06:38:00Z</time>
      </trkpt>
      <trkpt lat="45.70656" lon="6.90357">
        <ele>1867.6</ele>
        <time>2021-10-03T06:38:02Z</time>
      </trkpt>
      <trkpt lat="45.70664" lon="6.90361">
        <ele>1867.6</ele>
        <time>2021-10-03T06:38:07Z</time>
      </trkpt>
      <trkpt lat="45.70665" lon="6.90363">
        <ele>1867.8</ele>
        <time>2021-10-03T06:38:08Z</time>
      </trkpt>
      <trkpt lat="45.70668" lon="6.90366">
        <ele>1869</ele>
        <time>2021-10-03T06:38:11Z</time>
      </trkpt>
      <trkpt lat="45.70672" lon="6.90371">
        <ele>1870.2</ele>
        <time>2021-10-03T06:38:14Z</time>
      </trkpt>
      <trkpt lat="45.70682" lon="6.9038">
        <ele>1871.2</ele>
        <time>2021-10-03T06:38:21Z</time>
      </trkpt>
      <trkpt lat="45.70682" lon="6.90383">
        <ele>1871.6</ele>
        <time>2021-10-03T06:38:22Z</time>
      </trkpt>
      <trkpt lat="45.70684" lon="6.90391">
        <ele>1872.6</ele>
        <time>2021-10-03T06:38:25Z</time>
      </trkpt>
      <trkpt lat="45.70686" lon="6.90404">
        <ele>1873.6</ele>
        <time>2021-10-03T06:38:29Z</time>
      </trkpt>
      <trkpt lat="45.70691" lon="6.90417">
        <ele>1875</ele>
        <time>2021-10-03T06:38:33Z</time>
      </trkpt>
      <trkpt lat="45.70697" lon="6.90432">
        <ele>1876</ele>
        <time>2021-10-03T06:38:38Z</time>
      </trkpt>
      <trkpt lat="45.70699" lon="6.90435">
        <ele>1876.2</ele>
        <time>2021-10-03T06:38:39Z</time>
      </trkpt>
      <trkpt lat="45.70706" lon="6.9046">
        <ele>1876.6</ele>
        <time>2021-10-03T06:38:46Z</time>
      </trkpt>
      <trkpt lat="45.70711" lon="6.90485">
        <ele>1876.4</ele>
        <time>2021-10-03T06:38:53Z</time>
      </trkpt>
      <trkpt lat="45.70719" lon="6.90511">
        <ele>1876.2</ele>
        <time>2021-10-03T06:39:00Z</time>
      </trkpt>
      <trkpt lat="45.70725" lon="6.9054">
        <ele>1875.2</ele>
        <time>2021-10-03T06:39:07Z</time>
      </trkpt>
      <trkpt lat="45.70725" lon="6.90545">
        <ele>1874.8</ele>
        <time>2021-10-03T06:39:08Z</time>
      </trkpt>
      <trkpt lat="45.70736" lon="6.9057">
        <ele>1874.2</ele>
        <time>2021-10-03T06:39:14Z</time>
      </trkpt>
      <trkpt lat="45.7074" lon="6.90578">
        <ele>1873.8</ele>
        <time>2021-10-03T06:39:16Z</time>
      </trkpt>
      <trkpt lat="45.70745" lon="6.90595">
        <ele>1872.6</ele>
        <time>2021-10-03T06:39:20Z</time>
      </trkpt>
      <trkpt lat="45.70754" lon="6.90615">
        <ele>1871.4</ele>
        <time>2021-10-03T06:39:25Z</time>
      </trkpt>
      <trkpt lat="45.70762" lon="6.90628">
        <ele>1870.2</ele>
        <time>2021-10-03T06:39:29Z</time>
      </trkpt>
      <trkpt lat="45.70776" lon="6.90646">
        <ele>1869.8</ele>
        <time>2021-10-03T06:39:35Z</time>
      </trkpt>
      <trkpt lat="45.70788" lon="6.90669">
        <ele>1869.4</ele>
        <time>2021-10-03T06:39:41Z</time>
      </trkpt>
      <trkpt lat="45.70791" lon="6.90673">
        <ele>1869</ele>
        <time>2021-10-03T06:39:42Z</time>
      </trkpt>
      <trkpt lat="45.70797" lon="6.90683">
        <ele>1868</ele>
        <time>2021-10-03T06:39:45Z</time>
      </trkpt>
      <trkpt lat="45.70805" lon="6.90697">
        <ele>1867.2</ele>
        <time>2021-10-03T06:39:50Z</time>
      </trkpt>
      <trkpt lat="45.70809" lon="6.90703">
        <ele>1867</ele>
        <time>2021-10-03T06:39:52Z</time>
      </trkpt>
      <trkpt lat="45.70819" lon="6.90725">
        <ele>1866.4</ele>
        <time>2021-10-03T06:39:58Z</time>
      </trkpt>
      <trkpt lat="45.70824" lon="6.90732">
        <ele>1865.8</ele>
        <time>2021-10-03T06:40:00Z</time>
      </trkpt>
      <trkpt lat="45.70839" lon="6.90749">
        <ele>1865.4</ele>
        <time>2021-10-03T06:40:05Z</time>
      </trkpt>
      <trkpt lat="45.70848" lon="6.90767">
        <ele>1864.4</ele>
        <time>2021-10-03T06:40:10Z</time>
      </trkpt>
      <trkpt lat="45.70858" lon="6.90788">
        <ele>1863.4</ele>
        <time>2021-10-03T06:40:16Z</time>
      </trkpt>
      <trkpt lat="45.70859" lon="6.90792">
        <ele>1863.4</ele>
        <time>2021-10-03T06:40:17Z</time>
      </trkpt>
      <trkpt lat="45.70869" lon="6.90815">
        <ele>1862.8</ele>
        <time>2021-10-03T06:40:23Z</time>
      </trkpt>
      <trkpt lat="45.70876" lon="6.90836">
        <ele>1862.4</ele>
        <time>2021-10-03T06:40:28Z</time>
      </trkpt>
      <trkpt lat="45.70889" lon="6.90857">
        <ele>1861.2</ele>
        <time>2021-10-03T06:40:34Z</time>
      </trkpt>
      <trkpt lat="45.70904" lon="6.90877">
        <ele>1860.6</ele>
        <time>2021-10-03T06:40:40Z</time>
      </trkpt>
      <trkpt lat="45.70913" lon="6.90885">
        <ele>1859.8</ele>
        <time>2021-10-03T06:40:43Z</time>
      </trkpt>
      <trkpt lat="45.70919" lon="6.90887">
        <ele>1859.4</ele>
        <time>2021-10-03T06:40:45Z</time>
      </trkpt>
      <trkpt lat="45.7093" lon="6.90887">
        <ele>1858.4</ele>
        <time>2021-10-03T06:40:48Z</time>
      </trkpt>
      <trkpt lat="45.7094" lon="6.90888">
        <ele>1857.2</ele>
        <time>2021-10-03T06:40:51Z</time>
      </trkpt>
      <trkpt lat="45.70946" lon="6.9089">
        <ele>1855.8</ele>
        <time>2021-10-03T06:40:53Z</time>
      </trkpt>
      <trkpt lat="45.70953" lon="6.90894">
        <ele>1854.4</ele>
        <time>2021-10-03T06:40:55Z</time>
      </trkpt>
      <trkpt lat="45.70958" lon="6.90898">
        <ele>1853.4</ele>
        <time>2021-10-03T06:40:57Z</time>
      </trkpt>
      <trkpt lat="45.70962" lon="6.909">
        <ele>1852</ele>
        <time>2021-10-03T06:40:59Z</time>
      </trkpt>
      <trkpt lat="45.70967" lon="6.90903">
        <ele>1851.4</ele>
        <time>2021-10-03T06:41:01Z</time>
      </trkpt>
      <trkpt lat="45.7097" lon="6.90905">
        <ele>1851</ele>
        <time>2021-10-03T06:41:02Z</time>
      </trkpt>
      <trkpt lat="45.70978" lon="6.90913">
        <ele>1850</ele>
        <time>2021-10-03T06:41:05Z</time>
      </trkpt>
      <trkpt lat="45.70981" lon="6.90914">
        <ele>1849.8</ele>
        <time>2021-10-03T06:41:06Z</time>
      </trkpt>
      <trkpt lat="45.70991" lon="6.9092">
        <ele>1848.4</ele>
        <time>2021-10-03T06:41:09Z</time>
      </trkpt>
      <trkpt lat="45.71" lon="6.90925">
        <ele>1847.2</ele>
        <time>2021-10-03T06:41:12Z</time>
      </trkpt>
      <trkpt lat="45.71009" lon="6.90928">
        <ele>1847</ele>
        <time>2021-10-03T06:41:16Z</time>
      </trkpt>
      <trkpt lat="45.71012" lon="6.90899">
        <ele>1846.4</ele>
        <time>2021-10-03T06:41:22Z</time>
      </trkpt>
      <trkpt lat="45.71012" lon="6.90888">
        <ele>1846</ele>
        <time>2021-10-03T06:41:24Z</time>
      </trkpt>
      <trkpt lat="45.71012" lon="6.90862">
        <ele>1845.2</ele>
        <time>2021-10-03T06:41:29Z</time>
      </trkpt>
      <trkpt lat="45.71014" lon="6.90854">
        <ele>1845</ele>
        <time>2021-10-03T06:41:31Z</time>
      </trkpt>
      <trkpt lat="45.71023" lon="6.90828">
        <ele>1844</ele>
        <time>2021-10-03T06:41:37Z</time>
      </trkpt>
      <trkpt lat="45.71025" lon="6.90816">
        <ele>1843</ele>
        <time>2021-10-03T06:41:40Z</time>
      </trkpt>
      <trkpt lat="45.71025" lon="6.90803">
        <ele>1842</ele>
        <time>2021-10-03T06:41:43Z</time>
      </trkpt>
      <trkpt lat="45.71022" lon="6.90785">
        <ele>1840.8</ele>
        <time>2021-10-03T06:41:47Z</time>
      </trkpt>
      <trkpt lat="45.71021" lon="6.90777">
        <ele>1839.8</ele>
        <time>2021-10-03T06:41:49Z</time>
      </trkpt>
      <trkpt lat="45.71019" lon="6.90769">
        <ele>1838.6</ele>
        <time>2021-10-03T06:41:51Z</time>
      </trkpt>
      <trkpt lat="45.71016" lon="6.90761">
        <ele>1837.4</ele>
        <time>2021-10-03T06:41:53Z</time>
      </trkpt>
      <trkpt lat="45.71014" lon="6.90755">
        <ele>1836.2</ele>
        <time>2021-10-03T06:41:55Z</time>
      </trkpt>
      <trkpt lat="45.7101" lon="6.90744">
        <ele>1835</ele>
        <time>2021-10-03T06:41:58Z</time>
      </trkpt>
      <trkpt lat="45.71006" lon="6.90735">
        <ele>1834</ele>
        <time>2021-10-03T06:42:01Z</time>
      </trkpt>
      <trkpt lat="45.71002" lon="6.90725">
        <ele>1832.8</ele>
        <time>2021-10-03T06:42:04Z</time>
      </trkpt>
      <trkpt lat="45.71" lon="6.90724">
        <ele>1832.2</ele>
        <time>2021-10-03T06:42:05Z</time>
      </trkpt>
      <trkpt lat="45.70998" lon="6.90724">
        <ele>1831.6</ele>
        <time>2021-10-03T06:42:06Z</time>
      </trkpt>
      <trkpt lat="45.70993" lon="6.90723">
        <ele>1830.4</ele>
        <time>2021-10-03T06:42:08Z</time>
      </trkpt>
      <trkpt lat="45.70988" lon="6.90722">
        <ele>1829.2</ele>
        <time>2021-10-03T06:42:10Z</time>
      </trkpt>
      <trkpt lat="45.70983" lon="6.90721">
        <ele>1827.6</ele>
        <time>2021-10-03T06:42:12Z</time>
      </trkpt>
      <trkpt lat="45.70976" lon="6.9072">
        <ele>1825.6</ele>
        <time>2021-10-03T06:42:14Z</time>
      </trkpt>
      <trkpt lat="45.7097" lon="6.9072">
        <ele>1823.6</ele>
        <time>2021-10-03T06:42:16Z</time>
      </trkpt>
      <trkpt lat="45.70964" lon="6.9072">
        <ele>1822.4</ele>
        <time>2021-10-03T06:42:18Z</time>
      </trkpt>
      <trkpt lat="45.70955" lon="6.90718">
        <ele>1821.2</ele>
        <time>2021-10-03T06:42:21Z</time>
      </trkpt>
      <trkpt lat="45.70946" lon="6.90717">
        <ele>1820</ele>
        <time>2021-10-03T06:42:24Z</time>
      </trkpt>
      <trkpt lat="45.70943" lon="6.90716">
        <ele>1819.2</ele>
        <time>2021-10-03T06:42:25Z</time>
      </trkpt>
      <trkpt lat="45.70941" lon="6.90716">
        <ele>1818.8</ele>
        <time>2021-10-03T06:42:26Z</time>
      </trkpt>
      <trkpt lat="45.70935" lon="6.90714">
        <ele>1817.6</ele>
        <time>2021-10-03T06:42:28Z</time>
      </trkpt>
      <trkpt lat="45.70935" lon="6.90712">
        <ele>1817</ele>
        <time>2021-10-03T06:42:29Z</time>
      </trkpt>
      <trkpt lat="45.70936" lon="6.9071">
        <ele>1816.2</ele>
        <time>2021-10-03T06:42:30Z</time>
      </trkpt>
      <trkpt lat="45.70943" lon="6.90706">
        <ele>1815</ele>
        <time>2021-10-03T06:42:33Z</time>
      </trkpt>
      <trkpt lat="45.70949" lon="6.90704">
        <ele>1813.8</ele>
        <time>2021-10-03T06:42:35Z</time>
      </trkpt>
      <trkpt lat="45.70954" lon="6.90699">
        <ele>1812.6</ele>
        <time>2021-10-03T06:42:37Z</time>
      </trkpt>
      <trkpt lat="45.70958" lon="6.90693">
        <ele>1811.2</ele>
        <time>2021-10-03T06:42:39Z</time>
      </trkpt>
      <trkpt lat="45.70963" lon="6.90688">
        <ele>1810.2</ele>
        <time>2021-10-03T06:42:41Z</time>
      </trkpt>
      <trkpt lat="45.70968" lon="6.90683">
        <ele>1809.2</ele>
        <time>2021-10-03T06:42:43Z</time>
      </trkpt>
      <trkpt lat="45.70974" lon="6.90679">
        <ele>1808</ele>
        <time>2021-10-03T06:42:45Z</time>
      </trkpt>
      <trkpt lat="45.70979" lon="6.90675">
        <ele>1806.6</ele>
        <time>2021-10-03T06:42:47Z</time>
      </trkpt>
      <trkpt lat="45.70984" lon="6.90673">
        <ele>1805.2</ele>
        <time>2021-10-03T06:42:49Z</time>
      </trkpt>
      <trkpt lat="45.7099" lon="6.90672">
        <ele>1804</ele>
        <time>2021-10-03T06:42:51Z</time>
      </trkpt>
      <trkpt lat="45.70996" lon="6.90667">
        <ele>1803</ele>
        <time>2021-10-03T06:42:53Z</time>
      </trkpt>
      <trkpt lat="45.71005" lon="6.90663">
        <ele>1801.8</ele>
        <time>2021-10-03T06:42:56Z</time>
      </trkpt>
      <trkpt lat="45.71015" lon="6.9066">
        <ele>1800.4</ele>
        <time>2021-10-03T06:42:59Z</time>
      </trkpt>
      <trkpt lat="45.7102" lon="6.90658">
        <ele>1799.4</ele>
        <time>2021-10-03T06:43:01Z</time>
      </trkpt>
      <trkpt lat="45.71026" lon="6.90657">
        <ele>1798.2</ele>
        <time>2021-10-03T06:43:03Z</time>
      </trkpt>
      <trkpt lat="45.71032" lon="6.90657">
        <ele>1797</ele>
        <time>2021-10-03T06:43:05Z</time>
      </trkpt>
      <trkpt lat="45.71039" lon="6.90655">
        <ele>1795.6</ele>
        <time>2021-10-03T06:43:07Z</time>
      </trkpt>
      <trkpt lat="45.71045" lon="6.90653">
        <ele>1794.6</ele>
        <time>2021-10-03T06:43:09Z</time>
      </trkpt>
      <trkpt lat="45.71056" lon="6.90649">
        <ele>1793.2</ele>
        <time>2021-10-03T06:43:12Z</time>
      </trkpt>
      <trkpt lat="45.71067" lon="6.90644">
        <ele>1791.8</ele>
        <time>2021-10-03T06:43:15Z</time>
      </trkpt>
      <trkpt lat="45.71075" lon="6.90639">
        <ele>1790.6</ele>
        <time>2021-10-03T06:43:17Z</time>
      </trkpt>
      <trkpt lat="45.71085" lon="6.9063">
        <ele>1789.2</ele>
        <time>2021-10-03T06:43:20Z</time>
      </trkpt>
      <trkpt lat="45.71093" lon="6.90623">
        <ele>1787.8</ele>
        <time>2021-10-03T06:43:23Z</time>
      </trkpt>
      <trkpt lat="45.71101" lon="6.90618">
        <ele>1786.2</ele>
        <time>2021-10-03T06:43:26Z</time>
      </trkpt>
      <trkpt lat="45.7111" lon="6.90615">
        <ele>1784.8</ele>
        <time>2021-10-03T06:43:29Z</time>
      </trkpt>
      <trkpt lat="45.71115" lon="6.90615">
        <ele>1783.6</ele>
        <time>2021-10-03T06:43:31Z</time>
      </trkpt>
      <trkpt lat="45.71129" lon="6.90611">
        <ele>1782.4</ele>
        <time>2021-10-03T06:43:35Z</time>
      </trkpt>
      <trkpt lat="45.71149" lon="6.90596">
        <ele>1781.4</ele>
        <time>2021-10-03T06:43:41Z</time>
      </trkpt>
      <trkpt lat="45.71162" lon="6.90584">
        <ele>1780</ele>
        <time>2021-10-03T06:43:45Z</time>
      </trkpt>
      <trkpt lat="45.71183" lon="6.90584">
        <ele>1779</ele>
        <time>2021-10-03T06:43:50Z</time>
      </trkpt>
      <trkpt lat="45.71187" lon="6.90585">
        <ele>1779</ele>
        <time>2021-10-03T06:43:51Z</time>
      </trkpt>
      <trkpt lat="45.71208" lon="6.90583">
        <ele>1778.2</ele>
        <time>2021-10-03T06:43:58Z</time>
      </trkpt>
      <trkpt lat="45.71212" lon="6.90584">
        <ele>1778</ele>
        <time>2021-10-03T06:43:59Z</time>
      </trkpt>
      <trkpt lat="45.71216" lon="6.90587">
        <ele>1777.8</ele>
        <time>2021-10-03T06:44:00Z</time>
      </trkpt>
      <trkpt lat="45.71222" lon="6.906">
        <ele>1776.6</ele>
        <time>2021-10-03T06:44:03Z</time>
      </trkpt>
      <trkpt lat="45.71227" lon="6.90613">
        <ele>1775.2</ele>
        <time>2021-10-03T06:44:06Z</time>
      </trkpt>
      <trkpt lat="45.7123" lon="6.90622">
        <ele>1774</ele>
        <time>2021-10-03T06:44:08Z</time>
      </trkpt>
      <trkpt lat="45.71232" lon="6.9063">
        <ele>1772.6</ele>
        <time>2021-10-03T06:44:10Z</time>
      </trkpt>
      <trkpt lat="45.71236" lon="6.90638">
        <ele>1771.2</ele>
        <time>2021-10-03T06:44:12Z</time>
      </trkpt>
      <trkpt lat="45.71239" lon="6.90646">
        <ele>1770</ele>
        <time>2021-10-03T06:44:14Z</time>
      </trkpt>
      <trkpt lat="45.71242" lon="6.90653">
        <ele>1768.6</ele>
        <time>2021-10-03T06:44:16Z</time>
      </trkpt>
      <trkpt lat="45.71244" lon="6.9066">
        <ele>1767.6</ele>
        <time>2021-10-03T06:44:18Z</time>
      </trkpt>
      <trkpt lat="45.71247" lon="6.90668">
        <ele>1766.4</ele>
        <time>2021-10-03T06:44:20Z</time>
      </trkpt>
      <trkpt lat="45.71252" lon="6.90673">
        <ele>1765.4</ele>
        <time>2021-10-03T06:44:22Z</time>
      </trkpt>
      <trkpt lat="45.71255" lon="6.90673">
        <ele>1764.8</ele>
        <time>2021-10-03T06:44:23Z</time>
      </trkpt>
      <trkpt lat="45.71259" lon="6.90672">
        <ele>1764.2</ele>
        <time>2021-10-03T06:44:24Z</time>
      </trkpt>
      <trkpt lat="45.7126" lon="6.90658">
        <ele>1762.6</ele>
        <time>2021-10-03T06:44:27Z</time>
      </trkpt>
      <trkpt lat="45.71258" lon="6.90649">
        <ele>1761.2</ele>
        <time>2021-10-03T06:44:29Z</time>
      </trkpt>
      <trkpt lat="45.71252" lon="6.90632">
        <ele>1760</ele>
        <time>2021-10-03T06:44:33Z</time>
      </trkpt>
      <trkpt lat="45.7125" lon="6.90618">
        <ele>1759.2</ele>
        <time>2021-10-03T06:44:36Z</time>
      </trkpt>
      <trkpt lat="45.7125" lon="6.90614">
        <ele>1758.8</ele>
        <time>2021-10-03T06:44:37Z</time>
      </trkpt>
      <trkpt lat="45.71252" lon="6.90599">
        <ele>1758.6</ele>
        <time>2021-10-03T06:44:41Z</time>
      </trkpt>
      <trkpt lat="45.7125" lon="6.90588">
        <ele>1758.8</ele>
        <time>2021-10-03T06:44:44Z</time>
      </trkpt>
      <trkpt lat="45.71251" lon="6.90566">
        <ele>1759.8</ele>
        <time>2021-10-03T06:44:51Z</time>
      </trkpt>
      <trkpt lat="45.71259" lon="6.90554">
        <ele>1760.4</ele>
        <time>2021-10-03T06:44:57Z</time>
      </trkpt>
      <trkpt lat="45.71268" lon="6.90566">
        <ele>1759.8</ele>
        <time>2021-10-03T06:45:03Z</time>
      </trkpt>
      <trkpt lat="45.71278" lon="6.90566">
        <ele>1758.8</ele>
        <time>2021-10-03T06:45:06Z</time>
      </trkpt>
      <trkpt lat="45.71283" lon="6.90569">
        <ele>1757.6</ele>
        <time>2021-10-03T06:45:09Z</time>
      </trkpt>
      <trkpt lat="45.71292" lon="6.90571">
        <ele>1756.4</ele>
        <time>2021-10-03T06:45:12Z</time>
      </trkpt>
      <trkpt lat="45.71298" lon="6.90571">
        <ele>1755.4</ele>
        <time>2021-10-03T06:45:15Z</time>
      </trkpt>
      <trkpt lat="45.71316" lon="6.90571">
        <ele>1755.8</ele>
        <time>2021-10-03T06:45:25Z</time>
      </trkpt>
      <trkpt lat="45.71333" lon="6.90583">
        <ele>1755.6</ele>
        <time>2021-10-03T06:45:34Z</time>
      </trkpt>
      <trkpt lat="45.71337" lon="6.90587">
        <ele>1756.6</ele>
        <time>2021-10-03T06:45:36Z</time>
      </trkpt>
      <trkpt lat="45.71341" lon="6.90598">
        <ele>1757.6</ele>
        <time>2021-10-03T06:45:40Z</time>
      </trkpt>
      <trkpt lat="45.71344" lon="6.90606">
        <ele>1758.6</ele>
        <time>2021-10-03T06:45:43Z</time>
      </trkpt>
      <trkpt lat="45.71349" lon="6.90621">
        <ele>1759.6</ele>
        <time>2021-10-03T06:45:48Z</time>
      </trkpt>
      <trkpt lat="45.71349" lon="6.90647">
        <ele>1759.4</ele>
        <time>2021-10-03T06:45:55Z</time>
      </trkpt>
      <trkpt lat="45.71353" lon="6.90661">
        <ele>1760.8</ele>
        <time>2021-10-03T06:46:00Z</time>
      </trkpt>
      <trkpt lat="45.71355" lon="6.90666">
        <ele>1762</ele>
        <time>2021-10-03T06:46:03Z</time>
      </trkpt>
      <trkpt lat="45.71357" lon="6.90674">
        <ele>1763</ele>
        <time>2021-10-03T06:46:07Z</time>
      </trkpt>
      <trkpt lat="45.71359" lon="6.9068">
        <ele>1764.2</ele>
        <time>2021-10-03T06:46:10Z</time>
      </trkpt>
      <trkpt lat="45.71361" lon="6.90687">
        <ele>1765.4</ele>
        <time>2021-10-03T06:46:14Z</time>
      </trkpt>
      <trkpt lat="45.71363" lon="6.90692">
        <ele>1766.6</ele>
        <time>2021-10-03T06:46:18Z</time>
      </trkpt>
      <trkpt lat="45.71364" lon="6.90695">
        <ele>1767.4</ele>
        <time>2021-10-03T06:46:20Z</time>
      </trkpt>
      <trkpt lat="45.71364" lon="6.90694">
        <ele>1767.8</ele>
        <time>2021-10-03T06:46:22Z</time>
      </trkpt>
      <trkpt lat="45.71364" lon="6.9069">
        <ele>1768.4</ele>
        <time>2021-10-03T06:46:24Z</time>
      </trkpt>
      <trkpt lat="45.71363" lon="6.90686">
        <ele>1769.2</ele>
        <time>2021-10-03T06:46:26Z</time>
      </trkpt>
      <trkpt lat="45.71363" lon="6.90684">
        <ele>1769.8</ele>
        <time>2021-10-03T06:46:28Z</time>
      </trkpt>
      <trkpt lat="45.71364" lon="6.90681">
        <ele>1770.4</ele>
        <time>2021-10-03T06:46:30Z</time>
      </trkpt>
      <trkpt lat="45.71366" lon="6.90677">
        <ele>1771.4</ele>
        <time>2021-10-03T06:46:33Z</time>
      </trkpt>
      <trkpt lat="45.71366" lon="6.90677">
        <ele>1771.6</ele>
        <time>2021-10-03T06:46:34Z</time>
      </trkpt>
      <trkpt lat="45.71367" lon="6.90672">
        <ele>1772.8</ele>
        <time>2021-10-03T06:46:38Z</time>
      </trkpt>
      <trkpt lat="45.7137" lon="6.90668">
        <ele>1774</ele>
        <time>2021-10-03T06:46:42Z</time>
      </trkpt>
      <trkpt lat="45.71371" lon="6.90667">
        <ele>1774.6</ele>
        <time>2021-10-03T06:46:44Z</time>
      </trkpt>
      <trkpt lat="45.71372" lon="6.90665">
        <ele>1775</ele>
        <time>2021-10-03T06:46:45Z</time>
      </trkpt>
      <trkpt lat="45.71373" lon="6.90663">
        <ele>1775.6</ele>
        <time>2021-10-03T06:46:47Z</time>
      </trkpt>
      <trkpt lat="45.71373" lon="6.90661">
        <ele>1776.2</ele>
        <time>2021-10-03T06:46:49Z</time>
      </trkpt>
      <trkpt lat="45.71374" lon="6.90659">
        <ele>1776.6</ele>
        <time>2021-10-03T06:46:51Z</time>
      </trkpt>
      <trkpt lat="45.71376" lon="6.90657">
        <ele>1777.2</ele>
        <time>2021-10-03T06:46:53Z</time>
      </trkpt>
      <trkpt lat="45.71377" lon="6.90654">
        <ele>1778</ele>
        <time>2021-10-03T06:46:55Z</time>
      </trkpt>
      <trkpt lat="45.71378" lon="6.90653">
        <ele>1778.4</ele>
        <time>2021-10-03T06:46:56Z</time>
      </trkpt>
      <trkpt lat="45.71379" lon="6.90651">
        <ele>1779</ele>
        <time>2021-10-03T06:46:58Z</time>
      </trkpt>
      <trkpt lat="45.7138" lon="6.90649">
        <ele>1779.6</ele>
        <time>2021-10-03T06:47:00Z</time>
      </trkpt>
      <trkpt lat="45.71381" lon="6.90647">
        <ele>1780.2</ele>
        <time>2021-10-03T06:47:02Z</time>
      </trkpt>
      <trkpt lat="45.71382" lon="6.90643">
        <ele>1780.8</ele>
        <time>2021-10-03T06:47:05Z</time>
      </trkpt>
      <trkpt lat="45.71384" lon="6.90639">
        <ele>1781.8</ele>
        <time>2021-10-03T06:47:08Z</time>
      </trkpt>
      <trkpt lat="45.71387" lon="6.90635">
        <ele>1783</ele>
        <time>2021-10-03T06:47:13Z</time>
      </trkpt>
      <trkpt lat="45.71388" lon="6.90633">
        <ele>1783.8</ele>
        <time>2021-10-03T06:47:15Z</time>
      </trkpt>
      <trkpt lat="45.71389" lon="6.90633">
        <ele>1784.2</ele>
        <time>2021-10-03T06:47:16Z</time>
      </trkpt>
      <trkpt lat="45.7139" lon="6.90631">
        <ele>1784.6</ele>
        <time>2021-10-03T06:47:18Z</time>
      </trkpt>
      <trkpt lat="45.71391" lon="6.90628">
        <ele>1785.4</ele>
        <time>2021-10-03T06:47:21Z</time>
      </trkpt>
      <trkpt lat="45.71391" lon="6.90626">
        <ele>1785.8</ele>
        <time>2021-10-03T06:47:23Z</time>
      </trkpt>
      <trkpt lat="45.71392" lon="6.90624">
        <ele>1786.4</ele>
        <time>2021-10-03T06:47:25Z</time>
      </trkpt>
      <trkpt lat="45.71394" lon="6.90621">
        <ele>1787.4</ele>
        <time>2021-10-03T06:47:28Z</time>
      </trkpt>
      <trkpt lat="45.71395" lon="6.9062">
        <ele>1787.6</ele>
        <time>2021-10-03T06:47:29Z</time>
      </trkpt>
      <trkpt lat="45.71396" lon="6.90616">
        <ele>1788.6</ele>
        <time>2021-10-03T06:47:33Z</time>
      </trkpt>
      <trkpt lat="45.71397" lon="6.90613">
        <ele>1790</ele>
        <time>2021-10-03T06:47:37Z</time>
      </trkpt>
      <trkpt lat="45.71399" lon="6.90607">
        <ele>1790.8</ele>
        <time>2021-10-03T06:47:41Z</time>
      </trkpt>
      <trkpt lat="45.71399" lon="6.90606">
        <ele>1791</ele>
        <time>2021-10-03T06:47:42Z</time>
      </trkpt>
      <trkpt lat="45.71401" lon="6.90604">
        <ele>1792.2</ele>
        <time>2021-10-03T06:47:46Z</time>
      </trkpt>
      <trkpt lat="45.71402" lon="6.90602">
        <ele>1793.2</ele>
        <time>2021-10-03T06:47:49Z</time>
      </trkpt>
      <trkpt lat="45.71404" lon="6.906">
        <ele>1794.4</ele>
        <time>2021-10-03T06:47:53Z</time>
      </trkpt>
      <trkpt lat="45.71405" lon="6.90597">
        <ele>1795.6</ele>
        <time>2021-10-03T06:47:57Z</time>
      </trkpt>
      <trkpt lat="45.71408" lon="6.90592">
        <ele>1796.8</ele>
        <time>2021-10-03T06:48:02Z</time>
      </trkpt>
      <trkpt lat="45.71411" lon="6.90593">
        <ele>1797.8</ele>
        <time>2021-10-03T06:48:05Z</time>
      </trkpt>
      <trkpt lat="45.71413" lon="6.90594">
        <ele>1799</ele>
        <time>2021-10-03T06:48:08Z</time>
      </trkpt>
      <trkpt lat="45.71415" lon="6.90594">
        <ele>1799.4</ele>
        <time>2021-10-03T06:48:10Z</time>
      </trkpt>
      <trkpt lat="45.71418" lon="6.90596">
        <ele>1800</ele>
        <time>2021-10-03T06:48:13Z</time>
      </trkpt>
      <trkpt lat="45.71419" lon="6.90597">
        <ele>1800.2</ele>
        <time>2021-10-03T06:48:14Z</time>
      </trkpt>
      <trkpt lat="45.7142" lon="6.90598">
        <ele>1800.6</ele>
        <time>2021-10-03T06:48:15Z</time>
      </trkpt>
      <trkpt lat="45.71421" lon="6.90599">
        <ele>1801.2</ele>
        <time>2021-10-03T06:48:17Z</time>
      </trkpt>
      <trkpt lat="45.71424" lon="6.90603">
        <ele>1802.4</ele>
        <time>2021-10-03T06:48:21Z</time>
      </trkpt>
      <trkpt lat="45.71425" lon="6.90609">
        <ele>1803.6</ele>
        <time>2021-10-03T06:48:24Z</time>
      </trkpt>
      <trkpt lat="45.71425" lon="6.9061">
        <ele>1803.8</ele>
        <time>2021-10-03T06:48:25Z</time>
      </trkpt>
      <trkpt lat="45.71426" lon="6.90616">
        <ele>1804.8</ele>
        <time>2021-10-03T06:48:29Z</time>
      </trkpt>
      <trkpt lat="45.71427" lon="6.9062">
        <ele>1805.8</ele>
        <time>2021-10-03T06:48:32Z</time>
      </trkpt>
      <trkpt lat="45.71427" lon="6.90622">
        <ele>1806.2</ele>
        <time>2021-10-03T06:48:33Z</time>
      </trkpt>
      <trkpt lat="45.71429" lon="6.90629">
        <ele>1807</ele>
        <time>2021-10-03T06:48:38Z</time>
      </trkpt>
      <trkpt lat="45.7143" lon="6.90636">
        <ele>1808.2</ele>
        <time>2021-10-03T06:48:43Z</time>
      </trkpt>
      <trkpt lat="45.71431" lon="6.90642">
        <ele>1809.4</ele>
        <time>2021-10-03T06:48:47Z</time>
      </trkpt>
      <trkpt lat="45.71432" lon="6.90648">
        <ele>1810.2</ele>
        <time>2021-10-03T06:48:51Z</time>
      </trkpt>
      <trkpt lat="45.71433" lon="6.90649">
        <ele>1811</ele>
        <time>2021-10-03T06:48:52Z</time>
      </trkpt>
      <trkpt lat="45.71433" lon="6.90653">
        <ele>1812.2</ele>
        <time>2021-10-03T06:48:56Z</time>
      </trkpt>
      <trkpt lat="45.71435" lon="6.90659">
        <ele>1813.2</ele>
        <time>2021-10-03T06:49:01Z</time>
      </trkpt>
      <trkpt lat="45.71436" lon="6.90662">
        <ele>1814.2</ele>
        <time>2021-10-03T06:49:04Z</time>
      </trkpt>
      <trkpt lat="45.71436" lon="6.90663">
        <ele>1814.6</ele>
        <time>2021-10-03T06:49:05Z</time>
      </trkpt>
      <trkpt lat="45.71436" lon="6.90666">
        <ele>1815.8</ele>
        <time>2021-10-03T06:49:08Z</time>
      </trkpt>
      <trkpt lat="45.71436" lon="6.90668">
        <ele>1816.2</ele>
        <time>2021-10-03T06:49:09Z</time>
      </trkpt>
      <trkpt lat="45.71436" lon="6.90672">
        <ele>1817</ele>
        <time>2021-10-03T06:49:13Z</time>
      </trkpt>
      <trkpt lat="45.71436" lon="6.90673">
        <ele>1817.2</ele>
        <time>2021-10-03T06:49:14Z</time>
      </trkpt>
      <trkpt lat="45.71438" lon="6.90675">
        <ele>1817.6</ele>
        <time>2021-10-03T06:49:17Z</time>
      </trkpt>
      <trkpt lat="45.71439" lon="6.90675">
        <ele>1818</ele>
        <time>2021-10-03T06:49:19Z</time>
      </trkpt>
      <trkpt lat="45.7144" lon="6.90676">
        <ele>1818.8</ele>
        <time>2021-10-03T06:49:21Z</time>
      </trkpt>
      <trkpt lat="45.7144" lon="6.90676">
        <ele>1819</ele>
        <time>2021-10-03T06:49:22Z</time>
      </trkpt>
      <trkpt lat="45.71441" lon="6.90678">
        <ele>1820.2</ele>
        <time>2021-10-03T06:49:26Z</time>
      </trkpt>
      <trkpt lat="45.71442" lon="6.90678">
        <ele>1821.2</ele>
        <time>2021-10-03T06:49:29Z</time>
      </trkpt>
      <trkpt lat="45.71443" lon="6.90681">
        <ele>1822.4</ele>
        <time>2021-10-03T06:49:32Z</time>
      </trkpt>
      <trkpt lat="45.71444" lon="6.90684">
        <ele>1823.6</ele>
        <time>2021-10-03T06:49:36Z</time>
      </trkpt>
      <trkpt lat="45.71446" lon="6.90689">
        <ele>1824.6</ele>
        <time>2021-10-03T06:49:40Z</time>
      </trkpt>
      <trkpt lat="45.71447" lon="6.90692">
        <ele>1825.2</ele>
        <time>2021-10-03T06:49:42Z</time>
      </trkpt>
      <trkpt lat="45.71447" lon="6.90695">
        <ele>1825.8</ele>
        <time>2021-10-03T06:49:44Z</time>
      </trkpt>
      <trkpt lat="45.71448" lon="6.90696">
        <ele>1826.4</ele>
        <time>2021-10-03T06:49:46Z</time>
      </trkpt>
      <trkpt lat="45.71448" lon="6.90697">
        <ele>1826.8</ele>
        <time>2021-10-03T06:49:47Z</time>
      </trkpt>
      <trkpt lat="45.71449" lon="6.90698">
        <ele>1828</ele>
        <time>2021-10-03T06:49:50Z</time>
      </trkpt>
      <trkpt lat="45.71452" lon="6.90702">
        <ele>1829.2</ele>
        <time>2021-10-03T06:49:54Z</time>
      </trkpt>
      <trkpt lat="45.71454" lon="6.90706">
        <ele>1830.4</ele>
        <time>2021-10-03T06:49:58Z</time>
      </trkpt>
      <trkpt lat="45.71454" lon="6.90704">
        <ele>1831.4</ele>
        <time>2021-10-03T06:50:03Z</time>
      </trkpt>
      <trkpt lat="45.71456" lon="6.90703">
        <ele>1832.6</ele>
        <time>2021-10-03T06:50:07Z</time>
      </trkpt>
      <trkpt lat="45.71455" lon="6.907">
        <ele>1833.8</ele>
        <time>2021-10-03T06:50:10Z</time>
      </trkpt>
      <trkpt lat="45.71457" lon="6.90698">
        <ele>1835</ele>
        <time>2021-10-03T06:50:15Z</time>
      </trkpt>
      <trkpt lat="45.71458" lon="6.90695">
        <ele>1836</ele>
        <time>2021-10-03T06:50:20Z</time>
      </trkpt>
      <trkpt lat="45.71458" lon="6.90691">
        <ele>1837.4</ele>
        <time>2021-10-03T06:50:25Z</time>
      </trkpt>
      <trkpt lat="45.71459" lon="6.90689">
        <ele>1838.6</ele>
        <time>2021-10-03T06:50:28Z</time>
      </trkpt>
      <trkpt lat="45.71458" lon="6.90684">
        <ele>1839.8</ele>
        <time>2021-10-03T06:50:33Z</time>
      </trkpt>
      <trkpt lat="45.7146" lon="6.90675">
        <ele>1841</ele>
        <time>2021-10-03T06:50:40Z</time>
      </trkpt>
      <trkpt lat="45.7146" lon="6.90673">
        <ele>1841.4</ele>
        <time>2021-10-03T06:50:42Z</time>
      </trkpt>
      <trkpt lat="45.71461" lon="6.90671">
        <ele>1842</ele>
        <time>2021-10-03T06:50:44Z</time>
      </trkpt>
      <trkpt lat="45.71462" lon="6.90669">
        <ele>1842.6</ele>
        <time>2021-10-03T06:50:46Z</time>
      </trkpt>
      <trkpt lat="45.71462" lon="6.90667">
        <ele>1843.2</ele>
        <time>2021-10-03T06:50:48Z</time>
      </trkpt>
      <trkpt lat="45.71463" lon="6.90664">
        <ele>1844.4</ele>
        <time>2021-10-03T06:50:52Z</time>
      </trkpt>
      <trkpt lat="45.71465" lon="6.9066">
        <ele>1845.6</ele>
        <time>2021-10-03T06:50:57Z</time>
      </trkpt>
      <trkpt lat="45.71468" lon="6.90658">
        <ele>1846.8</ele>
        <time>2021-10-03T06:51:01Z</time>
      </trkpt>
      <trkpt lat="45.7147" lon="6.90655">
        <ele>1847.8</ele>
        <time>2021-10-03T06:51:07Z</time>
      </trkpt>
      <trkpt lat="45.71474" lon="6.90654">
        <ele>1849.2</ele>
        <time>2021-10-03T06:51:11Z</time>
      </trkpt>
      <trkpt lat="45.71477" lon="6.90654">
        <ele>1850.2</ele>
        <time>2021-10-03T06:51:14Z</time>
      </trkpt>
      <trkpt lat="45.71479" lon="6.90652">
        <ele>1851.6</ele>
        <time>2021-10-03T06:51:18Z</time>
      </trkpt>
      <trkpt lat="45.71482" lon="6.90647">
        <ele>1852.6</ele>
        <time>2021-10-03T06:51:23Z</time>
      </trkpt>
      <trkpt lat="45.71485" lon="6.90643">
        <ele>1853.8</ele>
        <time>2021-10-03T06:51:27Z</time>
      </trkpt>
      <trkpt lat="45.71486" lon="6.90637">
        <ele>1855</ele>
        <time>2021-10-03T06:51:32Z</time>
      </trkpt>
      <trkpt lat="45.71487" lon="6.90634">
        <ele>1855.4</ele>
        <time>2021-10-03T06:51:34Z</time>
      </trkpt>
      <trkpt lat="45.71488" lon="6.90632">
        <ele>1856.2</ele>
        <time>2021-10-03T06:51:37Z</time>
      </trkpt>
      <trkpt lat="45.71489" lon="6.9063">
        <ele>1856.6</ele>
        <time>2021-10-03T06:51:39Z</time>
      </trkpt>
      <trkpt lat="45.7149" lon="6.90627">
        <ele>1856.8</ele>
        <time>2021-10-03T06:51:41Z</time>
      </trkpt>
      <trkpt lat="45.71491" lon="6.90626">
        <ele>1857.2</ele>
        <time>2021-10-03T06:51:42Z</time>
      </trkpt>
      <trkpt lat="45.71492" lon="6.90623">
        <ele>1858.2</ele>
        <time>2021-10-03T06:51:45Z</time>
      </trkpt>
      <trkpt lat="45.71494" lon="6.90622">
        <ele>1859</ele>
        <time>2021-10-03T06:51:48Z</time>
      </trkpt>
      <trkpt lat="45.71495" lon="6.90621">
        <ele>1859.4</ele>
        <time>2021-10-03T06:51:49Z</time>
      </trkpt>
      <trkpt lat="45.71497" lon="6.90622">
        <ele>1860</ele>
        <time>2021-10-03T06:51:51Z</time>
      </trkpt>
      <trkpt lat="45.71499" lon="6.90622">
        <ele>1860.6</ele>
        <time>2021-10-03T06:51:52Z</time>
      </trkpt>
      <trkpt lat="45.71502" lon="6.90626">
        <ele>1861.8</ele>
        <time>2021-10-03T06:51:55Z</time>
      </trkpt>
      <trkpt lat="45.71505" lon="6.90633">
        <ele>1862.8</ele>
        <time>2021-10-03T06:52:00Z</time>
      </trkpt>
      <trkpt lat="45.71506" lon="6.90635">
        <ele>1863</ele>
        <time>2021-10-03T06:52:01Z</time>
      </trkpt>
      <trkpt lat="45.71509" lon="6.90641">
        <ele>1864</ele>
        <time>2021-10-03T06:52:06Z</time>
      </trkpt>
      <trkpt lat="45.71509" lon="6.90642">
        <ele>1864.2</ele>
        <time>2021-10-03T06:52:07Z</time>
      </trkpt>
      <trkpt lat="45.7151" lon="6.90643">
        <ele>1864.8</ele>
        <time>2021-10-03T06:52:09Z</time>
      </trkpt>
      <trkpt lat="45.71511" lon="6.90644">
        <ele>1865.2</ele>
        <time>2021-10-03T06:52:10Z</time>
      </trkpt>
      <trkpt lat="45.71511" lon="6.90645">
        <ele>1865.8</ele>
        <time>2021-10-03T06:52:12Z</time>
      </trkpt>
      <trkpt lat="45.71513" lon="6.90645">
        <ele>1866.2</ele>
        <time>2021-10-03T06:52:15Z</time>
      </trkpt>
      <trkpt lat="45.71515" lon="6.90647">
        <ele>1867.6</ele>
        <time>2021-10-03T06:52:19Z</time>
      </trkpt>
      <trkpt lat="45.71516" lon="6.9065">
        <ele>1868</ele>
        <time>2021-10-03T06:52:21Z</time>
      </trkpt>
      <trkpt lat="45.71517" lon="6.90653">
        <ele>1868.6</ele>
        <time>2021-10-03T06:52:24Z</time>
      </trkpt>
      <trkpt lat="45.71518" lon="6.90654">
        <ele>1868.6</ele>
        <time>2021-10-03T06:52:25Z</time>
      </trkpt>
      <trkpt lat="45.71518" lon="6.90657">
        <ele>1869</ele>
        <time>2021-10-03T06:52:27Z</time>
      </trkpt>
      <trkpt lat="45.71518" lon="6.90659">
        <ele>1869.6</ele>
        <time>2021-10-03T06:52:29Z</time>
      </trkpt>
      <trkpt lat="45.71518" lon="6.90663">
        <ele>1870.6</ele>
        <time>2021-10-03T06:52:34Z</time>
      </trkpt>
      <trkpt lat="45.7152" lon="6.90666">
        <ele>1871.8</ele>
        <time>2021-10-03T06:52:38Z</time>
      </trkpt>
      <trkpt lat="45.7152" lon="6.9067">
        <ele>1873</ele>
        <time>2021-10-03T06:52:42Z</time>
      </trkpt>
      <trkpt lat="45.71521" lon="6.90673">
        <ele>1874</ele>
        <time>2021-10-03T06:52:46Z</time>
      </trkpt>
      <trkpt lat="45.71522" lon="6.90679">
        <ele>1875.2</ele>
        <time>2021-10-03T06:52:52Z</time>
      </trkpt>
      <trkpt lat="45.71524" lon="6.90678">
        <ele>1876.4</ele>
        <time>2021-10-03T06:52:55Z</time>
      </trkpt>
      <trkpt lat="45.71527" lon="6.90674">
        <ele>1877.6</ele>
        <time>2021-10-03T06:52:59Z</time>
      </trkpt>
      <trkpt lat="45.71531" lon="6.9067">
        <ele>1878.6</ele>
        <time>2021-10-03T06:53:04Z</time>
      </trkpt>
      <trkpt lat="45.71532" lon="6.9067">
        <ele>1879</ele>
        <time>2021-10-03T06:53:06Z</time>
      </trkpt>
      <trkpt lat="45.71534" lon="6.90669">
        <ele>1879.8</ele>
        <time>2021-10-03T06:53:09Z</time>
      </trkpt>
      <trkpt lat="45.71535" lon="6.90669">
        <ele>1880.6</ele>
        <time>2021-10-03T06:53:12Z</time>
      </trkpt>
      <trkpt lat="45.71536" lon="6.90669">
        <ele>1881</ele>
        <time>2021-10-03T06:53:13Z</time>
      </trkpt>
      <trkpt lat="45.71538" lon="6.90671">
        <ele>1882</ele>
        <time>2021-10-03T06:53:15Z</time>
      </trkpt>
      <trkpt lat="45.71542" lon="6.90672">
        <ele>1883.2</ele>
        <time>2021-10-03T06:53:19Z</time>
      </trkpt>
      <trkpt lat="45.71545" lon="6.90669">
        <ele>1884.2</ele>
        <time>2021-10-03T06:53:22Z</time>
      </trkpt>
      <trkpt lat="45.71551" lon="6.90667">
        <ele>1885.2</ele>
        <time>2021-10-03T06:53:26Z</time>
      </trkpt>
      <trkpt lat="45.71555" lon="6.90663">
        <ele>1886.2</ele>
        <time>2021-10-03T06:53:31Z</time>
      </trkpt>
      <trkpt lat="45.71556" lon="6.90662">
        <ele>1886.4</ele>
        <time>2021-10-03T06:53:32Z</time>
      </trkpt>
      <trkpt lat="45.71562" lon="6.90636">
        <ele>1886.4</ele>
        <time>2021-10-03T06:53:40Z</time>
      </trkpt>
      <trkpt lat="45.71574" lon="6.90616">
        <ele>1886</ele>
        <time>2021-10-03T06:53:47Z</time>
      </trkpt>
      <trkpt lat="45.71589" lon="6.90599">
        <ele>1886.2</ele>
        <time>2021-10-03T06:53:54Z</time>
      </trkpt>
      <trkpt lat="45.71602" lon="6.9058">
        <ele>1886</ele>
        <time>2021-10-03T06:54:01Z</time>
      </trkpt>
      <trkpt lat="45.71612" lon="6.90554">
        <ele>1886.2</ele>
        <time>2021-10-03T06:54:08Z</time>
      </trkpt>
      <trkpt lat="45.71625" lon="6.90532">
        <ele>1885.4</ele>
        <time>2021-10-03T06:54:15Z</time>
      </trkpt>
      <trkpt lat="45.71632" lon="6.90524">
        <ele>1885.2</ele>
        <time>2021-10-03T06:54:18Z</time>
      </trkpt>
      <trkpt lat="45.71644" lon="6.90502">
        <ele>1885.4</ele>
        <time>2021-10-03T06:54:25Z</time>
      </trkpt>
      <trkpt lat="45.71647" lon="6.90474">
        <ele>1885.8</ele>
        <time>2021-10-03T06:54:32Z</time>
      </trkpt>
      <trkpt lat="45.71646" lon="6.90445">
        <ele>1884.8</ele>
        <time>2021-10-03T06:54:39Z</time>
      </trkpt>
      <trkpt lat="45.71643" lon="6.90416">
        <ele>1885.4</ele>
        <time>2021-10-03T06:54:46Z</time>
      </trkpt>
      <trkpt lat="45.71638" lon="6.90391">
        <ele>1884.4</ele>
        <time>2021-10-03T06:54:52Z</time>
      </trkpt>
      <trkpt lat="45.7163" lon="6.90367">
        <ele>1885.2</ele>
        <time>2021-10-03T06:54:58Z</time>
      </trkpt>
      <trkpt lat="45.71619" lon="6.90342">
        <ele>1884.2</ele>
        <time>2021-10-03T06:55:05Z</time>
      </trkpt>
      <trkpt lat="45.71616" lon="6.90334">
        <ele>1884.2</ele>
        <time>2021-10-03T06:55:07Z</time>
      </trkpt>
      <trkpt lat="45.71609" lon="6.9031">
        <ele>1885</ele>
        <time>2021-10-03T06:55:13Z</time>
      </trkpt>
      <trkpt lat="45.71608" lon="6.90306">
        <ele>1885.2</ele>
        <time>2021-10-03T06:55:14Z</time>
      </trkpt>
      <trkpt lat="45.71605" lon="6.9028">
        <ele>1884.4</ele>
        <time>2021-10-03T06:55:20Z</time>
      </trkpt>
      <trkpt lat="45.71605" lon="6.90277">
        <ele>1884.2</ele>
        <time>2021-10-03T06:55:21Z</time>
      </trkpt>
      <trkpt lat="45.71601" lon="6.9025">
        <ele>1884.4</ele>
        <time>2021-10-03T06:55:28Z</time>
      </trkpt>
      <trkpt lat="45.71596" lon="6.90223">
        <ele>1884.2</ele>
        <time>2021-10-03T06:55:35Z</time>
      </trkpt>
      <trkpt lat="45.71596" lon="6.90195">
        <ele>1884.6</ele>
        <time>2021-10-03T06:55:42Z</time>
      </trkpt>
      <trkpt lat="45.71597" lon="6.90167">
        <ele>1884.4</ele>
        <time>2021-10-03T06:55:49Z</time>
      </trkpt>
      <trkpt lat="45.71601" lon="6.90139">
        <ele>1884</ele>
        <time>2021-10-03T06:55:56Z</time>
      </trkpt>
      <trkpt lat="45.71615" lon="6.90118">
        <ele>1884.2</ele>
        <time>2021-10-03T06:56:02Z</time>
      </trkpt>
      <trkpt lat="45.71629" lon="6.90104">
        <ele>1883.2</ele>
        <time>2021-10-03T06:56:07Z</time>
      </trkpt>
      <trkpt lat="45.71642" lon="6.90084">
        <ele>1883.6</ele>
        <time>2021-10-03T06:56:14Z</time>
      </trkpt>
      <trkpt lat="45.7166" lon="6.90071">
        <ele>1883.4</ele>
        <time>2021-10-03T06:56:20Z</time>
      </trkpt>
      <trkpt lat="45.71667" lon="6.90065">
        <ele>1883</ele>
        <time>2021-10-03T06:56:23Z</time>
      </trkpt>
      <trkpt lat="45.71684" lon="6.90049">
        <ele>1883.8</ele>
        <time>2021-10-03T06:56:30Z</time>
      </trkpt>
      <trkpt lat="45.717" lon="6.90034">
        <ele>1883.4</ele>
        <time>2021-10-03T06:56:36Z</time>
      </trkpt>
      <trkpt lat="45.71704" lon="6.90025">
        <ele>1884.2</ele>
        <time>2021-10-03T06:56:39Z</time>
      </trkpt>
      <trkpt lat="45.71714" lon="6.90001">
        <ele>1883.8</ele>
        <time>2021-10-03T06:56:46Z</time>
      </trkpt>
      <trkpt lat="45.71724" lon="6.89976">
        <ele>1884.6</ele>
        <time>2021-10-03T06:56:54Z</time>
      </trkpt>
      <trkpt lat="45.71738" lon="6.89959">
        <ele>1884.6</ele>
        <time>2021-10-03T06:57:01Z</time>
      </trkpt>
      <trkpt lat="45.71753" lon="6.89941">
        <ele>1885</ele>
        <time>2021-10-03T06:57:08Z</time>
      </trkpt>
      <trkpt lat="45.71755" lon="6.89938">
        <ele>1885.4</ele>
        <time>2021-10-03T06:57:09Z</time>
      </trkpt>
      <trkpt lat="45.7177" lon="6.89923">
        <ele>1885.8</ele>
        <time>2021-10-03T06:57:15Z</time>
      </trkpt>
      <trkpt lat="45.71783" lon="6.89912">
        <ele>1886.4</ele>
        <time>2021-10-03T06:57:21Z</time>
      </trkpt>
      <trkpt lat="45.71799" lon="6.89904">
        <ele>1885.6</ele>
        <time>2021-10-03T06:57:27Z</time>
      </trkpt>
      <trkpt lat="45.71802" lon="6.89902">
        <ele>1885.4</ele>
        <time>2021-10-03T06:57:28Z</time>
      </trkpt>
      <trkpt lat="45.7182" lon="6.89892">
        <ele>1886.2</ele>
        <time>2021-10-03T06:57:35Z</time>
      </trkpt>
      <trkpt lat="45.71828" lon="6.89891">
        <ele>1886.4</ele>
        <time>2021-10-03T06:57:37Z</time>
      </trkpt>
      <trkpt lat="45.71841" lon="6.89878">
        <ele>1887</ele>
        <time>2021-10-03T06:57:44Z</time>
      </trkpt>
      <trkpt lat="45.71853" lon="6.89858">
        <ele>1887</ele>
        <time>2021-10-03T06:57:52Z</time>
      </trkpt>
      <trkpt lat="45.71869" lon="6.89848">
        <ele>1886.8</ele>
        <time>2021-10-03T06:57:59Z</time>
      </trkpt>
      <trkpt lat="45.71885" lon="6.89834">
        <ele>1887.4</ele>
        <time>2021-10-03T06:58:07Z</time>
      </trkpt>
      <trkpt lat="45.7189" lon="6.8983">
        <ele>1887.6</ele>
        <time>2021-10-03T06:58:09Z</time>
      </trkpt>
      <trkpt lat="45.7191" lon="6.89825">
        <ele>1887.4</ele>
        <time>2021-10-03T06:58:15Z</time>
      </trkpt>
      <trkpt lat="45.7193" lon="6.89821">
        <ele>1888</ele>
        <time>2021-10-03T06:58:22Z</time>
      </trkpt>
      <trkpt lat="45.7195" lon="6.89817">
        <ele>1887.6</ele>
        <time>2021-10-03T06:58:29Z</time>
      </trkpt>
      <trkpt lat="45.7197" lon="6.89813">
        <ele>1888.4</ele>
        <time>2021-10-03T06:58:36Z</time>
      </trkpt>
      <trkpt lat="45.7198" lon="6.89811">
        <ele>1888.6</ele>
        <time>2021-10-03T06:58:39Z</time>
      </trkpt>
      <trkpt lat="45.71999" lon="6.89804">
        <ele>1889</ele>
        <time>2021-10-03T06:58:46Z</time>
      </trkpt>
      <trkpt lat="45.72018" lon="6.89804">
        <ele>1888.6</ele>
        <time>2021-10-03T06:58:54Z</time>
      </trkpt>
      <trkpt lat="45.72038" lon="6.89801">
        <ele>1889.8</ele>
        <time>2021-10-03T06:59:01Z</time>
      </trkpt>
      <trkpt lat="45.72055" lon="6.89795">
        <ele>1890.4</ele>
        <time>2021-10-03T06:59:08Z</time>
      </trkpt>
      <trkpt lat="45.72069" lon="6.89782">
        <ele>1891</ele>
        <time>2021-10-03T06:59:15Z</time>
      </trkpt>
      <trkpt lat="45.72087" lon="6.89774">
        <ele>1892</ele>
        <time>2021-10-03T06:59:23Z</time>
      </trkpt>
      <trkpt lat="45.72106" lon="6.89768">
        <ele>1892.6</ele>
        <time>2021-10-03T06:59:30Z</time>
      </trkpt>
      <trkpt lat="45.721" lon="6.89755">
        <ele>1893.2</ele>
        <time>2021-10-03T06:59:32Z</time>
      </trkpt>
      <trkpt lat="45.72119" lon="6.89747">
        <ele>1893.6</ele>
        <time>2021-10-03T06:59:40Z</time>
      </trkpt>
      <trkpt lat="45.72129" lon="6.89742">
        <ele>1894.4</ele>
        <time>2021-10-03T06:59:44Z</time>
      </trkpt>
      <trkpt lat="45.72147" lon="6.89741">
        <ele>1895.2</ele>
        <time>2021-10-03T06:59:52Z</time>
      </trkpt>
      <trkpt lat="45.72154" lon="6.89737">
        <ele>1895.4</ele>
        <time>2021-10-03T06:59:55Z</time>
      </trkpt>
      <trkpt lat="45.72171" lon="6.89733">
        <ele>1896.6</ele>
        <time>2021-10-03T07:00:02Z</time>
      </trkpt>
      <trkpt lat="45.7219" lon="6.89727">
        <ele>1897.2</ele>
        <time>2021-10-03T07:00:10Z</time>
      </trkpt>
      <trkpt lat="45.72197" lon="6.89724">
        <ele>1898</ele>
        <time>2021-10-03T07:00:13Z</time>
      </trkpt>
      <trkpt lat="45.72214" lon="6.89718">
        <ele>1898.4</ele>
        <time>2021-10-03T07:00:21Z</time>
      </trkpt>
      <trkpt lat="45.72221" lon="6.89716">
        <ele>1899.2</ele>
        <time>2021-10-03T07:00:24Z</time>
      </trkpt>
      <trkpt lat="45.7224" lon="6.89717">
        <ele>1900.2</ele>
        <time>2021-10-03T07:00:32Z</time>
      </trkpt>
      <trkpt lat="45.7226" lon="6.89716">
        <ele>1900.4</ele>
        <time>2021-10-03T07:00:40Z</time>
      </trkpt>
      <trkpt lat="45.72278" lon="6.8971">
        <ele>1901.2</ele>
        <time>2021-10-03T07:00:48Z</time>
      </trkpt>
      <trkpt lat="45.72283" lon="6.89708">
        <ele>1901.6</ele>
        <time>2021-10-03T07:00:50Z</time>
      </trkpt>
      <trkpt lat="45.72301" lon="6.897">
        <ele>1902.6</ele>
        <time>2021-10-03T07:00:58Z</time>
      </trkpt>
      <trkpt lat="45.72307" lon="6.89699">
        <ele>1902.6</ele>
        <time>2021-10-03T07:01:01Z</time>
      </trkpt>
      <trkpt lat="45.72325" lon="6.89692">
        <ele>1903.2</ele>
        <time>2021-10-03T07:01:10Z</time>
      </trkpt>
      <trkpt lat="45.72339" lon="6.8969">
        <ele>1903.8</ele>
        <time>2021-10-03T07:01:16Z</time>
      </trkpt>
      <trkpt lat="45.72352" lon="6.89685">
        <ele>1904.8</ele>
        <time>2021-10-03T07:01:22Z</time>
      </trkpt>
      <trkpt lat="45.72358" lon="6.89682">
        <ele>1906.2</ele>
        <time>2021-10-03T07:01:25Z</time>
      </trkpt>
      <trkpt lat="45.72374" lon="6.89678">
        <ele>1907.2</ele>
        <time>2021-10-03T07:01:32Z</time>
      </trkpt>
      <trkpt lat="45.72392" lon="6.89673">
        <ele>1907.6</ele>
        <time>2021-10-03T07:01:40Z</time>
      </trkpt>
      <trkpt lat="45.72401" lon="6.89672">
        <ele>1908.4</ele>
        <time>2021-10-03T07:01:44Z</time>
      </trkpt>
      <trkpt lat="45.72415" lon="6.89673">
        <ele>1909.4</ele>
        <time>2021-10-03T07:01:50Z</time>
      </trkpt>
      <trkpt lat="45.72432" lon="6.89666">
        <ele>1910</ele>
        <time>2021-10-03T07:01:58Z</time>
      </trkpt>
      <trkpt lat="45.72438" lon="6.89662">
        <ele>1910.4</ele>
        <time>2021-10-03T07:02:01Z</time>
      </trkpt>
      <trkpt lat="45.72453" lon="6.89658">
        <ele>1911.4</ele>
        <time>2021-10-03T07:02:08Z</time>
      </trkpt>
      <trkpt lat="45.7247" lon="6.8965">
        <ele>1912.6</ele>
        <time>2021-10-03T07:02:16Z</time>
      </trkpt>
      <trkpt lat="45.72488" lon="6.89652">
        <ele>1913.6</ele>
        <time>2021-10-03T07:02:24Z</time>
      </trkpt>
      <trkpt lat="45.72499" lon="6.89651">
        <ele>1915</ele>
        <time>2021-10-03T07:02:29Z</time>
      </trkpt>
      <trkpt lat="45.72517" lon="6.89646">
        <ele>1915.8</ele>
        <time>2021-10-03T07:02:38Z</time>
      </trkpt>
      <trkpt lat="45.72519" lon="6.89646">
        <ele>1916.2</ele>
        <time>2021-10-03T07:02:39Z</time>
      </trkpt>
      <trkpt lat="45.72532" lon="6.89643">
        <ele>1917.4</ele>
        <time>2021-10-03T07:02:45Z</time>
      </trkpt>
      <trkpt lat="45.7255" lon="6.89637">
        <ele>1918.4</ele>
        <time>2021-10-03T07:02:55Z</time>
      </trkpt>
      <trkpt lat="45.72564" lon="6.89625">
        <ele>1919.4</ele>
        <time>2021-10-03T07:03:02Z</time>
      </trkpt>
      <trkpt lat="45.72573" lon="6.89621">
        <ele>1920.4</ele>
        <time>2021-10-03T07:03:07Z</time>
      </trkpt>
      <trkpt lat="45.72587" lon="6.89619">
        <ele>1921.6</ele>
        <time>2021-10-03T07:03:13Z</time>
      </trkpt>
      <trkpt lat="45.72604" lon="6.89612">
        <ele>1922</ele>
        <time>2021-10-03T07:03:21Z</time>
      </trkpt>
      <trkpt lat="45.72612" lon="6.8961">
        <ele>1922.6</ele>
        <time>2021-10-03T07:03:25Z</time>
      </trkpt>
      <trkpt lat="45.7263" lon="6.89608">
        <ele>1923.8</ele>
        <time>2021-10-03T07:03:34Z</time>
      </trkpt>
      <trkpt lat="45.72648" lon="6.89608">
        <ele>1924.6</ele>
        <time>2021-10-03T07:03:43Z</time>
      </trkpt>
      <trkpt lat="45.72652" lon="6.89609">
        <ele>1925</ele>
        <time>2021-10-03T07:03:45Z</time>
      </trkpt>
      <trkpt lat="45.72666" lon="6.89606">
        <ele>1926</ele>
        <time>2021-10-03T07:03:52Z</time>
      </trkpt>
      <trkpt lat="45.72686" lon="6.89604">
        <ele>1927</ele>
        <time>2021-10-03T07:04:01Z</time>
      </trkpt>
      <trkpt lat="45.72689" lon="6.89603">
        <ele>1927.2</ele>
        <time>2021-10-03T07:04:02Z</time>
      </trkpt>
      <trkpt lat="45.72707" lon="6.89599">
        <ele>1928</ele>
        <time>2021-10-03T07:04:11Z</time>
      </trkpt>
      <trkpt lat="45.72717" lon="6.89596">
        <ele>1928.2</ele>
        <time>2021-10-03T07:04:16Z</time>
      </trkpt>
      <trkpt lat="45.72728" lon="6.89592">
        <ele>1929.2</ele>
        <time>2021-10-03T07:04:23Z</time>
      </trkpt>
      <trkpt lat="45.72746" lon="6.89584">
        <ele>1930.2</ele>
        <time>2021-10-03T07:04:33Z</time>
      </trkpt>
      <trkpt lat="45.72747" lon="6.89583">
        <ele>1930.4</ele>
        <time>2021-10-03T07:04:34Z</time>
      </trkpt>
      <trkpt lat="45.72766" lon="6.89576">
        <ele>1931.4</ele>
        <time>2021-10-03T07:04:44Z</time>
      </trkpt>
      <trkpt lat="45.7277" lon="6.89572">
        <ele>1931.4</ele>
        <time>2021-10-03T07:04:47Z</time>
      </trkpt>
      <trkpt lat="45.72785" lon="6.89558">
        <ele>1932.6</ele>
        <time>2021-10-03T07:04:56Z</time>
      </trkpt>
      <trkpt lat="45.72799" lon="6.8955">
        <ele>1933.6</ele>
        <time>2021-10-03T07:05:04Z</time>
      </trkpt>
      <trkpt lat="45.72816" lon="6.89551">
        <ele>1934.6</ele>
        <time>2021-10-03T07:05:13Z</time>
      </trkpt>
      <trkpt lat="45.72831" lon="6.89551">
        <ele>1935.8</ele>
        <time>2021-10-03T07:05:21Z</time>
      </trkpt>
      <trkpt lat="45.72839" lon="6.89553">
        <ele>1937</ele>
        <time>2021-10-03T07:05:26Z</time>
      </trkpt>
      <trkpt lat="45.72839" lon="6.89553">
        <ele>1937</ele>
        <time>2021-10-03T07:05:27Z</time>
      </trkpt>
      <trkpt lat="45.72842" lon="6.89553">
        <ele>1937.2</ele>
        <time>2021-10-03T07:05:30Z</time>
      </trkpt>
      <trkpt lat="45.72849" lon="6.89551">
        <ele>1938</ele>
        <time>2021-10-03T07:05:35Z</time>
      </trkpt>
      <trkpt lat="45.72865" lon="6.89544">
        <ele>1939.2</ele>
        <time>2021-10-03T07:05:45Z</time>
      </trkpt>
      <trkpt lat="45.72877" lon="6.89537">
        <ele>1940.2</ele>
        <time>2021-10-03T07:05:53Z</time>
      </trkpt>
      <trkpt lat="45.72884" lon="6.89535">
        <ele>1941.4</ele>
        <time>2021-10-03T07:05:57Z</time>
      </trkpt>
      <trkpt lat="45.72899" lon="6.89529">
        <ele>1942.4</ele>
        <time>2021-10-03T07:06:05Z</time>
      </trkpt>
      <trkpt lat="45.72912" lon="6.89524">
        <ele>1943.4</ele>
        <time>2021-10-03T07:06:12Z</time>
      </trkpt>
      <trkpt lat="45.7293" lon="6.89518">
        <ele>1944.6</ele>
        <time>2021-10-03T07:06:20Z</time>
      </trkpt>
      <trkpt lat="45.72938" lon="6.89515">
        <ele>1945.6</ele>
        <time>2021-10-03T07:06:24Z</time>
      </trkpt>
      <trkpt lat="45.72947" lon="6.89511">
        <ele>1946.8</ele>
        <time>2021-10-03T07:06:28Z</time>
      </trkpt>
      <trkpt lat="45.72964" lon="6.89505">
        <ele>1948</ele>
        <time>2021-10-03T07:06:36Z</time>
      </trkpt>
      <trkpt lat="45.72978" lon="6.8949">
        <ele>1949</ele>
        <time>2021-10-03T07:06:45Z</time>
      </trkpt>
      <trkpt lat="45.72988" lon="6.89481">
        <ele>1950</ele>
        <time>2021-10-03T07:06:51Z</time>
      </trkpt>
      <trkpt lat="45.73001" lon="6.89469">
        <ele>1951</ele>
        <time>2021-10-03T07:06:58Z</time>
      </trkpt>
      <trkpt lat="45.73019" lon="6.8946">
        <ele>1952.2</ele>
        <time>2021-10-03T07:07:08Z</time>
      </trkpt>
      <trkpt lat="45.73028" lon="6.89458">
        <ele>1953.2</ele>
        <time>2021-10-03T07:07:14Z</time>
      </trkpt>
      <trkpt lat="45.73045" lon="6.89453">
        <ele>1954.2</ele>
        <time>2021-10-03T07:07:25Z</time>
      </trkpt>
      <trkpt lat="45.73065" lon="6.8945">
        <ele>1955</ele>
        <time>2021-10-03T07:07:36Z</time>
      </trkpt>
      <trkpt lat="45.73066" lon="6.8945">
        <ele>1955.4</ele>
        <time>2021-10-03T07:07:37Z</time>
      </trkpt>
      <trkpt lat="45.73071" lon="6.89448">
        <ele>1956.6</ele>
        <time>2021-10-03T07:07:41Z</time>
      </trkpt>
      <trkpt lat="45.73078" lon="6.89443">
        <ele>1957.8</ele>
        <time>2021-10-03T07:07:45Z</time>
      </trkpt>
      <trkpt lat="45.73089" lon="6.89432">
        <ele>1958.8</ele>
        <time>2021-10-03T07:07:54Z</time>
      </trkpt>
      <trkpt lat="45.73102" lon="6.89422">
        <ele>1959.8</ele>
        <time>2021-10-03T07:08:03Z</time>
      </trkpt>
      <trkpt lat="45.73115" lon="6.89415">
        <ele>1961</ele>
        <time>2021-10-03T07:08:11Z</time>
      </trkpt>
      <trkpt lat="45.73127" lon="6.89414">
        <ele>1962</ele>
        <time>2021-10-03T07:08:19Z</time>
      </trkpt>
      <trkpt lat="45.73138" lon="6.89405">
        <ele>1963</ele>
        <time>2021-10-03T07:08:27Z</time>
      </trkpt>
      <trkpt lat="45.73151" lon="6.89393">
        <ele>1964.2</ele>
        <time>2021-10-03T07:08:36Z</time>
      </trkpt>
      <trkpt lat="45.73163" lon="6.89383">
        <ele>1965.2</ele>
        <time>2021-10-03T07:08:44Z</time>
      </trkpt>
      <trkpt lat="45.73179" lon="6.89375">
        <ele>1966.2</ele>
        <time>2021-10-03T07:08:53Z</time>
      </trkpt>
      <trkpt lat="45.73189" lon="6.89366">
        <ele>1967.2</ele>
        <time>2021-10-03T07:09:00Z</time>
      </trkpt>
      <trkpt lat="45.7319" lon="6.89365">
        <ele>1967.4</ele>
        <time>2021-10-03T07:09:01Z</time>
      </trkpt>
      <trkpt lat="45.73198" lon="6.89356">
        <ele>1968.4</ele>
        <time>2021-10-03T07:09:07Z</time>
      </trkpt>
      <trkpt lat="45.73211" lon="6.89353">
        <ele>1969.4</ele>
        <time>2021-10-03T07:09:15Z</time>
      </trkpt>
      <trkpt lat="45.73219" lon="6.89344">
        <ele>1970.6</ele>
        <time>2021-10-03T07:09:21Z</time>
      </trkpt>
      <trkpt lat="45.73231" lon="6.89324">
        <ele>1971.4</ele>
        <time>2021-10-03T07:09:31Z</time>
      </trkpt>
      <trkpt lat="45.73233" lon="6.89321">
        <ele>1971.6</ele>
        <time>2021-10-03T07:09:33Z</time>
      </trkpt>
      <trkpt lat="45.7325" lon="6.89306">
        <ele>1972.4</ele>
        <time>2021-10-03T07:09:45Z</time>
      </trkpt>
      <trkpt lat="45.73252" lon="6.89303">
        <ele>1972.6</ele>
        <time>2021-10-03T07:09:47Z</time>
      </trkpt>
      <trkpt lat="45.7326" lon="6.89295">
        <ele>1973.8</ele>
        <time>2021-10-03T07:09:52Z</time>
      </trkpt>
      <trkpt lat="45.7327" lon="6.89288">
        <ele>1974.8</ele>
        <time>2021-10-03T07:09:58Z</time>
      </trkpt>
      <trkpt lat="45.7328" lon="6.89278">
        <ele>1976</ele>
        <time>2021-10-03T07:10:05Z</time>
      </trkpt>
      <trkpt lat="45.73291" lon="6.89273">
        <ele>1977</ele>
        <time>2021-10-03T07:10:12Z</time>
      </trkpt>
      <trkpt lat="45.73298" lon="6.89268">
        <ele>1977.6</ele>
        <time>2021-10-03T07:10:16Z</time>
      </trkpt>
      <trkpt lat="45.73303" lon="6.89256">
        <ele>1978</ele>
        <time>2021-10-03T07:10:21Z</time>
      </trkpt>
      <trkpt lat="45.73309" lon="6.89244">
        <ele>1979.2</ele>
        <time>2021-10-03T07:10:27Z</time>
      </trkpt>
      <trkpt lat="45.73322" lon="6.89232">
        <ele>1980.4</ele>
        <time>2021-10-03T07:10:36Z</time>
      </trkpt>
      <trkpt lat="45.73333" lon="6.89227">
        <ele>1981.4</ele>
        <time>2021-10-03T07:10:43Z</time>
      </trkpt>
      <trkpt lat="45.73335" lon="6.89227">
        <ele>1981.6</ele>
        <time>2021-10-03T07:10:44Z</time>
      </trkpt>
      <trkpt lat="45.73347" lon="6.89224">
        <ele>1982.6</ele>
        <time>2021-10-03T07:10:51Z</time>
      </trkpt>
      <trkpt lat="45.73364" lon="6.89217">
        <ele>1983.2</ele>
        <time>2021-10-03T07:11:00Z</time>
      </trkpt>
      <trkpt lat="45.73369" lon="6.89213">
        <ele>1983.6</ele>
        <time>2021-10-03T07:11:03Z</time>
      </trkpt>
      <trkpt lat="45.73378" lon="6.89206">
        <ele>1984.8</ele>
        <time>2021-10-03T07:11:08Z</time>
      </trkpt>
      <trkpt lat="45.73386" lon="6.89196">
        <ele>1986.2</ele>
        <time>2021-10-03T07:11:13Z</time>
      </trkpt>
      <trkpt lat="45.73402" lon="6.89177">
        <ele>1986.8</ele>
        <time>2021-10-03T07:11:22Z</time>
      </trkpt>
      <trkpt lat="45.73404" lon="6.89176">
        <ele>1987.2</ele>
        <time>2021-10-03T07:11:23Z</time>
      </trkpt>
      <trkpt lat="45.73416" lon="6.89165">
        <ele>1988.4</ele>
        <time>2021-10-03T07:11:30Z</time>
      </trkpt>
      <trkpt lat="45.73423" lon="6.89158">
        <ele>1989.4</ele>
        <time>2021-10-03T07:11:34Z</time>
      </trkpt>
      <trkpt lat="45.73432" lon="6.89154">
        <ele>1990.4</ele>
        <time>2021-10-03T07:11:39Z</time>
      </trkpt>
      <trkpt lat="45.73451" lon="6.89142">
        <ele>1991.4</ele>
        <time>2021-10-03T07:11:49Z</time>
      </trkpt>
      <trkpt lat="45.73452" lon="6.8914">
        <ele>1991.6</ele>
        <time>2021-10-03T07:11:50Z</time>
      </trkpt>
      <trkpt lat="45.73459" lon="6.89127">
        <ele>1992.6</ele>
        <time>2021-10-03T07:11:55Z</time>
      </trkpt>
      <trkpt lat="45.73465" lon="6.89101">
        <ele>1993.6</ele>
        <time>2021-10-03T07:12:03Z</time>
      </trkpt>
      <trkpt lat="45.73466" lon="6.89095">
        <ele>1993.8</ele>
        <time>2021-10-03T07:12:05Z</time>
      </trkpt>
      <trkpt lat="45.73468" lon="6.89082">
        <ele>1995</ele>
        <time>2021-10-03T07:12:09Z</time>
      </trkpt>
      <trkpt lat="45.73474" lon="6.89066">
        <ele>1996.2</ele>
        <time>2021-10-03T07:12:15Z</time>
      </trkpt>
      <trkpt lat="45.73489" lon="6.89052">
        <ele>1996.8</ele>
        <time>2021-10-03T07:12:26Z</time>
      </trkpt>
      <trkpt lat="45.73497" lon="6.89045">
        <ele>1997.4</ele>
        <time>2021-10-03T07:12:32Z</time>
      </trkpt>
      <trkpt lat="45.73507" lon="6.89042">
        <ele>1998.4</ele>
        <time>2021-10-03T07:12:38Z</time>
      </trkpt>
      <trkpt lat="45.73508" lon="6.89041">
        <ele>1998.4</ele>
        <time>2021-10-03T07:12:39Z</time>
      </trkpt>
      <trkpt lat="45.73527" lon="6.89035">
        <ele>1999.2</ele>
        <time>2021-10-03T07:12:50Z</time>
      </trkpt>
      <trkpt lat="45.7353" lon="6.89034">
        <ele>1999.6</ele>
        <time>2021-10-03T07:12:52Z</time>
      </trkpt>
      <trkpt lat="45.73538" lon="6.8903">
        <ele>2000.6</ele>
        <time>2021-10-03T07:12:57Z</time>
      </trkpt>
      <trkpt lat="45.73555" lon="6.89024">
        <ele>2001.6</ele>
        <time>2021-10-03T07:13:07Z</time>
      </trkpt>
      <trkpt lat="45.73565" lon="6.89011">
        <ele>2002.6</ele>
        <time>2021-10-03T07:13:16Z</time>
      </trkpt>
      <trkpt lat="45.73571" lon="6.89002">
        <ele>2003.8</ele>
        <time>2021-10-03T07:13:21Z</time>
      </trkpt>
      <trkpt lat="45.73579" lon="6.88988">
        <ele>2005</ele>
        <time>2021-10-03T07:13:29Z</time>
      </trkpt>
      <trkpt lat="45.73595" lon="6.88975">
        <ele>2006</ele>
        <time>2021-10-03T07:13:40Z</time>
      </trkpt>
      <trkpt lat="45.73603" lon="6.88967">
        <ele>2007.2</ele>
        <time>2021-10-03T07:13:46Z</time>
      </trkpt>
      <trkpt lat="45.7362" lon="6.88958">
        <ele>2008.2</ele>
        <time>2021-10-03T07:13:57Z</time>
      </trkpt>
      <trkpt lat="45.73622" lon="6.88957">
        <ele>2008.2</ele>
        <time>2021-10-03T07:13:58Z</time>
      </trkpt>
      <trkpt lat="45.73629" lon="6.88952">
        <ele>2009.6</ele>
        <time>2021-10-03T07:14:03Z</time>
      </trkpt>
      <trkpt lat="45.73641" lon="6.88947">
        <ele>2010</ele>
        <time>2021-10-03T07:14:10Z</time>
      </trkpt>
      <trkpt lat="45.7365" lon="6.88937">
        <ele>2010.8</ele>
        <time>2021-10-03T07:14:17Z</time>
      </trkpt>
      <trkpt lat="45.73656" lon="6.88928">
        <ele>2011.8</ele>
        <time>2021-10-03T07:14:23Z</time>
      </trkpt>
      <trkpt lat="45.73666" lon="6.88915">
        <ele>2012.8</ele>
        <time>2021-10-03T07:14:32Z</time>
      </trkpt>
      <trkpt lat="45.73673" lon="6.88909">
        <ele>2013.8</ele>
        <time>2021-10-03T07:14:36Z</time>
      </trkpt>
      <trkpt lat="45.73686" lon="6.88892">
        <ele>2015</ele>
        <time>2021-10-03T07:14:47Z</time>
      </trkpt>
      <trkpt lat="45.73692" lon="6.88879">
        <ele>2016.2</ele>
        <time>2021-10-03T07:14:53Z</time>
      </trkpt>
      <trkpt lat="45.73701" lon="6.88856">
        <ele>2017</ele>
        <time>2021-10-03T07:15:03Z</time>
      </trkpt>
      <trkpt lat="45.73702" lon="6.88854">
        <ele>2017.2</ele>
        <time>2021-10-03T07:15:04Z</time>
      </trkpt>
      <trkpt lat="45.73714" lon="6.88838">
        <ele>2018.4</ele>
        <time>2021-10-03T07:15:14Z</time>
      </trkpt>
      <trkpt lat="45.73717" lon="6.88836">
        <ele>2018.6</ele>
        <time>2021-10-03T07:15:16Z</time>
      </trkpt>
      <trkpt lat="45.73725" lon="6.8883">
        <ele>2019.4</ele>
        <time>2021-10-03T07:15:21Z</time>
      </trkpt>
      <trkpt lat="45.73737" lon="6.88813">
        <ele>2020.6</ele>
        <time>2021-10-03T07:15:31Z</time>
      </trkpt>
      <trkpt lat="45.73741" lon="6.88805">
        <ele>2021.6</ele>
        <time>2021-10-03T07:15:35Z</time>
      </trkpt>
      <trkpt lat="45.73752" lon="6.88784">
        <ele>2022.8</ele>
        <time>2021-10-03T07:15:47Z</time>
      </trkpt>
      <trkpt lat="45.73757" lon="6.88774">
        <ele>2024</ele>
        <time>2021-10-03T07:15:52Z</time>
      </trkpt>
      <trkpt lat="45.73763" lon="6.88762">
        <ele>2025</ele>
        <time>2021-10-03T07:15:58Z</time>
      </trkpt>
      <trkpt lat="45.73773" lon="6.88746">
        <ele>2026.2</ele>
        <time>2021-10-03T07:16:07Z</time>
      </trkpt>
      <trkpt lat="45.73779" lon="6.88733">
        <ele>2027.2</ele>
        <time>2021-10-03T07:16:14Z</time>
      </trkpt>
      <trkpt lat="45.73782" lon="6.8872">
        <ele>2028.2</ele>
        <time>2021-10-03T07:16:20Z</time>
      </trkpt>
      <trkpt lat="45.73784" lon="6.88711">
        <ele>2029.4</ele>
        <time>2021-10-03T07:16:24Z</time>
      </trkpt>
      <trkpt lat="45.73784" lon="6.88694">
        <ele>2030.6</ele>
        <time>2021-10-03T07:16:31Z</time>
      </trkpt>
      <trkpt lat="45.73784" lon="6.88689">
        <ele>2030.8</ele>
        <time>2021-10-03T07:16:33Z</time>
      </trkpt>
      <trkpt lat="45.73791" lon="6.8867">
        <ele>2031.8</ele>
        <time>2021-10-03T07:16:41Z</time>
      </trkpt>
      <trkpt lat="45.738" lon="6.88652">
        <ele>2032.8</ele>
        <time>2021-10-03T07:16:48Z</time>
      </trkpt>
      <trkpt lat="45.73811" lon="6.88631">
        <ele>2033.6</ele>
        <time>2021-10-03T07:16:57Z</time>
      </trkpt>
      <trkpt lat="45.73816" lon="6.88623">
        <ele>2034</ele>
        <time>2021-10-03T07:17:01Z</time>
      </trkpt>
      <trkpt lat="45.73823" lon="6.88608">
        <ele>2035</ele>
        <time>2021-10-03T07:17:08Z</time>
      </trkpt>
      <trkpt lat="45.73827" lon="6.88598">
        <ele>2036.2</ele>
        <time>2021-10-03T07:17:12Z</time>
      </trkpt>
      <trkpt lat="45.73839" lon="6.88588">
        <ele>2037.2</ele>
        <time>2021-10-03T07:17:19Z</time>
      </trkpt>
      <trkpt lat="45.73856" lon="6.88588">
        <ele>2038.2</ele>
        <time>2021-10-03T07:17:27Z</time>
      </trkpt>
      <trkpt lat="45.73869" lon="6.88591">
        <ele>2039.2</ele>
        <time>2021-10-03T07:17:35Z</time>
      </trkpt>
      <trkpt lat="45.73883" lon="6.88584">
        <ele>2040.2</ele>
        <time>2021-10-03T07:17:44Z</time>
      </trkpt>
      <trkpt lat="45.7389" lon="6.88576">
        <ele>2041.6</ele>
        <time>2021-10-03T07:17:50Z</time>
      </trkpt>
      <trkpt lat="45.73896" lon="6.88564">
        <ele>2042.6</ele>
        <time>2021-10-03T07:17:56Z</time>
      </trkpt>
      <trkpt lat="45.73901" lon="6.88548">
        <ele>2043.8</ele>
        <time>2021-10-03T07:18:04Z</time>
      </trkpt>
      <trkpt lat="45.73907" lon="6.88536">
        <ele>2044.8</ele>
        <time>2021-10-03T07:18:10Z</time>
      </trkpt>
      <trkpt lat="45.7391" lon="6.88527">
        <ele>2046</ele>
        <time>2021-10-03T07:18:14Z</time>
      </trkpt>
      <trkpt lat="45.73918" lon="6.88508">
        <ele>2047</ele>
        <time>2021-10-03T07:18:24Z</time>
      </trkpt>
      <trkpt lat="45.73918" lon="6.88506">
        <ele>2047</ele>
        <time>2021-10-03T07:18:25Z</time>
      </trkpt>
      <trkpt lat="45.7392" lon="6.88498">
        <ele>2048.2</ele>
        <time>2021-10-03T07:18:29Z</time>
      </trkpt>
      <trkpt lat="45.73923" lon="6.8849">
        <ele>2049.2</ele>
        <time>2021-10-03T07:18:33Z</time>
      </trkpt>
      <trkpt lat="45.73924" lon="6.88488">
        <ele>2049.6</ele>
        <time>2021-10-03T07:18:34Z</time>
      </trkpt>
      <trkpt lat="45.73929" lon="6.8848">
        <ele>2050.4</ele>
        <time>2021-10-03T07:18:39Z</time>
      </trkpt>
      <trkpt lat="45.73935" lon="6.88472">
        <ele>2051</ele>
        <time>2021-10-03T07:18:44Z</time>
      </trkpt>
      <trkpt lat="45.7394" lon="6.88466">
        <ele>2051.6</ele>
        <time>2021-10-03T07:18:48Z</time>
      </trkpt>
      <trkpt lat="45.73945" lon="6.88459">
        <ele>2052.6</ele>
        <time>2021-10-03T07:18:52Z</time>
      </trkpt>
      <trkpt lat="45.73952" lon="6.88451">
        <ele>2053.8</ele>
        <time>2021-10-03T07:18:57Z</time>
      </trkpt>
      <trkpt lat="45.73959" lon="6.88445">
        <ele>2055</ele>
        <time>2021-10-03T07:19:02Z</time>
      </trkpt>
      <trkpt lat="45.73966" lon="6.88437">
        <ele>2056</ele>
        <time>2021-10-03T07:19:08Z</time>
      </trkpt>
      <trkpt lat="45.73973" lon="6.8843">
        <ele>2057.2</ele>
        <time>2021-10-03T07:19:14Z</time>
      </trkpt>
      <trkpt lat="45.73978" lon="6.88427">
        <ele>2058.2</ele>
        <time>2021-10-03T07:19:17Z</time>
      </trkpt>
      <trkpt lat="45.73984" lon="6.8842">
        <ele>2059.4</ele>
        <time>2021-10-03T07:19:23Z</time>
      </trkpt>
      <trkpt lat="45.73989" lon="6.88414">
        <ele>2060.4</ele>
        <time>2021-10-03T07:19:28Z</time>
      </trkpt>
      <trkpt lat="45.73996" lon="6.88398">
        <ele>2061.4</ele>
        <time>2021-10-03T07:19:37Z</time>
      </trkpt>
      <trkpt lat="45.73999" lon="6.88381">
        <ele>2062.6</ele>
        <time>2021-10-03T07:19:44Z</time>
      </trkpt>
      <trkpt lat="45.73998" lon="6.88354">
        <ele>2063.6</ele>
        <time>2021-10-03T07:19:55Z</time>
      </trkpt>
      <trkpt lat="45.74006" lon="6.88336">
        <ele>2064.8</ele>
        <time>2021-10-03T07:20:04Z</time>
      </trkpt>
      <trkpt lat="45.74012" lon="6.88325">
        <ele>2065.8</ele>
        <time>2021-10-03T07:20:10Z</time>
      </trkpt>
      <trkpt lat="45.74013" lon="6.88323">
        <ele>2066</ele>
        <time>2021-10-03T07:20:11Z</time>
      </trkpt>
      <trkpt lat="45.74016" lon="6.88311">
        <ele>2066.8</ele>
        <time>2021-10-03T07:20:17Z</time>
      </trkpt>
      <trkpt lat="45.74021" lon="6.88296">
        <ele>2068</ele>
        <time>2021-10-03T07:20:24Z</time>
      </trkpt>
      <trkpt lat="45.74025" lon="6.88285">
        <ele>2069.2</ele>
        <time>2021-10-03T07:20:29Z</time>
      </trkpt>
      <trkpt lat="45.74028" lon="6.88273">
        <ele>2070.4</ele>
        <time>2021-10-03T07:20:35Z</time>
      </trkpt>
      <trkpt lat="45.7403" lon="6.88265">
        <ele>2070.8</ele>
        <time>2021-10-03T07:20:39Z</time>
      </trkpt>
      <trkpt lat="45.74031" lon="6.88257">
        <ele>2071.6</ele>
        <time>2021-10-03T07:20:43Z</time>
      </trkpt>
      <trkpt lat="45.74035" lon="6.88239">
        <ele>2072.8</ele>
        <time>2021-10-03T07:20:52Z</time>
      </trkpt>
      <trkpt lat="45.74039" lon="6.88226">
        <ele>2073.8</ele>
        <time>2021-10-03T07:21:00Z</time>
      </trkpt>
      <trkpt lat="45.74044" lon="6.88212">
        <ele>2074.8</ele>
        <time>2021-10-03T07:21:08Z</time>
      </trkpt>
      <trkpt lat="45.74045" lon="6.88207">
        <ele>2076</ele>
        <time>2021-10-03T07:21:11Z</time>
      </trkpt>
      <trkpt lat="45.74048" lon="6.88195">
        <ele>2077.2</ele>
        <time>2021-10-03T07:21:17Z</time>
      </trkpt>
      <trkpt lat="45.74051" lon="6.88189">
        <ele>2078.4</ele>
        <time>2021-10-03T07:21:20Z</time>
      </trkpt>
      <trkpt lat="45.74058" lon="6.88174">
        <ele>2079.6</ele>
        <time>2021-10-03T07:21:29Z</time>
      </trkpt>
      <trkpt lat="45.74061" lon="6.88168">
        <ele>2080.6</ele>
        <time>2021-10-03T07:21:32Z</time>
      </trkpt>
      <trkpt lat="45.74067" lon="6.88154">
        <ele>2081.6</ele>
        <time>2021-10-03T07:21:39Z</time>
      </trkpt>
      <trkpt lat="45.74074" lon="6.88133">
        <ele>2082.8</ele>
        <time>2021-10-03T07:21:51Z</time>
      </trkpt>
      <trkpt lat="45.74076" lon="6.88124">
        <ele>2083.8</ele>
        <time>2021-10-03T07:21:56Z</time>
      </trkpt>
      <trkpt lat="45.74078" lon="6.88116">
        <ele>2085</ele>
        <time>2021-10-03T07:22:00Z</time>
      </trkpt>
      <trkpt lat="45.74081" lon="6.88105">
        <ele>2086</ele>
        <time>2021-10-03T07:22:06Z</time>
      </trkpt>
      <trkpt lat="45.7409" lon="6.88087">
        <ele>2087</ele>
        <time>2021-10-03T07:22:16Z</time>
      </trkpt>
      <trkpt lat="45.74093" lon="6.8808">
        <ele>2087.6</ele>
        <time>2021-10-03T07:22:20Z</time>
      </trkpt>
      <trkpt lat="45.74094" lon="6.88076">
        <ele>2088.2</ele>
        <time>2021-10-03T07:22:22Z</time>
      </trkpt>
      <trkpt lat="45.74094" lon="6.88074">
        <ele>2088.6</ele>
        <time>2021-10-03T07:22:23Z</time>
      </trkpt>
      <trkpt lat="45.74096" lon="6.88071">
        <ele>2089.2</ele>
        <time>2021-10-03T07:22:25Z</time>
      </trkpt>
      <trkpt lat="45.74097" lon="6.88069">
        <ele>2089.4</ele>
        <time>2021-10-03T07:22:26Z</time>
      </trkpt>
      <trkpt lat="45.74097" lon="6.88064">
        <ele>2090.2</ele>
        <time>2021-10-03T07:22:29Z</time>
      </trkpt>
      <trkpt lat="45.74098" lon="6.88061">
        <ele>2090.4</ele>
        <time>2021-10-03T07:22:30Z</time>
      </trkpt>
      <trkpt lat="45.74101" lon="6.8805">
        <ele>2091.2</ele>
        <time>2021-10-03T07:22:35Z</time>
      </trkpt>
      <trkpt lat="45.74106" lon="6.88032">
        <ele>2092.4</ele>
        <time>2021-10-03T07:22:43Z</time>
      </trkpt>
      <trkpt lat="45.74107" lon="6.88031">
        <ele>2092.8</ele>
        <time>2021-10-03T07:22:44Z</time>
      </trkpt>
      <trkpt lat="45.7411" lon="6.88022">
        <ele>2093.6</ele>
        <time>2021-10-03T07:22:48Z</time>
      </trkpt>
      <trkpt lat="45.74112" lon="6.88004">
        <ele>2094.8</ele>
        <time>2021-10-03T07:22:57Z</time>
      </trkpt>
      <trkpt lat="45.74114" lon="6.8799">
        <ele>2095.8</ele>
        <time>2021-10-03T07:23:03Z</time>
      </trkpt>
      <trkpt lat="45.74116" lon="6.87982">
        <ele>2096.8</ele>
        <time>2021-10-03T07:23:07Z</time>
      </trkpt>
      <trkpt lat="45.74119" lon="6.8797">
        <ele>2098</ele>
        <time>2021-10-03T07:23:13Z</time>
      </trkpt>
      <trkpt lat="45.74122" lon="6.87959">
        <ele>2099</ele>
        <time>2021-10-03T07:23:19Z</time>
      </trkpt>
      <trkpt lat="45.74124" lon="6.87943">
        <ele>2100</ele>
        <time>2021-10-03T07:23:27Z</time>
      </trkpt>
      <trkpt lat="45.74125" lon="6.87931">
        <ele>2101.2</ele>
        <time>2021-10-03T07:23:32Z</time>
      </trkpt>
      <trkpt lat="45.74126" lon="6.87929">
        <ele>2101.4</ele>
        <time>2021-10-03T07:23:33Z</time>
      </trkpt>
      <trkpt lat="45.74128" lon="6.8792">
        <ele>2102.2</ele>
        <time>2021-10-03T07:23:37Z</time>
      </trkpt>
      <trkpt lat="45.74132" lon="6.87909">
        <ele>2103.4</ele>
        <time>2021-10-03T07:23:43Z</time>
      </trkpt>
      <trkpt lat="45.74136" lon="6.87899">
        <ele>2104.4</ele>
        <time>2021-10-03T07:23:48Z</time>
      </trkpt>
      <trkpt lat="45.7414" lon="6.87885">
        <ele>2105.4</ele>
        <time>2021-10-03T07:23:54Z</time>
      </trkpt>
      <trkpt lat="45.74146" lon="6.8787">
        <ele>2106.6</ele>
        <time>2021-10-03T07:24:02Z</time>
      </trkpt>
      <trkpt lat="45.74147" lon="6.87861">
        <ele>2107.6</ele>
        <time>2021-10-03T07:24:06Z</time>
      </trkpt>
      <trkpt lat="45.74148" lon="6.87852">
        <ele>2108.8</ele>
        <time>2021-10-03T07:24:10Z</time>
      </trkpt>
      <trkpt lat="45.74152" lon="6.87837">
        <ele>2109.8</ele>
        <time>2021-10-03T07:24:18Z</time>
      </trkpt>
      <trkpt lat="45.74156" lon="6.87828">
        <ele>2111</ele>
        <time>2021-10-03T07:24:23Z</time>
      </trkpt>
      <trkpt lat="45.74162" lon="6.8782">
        <ele>2112</ele>
        <time>2021-10-03T07:24:29Z</time>
      </trkpt>
      <trkpt lat="45.74166" lon="6.87808">
        <ele>2112.6</ele>
        <time>2021-10-03T07:24:35Z</time>
      </trkpt>
      <trkpt lat="45.74167" lon="6.87804">
        <ele>2113</ele>
        <time>2021-10-03T07:24:37Z</time>
      </trkpt>
      <trkpt lat="45.74169" lon="6.87799">
        <ele>2113.6</ele>
        <time>2021-10-03T07:24:40Z</time>
      </trkpt>
      <trkpt lat="45.74171" lon="6.87792">
        <ele>2114.2</ele>
        <time>2021-10-03T07:24:43Z</time>
      </trkpt>
      <trkpt lat="45.74172" lon="6.87783">
        <ele>2115.4</ele>
        <time>2021-10-03T07:24:47Z</time>
      </trkpt>
      <trkpt lat="45.74174" lon="6.8777">
        <ele>2116.6</ele>
        <time>2021-10-03T07:24:54Z</time>
      </trkpt>
      <trkpt lat="45.7418" lon="6.87761">
        <ele>2117.6</ele>
        <time>2021-10-03T07:24:59Z</time>
      </trkpt>
      <trkpt lat="45.74187" lon="6.87754">
        <ele>2118.6</ele>
        <time>2021-10-03T07:25:05Z</time>
      </trkpt>
      <trkpt lat="45.74199" lon="6.87743">
        <ele>2119.8</ele>
        <time>2021-10-03T07:25:14Z</time>
      </trkpt>
      <trkpt lat="45.74202" lon="6.87738">
        <ele>2120.4</ele>
        <time>2021-10-03T07:25:17Z</time>
      </trkpt>
      <trkpt lat="45.74204" lon="6.87735">
        <ele>2121</ele>
        <time>2021-10-03T07:25:19Z</time>
      </trkpt>
      <trkpt lat="45.74205" lon="6.87731">
        <ele>2121.2</ele>
        <time>2021-10-03T07:25:21Z</time>
      </trkpt>
      <trkpt lat="45.74206" lon="6.87721">
        <ele>2122</ele>
        <time>2021-10-03T07:25:25Z</time>
      </trkpt>
      <trkpt lat="45.74208" lon="6.8771">
        <ele>2123</ele>
        <time>2021-10-03T07:25:29Z</time>
      </trkpt>
      <trkpt lat="45.74211" lon="6.87697">
        <ele>2124.2</ele>
        <time>2021-10-03T07:25:35Z</time>
      </trkpt>
      <trkpt lat="45.74216" lon="6.87685">
        <ele>2125.2</ele>
        <time>2021-10-03T07:25:42Z</time>
      </trkpt>
      <trkpt lat="45.74217" lon="6.87684">
        <ele>2125.4</ele>
        <time>2021-10-03T07:25:43Z</time>
      </trkpt>
      <trkpt lat="45.74222" lon="6.87677">
        <ele>2126.4</ele>
        <time>2021-10-03T07:25:48Z</time>
      </trkpt>
      <trkpt lat="45.74228" lon="6.87661">
        <ele>2127.4</ele>
        <time>2021-10-03T07:25:57Z</time>
      </trkpt>
      <trkpt lat="45.74233" lon="6.87652">
        <ele>2128.6</ele>
        <time>2021-10-03T07:26:02Z</time>
      </trkpt>
      <trkpt lat="45.74237" lon="6.87644">
        <ele>2130</ele>
        <time>2021-10-03T07:26:07Z</time>
      </trkpt>
      <trkpt lat="45.74238" lon="6.87643">
        <ele>2130</ele>
        <time>2021-10-03T07:26:08Z</time>
      </trkpt>
      <trkpt lat="45.74247" lon="6.87637">
        <ele>2131</ele>
        <time>2021-10-03T07:26:14Z</time>
      </trkpt>
      <trkpt lat="45.74255" lon="6.87627">
        <ele>2132.2</ele>
        <time>2021-10-03T07:26:21Z</time>
      </trkpt>
      <trkpt lat="45.74261" lon="6.87618">
        <ele>2133.2</ele>
        <time>2021-10-03T07:26:27Z</time>
      </trkpt>
      <trkpt lat="45.74261" lon="6.87613">
        <ele>2133.2</ele>
        <time>2021-10-03T07:26:29Z</time>
      </trkpt>
      <trkpt lat="45.74252" lon="6.87591">
        <ele>2134.2</ele>
        <time>2021-10-03T07:26:41Z</time>
      </trkpt>
      <trkpt lat="45.74251" lon="6.87589">
        <ele>2134.4</ele>
        <time>2021-10-03T07:26:42Z</time>
      </trkpt>
      <trkpt lat="45.74245" lon="6.87575">
        <ele>2135.4</ele>
        <time>2021-10-03T07:26:48Z</time>
      </trkpt>
      <trkpt lat="45.74244" lon="6.87557">
        <ele>2136.6</ele>
        <time>2021-10-03T07:26:56Z</time>
      </trkpt>
      <trkpt lat="45.74249" lon="6.87536">
        <ele>2137.8</ele>
        <time>2021-10-03T07:27:07Z</time>
      </trkpt>
      <trkpt lat="45.74251" lon="6.87522">
        <ele>2139</ele>
        <time>2021-10-03T07:27:14Z</time>
      </trkpt>
      <trkpt lat="45.74251" lon="6.87515">
        <ele>2140</ele>
        <time>2021-10-03T07:27:18Z</time>
      </trkpt>
      <trkpt lat="45.74252" lon="6.87506">
        <ele>2141</ele>
        <time>2021-10-03T07:27:22Z</time>
      </trkpt>
      <trkpt lat="45.74255" lon="6.87489">
        <ele>2142</ele>
        <time>2021-10-03T07:27:29Z</time>
      </trkpt>
      <trkpt lat="45.74256" lon="6.87477">
        <ele>2143</ele>
        <time>2021-10-03T07:27:35Z</time>
      </trkpt>
      <trkpt lat="45.74258" lon="6.87467">
        <ele>2144</ele>
        <time>2021-10-03T07:27:40Z</time>
      </trkpt>
      <trkpt lat="45.74263" lon="6.87451">
        <ele>2145.2</ele>
        <time>2021-10-03T07:27:48Z</time>
      </trkpt>
      <trkpt lat="45.74266" lon="6.87439">
        <ele>2146.4</ele>
        <time>2021-10-03T07:27:53Z</time>
      </trkpt>
      <trkpt lat="45.74269" lon="6.87431">
        <ele>2147.4</ele>
        <time>2021-10-03T07:27:57Z</time>
      </trkpt>
      <trkpt lat="45.74274" lon="6.87418">
        <ele>2148.6</ele>
        <time>2021-10-03T07:28:03Z</time>
      </trkpt>
      <trkpt lat="45.74274" lon="6.87411">
        <ele>2149.4</ele>
        <time>2021-10-03T07:28:07Z</time>
      </trkpt>
      <trkpt lat="45.74275" lon="6.87407">
        <ele>2149.6</ele>
        <time>2021-10-03T07:28:09Z</time>
      </trkpt>
      <trkpt lat="45.74276" lon="6.87406">
        <ele>2149.8</ele>
        <time>2021-10-03T07:28:10Z</time>
      </trkpt>
      <trkpt lat="45.74282" lon="6.87396">
        <ele>2150.8</ele>
        <time>2021-10-03T07:28:16Z</time>
      </trkpt>
      <trkpt lat="45.74287" lon="6.87385">
        <ele>2152</ele>
        <time>2021-10-03T07:28:22Z</time>
      </trkpt>
      <trkpt lat="45.74292" lon="6.87372">
        <ele>2152.8</ele>
        <time>2021-10-03T07:28:30Z</time>
      </trkpt>
      <trkpt lat="45.74293" lon="6.87368">
        <ele>2153.2</ele>
        <time>2021-10-03T07:28:32Z</time>
      </trkpt>
      <trkpt lat="45.74297" lon="6.87356">
        <ele>2154.2</ele>
        <time>2021-10-03T07:28:38Z</time>
      </trkpt>
      <trkpt lat="45.74301" lon="6.87349">
        <ele>2155.2</ele>
        <time>2021-10-03T07:28:42Z</time>
      </trkpt>
      <trkpt lat="45.74305" lon="6.87339">
        <ele>2156.4</ele>
        <time>2021-10-03T07:28:48Z</time>
      </trkpt>
      <trkpt lat="45.74307" lon="6.87335">
        <ele>2156.8</ele>
        <time>2021-10-03T07:28:50Z</time>
      </trkpt>
      <trkpt lat="45.74311" lon="6.8733">
        <ele>2157.6</ele>
        <time>2021-10-03T07:28:54Z</time>
      </trkpt>
      <trkpt lat="45.74315" lon="6.87323">
        <ele>2158.6</ele>
        <time>2021-10-03T07:28:58Z</time>
      </trkpt>
      <trkpt lat="45.7432" lon="6.87313">
        <ele>2159.8</ele>
        <time>2021-10-03T07:29:03Z</time>
      </trkpt>
      <trkpt lat="45.74324" lon="6.87304">
        <ele>2160.8</ele>
        <time>2021-10-03T07:29:08Z</time>
      </trkpt>
      <trkpt lat="45.74329" lon="6.87285">
        <ele>2162</ele>
        <time>2021-10-03T07:29:17Z</time>
      </trkpt>
      <trkpt lat="45.74332" lon="6.87274">
        <ele>2163</ele>
        <time>2021-10-03T07:29:23Z</time>
      </trkpt>
      <trkpt lat="45.74334" lon="6.87262">
        <ele>2164.4</ele>
        <time>2021-10-03T07:29:29Z</time>
      </trkpt>
      <trkpt lat="45.74334" lon="6.87252">
        <ele>2165.6</ele>
        <time>2021-10-03T07:29:34Z</time>
      </trkpt>
      <trkpt lat="45.74335" lon="6.87243">
        <ele>2166.8</ele>
        <time>2021-10-03T07:29:38Z</time>
      </trkpt>
      <trkpt lat="45.74338" lon="6.87231">
        <ele>2167.8</ele>
        <time>2021-10-03T07:29:44Z</time>
      </trkpt>
      <trkpt lat="45.74344" lon="6.87213">
        <ele>2169</ele>
        <time>2021-10-03T07:29:54Z</time>
      </trkpt>
      <trkpt lat="45.74346" lon="6.87205">
        <ele>2170.2</ele>
        <time>2021-10-03T07:29:58Z</time>
      </trkpt>
      <trkpt lat="45.74347" lon="6.87197">
        <ele>2171.2</ele>
        <time>2021-10-03T07:30:02Z</time>
      </trkpt>
      <trkpt lat="45.7435" lon="6.87179">
        <ele>2172.6</ele>
        <time>2021-10-03T07:30:11Z</time>
      </trkpt>
      <trkpt lat="45.74353" lon="6.87171">
        <ele>2173.6</ele>
        <time>2021-10-03T07:30:15Z</time>
      </trkpt>
      <trkpt lat="45.74368" lon="6.87156">
        <ele>2174.6</ele>
        <time>2021-10-03T07:30:28Z</time>
      </trkpt>
      <trkpt lat="45.74377" lon="6.8715">
        <ele>2175.8</ele>
        <time>2021-10-03T07:30:36Z</time>
      </trkpt>
      <trkpt lat="45.74382" lon="6.87147">
        <ele>2176.8</ele>
        <time>2021-10-03T07:30:40Z</time>
      </trkpt>
      <trkpt lat="45.74388" lon="6.87137">
        <ele>2178</ele>
        <time>2021-10-03T07:30:46Z</time>
      </trkpt>
      <trkpt lat="45.74391" lon="6.87124">
        <ele>2179</ele>
        <time>2021-10-03T07:30:52Z</time>
      </trkpt>
      <trkpt lat="45.74396" lon="6.87111">
        <ele>2180.2</ele>
        <time>2021-10-03T07:30:59Z</time>
      </trkpt>
      <trkpt lat="45.74404" lon="6.87088">
        <ele>2181.4</ele>
        <time>2021-10-03T07:31:10Z</time>
      </trkpt>
      <trkpt lat="45.74408" lon="6.87078">
        <ele>2182.4</ele>
        <time>2021-10-03T07:31:15Z</time>
      </trkpt>
      <trkpt lat="45.74409" lon="6.87069">
        <ele>2183.4</ele>
        <time>2021-10-03T07:31:19Z</time>
      </trkpt>
      <trkpt lat="45.74412" lon="6.8706">
        <ele>2184.6</ele>
        <time>2021-10-03T07:31:23Z</time>
      </trkpt>
      <trkpt lat="45.74423" lon="6.87046">
        <ele>2185.8</ele>
        <time>2021-10-03T07:31:33Z</time>
      </trkpt>
      <trkpt lat="45.74427" lon="6.87039">
        <ele>2186.8</ele>
        <time>2021-10-03T07:31:38Z</time>
      </trkpt>
      <trkpt lat="45.7443" lon="6.8703">
        <ele>2187.8</ele>
        <time>2021-10-03T07:31:43Z</time>
      </trkpt>
      <trkpt lat="45.74436" lon="6.87012">
        <ele>2188.8</ele>
        <time>2021-10-03T07:31:52Z</time>
      </trkpt>
      <trkpt lat="45.74441" lon="6.87004">
        <ele>2190</ele>
        <time>2021-10-03T07:31:57Z</time>
      </trkpt>
      <trkpt lat="45.74447" lon="6.86999">
        <ele>2191.2</ele>
        <time>2021-10-03T07:32:02Z</time>
      </trkpt>
      <trkpt lat="45.7445" lon="6.86994">
        <ele>2191.6</ele>
        <time>2021-10-03T07:32:05Z</time>
      </trkpt>
      <trkpt lat="45.74454" lon="6.86987">
        <ele>2192.2</ele>
        <time>2021-10-03T07:32:09Z</time>
      </trkpt>
      <trkpt lat="45.74461" lon="6.86972">
        <ele>2193.4</ele>
        <time>2021-10-03T07:32:17Z</time>
      </trkpt>
      <trkpt lat="45.74462" lon="6.8696">
        <ele>2194.4</ele>
        <time>2021-10-03T07:32:22Z</time>
      </trkpt>
      <trkpt lat="45.74464" lon="6.86939">
        <ele>2195.6</ele>
        <time>2021-10-03T07:32:32Z</time>
      </trkpt>
      <trkpt lat="45.74465" lon="6.86926">
        <ele>2196.6</ele>
        <time>2021-10-03T07:32:38Z</time>
      </trkpt>
      <trkpt lat="45.7447" lon="6.86917">
        <ele>2197.8</ele>
        <time>2021-10-03T07:32:43Z</time>
      </trkpt>
      <trkpt lat="45.74471" lon="6.86916">
        <ele>2198</ele>
        <time>2021-10-03T07:32:44Z</time>
      </trkpt>
      <trkpt lat="45.74475" lon="6.86913">
        <ele>2198.8</ele>
        <time>2021-10-03T07:32:47Z</time>
      </trkpt>
      <trkpt lat="45.7448" lon="6.86906">
        <ele>2200</ele>
        <time>2021-10-03T07:32:52Z</time>
      </trkpt>
      <trkpt lat="45.74484" lon="6.86895">
        <ele>2201.2</ele>
        <time>2021-10-03T07:32:59Z</time>
      </trkpt>
      <trkpt lat="45.74489" lon="6.86884">
        <ele>2202.2</ele>
        <time>2021-10-03T07:33:05Z</time>
      </trkpt>
      <trkpt lat="45.74494" lon="6.86872">
        <ele>2203.4</ele>
        <time>2021-10-03T07:33:11Z</time>
      </trkpt>
      <trkpt lat="45.745" lon="6.86857">
        <ele>2204.4</ele>
        <time>2021-10-03T07:33:19Z</time>
      </trkpt>
      <trkpt lat="45.74506" lon="6.86848">
        <ele>2205.6</ele>
        <time>2021-10-03T07:33:24Z</time>
      </trkpt>
      <trkpt lat="45.74512" lon="6.86833">
        <ele>2206.8</ele>
        <time>2021-10-03T07:33:32Z</time>
      </trkpt>
      <trkpt lat="45.74516" lon="6.86821">
        <ele>2207.8</ele>
        <time>2021-10-03T07:33:38Z</time>
      </trkpt>
      <trkpt lat="45.7452" lon="6.8681">
        <ele>2208.8</ele>
        <time>2021-10-03T07:33:43Z</time>
      </trkpt>
      <trkpt lat="45.74524" lon="6.868">
        <ele>2209.8</ele>
        <time>2021-10-03T07:33:49Z</time>
      </trkpt>
      <trkpt lat="45.74528" lon="6.86783">
        <ele>2211</ele>
        <time>2021-10-03T07:33:57Z</time>
      </trkpt>
      <trkpt lat="45.7453" lon="6.86774">
        <ele>2212</ele>
        <time>2021-10-03T07:34:02Z</time>
      </trkpt>
      <trkpt lat="45.74532" lon="6.86765">
        <ele>2213</ele>
        <time>2021-10-03T07:34:07Z</time>
      </trkpt>
      <trkpt lat="45.74536" lon="6.86759">
        <ele>2214.2</ele>
        <time>2021-10-03T07:34:11Z</time>
      </trkpt>
      <trkpt lat="45.74538" lon="6.86755">
        <ele>2214.6</ele>
        <time>2021-10-03T07:34:14Z</time>
      </trkpt>
      <trkpt lat="45.74541" lon="6.86752">
        <ele>2215.2</ele>
        <time>2021-10-03T07:34:16Z</time>
      </trkpt>
      <trkpt lat="45.74544" lon="6.86743">
        <ele>2216.2</ele>
        <time>2021-10-03T07:34:21Z</time>
      </trkpt>
      <trkpt lat="45.74549" lon="6.8673">
        <ele>2217.2</ele>
        <time>2021-10-03T07:34:28Z</time>
      </trkpt>
      <trkpt lat="45.74556" lon="6.86726">
        <ele>2218.2</ele>
        <time>2021-10-03T07:34:33Z</time>
      </trkpt>
      <trkpt lat="45.74557" lon="6.86727">
        <ele>2218.4</ele>
        <time>2021-10-03T07:34:34Z</time>
      </trkpt>
      <trkpt lat="45.74558" lon="6.86729">
        <ele>2218.8</ele>
        <time>2021-10-03T07:34:35Z</time>
      </trkpt>
      <trkpt lat="45.7456" lon="6.86736">
        <ele>2219.6</ele>
        <time>2021-10-03T07:34:38Z</time>
      </trkpt>
      <trkpt lat="45.74555" lon="6.86755">
        <ele>2220.6</ele>
        <time>2021-10-03T07:34:47Z</time>
      </trkpt>
      <trkpt lat="45.74548" lon="6.86774">
        <ele>2221.8</ele>
        <time>2021-10-03T07:34:55Z</time>
      </trkpt>
      <trkpt lat="45.74547" lon="6.86796">
        <ele>2222.8</ele>
        <time>2021-10-03T07:35:05Z</time>
      </trkpt>
      <trkpt lat="45.74546" lon="6.8681">
        <ele>2224.2</ele>
        <time>2021-10-03T07:35:12Z</time>
      </trkpt>
      <trkpt lat="45.74546" lon="6.86816">
        <ele>2225.2</ele>
        <time>2021-10-03T07:35:15Z</time>
      </trkpt>
      <trkpt lat="45.74548" lon="6.86829">
        <ele>2225.8</ele>
        <time>2021-10-03T07:35:21Z</time>
      </trkpt>
      <trkpt lat="45.74547" lon="6.8684">
        <ele>2226.4</ele>
        <time>2021-10-03T07:35:26Z</time>
      </trkpt>
      <trkpt lat="45.74547" lon="6.86846">
        <ele>2226.8</ele>
        <time>2021-10-03T07:35:29Z</time>
      </trkpt>
      <trkpt lat="45.74547" lon="6.86853">
        <ele>2227.4</ele>
        <time>2021-10-03T07:35:32Z</time>
      </trkpt>
      <trkpt lat="45.74543" lon="6.8687">
        <ele>2228.4</ele>
        <time>2021-10-03T07:35:40Z</time>
      </trkpt>
      <trkpt lat="45.74542" lon="6.86872">
        <ele>2228.6</ele>
        <time>2021-10-03T07:35:41Z</time>
      </trkpt>
      <trkpt lat="45.74539" lon="6.86878">
        <ele>2229.4</ele>
        <time>2021-10-03T07:35:44Z</time>
      </trkpt>
      <trkpt lat="45.74537" lon="6.86887">
        <ele>2230.4</ele>
        <time>2021-10-03T07:35:48Z</time>
      </trkpt>
      <trkpt lat="45.74535" lon="6.86907">
        <ele>2231.6</ele>
        <time>2021-10-03T07:35:57Z</time>
      </trkpt>
      <trkpt lat="45.74535" lon="6.86919">
        <ele>2232.8</ele>
        <time>2021-10-03T07:36:03Z</time>
      </trkpt>
      <trkpt lat="45.74532" lon="6.86938">
        <ele>2234</ele>
        <time>2021-10-03T07:36:12Z</time>
      </trkpt>
      <trkpt lat="45.74529" lon="6.86952">
        <ele>2234.8</ele>
        <time>2021-10-03T07:36:19Z</time>
      </trkpt>
      <trkpt lat="45.74529" lon="6.86954">
        <ele>2235</ele>
        <time>2021-10-03T07:36:20Z</time>
      </trkpt>
      <trkpt lat="45.74526" lon="6.86967">
        <ele>2236.2</ele>
        <time>2021-10-03T07:36:27Z</time>
      </trkpt>
      <trkpt lat="45.74526" lon="6.8697">
        <ele>2236.4</ele>
        <time>2021-10-03T07:36:28Z</time>
      </trkpt>
      <trkpt lat="45.74526" lon="6.86981">
        <ele>2237.4</ele>
        <time>2021-10-03T07:36:33Z</time>
      </trkpt>
      <trkpt lat="45.74528" lon="6.86989">
        <ele>2238.6</ele>
        <time>2021-10-03T07:36:37Z</time>
      </trkpt>
      <trkpt lat="45.7453" lon="6.87009">
        <ele>2239.6</ele>
        <time>2021-10-03T07:36:46Z</time>
      </trkpt>
      <trkpt lat="45.74529" lon="6.87021">
        <ele>2240.8</ele>
        <time>2021-10-03T07:36:52Z</time>
      </trkpt>
      <trkpt lat="45.74522" lon="6.8704">
        <ele>2241.8</ele>
        <time>2021-10-03T07:37:01Z</time>
      </trkpt>
      <trkpt lat="45.74518" lon="6.87055">
        <ele>2243</ele>
        <time>2021-10-03T07:37:08Z</time>
      </trkpt>
      <trkpt lat="45.74516" lon="6.87066">
        <ele>2244</ele>
        <time>2021-10-03T07:37:13Z</time>
      </trkpt>
      <trkpt lat="45.74516" lon="6.8707">
        <ele>2244.6</ele>
        <time>2021-10-03T07:37:15Z</time>
      </trkpt>
      <trkpt lat="45.74515" lon="6.87074">
        <ele>2245.2</ele>
        <time>2021-10-03T07:37:17Z</time>
      </trkpt>
      <trkpt lat="45.74512" lon="6.87093">
        <ele>2246.2</ele>
        <time>2021-10-03T07:37:26Z</time>
      </trkpt>
      <trkpt lat="45.7451" lon="6.87103">
        <ele>2247.2</ele>
        <time>2021-10-03T07:37:31Z</time>
      </trkpt>
      <trkpt lat="45.74507" lon="6.87115">
        <ele>2248.4</ele>
        <time>2021-10-03T07:37:37Z</time>
      </trkpt>
      <trkpt lat="45.74505" lon="6.87124">
        <ele>2249.4</ele>
        <time>2021-10-03T07:37:42Z</time>
      </trkpt>
      <trkpt lat="45.74502" lon="6.87133">
        <ele>2249.8</ele>
        <time>2021-10-03T07:37:47Z</time>
      </trkpt>
      <trkpt lat="45.745" lon="6.87143">
        <ele>2250.6</ele>
        <time>2021-10-03T07:37:52Z</time>
      </trkpt>
      <trkpt lat="45.745" lon="6.87151">
        <ele>2251.6</ele>
        <time>2021-10-03T07:37:55Z</time>
      </trkpt>
      <trkpt lat="45.74497" lon="6.87159">
        <ele>2252.6</ele>
        <time>2021-10-03T07:37:59Z</time>
      </trkpt>
      <trkpt lat="45.74494" lon="6.87179">
        <ele>2253.8</ele>
        <time>2021-10-03T07:38:09Z</time>
      </trkpt>
      <trkpt lat="45.74491" lon="6.87188">
        <ele>2254.8</ele>
        <time>2021-10-03T07:38:14Z</time>
      </trkpt>
      <trkpt lat="45.74486" lon="6.87201">
        <ele>2255.8</ele>
        <time>2021-10-03T07:38:21Z</time>
      </trkpt>
      <trkpt lat="45.74487" lon="6.87204">
        <ele>2256.4</ele>
        <time>2021-10-03T07:38:23Z</time>
      </trkpt>
      <trkpt lat="45.74488" lon="6.87203">
        <ele>2256.8</ele>
        <time>2021-10-03T07:38:26Z</time>
      </trkpt>
      <trkpt lat="45.7449" lon="6.87201">
        <ele>2257.2</ele>
        <time>2021-10-03T07:38:28Z</time>
      </trkpt>
      <trkpt lat="45.7449" lon="6.87194">
        <ele>2258.2</ele>
        <time>2021-10-03T07:38:31Z</time>
      </trkpt>
      <trkpt lat="45.74493" lon="6.87182">
        <ele>2259.2</ele>
        <time>2021-10-03T07:38:37Z</time>
      </trkpt>
      <trkpt lat="45.74499" lon="6.87166">
        <ele>2260.4</ele>
        <time>2021-10-03T07:38:44Z</time>
      </trkpt>
      <trkpt lat="45.74504" lon="6.87155">
        <ele>2261.6</ele>
        <time>2021-10-03T07:38:50Z</time>
      </trkpt>
      <trkpt lat="45.74509" lon="6.87147">
        <ele>2262.6</ele>
        <time>2021-10-03T07:38:56Z</time>
      </trkpt>
      <trkpt lat="45.7451" lon="6.87144">
        <ele>2263</ele>
        <time>2021-10-03T07:38:58Z</time>
      </trkpt>
      <trkpt lat="45.74514" lon="6.87137">
        <ele>2263.6</ele>
        <time>2021-10-03T07:39:02Z</time>
      </trkpt>
      <trkpt lat="45.74521" lon="6.87126">
        <ele>2264.8</ele>
        <time>2021-10-03T07:39:10Z</time>
      </trkpt>
      <trkpt lat="45.74525" lon="6.87118">
        <ele>2265.8</ele>
        <time>2021-10-03T07:39:15Z</time>
      </trkpt>
      <trkpt lat="45.74529" lon="6.8711">
        <ele>2266.8</ele>
        <time>2021-10-03T07:39:20Z</time>
      </trkpt>
      <trkpt lat="45.74533" lon="6.87104">
        <ele>2267.8</ele>
        <time>2021-10-03T07:39:24Z</time>
      </trkpt>
      <trkpt lat="45.74537" lon="6.87099">
        <ele>2269</ele>
        <time>2021-10-03T07:39:28Z</time>
      </trkpt>
      <trkpt lat="45.7454" lon="6.87092">
        <ele>2270</ele>
        <time>2021-10-03T07:39:32Z</time>
      </trkpt>
      <trkpt lat="45.74544" lon="6.87082">
        <ele>2271.2</ele>
        <time>2021-10-03T07:39:37Z</time>
      </trkpt>
      <trkpt lat="45.74547" lon="6.87073">
        <ele>2272.4</ele>
        <time>2021-10-03T07:39:43Z</time>
      </trkpt>
      <trkpt lat="45.74551" lon="6.87064">
        <ele>2273.4</ele>
        <time>2021-10-03T07:39:48Z</time>
      </trkpt>
      <trkpt lat="45.74556" lon="6.87055">
        <ele>2274.6</ele>
        <time>2021-10-03T07:39:54Z</time>
      </trkpt>
      <trkpt lat="45.74561" lon="6.87044">
        <ele>2275.6</ele>
        <time>2021-10-03T07:40:00Z</time>
      </trkpt>
      <trkpt lat="45.74566" lon="6.87035">
        <ele>2276.6</ele>
        <time>2021-10-03T07:40:06Z</time>
      </trkpt>
      <trkpt lat="45.74568" lon="6.87033">
        <ele>2277</ele>
        <time>2021-10-03T07:40:08Z</time>
      </trkpt>
      <trkpt lat="45.7457" lon="6.87028">
        <ele>2277.8</ele>
        <time>2021-10-03T07:40:11Z</time>
      </trkpt>
      <trkpt lat="45.74575" lon="6.87019">
        <ele>2278.8</ele>
        <time>2021-10-03T07:40:17Z</time>
      </trkpt>
      <trkpt lat="45.7458" lon="6.87011">
        <ele>2279.8</ele>
        <time>2021-10-03T07:40:22Z</time>
      </trkpt>
      <trkpt lat="45.74584" lon="6.87007">
        <ele>2280.8</ele>
        <time>2021-10-03T07:40:26Z</time>
      </trkpt>
      <trkpt lat="45.74589" lon="6.87">
        <ele>2282</ele>
        <time>2021-10-03T07:40:31Z</time>
      </trkpt>
      <trkpt lat="45.74594" lon="6.86992">
        <ele>2283</ele>
        <time>2021-10-03T07:40:37Z</time>
      </trkpt>
      <trkpt lat="45.746" lon="6.86981">
        <ele>2284</ele>
        <time>2021-10-03T07:40:44Z</time>
      </trkpt>
      <trkpt lat="45.74604" lon="6.86974">
        <ele>2285.2</ele>
        <time>2021-10-03T07:40:49Z</time>
      </trkpt>
      <trkpt lat="45.74607" lon="6.86965">
        <ele>2286.4</ele>
        <time>2021-10-03T07:40:54Z</time>
      </trkpt>
      <trkpt lat="45.74611" lon="6.86957">
        <ele>2287.2</ele>
        <time>2021-10-03T07:40:59Z</time>
      </trkpt>
      <trkpt lat="45.74612" lon="6.86954">
        <ele>2287.6</ele>
        <time>2021-10-03T07:41:01Z</time>
      </trkpt>
      <trkpt lat="45.7462" lon="6.86948">
        <ele>2288.8</ele>
        <time>2021-10-03T07:41:06Z</time>
      </trkpt>
      <trkpt lat="45.74627" lon="6.86941">
        <ele>2290</ele>
        <time>2021-10-03T07:41:12Z</time>
      </trkpt>
      <trkpt lat="45.74632" lon="6.86932">
        <ele>2291.2</ele>
        <time>2021-10-03T07:41:18Z</time>
      </trkpt>
      <trkpt lat="45.74636" lon="6.86923">
        <ele>2292.2</ele>
        <time>2021-10-03T07:41:24Z</time>
      </trkpt>
      <trkpt lat="45.74639" lon="6.86917">
        <ele>2293.2</ele>
        <time>2021-10-03T07:41:28Z</time>
      </trkpt>
      <trkpt lat="45.74644" lon="6.86909">
        <ele>2294.2</ele>
        <time>2021-10-03T07:41:33Z</time>
      </trkpt>
      <trkpt lat="45.74649" lon="6.86903">
        <ele>2295.2</ele>
        <time>2021-10-03T07:41:38Z</time>
      </trkpt>
      <trkpt lat="45.74653" lon="6.86895">
        <ele>2296.4</ele>
        <time>2021-10-03T07:41:43Z</time>
      </trkpt>
      <trkpt lat="45.74657" lon="6.86886">
        <ele>2297.6</ele>
        <time>2021-10-03T07:41:48Z</time>
      </trkpt>
      <trkpt lat="45.74663" lon="6.86876">
        <ele>2298.8</ele>
        <time>2021-10-03T07:41:54Z</time>
      </trkpt>
      <trkpt lat="45.74669" lon="6.86867">
        <ele>2300</ele>
        <time>2021-10-03T07:42:00Z</time>
      </trkpt>
      <trkpt lat="45.74676" lon="6.86861">
        <ele>2301</ele>
        <time>2021-10-03T07:42:06Z</time>
      </trkpt>
      <trkpt lat="45.74684" lon="6.86855">
        <ele>2302.2</ele>
        <time>2021-10-03T07:42:13Z</time>
      </trkpt>
      <trkpt lat="45.74687" lon="6.86846">
        <ele>2303.2</ele>
        <time>2021-10-03T07:42:18Z</time>
      </trkpt>
      <trkpt lat="45.74689" lon="6.86837">
        <ele>2304.4</ele>
        <time>2021-10-03T07:42:23Z</time>
      </trkpt>
      <trkpt lat="45.74692" lon="6.8683">
        <ele>2305.4</ele>
        <time>2021-10-03T07:42:27Z</time>
      </trkpt>
      <trkpt lat="45.74698" lon="6.86822">
        <ele>2306.6</ele>
        <time>2021-10-03T07:42:33Z</time>
      </trkpt>
      <trkpt lat="45.74702" lon="6.86813">
        <ele>2307.6</ele>
        <time>2021-10-03T07:42:39Z</time>
      </trkpt>
      <trkpt lat="45.74707" lon="6.86804">
        <ele>2308.6</ele>
        <time>2021-10-03T07:42:45Z</time>
      </trkpt>
      <trkpt lat="45.74711" lon="6.86797">
        <ele>2309.6</ele>
        <time>2021-10-03T07:42:50Z</time>
      </trkpt>
      <trkpt lat="45.74711" lon="6.86795">
        <ele>2309.8</ele>
        <time>2021-10-03T07:42:51Z</time>
      </trkpt>
      <trkpt lat="45.74714" lon="6.86786">
        <ele>2310.8</ele>
        <time>2021-10-03T07:42:56Z</time>
      </trkpt>
      <trkpt lat="45.74718" lon="6.86778">
        <ele>2311.8</ele>
        <time>2021-10-03T07:43:01Z</time>
      </trkpt>
      <trkpt lat="45.74722" lon="6.86769">
        <ele>2313</ele>
        <time>2021-10-03T07:43:06Z</time>
      </trkpt>
      <trkpt lat="45.74726" lon="6.86761">
        <ele>2314.2</ele>
        <time>2021-10-03T07:43:11Z</time>
      </trkpt>
      <trkpt lat="45.7473" lon="6.86751">
        <ele>2315.2</ele>
        <time>2021-10-03T07:43:17Z</time>
      </trkpt>
      <trkpt lat="45.74735" lon="6.86743">
        <ele>2316.2</ele>
        <time>2021-10-03T07:43:23Z</time>
      </trkpt>
      <trkpt lat="45.74741" lon="6.86734">
        <ele>2317.6</ele>
        <time>2021-10-03T07:43:29Z</time>
      </trkpt>
      <trkpt lat="45.74744" lon="6.8673">
        <ele>2318.6</ele>
        <time>2021-10-03T07:43:32Z</time>
      </trkpt>
      <trkpt lat="45.7475" lon="6.86716">
        <ele>2319.6</ele>
        <time>2021-10-03T07:43:40Z</time>
      </trkpt>
      <trkpt lat="45.74754" lon="6.86708">
        <ele>2320.8</ele>
        <time>2021-10-03T07:43:45Z</time>
      </trkpt>
      <trkpt lat="45.74758" lon="6.86703">
        <ele>2322</ele>
        <time>2021-10-03T07:43:49Z</time>
      </trkpt>
      <trkpt lat="45.74763" lon="6.86694">
        <ele>2323</ele>
        <time>2021-10-03T07:43:55Z</time>
      </trkpt>
      <trkpt lat="45.74768" lon="6.86687">
        <ele>2324.2</ele>
        <time>2021-10-03T07:44:00Z</time>
      </trkpt>
      <trkpt lat="45.74778" lon="6.86676">
        <ele>2325.2</ele>
        <time>2021-10-03T07:44:09Z</time>
      </trkpt>
      <trkpt lat="45.74784" lon="6.86667">
        <ele>2326.4</ele>
        <time>2021-10-03T07:44:15Z</time>
      </trkpt>
      <trkpt lat="45.7479" lon="6.86656">
        <ele>2327.4</ele>
        <time>2021-10-03T07:44:21Z</time>
      </trkpt>
      <trkpt lat="45.74796" lon="6.86651">
        <ele>2328.8</ele>
        <time>2021-10-03T07:44:26Z</time>
      </trkpt>
      <trkpt lat="45.74802" lon="6.86642">
        <ele>2329.8</ele>
        <time>2021-10-03T07:44:32Z</time>
      </trkpt>
      <trkpt lat="45.74806" lon="6.86635">
        <ele>2331</ele>
        <time>2021-10-03T07:44:37Z</time>
      </trkpt>
      <trkpt lat="45.74811" lon="6.86628">
        <ele>2332</ele>
        <time>2021-10-03T07:44:42Z</time>
      </trkpt>
      <trkpt lat="45.74815" lon="6.86622">
        <ele>2333.2</ele>
        <time>2021-10-03T07:44:46Z</time>
      </trkpt>
      <trkpt lat="45.74821" lon="6.86612">
        <ele>2334.4</ele>
        <time>2021-10-03T07:44:53Z</time>
      </trkpt>
      <trkpt lat="45.74824" lon="6.86607">
        <ele>2335.4</ele>
        <time>2021-10-03T07:44:57Z</time>
      </trkpt>
      <trkpt lat="45.74829" lon="6.86597">
        <ele>2336.6</ele>
        <time>2021-10-03T07:45:03Z</time>
      </trkpt>
      <trkpt lat="45.74835" lon="6.86589">
        <ele>2337.8</ele>
        <time>2021-10-03T07:45:09Z</time>
      </trkpt>
      <trkpt lat="45.7484" lon="6.86583">
        <ele>2339.2</ele>
        <time>2021-10-03T07:45:14Z</time>
      </trkpt>
      <trkpt lat="45.74846" lon="6.86579">
        <ele>2340.2</ele>
        <time>2021-10-03T07:45:18Z</time>
      </trkpt>
      <trkpt lat="45.74854" lon="6.86576">
        <ele>2341.4</ele>
        <time>2021-10-03T07:45:24Z</time>
      </trkpt>
      <trkpt lat="45.74866" lon="6.86573">
        <ele>2342.6</ele>
        <time>2021-10-03T07:45:32Z</time>
      </trkpt>
      <trkpt lat="45.7487" lon="6.86569">
        <ele>2343.6</ele>
        <time>2021-10-03T07:45:36Z</time>
      </trkpt>
      <trkpt lat="45.74878" lon="6.86559">
        <ele>2344.8</ele>
        <time>2021-10-03T07:45:43Z</time>
      </trkpt>
      <trkpt lat="45.74884" lon="6.86553">
        <ele>2345.8</ele>
        <time>2021-10-03T07:45:49Z</time>
      </trkpt>
      <trkpt lat="45.74888" lon="6.86546">
        <ele>2347</ele>
        <time>2021-10-03T07:45:54Z</time>
      </trkpt>
      <trkpt lat="45.74893" lon="6.86538">
        <ele>2348.2</ele>
        <time>2021-10-03T07:45:59Z</time>
      </trkpt>
      <trkpt lat="45.74896" lon="6.86532">
        <ele>2349.4</ele>
        <time>2021-10-03T07:46:03Z</time>
      </trkpt>
      <trkpt lat="45.74897" lon="6.8653">
        <ele>2349.6</ele>
        <time>2021-10-03T07:46:04Z</time>
      </trkpt>
      <trkpt lat="45.74894" lon="6.8652">
        <ele>2350.4</ele>
        <time>2021-10-03T07:46:09Z</time>
      </trkpt>
      <trkpt lat="45.74886" lon="6.86511">
        <ele>2351.6</ele>
        <time>2021-10-03T07:46:16Z</time>
      </trkpt>
      <trkpt lat="45.74881" lon="6.86503">
        <ele>2352.6</ele>
        <time>2021-10-03T07:46:22Z</time>
      </trkpt>
      <trkpt lat="45.74878" lon="6.86493">
        <ele>2353.8</ele>
        <time>2021-10-03T07:46:27Z</time>
      </trkpt>
      <trkpt lat="45.74878" lon="6.86484">
        <ele>2354.8</ele>
        <time>2021-10-03T07:46:32Z</time>
      </trkpt>
      <trkpt lat="45.74878" lon="6.86475">
        <ele>2355.8</ele>
        <time>2021-10-03T07:46:36Z</time>
      </trkpt>
      <trkpt lat="45.74877" lon="6.86463">
        <ele>2357.2</ele>
        <time>2021-10-03T07:46:42Z</time>
      </trkpt>
      <trkpt lat="45.74879" lon="6.86452">
        <ele>2358.2</ele>
        <time>2021-10-03T07:46:47Z</time>
      </trkpt>
      <trkpt lat="45.74885" lon="6.86434">
        <ele>2359.2</ele>
        <time>2021-10-03T07:46:56Z</time>
      </trkpt>
      <trkpt lat="45.74887" lon="6.86427">
        <ele>2360.4</ele>
        <time>2021-10-03T07:47:00Z</time>
      </trkpt>
      <trkpt lat="45.74892" lon="6.86416">
        <ele>2361.4</ele>
        <time>2021-10-03T07:47:06Z</time>
      </trkpt>
      <trkpt lat="45.74897" lon="6.86409">
        <ele>2362.6</ele>
        <time>2021-10-03T07:47:11Z</time>
      </trkpt>
      <trkpt lat="45.74905" lon="6.86402">
        <ele>2363.6</ele>
        <time>2021-10-03T07:47:17Z</time>
      </trkpt>
      <trkpt lat="45.7491" lon="6.86403">
        <ele>2364.8</ele>
        <time>2021-10-03T07:47:21Z</time>
      </trkpt>
      <trkpt lat="45.74915" lon="6.8641">
        <ele>2365.8</ele>
        <time>2021-10-03T07:47:25Z</time>
      </trkpt>
      <trkpt lat="45.7492" lon="6.86422">
        <ele>2367</ele>
        <time>2021-10-03T07:47:31Z</time>
      </trkpt>
      <trkpt lat="45.74923" lon="6.86433">
        <ele>2368</ele>
        <time>2021-10-03T07:47:37Z</time>
      </trkpt>
      <trkpt lat="45.74925" lon="6.8644">
        <ele>2369.2</ele>
        <time>2021-10-03T07:47:41Z</time>
      </trkpt>
      <trkpt lat="45.74928" lon="6.86445">
        <ele>2370.2</ele>
        <time>2021-10-03T07:47:45Z</time>
      </trkpt>
      <trkpt lat="45.74933" lon="6.86447">
        <ele>2371</ele>
        <time>2021-10-03T07:47:50Z</time>
      </trkpt>
      <trkpt lat="45.74934" lon="6.86447">
        <ele>2371.2</ele>
        <time>2021-10-03T07:47:51Z</time>
      </trkpt>
      <trkpt lat="45.74936" lon="6.86443">
        <ele>2371.8</ele>
        <time>2021-10-03T07:47:54Z</time>
      </trkpt>
      <trkpt lat="45.74936" lon="6.86439">
        <ele>2372.2</ele>
        <time>2021-10-03T07:47:56Z</time>
      </trkpt>
      <trkpt lat="45.74936" lon="6.8643">
        <ele>2373.6</ele>
        <time>2021-10-03T07:48:01Z</time>
      </trkpt>
      <trkpt lat="45.74936" lon="6.86418">
        <ele>2374.6</ele>
        <time>2021-10-03T07:48:07Z</time>
      </trkpt>
      <trkpt lat="45.74937" lon="6.86405">
        <ele>2375.8</ele>
        <time>2021-10-03T07:48:13Z</time>
      </trkpt>
      <trkpt lat="45.74941" lon="6.86396">
        <ele>2377</ele>
        <time>2021-10-03T07:48:18Z</time>
      </trkpt>
      <trkpt lat="45.74947" lon="6.86391">
        <ele>2378</ele>
        <time>2021-10-03T07:48:24Z</time>
      </trkpt>
      <trkpt lat="45.7495" lon="6.86392">
        <ele>2378.4</ele>
        <time>2021-10-03T07:48:26Z</time>
      </trkpt>
      <trkpt lat="45.74957" lon="6.86405">
        <ele>2379.2</ele>
        <time>2021-10-03T07:48:33Z</time>
      </trkpt>
      <trkpt lat="45.74958" lon="6.86414">
        <ele>2380.4</ele>
        <time>2021-10-03T07:48:37Z</time>
      </trkpt>
      <trkpt lat="45.74961" lon="6.86427">
        <ele>2381.6</ele>
        <time>2021-10-03T07:48:44Z</time>
      </trkpt>
      <trkpt lat="45.74965" lon="6.86438">
        <ele>2382.8</ele>
        <time>2021-10-03T07:48:50Z</time>
      </trkpt>
      <trkpt lat="45.74971" lon="6.86444">
        <ele>2383.8</ele>
        <time>2021-10-03T07:48:55Z</time>
      </trkpt>
      <trkpt lat="45.74977" lon="6.86452">
        <ele>2385</ele>
        <time>2021-10-03T07:49:01Z</time>
      </trkpt>
      <trkpt lat="45.74988" lon="6.86461">
        <ele>2386.2</ele>
        <time>2021-10-03T07:49:11Z</time>
      </trkpt>
      <trkpt lat="45.74996" lon="6.86467">
        <ele>2387.2</ele>
        <time>2021-10-03T07:49:17Z</time>
      </trkpt>
      <trkpt lat="45.75005" lon="6.86475">
        <ele>2388.6</ele>
        <time>2021-10-03T07:49:25Z</time>
      </trkpt>
      <trkpt lat="45.75012" lon="6.86485">
        <ele>2389.8</ele>
        <time>2021-10-03T07:49:33Z</time>
      </trkpt>
      <trkpt lat="45.75019" lon="6.86497">
        <ele>2391</ele>
        <time>2021-10-03T07:49:41Z</time>
      </trkpt>
      <trkpt lat="45.75025" lon="6.86501">
        <ele>2392</ele>
        <time>2021-10-03T07:49:47Z</time>
      </trkpt>
      <trkpt lat="45.75027" lon="6.865">
        <ele>2392.4</ele>
        <time>2021-10-03T07:49:49Z</time>
      </trkpt>
      <trkpt lat="45.75031" lon="6.86491">
        <ele>2393.2</ele>
        <time>2021-10-03T07:49:55Z</time>
      </trkpt>
      <trkpt lat="45.75037" lon="6.86478">
        <ele>2394.4</ele>
        <time>2021-10-03T07:50:03Z</time>
      </trkpt>
      <trkpt lat="45.7504" lon="6.86467">
        <ele>2395.4</ele>
        <time>2021-10-03T07:50:10Z</time>
      </trkpt>
      <trkpt lat="45.75042" lon="6.86457">
        <ele>2396.4</ele>
        <time>2021-10-03T07:50:17Z</time>
      </trkpt>
      <trkpt lat="45.75042" lon="6.86456">
        <ele>2396.6</ele>
        <time>2021-10-03T07:50:18Z</time>
      </trkpt>
      <trkpt lat="45.75047" lon="6.86448">
        <ele>2397.4</ele>
        <time>2021-10-03T07:50:24Z</time>
      </trkpt>
      <trkpt lat="45.75047" lon="6.86447">
        <ele>2397.4</ele>
        <time>2021-10-03T07:50:26Z</time>
      </trkpt>
      <trkpt lat="45.75049" lon="6.86444">
        <ele>2397.6</ele>
        <time>2021-10-03T07:50:32Z</time>
      </trkpt>
      <trkpt lat="45.7505" lon="6.86444">
        <ele>2397.8</ele>
        <time>2021-10-03T07:51:15Z</time>
      </trkpt>
      <trkpt lat="45.7505" lon="6.86445">
        <ele>2397.4</ele>
        <time>2021-10-03T07:52:52Z</time>
      </trkpt>
      <trkpt lat="45.75051" lon="6.86441">
        <ele>2397.4</ele>
        <time>2021-10-03T07:53:14Z</time>
      </trkpt>
      <trkpt lat="45.75052" lon="6.86439">
        <ele>2397.2</ele>
        <time>2021-10-03T07:53:16Z</time>
      </trkpt>
      <trkpt lat="45.75058" lon="6.8643">
        <ele>2398.6</ele>
        <time>2021-10-03T07:53:46Z</time>
      </trkpt>
      <trkpt lat="45.75059" lon="6.86428">
        <ele>2398.6</ele>
        <time>2021-10-03T07:53:47Z</time>
      </trkpt>
      <trkpt lat="45.75062" lon="6.86401">
        <ele>2399.8</ele>
        <time>2021-10-03T07:54:00Z</time>
      </trkpt>
      <trkpt lat="45.75061" lon="6.86374">
        <ele>2400.8</ele>
        <time>2021-10-03T07:54:13Z</time>
      </trkpt>
      <trkpt lat="45.7506" lon="6.86366">
        <ele>2402.2</ele>
        <time>2021-10-03T07:54:17Z</time>
      </trkpt>
      <trkpt lat="45.75059" lon="6.86343">
        <ele>2403.2</ele>
        <time>2021-10-03T07:54:29Z</time>
      </trkpt>
      <trkpt lat="45.75058" lon="6.86343">
        <ele>2403.4</ele>
        <time>2021-10-03T07:54:30Z</time>
      </trkpt>
      <trkpt lat="45.75058" lon="6.86337">
        <ele>2403.8</ele>
        <time>2021-10-03T07:54:34Z</time>
      </trkpt>
      <trkpt lat="45.75056" lon="6.86329">
        <ele>2404.4</ele>
        <time>2021-10-03T07:54:39Z</time>
      </trkpt>
      <trkpt lat="45.75053" lon="6.8632">
        <ele>2405.4</ele>
        <time>2021-10-03T07:54:43Z</time>
      </trkpt>
      <trkpt lat="45.7505" lon="6.8631">
        <ele>2406.6</ele>
        <time>2021-10-03T07:54:48Z</time>
      </trkpt>
      <trkpt lat="45.75046" lon="6.86293">
        <ele>2407.8</ele>
        <time>2021-10-03T07:54:56Z</time>
      </trkpt>
      <trkpt lat="45.75045" lon="6.86286">
        <ele>2407.8</ele>
        <time>2021-10-03T07:54:59Z</time>
      </trkpt>
      <trkpt lat="45.75036" lon="6.86263">
        <ele>2408.6</ele>
        <time>2021-10-03T07:55:11Z</time>
      </trkpt>
      <trkpt lat="45.7503" lon="6.8626">
        <ele>2408.8</ele>
        <time>2021-10-03T07:55:15Z</time>
      </trkpt>
      <trkpt lat="45.75018" lon="6.86258">
        <ele>2409.8</ele>
        <time>2021-10-03T07:55:22Z</time>
      </trkpt>
      <trkpt lat="45.75004" lon="6.86256">
        <ele>2410.8</ele>
        <time>2021-10-03T07:55:31Z</time>
      </trkpt>
      <trkpt lat="45.74997" lon="6.86253">
        <ele>2412</ele>
        <time>2021-10-03T07:55:35Z</time>
      </trkpt>
      <trkpt lat="45.74991" lon="6.86249">
        <ele>2413.2</ele>
        <time>2021-10-03T07:55:39Z</time>
      </trkpt>
      <trkpt lat="45.74981" lon="6.86237">
        <ele>2414.2</ele>
        <time>2021-10-03T07:55:48Z</time>
      </trkpt>
      <trkpt lat="45.74977" lon="6.86221">
        <ele>2415.2</ele>
        <time>2021-10-03T07:55:56Z</time>
      </trkpt>
      <trkpt lat="45.74974" lon="6.86198">
        <ele>2416.4</ele>
        <time>2021-10-03T07:56:07Z</time>
      </trkpt>
      <trkpt lat="45.74974" lon="6.86189">
        <ele>2417.4</ele>
        <time>2021-10-03T07:56:12Z</time>
      </trkpt>
      <trkpt lat="45.74976" lon="6.86175">
        <ele>2418.4</ele>
        <time>2021-10-03T07:56:20Z</time>
      </trkpt>
      <trkpt lat="45.74977" lon="6.86167">
        <ele>2419.6</ele>
        <time>2021-10-03T07:56:24Z</time>
      </trkpt>
      <trkpt lat="45.74981" lon="6.86157">
        <ele>2420.8</ele>
        <time>2021-10-03T07:56:29Z</time>
      </trkpt>
      <trkpt lat="45.74983" lon="6.86147">
        <ele>2421.8</ele>
        <time>2021-10-03T07:56:34Z</time>
      </trkpt>
      <trkpt lat="45.74987" lon="6.86131">
        <ele>2422.8</ele>
        <time>2021-10-03T07:56:42Z</time>
      </trkpt>
      <trkpt lat="45.74989" lon="6.86118">
        <ele>2424</ele>
        <time>2021-10-03T07:56:48Z</time>
      </trkpt>
      <trkpt lat="45.74991" lon="6.86107">
        <ele>2425.2</ele>
        <time>2021-10-03T07:56:53Z</time>
      </trkpt>
      <trkpt lat="45.74993" lon="6.86097">
        <ele>2426.2</ele>
        <time>2021-10-03T07:56:58Z</time>
      </trkpt>
      <trkpt lat="45.74995" lon="6.86088">
        <ele>2427.4</ele>
        <time>2021-10-03T07:57:02Z</time>
      </trkpt>
      <trkpt lat="45.74999" lon="6.86078">
        <ele>2428.4</ele>
        <time>2021-10-03T07:57:07Z</time>
      </trkpt>
      <trkpt lat="45.75002" lon="6.86069">
        <ele>2429.4</ele>
        <time>2021-10-03T07:57:12Z</time>
      </trkpt>
      <trkpt lat="45.75004" lon="6.86061">
        <ele>2430.4</ele>
        <time>2021-10-03T07:57:16Z</time>
      </trkpt>
      <trkpt lat="45.75007" lon="6.86049">
        <ele>2431.6</ele>
        <time>2021-10-03T07:57:22Z</time>
      </trkpt>
      <trkpt lat="45.75013" lon="6.86037">
        <ele>2432.6</ele>
        <time>2021-10-03T07:57:29Z</time>
      </trkpt>
      <trkpt lat="45.75016" lon="6.86029">
        <ele>2433.8</ele>
        <time>2021-10-03T07:57:34Z</time>
      </trkpt>
      <trkpt lat="45.75019" lon="6.86021">
        <ele>2434.8</ele>
        <time>2021-10-03T07:57:38Z</time>
      </trkpt>
      <trkpt lat="45.7502" lon="6.86011">
        <ele>2436</ele>
        <time>2021-10-03T07:57:43Z</time>
      </trkpt>
      <trkpt lat="45.7502" lon="6.85996">
        <ele>2437.2</ele>
        <time>2021-10-03T07:57:50Z</time>
      </trkpt>
      <trkpt lat="45.75022" lon="6.85986">
        <ele>2438.4</ele>
        <time>2021-10-03T07:57:55Z</time>
      </trkpt>
      <trkpt lat="45.75026" lon="6.85974">
        <ele>2439.6</ele>
        <time>2021-10-03T07:58:01Z</time>
      </trkpt>
      <trkpt lat="45.75028" lon="6.85966">
        <ele>2440.2</ele>
        <time>2021-10-03T07:58:05Z</time>
      </trkpt>
      <trkpt lat="45.7503" lon="6.8596">
        <ele>2440.6</ele>
        <time>2021-10-03T07:58:08Z</time>
      </trkpt>
      <trkpt lat="45.75034" lon="6.85946">
        <ele>2441.8</ele>
        <time>2021-10-03T07:58:14Z</time>
      </trkpt>
      <trkpt lat="45.75036" lon="6.85929">
        <ele>2442.8</ele>
        <time>2021-10-03T07:58:22Z</time>
      </trkpt>
      <trkpt lat="45.75041" lon="6.8591">
        <ele>2443.8</ele>
        <time>2021-10-03T07:58:31Z</time>
      </trkpt>
      <trkpt lat="45.75045" lon="6.85896">
        <ele>2445</ele>
        <time>2021-10-03T07:58:38Z</time>
      </trkpt>
      <trkpt lat="45.7505" lon="6.85885">
        <ele>2446.2</ele>
        <time>2021-10-03T07:58:44Z</time>
      </trkpt>
      <trkpt lat="45.75058" lon="6.85861">
        <ele>2447.4</ele>
        <time>2021-10-03T07:58:56Z</time>
      </trkpt>
      <trkpt lat="45.7506" lon="6.8585">
        <ele>2448.4</ele>
        <time>2021-10-03T07:59:01Z</time>
      </trkpt>
      <trkpt lat="45.75062" lon="6.85837">
        <ele>2449.4</ele>
        <time>2021-10-03T07:59:07Z</time>
      </trkpt>
      <trkpt lat="45.75065" lon="6.8582">
        <ele>2450.4</ele>
        <time>2021-10-03T07:59:15Z</time>
      </trkpt>
      <trkpt lat="45.75068" lon="6.85798">
        <ele>2451.4</ele>
        <time>2021-10-03T07:59:25Z</time>
      </trkpt>
      <trkpt lat="45.75073" lon="6.85777">
        <ele>2452.6</ele>
        <time>2021-10-03T07:59:34Z</time>
      </trkpt>
      <trkpt lat="45.75079" lon="6.85751">
        <ele>2453.4</ele>
        <time>2021-10-03T07:59:46Z</time>
      </trkpt>
      <trkpt lat="45.75079" lon="6.85746">
        <ele>2453.6</ele>
        <time>2021-10-03T07:59:48Z</time>
      </trkpt>
      <trkpt lat="45.7508" lon="6.85727">
        <ele>2454.6</ele>
        <time>2021-10-03T07:59:56Z</time>
      </trkpt>
      <trkpt lat="45.75081" lon="6.8572">
        <ele>2455.6</ele>
        <time>2021-10-03T07:59:59Z</time>
      </trkpt>
      <trkpt lat="45.75085" lon="6.85697">
        <ele>2456.6</ele>
        <time>2021-10-03T08:00:09Z</time>
      </trkpt>
      <trkpt lat="45.75086" lon="6.85686">
        <ele>2457.8</ele>
        <time>2021-10-03T08:00:14Z</time>
      </trkpt>
      <trkpt lat="45.75086" lon="6.85675">
        <ele>2458.8</ele>
        <time>2021-10-03T08:00:19Z</time>
      </trkpt>
      <trkpt lat="45.75085" lon="6.85668">
        <ele>2460</ele>
        <time>2021-10-03T08:00:23Z</time>
      </trkpt>
      <trkpt lat="45.75085" lon="6.85655">
        <ele>2461.2</ele>
        <time>2021-10-03T08:00:29Z</time>
      </trkpt>
      <trkpt lat="45.75087" lon="6.85646">
        <ele>2462.2</ele>
        <time>2021-10-03T08:00:34Z</time>
      </trkpt>
      <trkpt lat="45.75087" lon="6.85634">
        <ele>2463.4</ele>
        <time>2021-10-03T08:00:40Z</time>
      </trkpt>
      <trkpt lat="45.75089" lon="6.85622">
        <ele>2464.4</ele>
        <time>2021-10-03T08:00:46Z</time>
      </trkpt>
      <trkpt lat="45.7509" lon="6.8561">
        <ele>2465.4</ele>
        <time>2021-10-03T08:00:51Z</time>
      </trkpt>
      <trkpt lat="45.75091" lon="6.85598">
        <ele>2466.6</ele>
        <time>2021-10-03T08:00:57Z</time>
      </trkpt>
      <trkpt lat="45.75094" lon="6.85587">
        <ele>2467.8</ele>
        <time>2021-10-03T08:01:03Z</time>
      </trkpt>
      <trkpt lat="45.75096" lon="6.85576">
        <ele>2469</ele>
        <time>2021-10-03T08:01:08Z</time>
      </trkpt>
      <trkpt lat="45.75095" lon="6.8556">
        <ele>2470.4</ele>
        <time>2021-10-03T08:01:15Z</time>
      </trkpt>
      <trkpt lat="45.75094" lon="6.85548">
        <ele>2471.6</ele>
        <time>2021-10-03T08:01:20Z</time>
      </trkpt>
      <trkpt lat="45.75094" lon="6.85527">
        <ele>2472.6</ele>
        <time>2021-10-03T08:01:30Z</time>
      </trkpt>
      <trkpt lat="45.75096" lon="6.85508">
        <ele>2473.8</ele>
        <time>2021-10-03T08:01:38Z</time>
      </trkpt>
      <trkpt lat="45.75101" lon="6.85484">
        <ele>2474.8</ele>
        <time>2021-10-03T08:01:48Z</time>
      </trkpt>
      <trkpt lat="45.75107" lon="6.85463">
        <ele>2476</ele>
        <time>2021-10-03T08:01:57Z</time>
      </trkpt>
      <trkpt lat="45.75117" lon="6.8544">
        <ele>2476.4</ele>
        <time>2021-10-03T08:02:09Z</time>
      </trkpt>
      <trkpt lat="45.75119" lon="6.8543">
        <ele>2477</ele>
        <time>2021-10-03T08:02:13Z</time>
      </trkpt>
      <trkpt lat="45.7512" lon="6.85408">
        <ele>2478.2</ele>
        <time>2021-10-03T08:02:22Z</time>
      </trkpt>
      <trkpt lat="45.75122" lon="6.85381">
        <ele>2478.6</ele>
        <time>2021-10-03T08:02:33Z</time>
      </trkpt>
      <trkpt lat="45.75122" lon="6.85376">
        <ele>2479.2</ele>
        <time>2021-10-03T08:02:35Z</time>
      </trkpt>
      <trkpt lat="45.75124" lon="6.85365">
        <ele>2480.2</ele>
        <time>2021-10-03T08:02:40Z</time>
      </trkpt>
      <trkpt lat="45.7513" lon="6.85349">
        <ele>2481.2</ele>
        <time>2021-10-03T08:02:47Z</time>
      </trkpt>
      <trkpt lat="45.75133" lon="6.8534">
        <ele>2482.2</ele>
        <time>2021-10-03T08:02:52Z</time>
      </trkpt>
      <trkpt lat="45.7514" lon="6.85316">
        <ele>2483</ele>
        <time>2021-10-03T08:03:03Z</time>
      </trkpt>
      <trkpt lat="45.75141" lon="6.85311">
        <ele>2483.4</ele>
        <time>2021-10-03T08:03:05Z</time>
      </trkpt>
      <trkpt lat="45.75139" lon="6.85288">
        <ele>2484.6</ele>
        <time>2021-10-03T08:03:15Z</time>
      </trkpt>
      <trkpt lat="45.75133" lon="6.85262">
        <ele>2485</ele>
        <time>2021-10-03T08:03:26Z</time>
      </trkpt>
      <trkpt lat="45.75131" lon="6.85257">
        <ele>2485.8</ele>
        <time>2021-10-03T08:03:28Z</time>
      </trkpt>
      <trkpt lat="45.75118" lon="6.85234">
        <ele>2486.8</ele>
        <time>2021-10-03T08:03:37Z</time>
      </trkpt>
      <trkpt lat="45.75114" lon="6.85228">
        <ele>2488</ele>
        <time>2021-10-03T08:03:40Z</time>
      </trkpt>
      <trkpt lat="45.75105" lon="6.85213">
        <ele>2489.2</ele>
        <time>2021-10-03T08:03:46Z</time>
      </trkpt>
      <trkpt lat="45.75099" lon="6.85187">
        <ele>2490.2</ele>
        <time>2021-10-03T08:03:54Z</time>
      </trkpt>
      <trkpt lat="45.75104" lon="6.85163">
        <ele>2491.2</ele>
        <time>2021-10-03T08:04:04Z</time>
      </trkpt>
      <trkpt lat="45.75106" lon="6.85155">
        <ele>2492.4</ele>
        <time>2021-10-03T08:04:08Z</time>
      </trkpt>
      <trkpt lat="45.75113" lon="6.85145">
        <ele>2493.4</ele>
        <time>2021-10-03T08:04:15Z</time>
      </trkpt>
      <trkpt lat="45.75116" lon="6.85133">
        <ele>2494.4</ele>
        <time>2021-10-03T08:04:21Z</time>
      </trkpt>
      <trkpt lat="45.75115" lon="6.85125">
        <ele>2495.6</ele>
        <time>2021-10-03T08:04:25Z</time>
      </trkpt>
      <trkpt lat="45.75114" lon="6.85119">
        <ele>2496.8</ele>
        <time>2021-10-03T08:04:28Z</time>
      </trkpt>
      <trkpt lat="45.75117" lon="6.8511">
        <ele>2497.8</ele>
        <time>2021-10-03T08:04:32Z</time>
      </trkpt>
      <trkpt lat="45.75123" lon="6.851">
        <ele>2499</ele>
        <time>2021-10-03T08:04:38Z</time>
      </trkpt>
      <trkpt lat="45.75127" lon="6.85091">
        <ele>2500</ele>
        <time>2021-10-03T08:04:43Z</time>
      </trkpt>
      <trkpt lat="45.75133" lon="6.85078">
        <ele>2501.2</ele>
        <time>2021-10-03T08:04:50Z</time>
      </trkpt>
      <trkpt lat="45.75145" lon="6.85066">
        <ele>2502.2</ele>
        <time>2021-10-03T08:05:00Z</time>
      </trkpt>
      <trkpt lat="45.7515" lon="6.85061">
        <ele>2503.4</ele>
        <time>2021-10-03T08:05:04Z</time>
      </trkpt>
      <trkpt lat="45.75153" lon="6.85055">
        <ele>2504.4</ele>
        <time>2021-10-03T08:05:08Z</time>
      </trkpt>
      <trkpt lat="45.75154" lon="6.85029">
        <ele>2505.6</ele>
        <time>2021-10-03T08:05:20Z</time>
      </trkpt>
      <trkpt lat="45.75152" lon="6.85014">
        <ele>2506.6</ele>
        <time>2021-10-03T08:05:27Z</time>
      </trkpt>
      <trkpt lat="45.75151" lon="6.84999">
        <ele>2507.8</ele>
        <time>2021-10-03T08:05:34Z</time>
      </trkpt>
      <trkpt lat="45.75143" lon="6.84984">
        <ele>2508.8</ele>
        <time>2021-10-03T08:05:44Z</time>
      </trkpt>
      <trkpt lat="45.7514" lon="6.84981">
        <ele>2510</ele>
        <time>2021-10-03T08:05:47Z</time>
      </trkpt>
      <trkpt lat="45.75136" lon="6.84977">
        <ele>2511.4</ele>
        <time>2021-10-03T08:05:50Z</time>
      </trkpt>
      <trkpt lat="45.75134" lon="6.84971">
        <ele>2512.6</ele>
        <time>2021-10-03T08:05:53Z</time>
      </trkpt>
      <trkpt lat="45.7513" lon="6.84959">
        <ele>2513.6</ele>
        <time>2021-10-03T08:05:59Z</time>
      </trkpt>
      <trkpt lat="45.75125" lon="6.84936">
        <ele>2514.8</ele>
        <time>2021-10-03T08:06:09Z</time>
      </trkpt>
      <trkpt lat="45.75133" lon="6.84912">
        <ele>2514.6</ele>
        <time>2021-10-03T08:06:19Z</time>
      </trkpt>
      <trkpt lat="45.75148" lon="6.84904">
        <ele>2516</ele>
        <time>2021-10-03T08:06:29Z</time>
      </trkpt>
      <trkpt lat="45.75154" lon="6.84891">
        <ele>2517</ele>
        <time>2021-10-03T08:06:37Z</time>
      </trkpt>
      <trkpt lat="45.75155" lon="6.84865">
        <ele>2517.8</ele>
        <time>2021-10-03T08:06:48Z</time>
      </trkpt>
      <trkpt lat="45.75156" lon="6.8486">
        <ele>2518</ele>
        <time>2021-10-03T08:06:50Z</time>
      </trkpt>
      <trkpt lat="45.75157" lon="6.84839">
        <ele>2519</ele>
        <time>2021-10-03T08:06:59Z</time>
      </trkpt>
      <trkpt lat="45.75161" lon="6.8482">
        <ele>2520.2</ele>
        <time>2021-10-03T08:07:08Z</time>
      </trkpt>
      <trkpt lat="45.75166" lon="6.8481">
        <ele>2521.2</ele>
        <time>2021-10-03T08:07:13Z</time>
      </trkpt>
      <trkpt lat="45.75174" lon="6.84786">
        <ele>2522.4</ele>
        <time>2021-10-03T08:07:25Z</time>
      </trkpt>
      <trkpt lat="45.75173" lon="6.8477">
        <ele>2523.4</ele>
        <time>2021-10-03T08:07:32Z</time>
      </trkpt>
      <trkpt lat="45.75168" lon="6.84751">
        <ele>2524.4</ele>
        <time>2021-10-03T08:07:42Z</time>
      </trkpt>
      <trkpt lat="45.7516" lon="6.8473">
        <ele>2525.4</ele>
        <time>2021-10-03T08:07:52Z</time>
      </trkpt>
      <trkpt lat="45.75158" lon="6.84721">
        <ele>2526.6</ele>
        <time>2021-10-03T08:07:56Z</time>
      </trkpt>
      <trkpt lat="45.75156" lon="6.84713">
        <ele>2527.6</ele>
        <time>2021-10-03T08:08:00Z</time>
      </trkpt>
      <trkpt lat="45.75152" lon="6.847">
        <ele>2528.8</ele>
        <time>2021-10-03T08:08:06Z</time>
      </trkpt>
      <trkpt lat="45.75143" lon="6.84677">
        <ele>2529.4</ele>
        <time>2021-10-03T08:08:14Z</time>
      </trkpt>
      <trkpt lat="45.7514" lon="6.84669">
        <ele>2529.8</ele>
        <time>2021-10-03T08:08:17Z</time>
      </trkpt>
      <trkpt lat="45.75137" lon="6.84657">
        <ele>2530.8</ele>
        <time>2021-10-03T08:08:21Z</time>
      </trkpt>
      <trkpt lat="45.75137" lon="6.84646">
        <ele>2532.2</ele>
        <time>2021-10-03T08:08:25Z</time>
      </trkpt>
      <trkpt lat="45.75136" lon="6.84633">
        <ele>2533.4</ele>
        <time>2021-10-03T08:08:29Z</time>
      </trkpt>
      <trkpt lat="45.75138" lon="6.84605">
        <ele>2534</ele>
        <time>2021-10-03T08:08:38Z</time>
      </trkpt>
      <trkpt lat="45.75139" lon="6.84596">
        <ele>2534.6</ele>
        <time>2021-10-03T08:08:41Z</time>
      </trkpt>
      <trkpt lat="45.75139" lon="6.84569">
        <ele>2534.4</ele>
        <time>2021-10-03T08:08:50Z</time>
      </trkpt>
      <trkpt lat="45.75142" lon="6.84542">
        <ele>2535.2</ele>
        <time>2021-10-03T08:09:02Z</time>
      </trkpt>
      <trkpt lat="45.75141" lon="6.84521">
        <ele>2535.8</ele>
        <time>2021-10-03T08:09:12Z</time>
      </trkpt>
      <trkpt lat="45.75135" lon="6.84503">
        <ele>2536.8</ele>
        <time>2021-10-03T08:09:21Z</time>
      </trkpt>
      <trkpt lat="45.75129" lon="6.84485">
        <ele>2538</ele>
        <time>2021-10-03T08:09:30Z</time>
      </trkpt>
      <trkpt lat="45.75126" lon="6.84472">
        <ele>2539.2</ele>
        <time>2021-10-03T08:09:35Z</time>
      </trkpt>
      <trkpt lat="45.75122" lon="6.84445">
        <ele>2539.6</ele>
        <time>2021-10-03T08:09:44Z</time>
      </trkpt>
      <trkpt lat="45.7512" lon="6.8443">
        <ele>2540.2</ele>
        <time>2021-10-03T08:09:50Z</time>
      </trkpt>
      <trkpt lat="45.75117" lon="6.84403">
        <ele>2541.2</ele>
        <time>2021-10-03T08:10:02Z</time>
      </trkpt>
      <trkpt lat="45.75116" lon="6.84396">
        <ele>2541.4</ele>
        <time>2021-10-03T08:10:05Z</time>
      </trkpt>
      <trkpt lat="45.75114" lon="6.84382">
        <ele>2542.4</ele>
        <time>2021-10-03T08:10:11Z</time>
      </trkpt>
      <trkpt lat="45.75113" lon="6.84354">
        <ele>2543.2</ele>
        <time>2021-10-03T08:10:23Z</time>
      </trkpt>
      <trkpt lat="45.75113" lon="6.84351">
        <ele>2543.6</ele>
        <time>2021-10-03T08:10:24Z</time>
      </trkpt>
      <trkpt lat="45.75116" lon="6.84328">
        <ele>2544.6</ele>
        <time>2021-10-03T08:10:33Z</time>
      </trkpt>
      <trkpt lat="45.75123" lon="6.84304">
        <ele>2545</ele>
        <time>2021-10-03T08:10:45Z</time>
      </trkpt>
      <trkpt lat="45.75122" lon="6.84288">
        <ele>2545.6</ele>
        <time>2021-10-03T08:10:51Z</time>
      </trkpt>
      <trkpt lat="45.7512" lon="6.84266">
        <ele>2546.8</ele>
        <time>2021-10-03T08:10:59Z</time>
      </trkpt>
      <trkpt lat="45.75119" lon="6.84252">
        <ele>2547.8</ele>
        <time>2021-10-03T08:11:04Z</time>
      </trkpt>
      <trkpt lat="45.75117" lon="6.84225">
        <ele>2548.2</ele>
        <time>2021-10-03T08:11:13Z</time>
      </trkpt>
      <trkpt lat="45.75111" lon="6.84201">
        <ele>2548.6</ele>
        <time>2021-10-03T08:11:20Z</time>
      </trkpt>
      <trkpt lat="45.75105" lon="6.84174">
        <ele>2548.2</ele>
        <time>2021-10-03T08:11:28Z</time>
      </trkpt>
      <trkpt lat="45.75101" lon="6.84155">
        <ele>2548.8</ele>
        <time>2021-10-03T08:11:34Z</time>
      </trkpt>
      <trkpt lat="45.75094" lon="6.84129">
        <ele>2549.4</ele>
        <time>2021-10-03T08:11:43Z</time>
      </trkpt>
      <trkpt lat="45.75092" lon="6.84123">
        <ele>2550</ele>
        <time>2021-10-03T08:11:45Z</time>
      </trkpt>
      <trkpt lat="45.75084" lon="6.841">
        <ele>2550.8</ele>
        <time>2021-10-03T08:11:54Z</time>
      </trkpt>
      <trkpt lat="45.75079" lon="6.84074">
        <ele>2550.6</ele>
        <time>2021-10-03T08:12:03Z</time>
      </trkpt>
      <trkpt lat="45.75078" lon="6.84065">
        <ele>2551</ele>
        <time>2021-10-03T08:12:06Z</time>
      </trkpt>
      <trkpt lat="45.75072" lon="6.84039">
        <ele>2552</ele>
        <time>2021-10-03T08:12:15Z</time>
      </trkpt>
      <trkpt lat="45.75067" lon="6.84018">
        <ele>2552.2</ele>
        <time>2021-10-03T08:12:24Z</time>
      </trkpt>
      <trkpt lat="45.75065" lon="6.84007">
        <ele>2553.2</ele>
        <time>2021-10-03T08:12:30Z</time>
      </trkpt>
      <trkpt lat="45.75057" lon="6.83995">
        <ele>2554.6</ele>
        <time>2021-10-03T08:12:36Z</time>
      </trkpt>
      <trkpt lat="45.75047" lon="6.83974">
        <ele>2555.2</ele>
        <time>2021-10-03T08:12:45Z</time>
      </trkpt>
      <trkpt lat="45.75039" lon="6.83949">
        <ele>2555.8</ele>
        <time>2021-10-03T08:12:53Z</time>
      </trkpt>
      <trkpt lat="45.75031" lon="6.83923">
        <ele>2555.2</ele>
        <time>2021-10-03T08:13:01Z</time>
      </trkpt>
      <trkpt lat="45.75021" lon="6.83899">
        <ele>2555</ele>
        <time>2021-10-03T08:13:09Z</time>
      </trkpt>
      <trkpt lat="45.75019" lon="6.83893">
        <ele>2554.6</ele>
        <time>2021-10-03T08:13:11Z</time>
      </trkpt>
      <trkpt lat="45.75012" lon="6.83868">
        <ele>2555.2</ele>
        <time>2021-10-03T08:13:20Z</time>
      </trkpt>
      <trkpt lat="45.7501" lon="6.83865">
        <ele>2555.6</ele>
        <time>2021-10-03T08:13:21Z</time>
      </trkpt>
      <trkpt lat="45.75002" lon="6.83842">
        <ele>2556.8</ele>
        <time>2021-10-03T08:13:29Z</time>
      </trkpt>
      <trkpt lat="45.74998" lon="6.83817">
        <ele>2556.8</ele>
        <time>2021-10-03T08:13:39Z</time>
      </trkpt>
      <trkpt lat="45.74997" lon="6.8381">
        <ele>2557.8</ele>
        <time>2021-10-03T08:13:42Z</time>
      </trkpt>
      <trkpt lat="45.74997" lon="6.83795">
        <ele>2559</ele>
        <time>2021-10-03T08:13:50Z</time>
      </trkpt>
      <trkpt lat="45.74994" lon="6.83774">
        <ele>2560</ele>
        <time>2021-10-03T08:14:01Z</time>
      </trkpt>
      <trkpt lat="45.74991" lon="6.83762">
        <ele>2561</ele>
        <time>2021-10-03T08:14:07Z</time>
      </trkpt>
      <trkpt lat="45.74988" lon="6.83736">
        <ele>2561.4</ele>
        <time>2021-10-03T08:14:20Z</time>
      </trkpt>
      <trkpt lat="45.74989" lon="6.83721">
        <ele>2562.2</ele>
        <time>2021-10-03T08:14:27Z</time>
      </trkpt>
      <trkpt lat="45.74988" lon="6.83711">
        <ele>2563.2</ele>
        <time>2021-10-03T08:14:32Z</time>
      </trkpt>
      <trkpt lat="45.74985" lon="6.83686">
        <ele>2564.2</ele>
        <time>2021-10-03T08:14:45Z</time>
      </trkpt>
      <trkpt lat="45.74984" lon="6.83671">
        <ele>2565.2</ele>
        <time>2021-10-03T08:14:52Z</time>
      </trkpt>
      <trkpt lat="45.74982" lon="6.83655">
        <ele>2566.2</ele>
        <time>2021-10-03T08:15:01Z</time>
      </trkpt>
      <trkpt lat="45.74979" lon="6.83637">
        <ele>2567.6</ele>
        <time>2021-10-03T08:15:07Z</time>
      </trkpt>
      <trkpt lat="45.74975" lon="6.83621">
        <ele>2568.8</ele>
        <time>2021-10-03T08:15:12Z</time>
      </trkpt>
      <trkpt lat="45.74973" lon="6.83613">
        <ele>2570</ele>
        <time>2021-10-03T08:15:16Z</time>
      </trkpt>
      <trkpt lat="45.7497" lon="6.83599">
        <ele>2571</ele>
        <time>2021-10-03T08:15:23Z</time>
      </trkpt>
      <trkpt lat="45.74968" lon="6.83591">
        <ele>2572.2</ele>
        <time>2021-10-03T08:15:27Z</time>
      </trkpt>
      <trkpt lat="45.74965" lon="6.8357">
        <ele>2573.4</ele>
        <time>2021-10-03T08:15:38Z</time>
      </trkpt>
      <trkpt lat="45.74961" lon="6.8356">
        <ele>2574.4</ele>
        <time>2021-10-03T08:15:43Z</time>
      </trkpt>
      <trkpt lat="45.74955" lon="6.8354">
        <ele>2575.4</ele>
        <time>2021-10-03T08:15:54Z</time>
      </trkpt>
      <trkpt lat="45.74955" lon="6.83532">
        <ele>2575.4</ele>
        <time>2021-10-03T08:15:58Z</time>
      </trkpt>
      <trkpt lat="45.74956" lon="6.83523">
        <ele>2575.4</ele>
        <time>2021-10-03T08:16:03Z</time>
      </trkpt>
      <trkpt lat="45.74957" lon="6.83525">
        <ele>2575.2</ele>
        <time>2021-10-03T08:16:07Z</time>
      </trkpt>
      <trkpt lat="45.74953" lon="6.83521">
        <ele>2575</ele>
        <time>2021-10-03T08:16:20Z</time>
      </trkpt>
      <trkpt lat="45.74942" lon="6.83501">
        <ele>2575.4</ele>
        <time>2021-10-03T08:16:31Z</time>
      </trkpt>
      <trkpt lat="45.74942" lon="6.83493">
        <ele>2575.2</ele>
        <time>2021-10-03T08:16:35Z</time>
      </trkpt>
      <trkpt lat="45.74943" lon="6.83475">
        <ele>2574.2</ele>
        <time>2021-10-03T08:16:42Z</time>
      </trkpt>
      <trkpt lat="45.74944" lon="6.83462">
        <ele>2573</ele>
        <time>2021-10-03T08:16:46Z</time>
      </trkpt>
      <trkpt lat="45.74943" lon="6.83454">
        <ele>2572</ele>
        <time>2021-10-03T08:16:49Z</time>
      </trkpt>
      <trkpt lat="45.74942" lon="6.83451">
        <ele>2570.2</ele>
        <time>2021-10-03T08:16:51Z</time>
      </trkpt>
      <trkpt lat="45.7494" lon="6.83443">
        <ele>2568.8</ele>
        <time>2021-10-03T08:16:54Z</time>
      </trkpt>
      <trkpt lat="45.74937" lon="6.83438">
        <ele>2567.6</ele>
        <time>2021-10-03T08:16:57Z</time>
      </trkpt>
      <trkpt lat="45.74936" lon="6.83436">
        <ele>2567</ele>
        <time>2021-10-03T08:16:58Z</time>
      </trkpt>
      <trkpt lat="45.74936" lon="6.83435">
        <ele>2566.4</ele>
        <time>2021-10-03T08:16:59Z</time>
      </trkpt>
      <trkpt lat="45.74933" lon="6.83433">
        <ele>2565.2</ele>
        <time>2021-10-03T08:17:01Z</time>
      </trkpt>
      <trkpt lat="45.74931" lon="6.83429">
        <ele>2564</ele>
        <time>2021-10-03T08:17:03Z</time>
      </trkpt>
      <trkpt lat="45.74929" lon="6.83425">
        <ele>2562.8</ele>
        <time>2021-10-03T08:17:05Z</time>
      </trkpt>
      <trkpt lat="45.74925" lon="6.83419">
        <ele>2561.4</ele>
        <time>2021-10-03T08:17:07Z</time>
      </trkpt>
      <trkpt lat="45.74925" lon="6.83416">
        <ele>2561.2</ele>
        <time>2021-10-03T08:17:08Z</time>
      </trkpt>
      <trkpt lat="45.74923" lon="6.83409">
        <ele>2560.2</ele>
        <time>2021-10-03T08:17:10Z</time>
      </trkpt>
      <trkpt lat="45.74919" lon="6.83403">
        <ele>2558.2</ele>
        <time>2021-10-03T08:17:12Z</time>
      </trkpt>
      <trkpt lat="45.74917" lon="6.83396">
        <ele>2557.2</ele>
        <time>2021-10-03T08:17:14Z</time>
      </trkpt>
      <trkpt lat="45.74915" lon="6.83392">
        <ele>2556.2</ele>
        <time>2021-10-03T08:17:16Z</time>
      </trkpt>
      <trkpt lat="45.74911" lon="6.83383">
        <ele>2555.2</ele>
        <time>2021-10-03T08:17:19Z</time>
      </trkpt>
      <trkpt lat="45.74909" lon="6.83375">
        <ele>2554</ele>
        <time>2021-10-03T08:17:21Z</time>
      </trkpt>
      <trkpt lat="45.74908" lon="6.83369">
        <ele>2553</ele>
        <time>2021-10-03T08:17:23Z</time>
      </trkpt>
      <trkpt lat="45.74905" lon="6.83362">
        <ele>2551.8</ele>
        <time>2021-10-03T08:17:25Z</time>
      </trkpt>
      <trkpt lat="45.74905" lon="6.83358">
        <ele>2550.8</ele>
        <time>2021-10-03T08:17:27Z</time>
      </trkpt>
      <trkpt lat="45.74901" lon="6.8335">
        <ele>2549.8</ele>
        <time>2021-10-03T08:17:30Z</time>
      </trkpt>
      <trkpt lat="45.74897" lon="6.83336">
        <ele>2548.6</ele>
        <time>2021-10-03T08:17:35Z</time>
      </trkpt>
      <trkpt lat="45.74897" lon="6.83326">
        <ele>2547.6</ele>
        <time>2021-10-03T08:17:38Z</time>
      </trkpt>
      <trkpt lat="45.74898" lon="6.83321">
        <ele>2546.6</ele>
        <time>2021-10-03T08:17:40Z</time>
      </trkpt>
      <trkpt lat="45.74898" lon="6.83311">
        <ele>2544.6</ele>
        <time>2021-10-03T08:17:43Z</time>
      </trkpt>
      <trkpt lat="45.74898" lon="6.83307">
        <ele>2543.6</ele>
        <time>2021-10-03T08:17:44Z</time>
      </trkpt>
      <trkpt lat="45.74897" lon="6.83299">
        <ele>2542</ele>
        <time>2021-10-03T08:17:46Z</time>
      </trkpt>
      <trkpt lat="45.74895" lon="6.83283">
        <ele>2541</ele>
        <time>2021-10-03T08:17:51Z</time>
      </trkpt>
      <trkpt lat="45.74895" lon="6.83281">
        <ele>2540.8</ele>
        <time>2021-10-03T08:17:52Z</time>
      </trkpt>
      <trkpt lat="45.74893" lon="6.83272">
        <ele>2539.8</ele>
        <time>2021-10-03T08:17:56Z</time>
      </trkpt>
      <trkpt lat="45.74893" lon="6.83257">
        <ele>2538.6</ele>
        <time>2021-10-03T08:18:04Z</time>
      </trkpt>
      <trkpt lat="45.74894" lon="6.8325">
        <ele>2537.4</ele>
        <time>2021-10-03T08:18:06Z</time>
      </trkpt>
      <trkpt lat="45.74895" lon="6.83244">
        <ele>2536</ele>
        <time>2021-10-03T08:18:08Z</time>
      </trkpt>
      <trkpt lat="45.74895" lon="6.83236">
        <ele>2534.4</ele>
        <time>2021-10-03T08:18:10Z</time>
      </trkpt>
      <trkpt lat="45.74896" lon="6.83225">
        <ele>2533.2</ele>
        <time>2021-10-03T08:18:13Z</time>
      </trkpt>
      <trkpt lat="45.74898" lon="6.83206">
        <ele>2532</ele>
        <time>2021-10-03T08:18:19Z</time>
      </trkpt>
      <trkpt lat="45.74901" lon="6.83186">
        <ele>2531</ele>
        <time>2021-10-03T08:18:27Z</time>
      </trkpt>
      <trkpt lat="45.74901" lon="6.83183">
        <ele>2530.8</ele>
        <time>2021-10-03T08:18:28Z</time>
      </trkpt>
      <trkpt lat="45.74898" lon="6.83179">
        <ele>2529.8</ele>
        <time>2021-10-03T08:18:31Z</time>
      </trkpt>
      <trkpt lat="45.74898" lon="6.83178">
        <ele>2529.2</ele>
        <time>2021-10-03T08:18:32Z</time>
      </trkpt>
      <trkpt lat="45.74898" lon="6.83177">
        <ele>2528.6</ele>
        <time>2021-10-03T08:18:33Z</time>
      </trkpt>
      <trkpt lat="45.74898" lon="6.83175">
        <ele>2528.2</ele>
        <time>2021-10-03T08:18:34Z</time>
      </trkpt>
      <trkpt lat="45.74901" lon="6.83174">
        <ele>2527</ele>
        <time>2021-10-03T08:18:36Z</time>
      </trkpt>
      <trkpt lat="45.74904" lon="6.83172">
        <ele>2525.6</ele>
        <time>2021-10-03T08:18:38Z</time>
      </trkpt>
      <trkpt lat="45.74909" lon="6.83168">
        <ele>2524.6</ele>
        <time>2021-10-03T08:18:41Z</time>
      </trkpt>
      <trkpt lat="45.74911" lon="6.83165">
        <ele>2524.2</ele>
        <time>2021-10-03T08:18:44Z</time>
      </trkpt>
      <trkpt lat="45.7491" lon="6.83159">
        <ele>2523.4</ele>
        <time>2021-10-03T08:18:46Z</time>
      </trkpt>
      <trkpt lat="45.7491" lon="6.83155">
        <ele>2522</ele>
        <time>2021-10-03T08:18:48Z</time>
      </trkpt>
      <trkpt lat="45.74911" lon="6.8315">
        <ele>2520.6</ele>
        <time>2021-10-03T08:18:50Z</time>
      </trkpt>
      <trkpt lat="45.74912" lon="6.83146">
        <ele>2519.6</ele>
        <time>2021-10-03T08:18:52Z</time>
      </trkpt>
      <trkpt lat="45.74914" lon="6.83138">
        <ele>2518.6</ele>
        <time>2021-10-03T08:18:56Z</time>
      </trkpt>
      <trkpt lat="45.74914" lon="6.83132">
        <ele>2517.4</ele>
        <time>2021-10-03T08:19:00Z</time>
      </trkpt>
      <trkpt lat="45.74914" lon="6.83127">
        <ele>2516.4</ele>
        <time>2021-10-03T08:19:02Z</time>
      </trkpt>
      <trkpt lat="45.7491" lon="6.83117">
        <ele>2515</ele>
        <time>2021-10-03T08:19:06Z</time>
      </trkpt>
      <trkpt lat="45.74907" lon="6.83114">
        <ele>2514</ele>
        <time>2021-10-03T08:19:08Z</time>
      </trkpt>
      <trkpt lat="45.74906" lon="6.83108">
        <ele>2513</ele>
        <time>2021-10-03T08:19:10Z</time>
      </trkpt>
      <trkpt lat="45.74907" lon="6.83105">
        <ele>2512.6</ele>
        <time>2021-10-03T08:19:11Z</time>
      </trkpt>
      <trkpt lat="45.74908" lon="6.83099">
        <ele>2512.8</ele>
        <time>2021-10-03T08:19:14Z</time>
      </trkpt>
      <trkpt lat="45.74906" lon="6.83082">
        <ele>2512.6</ele>
        <time>2021-10-03T08:19:24Z</time>
      </trkpt>
      <trkpt lat="45.74901" lon="6.83075">
        <ele>2512.8</ele>
        <time>2021-10-03T08:19:29Z</time>
      </trkpt>
      <trkpt lat="45.74899" lon="6.83068">
        <ele>2513.8</ele>
        <time>2021-10-03T08:19:33Z</time>
      </trkpt>
      <trkpt lat="45.74899" lon="6.83066">
        <ele>2514</ele>
        <time>2021-10-03T08:19:34Z</time>
      </trkpt>
      <trkpt lat="45.74899" lon="6.83056">
        <ele>2515.2</ele>
        <time>2021-10-03T08:19:40Z</time>
      </trkpt>
      <trkpt lat="45.74899" lon="6.83051">
        <ele>2516</ele>
        <time>2021-10-03T08:19:43Z</time>
      </trkpt>
      <trkpt lat="45.74899" lon="6.83047">
        <ele>2516.4</ele>
        <time>2021-10-03T08:19:45Z</time>
      </trkpt>
      <trkpt lat="45.74899" lon="6.83043">
        <ele>2516.4</ele>
        <time>2021-10-03T08:19:47Z</time>
      </trkpt>
      <trkpt lat="45.74898" lon="6.83035">
        <ele>2515.2</ele>
        <time>2021-10-03T08:19:51Z</time>
      </trkpt>
      <trkpt lat="45.74897" lon="6.8303">
        <ele>2514</ele>
        <time>2021-10-03T08:19:53Z</time>
      </trkpt>
      <trkpt lat="45.74896" lon="6.83019">
        <ele>2512.8</ele>
        <time>2021-10-03T08:19:58Z</time>
      </trkpt>
      <trkpt lat="45.74895" lon="6.83014">
        <ele>2511.8</ele>
        <time>2021-10-03T08:20:01Z</time>
      </trkpt>
      <trkpt lat="45.74894" lon="6.83009">
        <ele>2510.6</ele>
        <time>2021-10-03T08:20:04Z</time>
      </trkpt>
      <trkpt lat="45.74892" lon="6.83001">
        <ele>2509.4</ele>
        <time>2021-10-03T08:20:08Z</time>
      </trkpt>
      <trkpt lat="45.74891" lon="6.82993">
        <ele>2508.2</ele>
        <time>2021-10-03T08:20:12Z</time>
      </trkpt>
      <trkpt lat="45.74891" lon="6.8299">
        <ele>2507.6</ele>
        <time>2021-10-03T08:20:14Z</time>
      </trkpt>
      <trkpt lat="45.74891" lon="6.82987">
        <ele>2507</ele>
        <time>2021-10-03T08:20:16Z</time>
      </trkpt>
      <trkpt lat="45.74891" lon="6.82983">
        <ele>2506.6</ele>
        <time>2021-10-03T08:20:18Z</time>
      </trkpt>
      <trkpt lat="45.74891" lon="6.8298">
        <ele>2505.8</ele>
        <time>2021-10-03T08:20:20Z</time>
      </trkpt>
      <trkpt lat="45.7489" lon="6.82977">
        <ele>2505.2</ele>
        <time>2021-10-03T08:20:22Z</time>
      </trkpt>
      <trkpt lat="45.7489" lon="6.82973">
        <ele>2504.4</ele>
        <time>2021-10-03T08:20:25Z</time>
      </trkpt>
      <trkpt lat="45.7489" lon="6.82968">
        <ele>2503</ele>
        <time>2021-10-03T08:20:28Z</time>
      </trkpt>
      <trkpt lat="45.7489" lon="6.82962">
        <ele>2501.8</ele>
        <time>2021-10-03T08:20:31Z</time>
      </trkpt>
      <trkpt lat="45.7489" lon="6.82956">
        <ele>2500.8</ele>
        <time>2021-10-03T08:20:34Z</time>
      </trkpt>
      <trkpt lat="45.74889" lon="6.82951">
        <ele>2499.8</ele>
        <time>2021-10-03T08:20:37Z</time>
      </trkpt>
      <trkpt lat="45.74889" lon="6.82949">
        <ele>2499.4</ele>
        <time>2021-10-03T08:20:38Z</time>
      </trkpt>
      <trkpt lat="45.74888" lon="6.82944">
        <ele>2498</ele>
        <time>2021-10-03T08:20:41Z</time>
      </trkpt>
      <trkpt lat="45.74888" lon="6.82943">
        <ele>2497.6</ele>
        <time>2021-10-03T08:20:42Z</time>
      </trkpt>
      <trkpt lat="45.74887" lon="6.8294">
        <ele>2496.8</ele>
        <time>2021-10-03T08:20:45Z</time>
      </trkpt>
      <trkpt lat="45.74885" lon="6.82936">
        <ele>2495.6</ele>
        <time>2021-10-03T08:20:49Z</time>
      </trkpt>
      <trkpt lat="45.74885" lon="6.82932">
        <ele>2494.8</ele>
        <time>2021-10-03T08:20:52Z</time>
      </trkpt>
      <trkpt lat="45.74885" lon="6.8293">
        <ele>2494.4</ele>
        <time>2021-10-03T08:20:53Z</time>
      </trkpt>
      <trkpt lat="45.74884" lon="6.82928">
        <ele>2493.6</ele>
        <time>2021-10-03T08:20:54Z</time>
      </trkpt>
      <trkpt lat="45.74884" lon="6.82926">
        <ele>2492.8</ele>
        <time>2021-10-03T08:20:55Z</time>
      </trkpt>
      <trkpt lat="45.74886" lon="6.82924">
        <ele>2491.4</ele>
        <time>2021-10-03T08:20:57Z</time>
      </trkpt>
      <trkpt lat="45.74888" lon="6.82919">
        <ele>2490.4</ele>
        <time>2021-10-03T08:20:59Z</time>
      </trkpt>
      <trkpt lat="45.74889" lon="6.82917">
        <ele>2490</ele>
        <time>2021-10-03T08:21:00Z</time>
      </trkpt>
      <trkpt lat="45.74888" lon="6.82912">
        <ele>2489.2</ele>
        <time>2021-10-03T08:21:02Z</time>
      </trkpt>
      <trkpt lat="45.74888" lon="6.82907">
        <ele>2488</ele>
        <time>2021-10-03T08:21:05Z</time>
      </trkpt>
      <trkpt lat="45.74885" lon="6.82897">
        <ele>2487.4</ele>
        <time>2021-10-03T08:21:09Z</time>
      </trkpt>
      <trkpt lat="45.74884" lon="6.82889">
        <ele>2486.8</ele>
        <time>2021-10-03T08:21:12Z</time>
      </trkpt>
      <trkpt lat="45.74884" lon="6.8288">
        <ele>2485.6</ele>
        <time>2021-10-03T08:21:15Z</time>
      </trkpt>
      <trkpt lat="45.74883" lon="6.82874">
        <ele>2484</ele>
        <time>2021-10-03T08:21:17Z</time>
      </trkpt>
      <trkpt lat="45.74883" lon="6.82867">
        <ele>2482.6</ele>
        <time>2021-10-03T08:21:19Z</time>
      </trkpt>
      <trkpt lat="45.74884" lon="6.82858">
        <ele>2482</ele>
        <time>2021-10-03T08:21:22Z</time>
      </trkpt>
      <trkpt lat="45.74884" lon="6.82852">
        <ele>2481.6</ele>
        <time>2021-10-03T08:21:24Z</time>
      </trkpt>
      <trkpt lat="45.74882" lon="6.82841">
        <ele>2480.6</ele>
        <time>2021-10-03T08:21:28Z</time>
      </trkpt>
      <trkpt lat="45.74882" lon="6.82827">
        <ele>2479.2</ele>
        <time>2021-10-03T08:21:33Z</time>
      </trkpt>
      <trkpt lat="45.74883" lon="6.82822">
        <ele>2478</ele>
        <time>2021-10-03T08:21:35Z</time>
      </trkpt>
      <trkpt lat="45.74883" lon="6.82814">
        <ele>2476.4</ele>
        <time>2021-10-03T08:21:38Z</time>
      </trkpt>
      <trkpt lat="45.74884" lon="6.8281">
        <ele>2475.4</ele>
        <time>2021-10-03T08:21:40Z</time>
      </trkpt>
      <trkpt lat="45.74883" lon="6.82805">
        <ele>2474.2</ele>
        <time>2021-10-03T08:21:42Z</time>
      </trkpt>
      <trkpt lat="45.74884" lon="6.82794">
        <ele>2472.8</ele>
        <time>2021-10-03T08:21:46Z</time>
      </trkpt>
      <trkpt lat="45.74884" lon="6.8279">
        <ele>2471.6</ele>
        <time>2021-10-03T08:21:48Z</time>
      </trkpt>
      <trkpt lat="45.74884" lon="6.82783">
        <ele>2470.6</ele>
        <time>2021-10-03T08:21:50Z</time>
      </trkpt>
      <trkpt lat="45.74883" lon="6.82777">
        <ele>2469.2</ele>
        <time>2021-10-03T08:21:52Z</time>
      </trkpt>
      <trkpt lat="45.74885" lon="6.82751">
        <ele>2468.6</ele>
        <time>2021-10-03T08:22:01Z</time>
      </trkpt>
      <trkpt lat="45.74886" lon="6.82743">
        <ele>2467.8</ele>
        <time>2021-10-03T08:22:03Z</time>
      </trkpt>
      <trkpt lat="45.74886" lon="6.82736">
        <ele>2466.8</ele>
        <time>2021-10-03T08:22:05Z</time>
      </trkpt>
      <trkpt lat="45.74886" lon="6.82713">
        <ele>2465.6</ele>
        <time>2021-10-03T08:22:11Z</time>
      </trkpt>
      <trkpt lat="45.74882" lon="6.82692">
        <ele>2464</ele>
        <time>2021-10-03T08:22:17Z</time>
      </trkpt>
      <trkpt lat="45.74883" lon="6.8268">
        <ele>2462.6</ele>
        <time>2021-10-03T08:22:20Z</time>
      </trkpt>
      <trkpt lat="45.74883" lon="6.82673">
        <ele>2461.6</ele>
        <time>2021-10-03T08:22:22Z</time>
      </trkpt>
      <trkpt lat="45.74881" lon="6.82667">
        <ele>2461</ele>
        <time>2021-10-03T08:22:24Z</time>
      </trkpt>
      <trkpt lat="45.74882" lon="6.82661">
        <ele>2460.4</ele>
        <time>2021-10-03T08:22:26Z</time>
      </trkpt>
      <trkpt lat="45.74883" lon="6.82657">
        <ele>2460</ele>
        <time>2021-10-03T08:22:27Z</time>
      </trkpt>
      <trkpt lat="45.74883" lon="6.82651">
        <ele>2459</ele>
        <time>2021-10-03T08:22:29Z</time>
      </trkpt>
      <trkpt lat="45.74883" lon="6.82644">
        <ele>2457.6</ele>
        <time>2021-10-03T08:22:31Z</time>
      </trkpt>
      <trkpt lat="45.74883" lon="6.82638">
        <ele>2456</ele>
        <time>2021-10-03T08:22:33Z</time>
      </trkpt>
      <trkpt lat="45.74882" lon="6.82628">
        <ele>2455</ele>
        <time>2021-10-03T08:22:36Z</time>
      </trkpt>
      <trkpt lat="45.74881" lon="6.82614">
        <ele>2454</ele>
        <time>2021-10-03T08:22:40Z</time>
      </trkpt>
      <trkpt lat="45.74881" lon="6.82588">
        <ele>2453.6</ele>
        <time>2021-10-03T08:22:48Z</time>
      </trkpt>
      <trkpt lat="45.74879" lon="6.8257">
        <ele>2452.8</ele>
        <time>2021-10-03T08:22:54Z</time>
      </trkpt>
      <trkpt lat="45.74873" lon="6.82545">
        <ele>2452</ele>
        <time>2021-10-03T08:23:03Z</time>
      </trkpt>
      <trkpt lat="45.74872" lon="6.82523">
        <ele>2454</ele>
        <time>2021-10-03T08:23:11Z</time>
      </trkpt>
      <trkpt lat="45.74882" lon="6.82512">
        <ele>2453.6</ele>
        <time>2021-10-03T08:23:21Z</time>
      </trkpt>
      <trkpt lat="45.74883" lon="6.82512">
        <ele>2452.8</ele>
        <time>2021-10-03T08:23:23Z</time>
      </trkpt>
      <trkpt lat="45.74888" lon="6.8251">
        <ele>2452</ele>
        <time>2021-10-03T08:23:27Z</time>
      </trkpt>
      <trkpt lat="45.74889" lon="6.82509">
        <ele>2451.8</ele>
        <time>2021-10-03T08:23:28Z</time>
      </trkpt>
      <trkpt lat="45.74892" lon="6.82507">
        <ele>2450.4</ele>
        <time>2021-10-03T08:23:32Z</time>
      </trkpt>
      <trkpt lat="45.74894" lon="6.82507">
        <ele>2449</ele>
        <time>2021-10-03T08:23:34Z</time>
      </trkpt>
      <trkpt lat="45.74894" lon="6.82504">
        <ele>2447.8</ele>
        <time>2021-10-03T08:23:36Z</time>
      </trkpt>
      <trkpt lat="45.74894" lon="6.82499">
        <ele>2446.2</ele>
        <time>2021-10-03T08:23:38Z</time>
      </trkpt>
      <trkpt lat="45.74894" lon="6.82495">
        <ele>2445</ele>
        <time>2021-10-03T08:23:40Z</time>
      </trkpt>
      <trkpt lat="45.74894" lon="6.82492">
        <ele>2443.8</ele>
        <time>2021-10-03T08:23:42Z</time>
      </trkpt>
      <trkpt lat="45.74895" lon="6.82491">
        <ele>2443.2</ele>
        <time>2021-10-03T08:23:43Z</time>
      </trkpt>
      <trkpt lat="45.74896" lon="6.82491">
        <ele>2442.8</ele>
        <time>2021-10-03T08:23:44Z</time>
      </trkpt>
      <trkpt lat="45.74896" lon="6.8249">
        <ele>2442.2</ele>
        <time>2021-10-03T08:23:45Z</time>
      </trkpt>
      <trkpt lat="45.74898" lon="6.82489">
        <ele>2441.4</ele>
        <time>2021-10-03T08:23:47Z</time>
      </trkpt>
      <trkpt lat="45.74898" lon="6.82487">
        <ele>2440.2</ele>
        <time>2021-10-03T08:23:49Z</time>
      </trkpt>
      <trkpt lat="45.74897" lon="6.82481">
        <ele>2439</ele>
        <time>2021-10-03T08:23:51Z</time>
      </trkpt>
      <trkpt lat="45.74897" lon="6.82479">
        <ele>2438.6</ele>
        <time>2021-10-03T08:23:52Z</time>
      </trkpt>
      <trkpt lat="45.74898" lon="6.82478">
        <ele>2438</ele>
        <time>2021-10-03T08:23:53Z</time>
      </trkpt>
      <trkpt lat="45.74903" lon="6.82483">
        <ele>2436.6</ele>
        <time>2021-10-03T08:23:56Z</time>
      </trkpt>
      <trkpt lat="45.74905" lon="6.82486">
        <ele>2435.2</ele>
        <time>2021-10-03T08:23:58Z</time>
      </trkpt>
      <trkpt lat="45.74907" lon="6.82488">
        <ele>2434</ele>
        <time>2021-10-03T08:24:00Z</time>
      </trkpt>
      <trkpt lat="45.74907" lon="6.82488">
        <ele>2433.4</ele>
        <time>2021-10-03T08:24:01Z</time>
      </trkpt>
      <trkpt lat="45.74907" lon="6.82485">
        <ele>2432.6</ele>
        <time>2021-10-03T08:24:03Z</time>
      </trkpt>
      <trkpt lat="45.74909" lon="6.82484">
        <ele>2431.8</ele>
        <time>2021-10-03T08:24:05Z</time>
      </trkpt>
      <trkpt lat="45.74909" lon="6.82484">
        <ele>2431.2</ele>
        <time>2021-10-03T08:24:06Z</time>
      </trkpt>
      <trkpt lat="45.74909" lon="6.82482">
        <ele>2429.6</ele>
        <time>2021-10-03T08:24:08Z</time>
      </trkpt>
      <trkpt lat="45.74909" lon="6.8248">
        <ele>2429.2</ele>
        <time>2021-10-03T08:24:09Z</time>
      </trkpt>
      <trkpt lat="45.7491" lon="6.82477">
        <ele>2428.4</ele>
        <time>2021-10-03T08:24:11Z</time>
      </trkpt>
      <trkpt lat="45.74912" lon="6.82478">
        <ele>2427.8</ele>
        <time>2021-10-03T08:24:13Z</time>
      </trkpt>
      <trkpt lat="45.74912" lon="6.82478">
        <ele>2427.4</ele>
        <time>2021-10-03T08:24:14Z</time>
      </trkpt>
      <trkpt lat="45.74912" lon="6.82477">
        <ele>2427.2</ele>
        <time>2021-10-03T08:24:15Z</time>
      </trkpt>
      <trkpt lat="45.74914" lon="6.82475">
        <ele>2426.2</ele>
        <time>2021-10-03T08:24:17Z</time>
      </trkpt>
      <trkpt lat="45.74915" lon="6.82475">
        <ele>2424.8</ele>
        <time>2021-10-03T08:24:19Z</time>
      </trkpt>
      <trkpt lat="45.74916" lon="6.82472">
        <ele>2423.8</ele>
        <time>2021-10-03T08:24:21Z</time>
      </trkpt>
      <trkpt lat="45.74916" lon="6.82468">
        <ele>2422.4</ele>
        <time>2021-10-03T08:24:23Z</time>
      </trkpt>
      <trkpt lat="45.74915" lon="6.82463">
        <ele>2421</ele>
        <time>2021-10-03T08:24:25Z</time>
      </trkpt>
      <trkpt lat="45.74914" lon="6.82461">
        <ele>2420.4</ele>
        <time>2021-10-03T08:24:26Z</time>
      </trkpt>
      <trkpt lat="45.74914" lon="6.82459">
        <ele>2419.8</ele>
        <time>2021-10-03T08:24:27Z</time>
      </trkpt>
      <trkpt lat="45.74912" lon="6.82454">
        <ele>2418.6</ele>
        <time>2021-10-03T08:24:29Z</time>
      </trkpt>
      <trkpt lat="45.74908" lon="6.82445">
        <ele>2417.4</ele>
        <time>2021-10-03T08:24:32Z</time>
      </trkpt>
      <trkpt lat="45.74907" lon="6.8244">
        <ele>2416</ele>
        <time>2021-10-03T08:24:35Z</time>
      </trkpt>
      <trkpt lat="45.74906" lon="6.82438">
        <ele>2415.6</ele>
        <time>2021-10-03T08:24:37Z</time>
      </trkpt>
      <trkpt lat="45.74904" lon="6.82432">
        <ele>2415</ele>
        <time>2021-10-03T08:24:40Z</time>
      </trkpt>
      <trkpt lat="45.74904" lon="6.82429">
        <ele>2414.6</ele>
        <time>2021-10-03T08:24:41Z</time>
      </trkpt>
      <trkpt lat="45.74902" lon="6.82425">
        <ele>2413.4</ele>
        <time>2021-10-03T08:24:43Z</time>
      </trkpt>
      <trkpt lat="45.74902" lon="6.82421">
        <ele>2412.4</ele>
        <time>2021-10-03T08:24:46Z</time>
      </trkpt>
      <trkpt lat="45.74901" lon="6.8242">
        <ele>2412.2</ele>
        <time>2021-10-03T08:24:47Z</time>
      </trkpt>
      <trkpt lat="45.74898" lon="6.82408">
        <ele>2411.2</ele>
        <time>2021-10-03T08:24:54Z</time>
      </trkpt>
      <trkpt lat="45.74895" lon="6.82401">
        <ele>2409.6</ele>
        <time>2021-10-03T08:24:56Z</time>
      </trkpt>
      <trkpt lat="45.74891" lon="6.82397">
        <ele>2408.4</ele>
        <time>2021-10-03T08:24:58Z</time>
      </trkpt>
      <trkpt lat="45.7488" lon="6.82375">
        <ele>2409.4</ele>
        <time>2021-10-03T08:25:06Z</time>
      </trkpt>
      <trkpt lat="45.74875" lon="6.82369">
        <ele>2409.4</ele>
        <time>2021-10-03T08:25:11Z</time>
      </trkpt>
      <trkpt lat="45.7487" lon="6.8236">
        <ele>2410.6</ele>
        <time>2021-10-03T08:25:18Z</time>
      </trkpt>
      <trkpt lat="45.74861" lon="6.82338">
        <ele>2410.4</ele>
        <time>2021-10-03T08:25:32Z</time>
      </trkpt>
      <trkpt lat="45.7486" lon="6.82334">
        <ele>2411.6</ele>
        <time>2021-10-03T08:25:37Z</time>
      </trkpt>
      <trkpt lat="45.74858" lon="6.8233">
        <ele>2413</ele>
        <time>2021-10-03T08:25:41Z</time>
      </trkpt>
      <trkpt lat="45.74857" lon="6.82328">
        <ele>2413.6</ele>
        <time>2021-10-03T08:25:43Z</time>
      </trkpt>
      <trkpt lat="45.74856" lon="6.82323">
        <ele>2414.2</ele>
        <time>2021-10-03T08:25:45Z</time>
      </trkpt>
      <trkpt lat="45.74851" lon="6.82313">
        <ele>2415.4</ele>
        <time>2021-10-03T08:25:50Z</time>
      </trkpt>
      <trkpt lat="45.74848" lon="6.8231">
        <ele>2415.8</ele>
        <time>2021-10-03T08:25:53Z</time>
      </trkpt>
      <trkpt lat="45.74846" lon="6.82308">
        <ele>2416.4</ele>
        <time>2021-10-03T08:25:55Z</time>
      </trkpt>
      <trkpt lat="45.74843" lon="6.823">
        <ele>2417.6</ele>
        <time>2021-10-03T08:25:59Z</time>
      </trkpt>
      <trkpt lat="45.74837" lon="6.82275">
        <ele>2416.8</ele>
        <time>2021-10-03T08:26:10Z</time>
      </trkpt>
      <trkpt lat="45.74837" lon="6.82272">
        <ele>2416.4</ele>
        <time>2021-10-03T08:26:11Z</time>
      </trkpt>
      <trkpt lat="45.74835" lon="6.82259">
        <ele>2415.4</ele>
        <time>2021-10-03T08:26:15Z</time>
      </trkpt>
      <trkpt lat="45.74833" lon="6.8225">
        <ele>2414.2</ele>
        <time>2021-10-03T08:26:18Z</time>
      </trkpt>
      <trkpt lat="45.74832" lon="6.82241">
        <ele>2413.2</ele>
        <time>2021-10-03T08:26:21Z</time>
      </trkpt>
      <trkpt lat="45.74828" lon="6.82231">
        <ele>2411.8</ele>
        <time>2021-10-03T08:26:24Z</time>
      </trkpt>
      <trkpt lat="45.74825" lon="6.82222">
        <ele>2410.8</ele>
        <time>2021-10-03T08:26:27Z</time>
      </trkpt>
      <trkpt lat="45.74817" lon="6.82197">
        <ele>2411.4</ele>
        <time>2021-10-03T08:26:44Z</time>
      </trkpt>
      <trkpt lat="45.74817" lon="6.82193">
        <ele>2411</ele>
        <time>2021-10-03T08:26:47Z</time>
      </trkpt>
      <trkpt lat="45.74816" lon="6.82188">
        <ele>2411</ele>
        <time>2021-10-03T08:26:52Z</time>
      </trkpt>
      <trkpt lat="45.74815" lon="6.82184">
        <ele>2412.2</ele>
        <time>2021-10-03T08:26:55Z</time>
      </trkpt>
      <trkpt lat="45.74815" lon="6.82183">
        <ele>2412.6</ele>
        <time>2021-10-03T08:26:56Z</time>
      </trkpt>
      <trkpt lat="45.74815" lon="6.82181">
        <ele>2413.4</ele>
        <time>2021-10-03T08:26:58Z</time>
      </trkpt>
      <trkpt lat="45.74815" lon="6.82179">
        <ele>2413.8</ele>
        <time>2021-10-03T08:26:59Z</time>
      </trkpt>
      <trkpt lat="45.74815" lon="6.82177">
        <ele>2414.6</ele>
        <time>2021-10-03T08:27:01Z</time>
      </trkpt>
      <trkpt lat="45.74815" lon="6.82172">
        <ele>2416</ele>
        <time>2021-10-03T08:27:06Z</time>
      </trkpt>
      <trkpt lat="45.74815" lon="6.8217">
        <ele>2417.2</ele>
        <time>2021-10-03T08:27:09Z</time>
      </trkpt>
      <trkpt lat="45.74815" lon="6.82166">
        <ele>2418.2</ele>
        <time>2021-10-03T08:27:13Z</time>
      </trkpt>
      <trkpt lat="45.74813" lon="6.82164">
        <ele>2419.4</ele>
        <time>2021-10-03T08:27:16Z</time>
      </trkpt>
      <trkpt lat="45.74812" lon="6.82159">
        <ele>2420.6</ele>
        <time>2021-10-03T08:27:20Z</time>
      </trkpt>
      <trkpt lat="45.7481" lon="6.82153">
        <ele>2421.8</ele>
        <time>2021-10-03T08:27:25Z</time>
      </trkpt>
      <trkpt lat="45.74809" lon="6.82148">
        <ele>2422.8</ele>
        <time>2021-10-03T08:27:28Z</time>
      </trkpt>
      <trkpt lat="45.74804" lon="6.82127">
        <ele>2423.8</ele>
        <time>2021-10-03T08:27:40Z</time>
      </trkpt>
      <trkpt lat="45.74802" lon="6.821">
        <ele>2424.6</ele>
        <time>2021-10-03T08:27:53Z</time>
      </trkpt>
      <trkpt lat="45.74802" lon="6.82095">
        <ele>2425</ele>
        <time>2021-10-03T08:27:55Z</time>
      </trkpt>
      <trkpt lat="45.74803" lon="6.82083">
        <ele>2425.6</ele>
        <time>2021-10-03T08:28:00Z</time>
      </trkpt>
      <trkpt lat="45.74802" lon="6.82077">
        <ele>2426.2</ele>
        <time>2021-10-03T08:28:05Z</time>
      </trkpt>
      <trkpt lat="45.74803" lon="6.82075">
        <ele>2426.6</ele>
        <time>2021-10-03T08:28:06Z</time>
      </trkpt>
      <trkpt lat="45.74804" lon="6.82072">
        <ele>2427.4</ele>
        <time>2021-10-03T08:28:08Z</time>
      </trkpt>
      <trkpt lat="45.74804" lon="6.82065">
        <ele>2428.4</ele>
        <time>2021-10-03T08:28:12Z</time>
      </trkpt>
      <trkpt lat="45.74803" lon="6.82055">
        <ele>2429.6</ele>
        <time>2021-10-03T08:28:18Z</time>
      </trkpt>
      <trkpt lat="45.74803" lon="6.82048">
        <ele>2430.6</ele>
        <time>2021-10-03T08:28:21Z</time>
      </trkpt>
      <trkpt lat="45.74804" lon="6.82047">
        <ele>2430.8</ele>
        <time>2021-10-03T08:28:22Z</time>
      </trkpt>
      <trkpt lat="45.74805" lon="6.82038">
        <ele>2430.8</ele>
        <time>2021-10-03T08:28:26Z</time>
      </trkpt>
      <trkpt lat="45.74802" lon="6.82034">
        <ele>2430.6</ele>
        <time>2021-10-03T08:28:30Z</time>
      </trkpt>
      <trkpt lat="45.74801" lon="6.82031">
        <ele>2431</ele>
        <time>2021-10-03T08:28:32Z</time>
      </trkpt>
      <trkpt lat="45.74801" lon="6.82025">
        <ele>2431.4</ele>
        <time>2021-10-03T08:28:35Z</time>
      </trkpt>
      <trkpt lat="45.74802" lon="6.8202">
        <ele>2432</ele>
        <time>2021-10-03T08:28:38Z</time>
      </trkpt>
      <trkpt lat="45.74803" lon="6.82007">
        <ele>2433</ele>
        <time>2021-10-03T08:28:45Z</time>
      </trkpt>
      <trkpt lat="45.74804" lon="6.81997">
        <ele>2433.8</ele>
        <time>2021-10-03T08:28:50Z</time>
      </trkpt>
      <trkpt lat="45.74801" lon="6.81982">
        <ele>2433.8</ele>
        <time>2021-10-03T08:28:58Z</time>
      </trkpt>
      <trkpt lat="45.748" lon="6.81977">
        <ele>2434</ele>
        <time>2021-10-03T08:29:00Z</time>
      </trkpt>
      <trkpt lat="45.74801" lon="6.81974">
        <ele>2434.2</ele>
        <time>2021-10-03T08:29:02Z</time>
      </trkpt>
      <trkpt lat="45.74802" lon="6.8197">
        <ele>2435.6</ele>
        <time>2021-10-03T08:29:04Z</time>
      </trkpt>
      <trkpt lat="45.74802" lon="6.81943">
        <ele>2435</ele>
        <time>2021-10-03T08:29:13Z</time>
      </trkpt>
      <trkpt lat="45.74799" lon="6.81916">
        <ele>2435.4</ele>
        <time>2021-10-03T08:29:23Z</time>
      </trkpt>
      <trkpt lat="45.74797" lon="6.81896">
        <ele>2436.6</ele>
        <time>2021-10-03T08:29:31Z</time>
      </trkpt>
      <trkpt lat="45.74797" lon="6.81892">
        <ele>2437.2</ele>
        <time>2021-10-03T08:29:33Z</time>
      </trkpt>
      <trkpt lat="45.74799" lon="6.81864">
        <ele>2437.6</ele>
        <time>2021-10-03T08:29:42Z</time>
      </trkpt>
      <trkpt lat="45.74799" lon="6.81857">
        <ele>2437.6</ele>
        <time>2021-10-03T08:29:44Z</time>
      </trkpt>
      <trkpt lat="45.74796" lon="6.81842">
        <ele>2437.8</ele>
        <time>2021-10-03T08:29:51Z</time>
      </trkpt>
      <trkpt lat="45.74793" lon="6.81829">
        <ele>2438.6</ele>
        <time>2021-10-03T08:29:57Z</time>
      </trkpt>
      <trkpt lat="45.74793" lon="6.81824">
        <ele>2439.8</ele>
        <time>2021-10-03T08:30:00Z</time>
      </trkpt>
      <trkpt lat="45.74791" lon="6.81815">
        <ele>2440.8</ele>
        <time>2021-10-03T08:30:05Z</time>
      </trkpt>
      <trkpt lat="45.74789" lon="6.81809">
        <ele>2441.2</ele>
        <time>2021-10-03T08:30:10Z</time>
      </trkpt>
      <trkpt lat="45.74786" lon="6.81804">
        <ele>2441.2</ele>
        <time>2021-10-03T08:30:14Z</time>
      </trkpt>
      <trkpt lat="45.74782" lon="6.81793">
        <ele>2441.4</ele>
        <time>2021-10-03T08:30:20Z</time>
      </trkpt>
      <trkpt lat="45.74779" lon="6.81787">
        <ele>2442</ele>
        <time>2021-10-03T08:30:25Z</time>
      </trkpt>
      <trkpt lat="45.74776" lon="6.81778">
        <ele>2443</ele>
        <time>2021-10-03T08:30:31Z</time>
      </trkpt>
      <trkpt lat="45.74767" lon="6.81762">
        <ele>2443.8</ele>
        <time>2021-10-03T08:30:44Z</time>
      </trkpt>
      <trkpt lat="45.74767" lon="6.81759">
        <ele>2444</ele>
        <time>2021-10-03T08:30:46Z</time>
      </trkpt>
      <trkpt lat="45.74768" lon="6.81751">
        <ele>2444.8</ele>
        <time>2021-10-03T08:30:54Z</time>
      </trkpt>
      <trkpt lat="45.74767" lon="6.81748">
        <ele>2445.2</ele>
        <time>2021-10-03T08:30:56Z</time>
      </trkpt>
      <trkpt lat="45.74767" lon="6.81746">
        <ele>2445.4</ele>
        <time>2021-10-03T08:30:57Z</time>
      </trkpt>
      <trkpt lat="45.74767" lon="6.81743">
        <ele>2446</ele>
        <time>2021-10-03T08:30:59Z</time>
      </trkpt>
      <trkpt lat="45.74767" lon="6.81742">
        <ele>2446.2</ele>
        <time>2021-10-03T08:31:00Z</time>
      </trkpt>
      <trkpt lat="45.74767" lon="6.8174">
        <ele>2446.6</ele>
        <time>2021-10-03T08:31:01Z</time>
      </trkpt>
      <trkpt lat="45.74765" lon="6.81733">
        <ele>2447.4</ele>
        <time>2021-10-03T08:31:06Z</time>
      </trkpt>
      <trkpt lat="45.74763" lon="6.81725">
        <ele>2448.4</ele>
        <time>2021-10-03T08:31:11Z</time>
      </trkpt>
      <trkpt lat="45.74763" lon="6.81707">
        <ele>2449.6</ele>
        <time>2021-10-03T08:31:22Z</time>
      </trkpt>
      <trkpt lat="45.7476" lon="6.81697">
        <ele>2450.6</ele>
        <time>2021-10-03T08:31:26Z</time>
      </trkpt>
      <trkpt lat="45.74758" lon="6.81672">
        <ele>2450.6</ele>
        <time>2021-10-03T08:31:35Z</time>
      </trkpt>
      <trkpt lat="45.74755" lon="6.81646">
        <ele>2450</ele>
        <time>2021-10-03T08:31:44Z</time>
      </trkpt>
      <trkpt lat="45.74752" lon="6.81617">
        <ele>2450</ele>
        <time>2021-10-03T08:31:53Z</time>
      </trkpt>
      <trkpt lat="45.74752" lon="6.816">
        <ele>2451.8</ele>
        <time>2021-10-03T08:31:59Z</time>
      </trkpt>
      <trkpt lat="45.74748" lon="6.81576">
        <ele>2453</ele>
        <time>2021-10-03T08:32:08Z</time>
      </trkpt>
      <trkpt lat="45.74752" lon="6.8155">
        <ele>2453.6</ele>
        <time>2021-10-03T08:32:21Z</time>
      </trkpt>
      <trkpt lat="45.74754" lon="6.81534">
        <ele>2454.2</ele>
        <time>2021-10-03T08:32:29Z</time>
      </trkpt>
      <trkpt lat="45.74753" lon="6.8152">
        <ele>2455.4</ele>
        <time>2021-10-03T08:32:34Z</time>
      </trkpt>
      <trkpt lat="45.74754" lon="6.81493">
        <ele>2456.2</ele>
        <time>2021-10-03T08:32:44Z</time>
      </trkpt>
      <trkpt lat="45.74754" lon="6.8149">
        <ele>2456.4</ele>
        <time>2021-10-03T08:32:45Z</time>
      </trkpt>
      <trkpt lat="45.74753" lon="6.81474">
        <ele>2457.4</ele>
        <time>2021-10-03T08:32:50Z</time>
      </trkpt>
      <trkpt lat="45.74754" lon="6.81445">
        <ele>2457.4</ele>
        <time>2021-10-03T08:32:58Z</time>
      </trkpt>
      <trkpt lat="45.74754" lon="6.81419">
        <ele>2457.6</ele>
        <time>2021-10-03T08:33:06Z</time>
      </trkpt>
      <trkpt lat="45.74755" lon="6.8139">
        <ele>2457.4</ele>
        <time>2021-10-03T08:33:15Z</time>
      </trkpt>
      <trkpt lat="45.74756" lon="6.81366">
        <ele>2458.8</ele>
        <time>2021-10-03T08:33:22Z</time>
      </trkpt>
      <trkpt lat="45.74758" lon="6.8134">
        <ele>2459.2</ele>
        <time>2021-10-03T08:33:31Z</time>
      </trkpt>
      <trkpt lat="45.74761" lon="6.81337">
        <ele>2460.4</ele>
        <time>2021-10-03T08:33:33Z</time>
      </trkpt>
      <trkpt lat="45.74762" lon="6.81332">
        <ele>2461.6</ele>
        <time>2021-10-03T08:33:35Z</time>
      </trkpt>
      <trkpt lat="45.74765" lon="6.81321">
        <ele>2462.6</ele>
        <time>2021-10-03T08:33:41Z</time>
      </trkpt>
      <trkpt lat="45.74764" lon="6.81293">
        <ele>2462.6</ele>
        <time>2021-10-03T08:33:53Z</time>
      </trkpt>
      <trkpt lat="45.74765" lon="6.81287">
        <ele>2461.8</ele>
        <time>2021-10-03T08:33:56Z</time>
      </trkpt>
      <trkpt lat="45.74775" lon="6.81274">
        <ele>2463.8</ele>
        <time>2021-10-03T08:34:07Z</time>
      </trkpt>
      <trkpt lat="45.74775" lon="6.81267">
        <ele>2465</ele>
        <time>2021-10-03T08:34:11Z</time>
      </trkpt>
      <trkpt lat="45.74774" lon="6.81262">
        <ele>2466</ele>
        <time>2021-10-03T08:34:15Z</time>
      </trkpt>
      <trkpt lat="45.74774" lon="6.81254">
        <ele>2467.4</ele>
        <time>2021-10-03T08:34:19Z</time>
      </trkpt>
      <trkpt lat="45.74774" lon="6.81249">
        <ele>2467.8</ele>
        <time>2021-10-03T08:34:22Z</time>
      </trkpt>
      <trkpt lat="45.74775" lon="6.81244">
        <ele>2468.2</ele>
        <time>2021-10-03T08:34:26Z</time>
      </trkpt>
      <trkpt lat="45.74774" lon="6.81242">
        <ele>2468.6</ele>
        <time>2021-10-03T08:34:28Z</time>
      </trkpt>
      <trkpt lat="45.74774" lon="6.81241">
        <ele>2468.8</ele>
        <time>2021-10-03T08:34:29Z</time>
      </trkpt>
      <trkpt lat="45.74771" lon="6.81237">
        <ele>2469.6</ele>
        <time>2021-10-03T08:34:32Z</time>
      </trkpt>
      <trkpt lat="45.7477" lon="6.81232">
        <ele>2470.6</ele>
        <time>2021-10-03T08:34:35Z</time>
      </trkpt>
      <trkpt lat="45.74769" lon="6.81229">
        <ele>2471</ele>
        <time>2021-10-03T08:34:37Z</time>
      </trkpt>
      <trkpt lat="45.74768" lon="6.81226">
        <ele>2471.6</ele>
        <time>2021-10-03T08:34:39Z</time>
      </trkpt>
      <trkpt lat="45.74767" lon="6.81222">
        <ele>2472</ele>
        <time>2021-10-03T08:34:41Z</time>
      </trkpt>
      <trkpt lat="45.74767" lon="6.81217">
        <ele>2473</ele>
        <time>2021-10-03T08:34:44Z</time>
      </trkpt>
      <trkpt lat="45.74766" lon="6.81208">
        <ele>2474</ele>
        <time>2021-10-03T08:34:48Z</time>
      </trkpt>
      <trkpt lat="45.74765" lon="6.81195">
        <ele>2474.8</ele>
        <time>2021-10-03T08:34:56Z</time>
      </trkpt>
      <trkpt lat="45.74765" lon="6.8119">
        <ele>2475.2</ele>
        <time>2021-10-03T08:34:58Z</time>
      </trkpt>
      <trkpt lat="45.74764" lon="6.81178">
        <ele>2476.2</ele>
        <time>2021-10-03T08:35:06Z</time>
      </trkpt>
      <trkpt lat="45.74761" lon="6.81168">
        <ele>2477.4</ele>
        <time>2021-10-03T08:35:12Z</time>
      </trkpt>
      <trkpt lat="45.74759" lon="6.81163">
        <ele>2478.8</ele>
        <time>2021-10-03T08:35:15Z</time>
      </trkpt>
      <trkpt lat="45.74757" lon="6.81158">
        <ele>2480</ele>
        <time>2021-10-03T08:35:19Z</time>
      </trkpt>
      <trkpt lat="45.74755" lon="6.81153">
        <ele>2481.4</ele>
        <time>2021-10-03T08:35:23Z</time>
      </trkpt>
      <trkpt lat="45.74754" lon="6.81145">
        <ele>2482.6</ele>
        <time>2021-10-03T08:35:28Z</time>
      </trkpt>
      <trkpt lat="45.74753" lon="6.81135">
        <ele>2483.8</ele>
        <time>2021-10-03T08:35:34Z</time>
      </trkpt>
      <trkpt lat="45.7475" lon="6.81127">
        <ele>2484.8</ele>
        <time>2021-10-03T08:35:39Z</time>
      </trkpt>
      <trkpt lat="45.7475" lon="6.81119">
        <ele>2485.8</ele>
        <time>2021-10-03T08:35:43Z</time>
      </trkpt>
      <trkpt lat="45.7475" lon="6.81118">
        <ele>2486</ele>
        <time>2021-10-03T08:35:44Z</time>
      </trkpt>
      <trkpt lat="45.74748" lon="6.81103">
        <ele>2486</ele>
        <time>2021-10-03T08:35:54Z</time>
      </trkpt>
      <trkpt lat="45.74745" lon="6.81092">
        <ele>2486.8</ele>
        <time>2021-10-03T08:36:00Z</time>
      </trkpt>
      <trkpt lat="45.74745" lon="6.81086">
        <ele>2488</ele>
        <time>2021-10-03T08:36:03Z</time>
      </trkpt>
      <trkpt lat="45.74744" lon="6.81077">
        <ele>2489.2</ele>
        <time>2021-10-03T08:36:08Z</time>
      </trkpt>
      <trkpt lat="45.74744" lon="6.8107">
        <ele>2490.2</ele>
        <time>2021-10-03T08:36:12Z</time>
      </trkpt>
      <trkpt lat="45.74745" lon="6.81056">
        <ele>2491.2</ele>
        <time>2021-10-03T08:36:20Z</time>
      </trkpt>
      <trkpt lat="45.74745" lon="6.81054">
        <ele>2491.6</ele>
        <time>2021-10-03T08:36:21Z</time>
      </trkpt>
      <trkpt lat="45.74749" lon="6.81043">
        <ele>2492.4</ele>
        <time>2021-10-03T08:36:26Z</time>
      </trkpt>
      <trkpt lat="45.74763" lon="6.81022">
        <ele>2492</ele>
        <time>2021-10-03T08:36:34Z</time>
      </trkpt>
      <trkpt lat="45.74767" lon="6.8101">
        <ele>2491.2</ele>
        <time>2021-10-03T08:36:38Z</time>
      </trkpt>
      <trkpt lat="45.74767" lon="6.80981">
        <ele>2490.6</ele>
        <time>2021-10-03T08:36:46Z</time>
      </trkpt>
      <trkpt lat="45.74767" lon="6.80978">
        <ele>2490.2</ele>
        <time>2021-10-03T08:36:47Z</time>
      </trkpt>
      <trkpt lat="45.74773" lon="6.80953">
        <ele>2491.2</ele>
        <time>2021-10-03T08:36:54Z</time>
      </trkpt>
      <trkpt lat="45.74782" lon="6.80937">
        <ele>2492.2</ele>
        <time>2021-10-03T08:37:00Z</time>
      </trkpt>
      <trkpt lat="45.74793" lon="6.80917">
        <ele>2492.6</ele>
        <time>2021-10-03T08:37:09Z</time>
      </trkpt>
      <trkpt lat="45.74797" lon="6.80898">
        <ele>2491.2</ele>
        <time>2021-10-03T08:37:14Z</time>
      </trkpt>
      <trkpt lat="45.74802" lon="6.80884">
        <ele>2490</ele>
        <time>2021-10-03T08:37:19Z</time>
      </trkpt>
      <trkpt lat="45.74812" lon="6.80861">
        <ele>2489.8</ele>
        <time>2021-10-03T08:37:27Z</time>
      </trkpt>
      <trkpt lat="45.74824" lon="6.80839">
        <ele>2489.6</ele>
        <time>2021-10-03T08:37:36Z</time>
      </trkpt>
      <trkpt lat="45.74826" lon="6.80837">
        <ele>2489.6</ele>
        <time>2021-10-03T08:37:37Z</time>
      </trkpt>
      <trkpt lat="45.74832" lon="6.80831">
        <ele>2489.4</ele>
        <time>2021-10-03T08:37:40Z</time>
      </trkpt>
      <trkpt lat="45.74844" lon="6.80832">
        <ele>2490.6</ele>
        <time>2021-10-03T08:37:46Z</time>
      </trkpt>
      <trkpt lat="45.74848" lon="6.8083">
        <ele>2491</ele>
        <time>2021-10-03T08:37:48Z</time>
      </trkpt>
      <trkpt lat="45.74865" lon="6.80818">
        <ele>2490.8</ele>
        <time>2021-10-03T08:37:56Z</time>
      </trkpt>
      <trkpt lat="45.74883" lon="6.80812">
        <ele>2490.8</ele>
        <time>2021-10-03T08:38:05Z</time>
      </trkpt>
      <trkpt lat="45.749" lon="6.808">
        <ele>2491</ele>
        <time>2021-10-03T08:38:13Z</time>
      </trkpt>
      <trkpt lat="45.74909" lon="6.80794">
        <ele>2492.4</ele>
        <time>2021-10-03T08:38:17Z</time>
      </trkpt>
      <trkpt lat="45.74922" lon="6.80794">
        <ele>2491.2</ele>
        <time>2021-10-03T08:38:24Z</time>
      </trkpt>
      <trkpt lat="45.74934" lon="6.80802">
        <ele>2491.4</ele>
        <time>2021-10-03T08:38:35Z</time>
      </trkpt>
      <trkpt lat="45.74952" lon="6.80806">
        <ele>2492</ele>
        <time>2021-10-03T08:38:47Z</time>
      </trkpt>
      <trkpt lat="45.74954" lon="6.80806">
        <ele>2492.4</ele>
        <time>2021-10-03T08:38:48Z</time>
      </trkpt>
      <trkpt lat="45.74958" lon="6.80805">
        <ele>2493.2</ele>
        <time>2021-10-03T08:38:50Z</time>
      </trkpt>
      <trkpt lat="45.74973" lon="6.8079">
        <ele>2491.8</ele>
        <time>2021-10-03T08:38:58Z</time>
      </trkpt>
      <trkpt lat="45.74982" lon="6.80795">
        <ele>2491.4</ele>
        <time>2021-10-03T08:39:02Z</time>
      </trkpt>
      <trkpt lat="45.74999" lon="6.80801">
        <ele>2490.6</ele>
        <time>2021-10-03T08:39:10Z</time>
      </trkpt>
      <trkpt lat="45.75002" lon="6.80801">
        <ele>2490</ele>
        <time>2021-10-03T08:39:13Z</time>
      </trkpt>
      <trkpt lat="45.75011" lon="6.80792">
        <ele>2489.6</ele>
        <time>2021-10-03T08:39:19Z</time>
      </trkpt>
      <trkpt lat="45.75012" lon="6.80791">
        <ele>2489.6</ele>
        <time>2021-10-03T08:39:21Z</time>
      </trkpt>
      <trkpt lat="45.75014" lon="6.80785">
        <ele>2489.8</ele>
        <time>2021-10-03T08:39:26Z</time>
      </trkpt>
      <trkpt lat="45.75018" lon="6.80774">
        <ele>2491.2</ele>
        <time>2021-10-03T08:39:36Z</time>
      </trkpt>
      <trkpt lat="45.75016" lon="6.80767">
        <ele>2492.2</ele>
        <time>2021-10-03T08:39:40Z</time>
      </trkpt>
      <trkpt lat="45.75013" lon="6.80759">
        <ele>2493.4</ele>
        <time>2021-10-03T08:39:44Z</time>
      </trkpt>
      <trkpt lat="45.75013" lon="6.8075">
        <ele>2494.6</ele>
        <time>2021-10-03T08:39:49Z</time>
      </trkpt>
      <trkpt lat="45.75014" lon="6.80746">
        <ele>2495.8</ele>
        <time>2021-10-03T08:39:51Z</time>
      </trkpt>
      <trkpt lat="45.75015" lon="6.80743">
        <ele>2497.2</ele>
        <time>2021-10-03T08:39:54Z</time>
      </trkpt>
      <trkpt lat="45.75016" lon="6.80742">
        <ele>2497.8</ele>
        <time>2021-10-03T08:39:55Z</time>
      </trkpt>
      <trkpt lat="45.75017" lon="6.8074">
        <ele>2498.2</ele>
        <time>2021-10-03T08:39:56Z</time>
      </trkpt>
      <trkpt lat="45.75018" lon="6.80737">
        <ele>2499.6</ele>
        <time>2021-10-03T08:39:58Z</time>
      </trkpt>
      <trkpt lat="45.75032" lon="6.80725">
        <ele>2500.6</ele>
        <time>2021-10-03T08:40:10Z</time>
      </trkpt>
      <trkpt lat="45.75034" lon="6.80723">
        <ele>2502</ele>
        <time>2021-10-03T08:40:12Z</time>
      </trkpt>
      <trkpt lat="45.75037" lon="6.80723">
        <ele>2503.8</ele>
        <time>2021-10-03T08:40:14Z</time>
      </trkpt>
      <trkpt lat="45.75039" lon="6.80723">
        <ele>2505.4</ele>
        <time>2021-10-03T08:40:16Z</time>
      </trkpt>
      <trkpt lat="45.75039" lon="6.80724">
        <ele>2506.2</ele>
        <time>2021-10-03T08:40:17Z</time>
      </trkpt>
      <trkpt lat="45.75039" lon="6.80724">
        <ele>2507</ele>
        <time>2021-10-03T08:40:18Z</time>
      </trkpt>
      <trkpt lat="45.75043" lon="6.80726">
        <ele>2507.8</ele>
        <time>2021-10-03T08:40:21Z</time>
      </trkpt>
      <trkpt lat="45.75046" lon="6.80729">
        <ele>2508.4</ele>
        <time>2021-10-03T08:40:24Z</time>
      </trkpt>
      <trkpt lat="45.7505" lon="6.80731">
        <ele>2509.6</ele>
        <time>2021-10-03T08:40:27Z</time>
      </trkpt>
      <trkpt lat="45.75051" lon="6.80731">
        <ele>2511.2</ele>
        <time>2021-10-03T08:40:28Z</time>
      </trkpt>
      <trkpt lat="45.75053" lon="6.80731">
        <ele>2512.8</ele>
        <time>2021-10-03T08:40:29Z</time>
      </trkpt>
      <trkpt lat="45.75054" lon="6.8073">
        <ele>2513.8</ele>
        <time>2021-10-03T08:40:30Z</time>
      </trkpt>
      <trkpt lat="45.75055" lon="6.8073">
        <ele>2515.2</ele>
        <time>2021-10-03T08:40:31Z</time>
      </trkpt>
      <trkpt lat="45.75058" lon="6.80729">
        <ele>2516.6</ele>
        <time>2021-10-03T08:40:33Z</time>
      </trkpt>
      <trkpt lat="45.75062" lon="6.80728">
        <ele>2515.4</ele>
        <time>2021-10-03T08:40:35Z</time>
      </trkpt>
      <trkpt lat="45.75067" lon="6.80725">
        <ele>2514</ele>
        <time>2021-10-03T08:40:38Z</time>
      </trkpt>
      <trkpt lat="45.75079" lon="6.80721">
        <ele>2512</ele>
        <time>2021-10-03T08:40:44Z</time>
      </trkpt>
      <trkpt lat="45.75084" lon="6.80717">
        <ele>2510.8</ele>
        <time>2021-10-03T08:40:47Z</time>
      </trkpt>
      <trkpt lat="45.7509" lon="6.80711">
        <ele>2511.8</ele>
        <time>2021-10-03T08:40:50Z</time>
      </trkpt>
      <trkpt lat="45.75092" lon="6.8071">
        <ele>2513</ele>
        <time>2021-10-03T08:40:51Z</time>
      </trkpt>
      <trkpt lat="45.75095" lon="6.80707">
        <ele>2514</ele>
        <time>2021-10-03T08:40:53Z</time>
      </trkpt>
      <trkpt lat="45.75106" lon="6.80704">
        <ele>2513</ele>
        <time>2021-10-03T08:40:58Z</time>
      </trkpt>
      <trkpt lat="45.75112" lon="6.80709">
        <ele>2510.8</ele>
        <time>2021-10-03T08:41:01Z</time>
      </trkpt>
      <trkpt lat="45.75116" lon="6.80713">
        <ele>2508.4</ele>
        <time>2021-10-03T08:41:03Z</time>
      </trkpt>
      <trkpt lat="45.75131" lon="6.80718">
        <ele>2509.8</ele>
        <time>2021-10-03T08:41:14Z</time>
      </trkpt>
      <trkpt lat="45.75134" lon="6.80718">
        <ele>2510.2</ele>
        <time>2021-10-03T08:41:16Z</time>
      </trkpt>
      <trkpt lat="45.75135" lon="6.80718">
        <ele>2511</ele>
        <time>2021-10-03T08:41:17Z</time>
      </trkpt>
      <trkpt lat="45.7514" lon="6.80703">
        <ele>2511</ele>
        <time>2021-10-03T08:41:28Z</time>
      </trkpt>
      <trkpt lat="45.75144" lon="6.80693">
        <ele>2509.8</ele>
        <time>2021-10-03T08:41:34Z</time>
      </trkpt>
      <trkpt lat="45.75145" lon="6.80688">
        <ele>2510.8</ele>
        <time>2021-10-03T08:41:37Z</time>
      </trkpt>
      <trkpt lat="45.75144" lon="6.80663">
        <ele>2509.6</ele>
        <time>2021-10-03T08:41:45Z</time>
      </trkpt>
      <trkpt lat="45.75143" lon="6.80651">
        <ele>2508.2</ele>
        <time>2021-10-03T08:41:48Z</time>
      </trkpt>
      <trkpt lat="45.75142" lon="6.80644">
        <ele>2506.8</ele>
        <time>2021-10-03T08:41:50Z</time>
      </trkpt>
      <trkpt lat="45.75141" lon="6.80636">
        <ele>2505.6</ele>
        <time>2021-10-03T08:41:52Z</time>
      </trkpt>
      <trkpt lat="45.75139" lon="6.80624">
        <ele>2504.6</ele>
        <time>2021-10-03T08:41:55Z</time>
      </trkpt>
      <trkpt lat="45.75134" lon="6.8061">
        <ele>2503.6</ele>
        <time>2021-10-03T08:41:59Z</time>
      </trkpt>
      <trkpt lat="45.7513" lon="6.806">
        <ele>2502.2</ele>
        <time>2021-10-03T08:42:02Z</time>
      </trkpt>
      <trkpt lat="45.75127" lon="6.80593">
        <ele>2500.8</ele>
        <time>2021-10-03T08:42:04Z</time>
      </trkpt>
      <trkpt lat="45.75123" lon="6.8058">
        <ele>2499</ele>
        <time>2021-10-03T08:42:08Z</time>
      </trkpt>
      <trkpt lat="45.75119" lon="6.80574">
        <ele>2498</ele>
        <time>2021-10-03T08:42:10Z</time>
      </trkpt>
      <trkpt lat="45.75114" lon="6.80569">
        <ele>2496.6</ele>
        <time>2021-10-03T08:42:12Z</time>
      </trkpt>
      <trkpt lat="45.75112" lon="6.80566">
        <ele>2495.6</ele>
        <time>2021-10-03T08:42:13Z</time>
      </trkpt>
      <trkpt lat="45.75106" lon="6.80556">
        <ele>2494.4</ele>
        <time>2021-10-03T08:42:16Z</time>
      </trkpt>
      <trkpt lat="45.75094" lon="6.80536">
        <ele>2493</ele>
        <time>2021-10-03T08:42:22Z</time>
      </trkpt>
      <trkpt lat="45.75089" lon="6.80526">
        <ele>2492</ele>
        <time>2021-10-03T08:42:25Z</time>
      </trkpt>
      <trkpt lat="45.75081" lon="6.80507">
        <ele>2491</ele>
        <time>2021-10-03T08:42:30Z</time>
      </trkpt>
      <trkpt lat="45.75078" lon="6.80494">
        <ele>2489.6</ele>
        <time>2021-10-03T08:42:33Z</time>
      </trkpt>
      <trkpt lat="45.75076" lon="6.80482">
        <ele>2488.2</ele>
        <time>2021-10-03T08:42:36Z</time>
      </trkpt>
      <trkpt lat="45.75073" lon="6.80469">
        <ele>2486.6</ele>
        <time>2021-10-03T08:42:39Z</time>
      </trkpt>
      <trkpt lat="45.7507" lon="6.80461">
        <ele>2485.4</ele>
        <time>2021-10-03T08:42:41Z</time>
      </trkpt>
      <trkpt lat="45.75067" lon="6.80454">
        <ele>2483.4</ele>
        <time>2021-10-03T08:42:43Z</time>
      </trkpt>
      <trkpt lat="45.75065" lon="6.80451">
        <ele>2482.2</ele>
        <time>2021-10-03T08:42:44Z</time>
      </trkpt>
      <trkpt lat="45.75062" lon="6.80447">
        <ele>2481</ele>
        <time>2021-10-03T08:42:45Z</time>
      </trkpt>
      <trkpt lat="45.75058" lon="6.80441">
        <ele>2479.8</ele>
        <time>2021-10-03T08:42:47Z</time>
      </trkpt>
      <trkpt lat="45.75045" lon="6.8042">
        <ele>2480</ele>
        <time>2021-10-03T08:42:53Z</time>
      </trkpt>
      <trkpt lat="45.75038" lon="6.80405">
        <ele>2481.4</ele>
        <time>2021-10-03T08:42:57Z</time>
      </trkpt>
      <trkpt lat="45.75032" lon="6.80391">
        <ele>2480.2</ele>
        <time>2021-10-03T08:43:01Z</time>
      </trkpt>
      <trkpt lat="45.75019" lon="6.80368">
        <ele>2479</ele>
        <time>2021-10-03T08:43:08Z</time>
      </trkpt>
      <trkpt lat="45.75014" lon="6.80357">
        <ele>2477.8</ele>
        <time>2021-10-03T08:43:11Z</time>
      </trkpt>
      <trkpt lat="45.75003" lon="6.80332">
        <ele>2476.8</ele>
        <time>2021-10-03T08:43:18Z</time>
      </trkpt>
      <trkpt lat="45.75001" lon="6.80329">
        <ele>2476.2</ele>
        <time>2021-10-03T08:43:19Z</time>
      </trkpt>
      <trkpt lat="45.74996" lon="6.8032">
        <ele>2475</ele>
        <time>2021-10-03T08:43:22Z</time>
      </trkpt>
      <trkpt lat="45.74991" lon="6.8031">
        <ele>2473.6</ele>
        <time>2021-10-03T08:43:25Z</time>
      </trkpt>
      <trkpt lat="45.74986" lon="6.8029">
        <ele>2472.4</ele>
        <time>2021-10-03T08:43:31Z</time>
      </trkpt>
      <trkpt lat="45.74983" lon="6.8028">
        <ele>2471.4</ele>
        <time>2021-10-03T08:43:34Z</time>
      </trkpt>
      <trkpt lat="45.74979" lon="6.80271">
        <ele>2470</ele>
        <time>2021-10-03T08:43:37Z</time>
      </trkpt>
      <trkpt lat="45.74973" lon="6.80255">
        <ele>2468.6</ele>
        <time>2021-10-03T08:43:42Z</time>
      </trkpt>
      <trkpt lat="45.74971" lon="6.80248">
        <ele>2467.4</ele>
        <time>2021-10-03T08:43:44Z</time>
      </trkpt>
      <trkpt lat="45.74969" lon="6.80242">
        <ele>2466.2</ele>
        <time>2021-10-03T08:43:46Z</time>
      </trkpt>
      <trkpt lat="45.74968" lon="6.80236">
        <ele>2464.4</ele>
        <time>2021-10-03T08:43:48Z</time>
      </trkpt>
      <trkpt lat="45.74967" lon="6.80232">
        <ele>2463.2</ele>
        <time>2021-10-03T08:43:50Z</time>
      </trkpt>
      <trkpt lat="45.74965" lon="6.80222">
        <ele>2462</ele>
        <time>2021-10-03T08:43:53Z</time>
      </trkpt>
      <trkpt lat="45.74962" lon="6.80209">
        <ele>2460.6</ele>
        <time>2021-10-03T08:43:57Z</time>
      </trkpt>
      <trkpt lat="45.7496" lon="6.80202">
        <ele>2459.2</ele>
        <time>2021-10-03T08:43:59Z</time>
      </trkpt>
      <trkpt lat="45.74957" lon="6.80196">
        <ele>2457.6</ele>
        <time>2021-10-03T08:44:01Z</time>
      </trkpt>
      <trkpt lat="45.74953" lon="6.8019">
        <ele>2456</ele>
        <time>2021-10-03T08:44:03Z</time>
      </trkpt>
      <trkpt lat="45.7495" lon="6.80184">
        <ele>2454.4</ele>
        <time>2021-10-03T08:44:05Z</time>
      </trkpt>
      <trkpt lat="45.74948" lon="6.80172">
        <ele>2453.4</ele>
        <time>2021-10-03T08:44:08Z</time>
      </trkpt>
      <trkpt lat="45.74947" lon="6.80147">
        <ele>2452</ele>
        <time>2021-10-03T08:44:14Z</time>
      </trkpt>
      <trkpt lat="45.74945" lon="6.80131">
        <ele>2451</ele>
        <time>2021-10-03T08:44:18Z</time>
      </trkpt>
      <trkpt lat="45.74938" lon="6.80109">
        <ele>2449.8</ele>
        <time>2021-10-03T08:44:24Z</time>
      </trkpt>
      <trkpt lat="45.74938" lon="6.801">
        <ele>2448.8</ele>
        <time>2021-10-03T08:44:28Z</time>
      </trkpt>
      <trkpt lat="45.74938" lon="6.801">
        <ele>2448.6</ele>
        <time>2021-10-03T08:44:29Z</time>
      </trkpt>
      <trkpt lat="45.74938" lon="6.801">
        <ele>2448.6</ele>
        <time>2021-10-03T08:44:31Z</time>
      </trkpt>
      <trkpt lat="45.74938" lon="6.801">
        <ele>2449.8</ele>
        <time>2021-10-03T08:44:39Z</time>
      </trkpt>
      <trkpt lat="45.74935" lon="6.801">
        <ele>2448.6</ele>
        <time>2021-10-03T08:44:53Z</time>
      </trkpt>
      <trkpt lat="45.74935" lon="6.80099">
        <ele>2448.2</ele>
        <time>2021-10-03T08:44:54Z</time>
      </trkpt>
      <trkpt lat="45.74934" lon="6.80098">
        <ele>2447.4</ele>
        <time>2021-10-03T08:44:59Z</time>
      </trkpt>
      <trkpt lat="45.74933" lon="6.80092">
        <ele>2445.8</ele>
        <time>2021-10-03T08:45:04Z</time>
      </trkpt>
      <trkpt lat="45.74931" lon="6.80089">
        <ele>2444.8</ele>
        <time>2021-10-03T08:45:06Z</time>
      </trkpt>
      <trkpt lat="45.74927" lon="6.80077">
        <ele>2443.6</ele>
        <time>2021-10-03T08:45:10Z</time>
      </trkpt>
      <trkpt lat="45.74924" lon="6.8007">
        <ele>2442.4</ele>
        <time>2021-10-03T08:45:12Z</time>
      </trkpt>
      <trkpt lat="45.7492" lon="6.8006">
        <ele>2441.2</ele>
        <time>2021-10-03T08:45:15Z</time>
      </trkpt>
      <trkpt lat="45.74917" lon="6.80052">
        <ele>2440</ele>
        <time>2021-10-03T08:45:17Z</time>
      </trkpt>
      <trkpt lat="45.74915" lon="6.80044">
        <ele>2438.4</ele>
        <time>2021-10-03T08:45:19Z</time>
      </trkpt>
      <trkpt lat="45.74912" lon="6.80036">
        <ele>2437.2</ele>
        <time>2021-10-03T08:45:21Z</time>
      </trkpt>
      <trkpt lat="45.74908" lon="6.80024">
        <ele>2436</ele>
        <time>2021-10-03T08:45:24Z</time>
      </trkpt>
      <trkpt lat="45.74904" lon="6.80013">
        <ele>2434.8</ele>
        <time>2021-10-03T08:45:27Z</time>
      </trkpt>
      <trkpt lat="45.74898" lon="6.79999">
        <ele>2433.2</ele>
        <time>2021-10-03T08:45:31Z</time>
      </trkpt>
      <trkpt lat="45.74895" lon="6.79992">
        <ele>2432</ele>
        <time>2021-10-03T08:45:33Z</time>
      </trkpt>
      <trkpt lat="45.74892" lon="6.79985">
        <ele>2430.4</ele>
        <time>2021-10-03T08:45:35Z</time>
      </trkpt>
      <trkpt lat="45.7489" lon="6.79977">
        <ele>2428.6</ele>
        <time>2021-10-03T08:45:37Z</time>
      </trkpt>
      <trkpt lat="45.74888" lon="6.79969">
        <ele>2427.4</ele>
        <time>2021-10-03T08:45:39Z</time>
      </trkpt>
      <trkpt lat="45.74885" lon="6.79961">
        <ele>2425.4</ele>
        <time>2021-10-03T08:45:41Z</time>
      </trkpt>
      <trkpt lat="45.74883" lon="6.79957">
        <ele>2424.2</ele>
        <time>2021-10-03T08:45:42Z</time>
      </trkpt>
      <trkpt lat="45.74879" lon="6.79949">
        <ele>2422.8</ele>
        <time>2021-10-03T08:45:44Z</time>
      </trkpt>
      <trkpt lat="45.74875" lon="6.79941">
        <ele>2421.2</ele>
        <time>2021-10-03T08:45:46Z</time>
      </trkpt>
      <trkpt lat="45.74873" lon="6.79932">
        <ele>2420</ele>
        <time>2021-10-03T08:45:48Z</time>
      </trkpt>
      <trkpt lat="45.74872" lon="6.79924">
        <ele>2419</ele>
        <time>2021-10-03T08:45:50Z</time>
      </trkpt>
      <trkpt lat="45.74867" lon="6.79897">
        <ele>2418.4</ele>
        <time>2021-10-03T08:45:57Z</time>
      </trkpt>
      <trkpt lat="45.7486" lon="6.79869">
        <ele>2418.2</ele>
        <time>2021-10-03T08:46:04Z</time>
      </trkpt>
      <trkpt lat="45.74859" lon="6.79865">
        <ele>2417.8</ele>
        <time>2021-10-03T08:46:05Z</time>
      </trkpt>
      <trkpt lat="45.74857" lon="6.79857">
        <ele>2415.8</ele>
        <time>2021-10-03T08:46:07Z</time>
      </trkpt>
      <trkpt lat="45.74857" lon="6.79853">
        <ele>2414.4</ele>
        <time>2021-10-03T08:46:08Z</time>
      </trkpt>
      <trkpt lat="45.74855" lon="6.79846">
        <ele>2412.6</ele>
        <time>2021-10-03T08:46:10Z</time>
      </trkpt>
      <trkpt lat="45.74854" lon="6.79843">
        <ele>2411.6</ele>
        <time>2021-10-03T08:46:11Z</time>
      </trkpt>
      <trkpt lat="45.74853" lon="6.79835">
        <ele>2410.2</ele>
        <time>2021-10-03T08:46:13Z</time>
      </trkpt>
      <trkpt lat="45.7485" lon="6.79828">
        <ele>2408</ele>
        <time>2021-10-03T08:46:15Z</time>
      </trkpt>
      <trkpt lat="45.74848" lon="6.79825">
        <ele>2406.8</ele>
        <time>2021-10-03T08:46:16Z</time>
      </trkpt>
      <trkpt lat="45.74844" lon="6.79819">
        <ele>2405.2</ele>
        <time>2021-10-03T08:46:18Z</time>
      </trkpt>
      <trkpt lat="45.74837" lon="6.79805">
        <ele>2403.4</ele>
        <time>2021-10-03T08:46:22Z</time>
      </trkpt>
      <trkpt lat="45.74836" lon="6.79802">
        <ele>2402.2</ele>
        <time>2021-10-03T08:46:23Z</time>
      </trkpt>
      <trkpt lat="45.74833" lon="6.79794">
        <ele>2399.8</ele>
        <time>2021-10-03T08:46:25Z</time>
      </trkpt>
      <trkpt lat="45.74832" lon="6.79791">
        <ele>2398.8</ele>
        <time>2021-10-03T08:46:26Z</time>
      </trkpt>
      <trkpt lat="45.74829" lon="6.79783">
        <ele>2397.6</ele>
        <time>2021-10-03T08:46:28Z</time>
      </trkpt>
      <trkpt lat="45.74822" lon="6.7977">
        <ele>2396.4</ele>
        <time>2021-10-03T08:46:32Z</time>
      </trkpt>
      <trkpt lat="45.74818" lon="6.79765">
        <ele>2395.4</ele>
        <time>2021-10-03T08:46:34Z</time>
      </trkpt>
      <trkpt lat="45.74811" lon="6.7976">
        <ele>2393.8</ele>
        <time>2021-10-03T08:46:37Z</time>
      </trkpt>
      <trkpt lat="45.74806" lon="6.79757">
        <ele>2391.4</ele>
        <time>2021-10-03T08:46:39Z</time>
      </trkpt>
      <trkpt lat="45.74803" lon="6.79755">
        <ele>2390</ele>
        <time>2021-10-03T08:46:40Z</time>
      </trkpt>
      <trkpt lat="45.74798" lon="6.79751">
        <ele>2388.6</ele>
        <time>2021-10-03T08:46:42Z</time>
      </trkpt>
      <trkpt lat="45.74794" lon="6.79747">
        <ele>2387.6</ele>
        <time>2021-10-03T08:46:44Z</time>
      </trkpt>
      <trkpt lat="45.7479" lon="6.79741">
        <ele>2385.8</ele>
        <time>2021-10-03T08:46:46Z</time>
      </trkpt>
      <trkpt lat="45.74783" lon="6.79728">
        <ele>2384.6</ele>
        <time>2021-10-03T08:46:50Z</time>
      </trkpt>
      <trkpt lat="45.7478" lon="6.79722">
        <ele>2383</ele>
        <time>2021-10-03T08:46:52Z</time>
      </trkpt>
      <trkpt lat="45.74776" lon="6.79715">
        <ele>2381.2</ele>
        <time>2021-10-03T08:46:54Z</time>
      </trkpt>
      <trkpt lat="45.74771" lon="6.79703">
        <ele>2379.6</ele>
        <time>2021-10-03T08:46:57Z</time>
      </trkpt>
      <trkpt lat="45.74767" lon="6.79695">
        <ele>2378.2</ele>
        <time>2021-10-03T08:46:59Z</time>
      </trkpt>
      <trkpt lat="45.74764" lon="6.79688">
        <ele>2376.2</ele>
        <time>2021-10-03T08:47:01Z</time>
      </trkpt>
      <trkpt lat="45.74761" lon="6.7968">
        <ele>2374.8</ele>
        <time>2021-10-03T08:47:03Z</time>
      </trkpt>
      <trkpt lat="45.74758" lon="6.79673">
        <ele>2373.8</ele>
        <time>2021-10-03T08:47:05Z</time>
      </trkpt>
      <trkpt lat="45.7475" lon="6.79654">
        <ele>2372.4</ele>
        <time>2021-10-03T08:47:10Z</time>
      </trkpt>
      <trkpt lat="45.74742" lon="6.79631">
        <ele>2371.2</ele>
        <time>2021-10-03T08:47:16Z</time>
      </trkpt>
      <trkpt lat="45.74737" lon="6.7961">
        <ele>2369.8</ele>
        <time>2021-10-03T08:47:21Z</time>
      </trkpt>
      <trkpt lat="45.74736" lon="6.79603">
        <ele>2368.6</ele>
        <time>2021-10-03T08:47:23Z</time>
      </trkpt>
      <trkpt lat="45.74733" lon="6.79591">
        <ele>2367</ele>
        <time>2021-10-03T08:47:26Z</time>
      </trkpt>
      <trkpt lat="45.7473" lon="6.79583">
        <ele>2366</ele>
        <time>2021-10-03T08:47:28Z</time>
      </trkpt>
      <trkpt lat="45.74726" lon="6.79576">
        <ele>2365</ele>
        <time>2021-10-03T08:47:30Z</time>
      </trkpt>
      <trkpt lat="45.74719" lon="6.79562">
        <ele>2363.8</ele>
        <time>2021-10-03T08:47:34Z</time>
      </trkpt>
      <trkpt lat="45.74706" lon="6.7954">
        <ele>2363.4</ele>
        <time>2021-10-03T08:47:41Z</time>
      </trkpt>
      <trkpt lat="45.747" lon="6.7953">
        <ele>2362.6</ele>
        <time>2021-10-03T08:47:44Z</time>
      </trkpt>
      <trkpt lat="45.74697" lon="6.79525">
        <ele>2360.6</ele>
        <time>2021-10-03T08:47:46Z</time>
      </trkpt>
      <trkpt lat="45.74693" lon="6.79518">
        <ele>2358.8</ele>
        <time>2021-10-03T08:47:48Z</time>
      </trkpt>
      <trkpt lat="45.74688" lon="6.79509">
        <ele>2357.4</ele>
        <time>2021-10-03T08:47:51Z</time>
      </trkpt>
      <trkpt lat="45.74685" lon="6.79498">
        <ele>2355.8</ele>
        <time>2021-10-03T08:47:54Z</time>
      </trkpt>
      <trkpt lat="45.74683" lon="6.7949">
        <ele>2354</ele>
        <time>2021-10-03T08:47:56Z</time>
      </trkpt>
      <trkpt lat="45.74679" lon="6.79478">
        <ele>2352.6</ele>
        <time>2021-10-03T08:47:59Z</time>
      </trkpt>
      <trkpt lat="45.74676" lon="6.79465">
        <ele>2351.6</ele>
        <time>2021-10-03T08:48:02Z</time>
      </trkpt>
      <trkpt lat="45.74672" lon="6.79441">
        <ele>2350.2</ele>
        <time>2021-10-03T08:48:08Z</time>
      </trkpt>
      <trkpt lat="45.7467" lon="6.79434">
        <ele>2348.8</ele>
        <time>2021-10-03T08:48:10Z</time>
      </trkpt>
      <trkpt lat="45.74669" lon="6.7943">
        <ele>2347.8</ele>
        <time>2021-10-03T08:48:11Z</time>
      </trkpt>
      <trkpt lat="45.74667" lon="6.79422">
        <ele>2345.8</ele>
        <time>2021-10-03T08:48:13Z</time>
      </trkpt>
      <trkpt lat="45.74665" lon="6.79414">
        <ele>2344.2</ele>
        <time>2021-10-03T08:48:15Z</time>
      </trkpt>
      <trkpt lat="45.74662" lon="6.79406">
        <ele>2342.8</ele>
        <time>2021-10-03T08:48:17Z</time>
      </trkpt>
      <trkpt lat="45.74659" lon="6.79398">
        <ele>2341.2</ele>
        <time>2021-10-03T08:48:19Z</time>
      </trkpt>
      <trkpt lat="45.74656" lon="6.79392">
        <ele>2339.6</ele>
        <time>2021-10-03T08:48:21Z</time>
      </trkpt>
      <trkpt lat="45.7465" lon="6.79381">
        <ele>2338.4</ele>
        <time>2021-10-03T08:48:24Z</time>
      </trkpt>
      <trkpt lat="45.74642" lon="6.79368">
        <ele>2337.2</ele>
        <time>2021-10-03T08:48:28Z</time>
      </trkpt>
      <trkpt lat="45.74638" lon="6.79361">
        <ele>2336.2</ele>
        <time>2021-10-03T08:48:30Z</time>
      </trkpt>
      <trkpt lat="45.74632" lon="6.79342">
        <ele>2334.6</ele>
        <time>2021-10-03T08:48:35Z</time>
      </trkpt>
      <trkpt lat="45.7463" lon="6.79333">
        <ele>2332.6</ele>
        <time>2021-10-03T08:48:37Z</time>
      </trkpt>
      <trkpt lat="45.74629" lon="6.79328">
        <ele>2331.4</ele>
        <time>2021-10-03T08:48:38Z</time>
      </trkpt>
      <trkpt lat="45.74628" lon="6.79324">
        <ele>2330.4</ele>
        <time>2021-10-03T08:48:39Z</time>
      </trkpt>
      <trkpt lat="45.74627" lon="6.79315">
        <ele>2328.6</ele>
        <time>2021-10-03T08:48:41Z</time>
      </trkpt>
      <trkpt lat="45.74623" lon="6.79298">
        <ele>2327.2</ele>
        <time>2021-10-03T08:48:45Z</time>
      </trkpt>
      <trkpt lat="45.74618" lon="6.79287">
        <ele>2325.6</ele>
        <time>2021-10-03T08:48:48Z</time>
      </trkpt>
      <trkpt lat="45.74616" lon="6.79281">
        <ele>2324.6</ele>
        <time>2021-10-03T08:48:50Z</time>
      </trkpt>
      <trkpt lat="45.74614" lon="6.79274">
        <ele>2323.4</ele>
        <time>2021-10-03T08:48:52Z</time>
      </trkpt>
      <trkpt lat="45.74612" lon="6.79268">
        <ele>2321.4</ele>
        <time>2021-10-03T08:48:54Z</time>
      </trkpt>
      <trkpt lat="45.74609" lon="6.79261">
        <ele>2319.8</ele>
        <time>2021-10-03T08:48:56Z</time>
      </trkpt>
      <trkpt lat="45.74608" lon="6.7925">
        <ele>2318.2</ele>
        <time>2021-10-03T08:48:59Z</time>
      </trkpt>
      <trkpt lat="45.74606" lon="6.7923">
        <ele>2316.8</ele>
        <time>2021-10-03T08:49:05Z</time>
      </trkpt>
      <trkpt lat="45.74606" lon="6.79224">
        <ele>2315.6</ele>
        <time>2021-10-03T08:49:07Z</time>
      </trkpt>
      <trkpt lat="45.74604" lon="6.79214">
        <ele>2314.4</ele>
        <time>2021-10-03T08:49:10Z</time>
      </trkpt>
      <trkpt lat="45.74604" lon="6.79204">
        <ele>2313.4</ele>
        <time>2021-10-03T08:49:13Z</time>
      </trkpt>
      <trkpt lat="45.74603" lon="6.79189">
        <ele>2311.8</ele>
        <time>2021-10-03T08:49:17Z</time>
      </trkpt>
      <trkpt lat="45.74599" lon="6.79175">
        <ele>2310.8</ele>
        <time>2021-10-03T08:49:21Z</time>
      </trkpt>
      <trkpt lat="45.74593" lon="6.79167">
        <ele>2309</ele>
        <time>2021-10-03T08:49:24Z</time>
      </trkpt>
      <trkpt lat="45.7459" lon="6.79165">
        <ele>2308</ele>
        <time>2021-10-03T08:49:25Z</time>
      </trkpt>
      <trkpt lat="45.74588" lon="6.79163">
        <ele>2306.6</ele>
        <time>2021-10-03T08:49:26Z</time>
      </trkpt>
      <trkpt lat="45.74586" lon="6.79161">
        <ele>2305.4</ele>
        <time>2021-10-03T08:49:27Z</time>
      </trkpt>
      <trkpt lat="45.74584" lon="6.79159">
        <ele>2304.2</ele>
        <time>2021-10-03T08:49:28Z</time>
      </trkpt>
      <trkpt lat="45.7458" lon="6.79154">
        <ele>2302.6</ele>
        <time>2021-10-03T08:49:30Z</time>
      </trkpt>
      <trkpt lat="45.74577" lon="6.7915">
        <ele>2301.4</ele>
        <time>2021-10-03T08:49:32Z</time>
      </trkpt>
      <trkpt lat="45.74572" lon="6.79147">
        <ele>2299.8</ele>
        <time>2021-10-03T08:49:34Z</time>
      </trkpt>
      <trkpt lat="45.74567" lon="6.79145">
        <ele>2298.2</ele>
        <time>2021-10-03T08:49:36Z</time>
      </trkpt>
      <trkpt lat="45.74562" lon="6.79145">
        <ele>2296.8</ele>
        <time>2021-10-03T08:49:38Z</time>
      </trkpt>
      <trkpt lat="45.74559" lon="6.79146">
        <ele>2295.8</ele>
        <time>2021-10-03T08:49:39Z</time>
      </trkpt>
      <trkpt lat="45.74554" lon="6.79145">
        <ele>2294</ele>
        <time>2021-10-03T08:49:41Z</time>
      </trkpt>
      <trkpt lat="45.74547" lon="6.79143">
        <ele>2292.8</ele>
        <time>2021-10-03T08:49:44Z</time>
      </trkpt>
      <trkpt lat="45.74541" lon="6.79141">
        <ele>2291.6</ele>
        <time>2021-10-03T08:49:46Z</time>
      </trkpt>
      <trkpt lat="45.74536" lon="6.79139">
        <ele>2290.4</ele>
        <time>2021-10-03T08:49:48Z</time>
      </trkpt>
      <trkpt lat="45.74531" lon="6.79136">
        <ele>2289.2</ele>
        <time>2021-10-03T08:49:50Z</time>
      </trkpt>
      <trkpt lat="45.74526" lon="6.79133">
        <ele>2287.4</ele>
        <time>2021-10-03T08:49:52Z</time>
      </trkpt>
      <trkpt lat="45.7452" lon="6.79132">
        <ele>2285.8</ele>
        <time>2021-10-03T08:49:54Z</time>
      </trkpt>
      <trkpt lat="45.74516" lon="6.79135">
        <ele>2284.8</ele>
        <time>2021-10-03T08:49:56Z</time>
      </trkpt>
      <trkpt lat="45.7451" lon="6.79144">
        <ele>2283.6</ele>
        <time>2021-10-03T08:49:59Z</time>
      </trkpt>
      <trkpt lat="45.74503" lon="6.79151">
        <ele>2282.2</ele>
        <time>2021-10-03T08:50:02Z</time>
      </trkpt>
      <trkpt lat="45.74498" lon="6.79151">
        <ele>2281.2</ele>
        <time>2021-10-03T08:50:04Z</time>
      </trkpt>
      <trkpt lat="45.74483" lon="6.79155">
        <ele>2279.8</ele>
        <time>2021-10-03T08:50:09Z</time>
      </trkpt>
      <trkpt lat="45.74478" lon="6.79158">
        <ele>2278.6</ele>
        <time>2021-10-03T08:50:11Z</time>
      </trkpt>
      <trkpt lat="45.74474" lon="6.79163">
        <ele>2277</ele>
        <time>2021-10-03T08:50:13Z</time>
      </trkpt>
      <trkpt lat="45.74468" lon="6.79167">
        <ele>2276</ele>
        <time>2021-10-03T08:50:15Z</time>
      </trkpt>
      <trkpt lat="45.7445" lon="6.79178">
        <ele>2275.2</ele>
        <time>2021-10-03T08:50:22Z</time>
      </trkpt>
      <trkpt lat="45.74447" lon="6.79179">
        <ele>2274.8</ele>
        <time>2021-10-03T08:50:23Z</time>
      </trkpt>
      <trkpt lat="45.74445" lon="6.7918">
        <ele>2273.8</ele>
        <time>2021-10-03T08:50:24Z</time>
      </trkpt>
      <trkpt lat="45.7444" lon="6.79183">
        <ele>2272.6</ele>
        <time>2021-10-03T08:50:26Z</time>
      </trkpt>
      <trkpt lat="45.74436" lon="6.79186">
        <ele>2271.6</ele>
        <time>2021-10-03T08:50:28Z</time>
      </trkpt>
      <trkpt lat="45.74427" lon="6.79195">
        <ele>2270.4</ele>
        <time>2021-10-03T08:50:32Z</time>
      </trkpt>
      <trkpt lat="45.74418" lon="6.79203">
        <ele>2269</ele>
        <time>2021-10-03T08:50:36Z</time>
      </trkpt>
      <trkpt lat="45.74415" lon="6.79205">
        <ele>2267.8</ele>
        <time>2021-10-03T08:50:37Z</time>
      </trkpt>
      <trkpt lat="45.74408" lon="6.79213">
        <ele>2266</ele>
        <time>2021-10-03T08:50:40Z</time>
      </trkpt>
      <trkpt lat="45.74397" lon="6.7923">
        <ele>2263.2</ele>
        <time>2021-10-03T08:50:46Z</time>
      </trkpt>
      <trkpt lat="45.74395" lon="6.79241">
        <ele>2261</ele>
        <time>2021-10-03T08:50:49Z</time>
      </trkpt>
      <trkpt lat="45.74394" lon="6.79245">
        <ele>2259.6</ele>
        <time>2021-10-03T08:50:50Z</time>
      </trkpt>
      <trkpt lat="45.74393" lon="6.79249">
        <ele>2257.8</ele>
        <time>2021-10-03T08:50:51Z</time>
      </trkpt>
      <trkpt lat="45.74393" lon="6.79252">
        <ele>2255.6</ele>
        <time>2021-10-03T08:50:52Z</time>
      </trkpt>
      <trkpt lat="45.74392" lon="6.79256">
        <ele>2254</ele>
        <time>2021-10-03T08:50:53Z</time>
      </trkpt>
      <trkpt lat="45.74391" lon="6.7926">
        <ele>2252.2</ele>
        <time>2021-10-03T08:50:54Z</time>
      </trkpt>
      <trkpt lat="45.74389" lon="6.79267">
        <ele>2251</ele>
        <time>2021-10-03T08:50:56Z</time>
      </trkpt>
      <trkpt lat="45.74384" lon="6.79282">
        <ele>2252.2</ele>
        <time>2021-10-03T08:51:00Z</time>
      </trkpt>
      <trkpt lat="45.74381" lon="6.79289">
        <ele>2253.4</ele>
        <time>2021-10-03T08:51:02Z</time>
      </trkpt>
      <trkpt lat="45.74374" lon="6.79297">
        <ele>2254.2</ele>
        <time>2021-10-03T08:51:05Z</time>
      </trkpt>
      <trkpt lat="45.74366" lon="6.79299">
        <ele>2254.6</ele>
        <time>2021-10-03T08:51:08Z</time>
      </trkpt>
      <trkpt lat="45.74353" lon="6.79302">
        <ele>2254</ele>
        <time>2021-10-03T08:51:14Z</time>
      </trkpt>
      <trkpt lat="45.74352" lon="6.79306">
        <ele>2253.6</ele>
        <time>2021-10-03T08:51:15Z</time>
      </trkpt>
      <trkpt lat="45.74352" lon="6.79314">
        <ele>2252</ele>
        <time>2021-10-03T08:51:17Z</time>
      </trkpt>
      <trkpt lat="45.74352" lon="6.79318">
        <ele>2250.4</ele>
        <time>2021-10-03T08:51:18Z</time>
      </trkpt>
      <trkpt lat="45.74352" lon="6.79321">
        <ele>2249.2</ele>
        <time>2021-10-03T08:51:19Z</time>
      </trkpt>
      <trkpt lat="45.74347" lon="6.79325">
        <ele>2247.8</ele>
        <time>2021-10-03T08:51:21Z</time>
      </trkpt>
      <trkpt lat="45.74342" lon="6.79326">
        <ele>2246.8</ele>
        <time>2021-10-03T08:51:23Z</time>
      </trkpt>
      <trkpt lat="45.74333" lon="6.79334">
        <ele>2245.6</ele>
        <time>2021-10-03T08:51:27Z</time>
      </trkpt>
      <trkpt lat="45.74331" lon="6.79334">
        <ele>2245.4</ele>
        <time>2021-10-03T08:51:28Z</time>
      </trkpt>
      <trkpt lat="45.74326" lon="6.79332">
        <ele>2244</ele>
        <time>2021-10-03T08:51:30Z</time>
      </trkpt>
      <trkpt lat="45.74319" lon="6.79325">
        <ele>2243</ele>
        <time>2021-10-03T08:51:33Z</time>
      </trkpt>
      <trkpt lat="45.74306" lon="6.79315">
        <ele>2241.6</ele>
        <time>2021-10-03T08:51:38Z</time>
      </trkpt>
      <trkpt lat="45.74302" lon="6.79309">
        <ele>2240.2</ele>
        <time>2021-10-03T08:51:40Z</time>
      </trkpt>
      <trkpt lat="45.74299" lon="6.79297">
        <ele>2238.2</ele>
        <time>2021-10-03T08:51:43Z</time>
      </trkpt>
      <trkpt lat="45.74298" lon="6.79293">
        <ele>2236.8</ele>
        <time>2021-10-03T08:51:44Z</time>
      </trkpt>
      <trkpt lat="45.74297" lon="6.79289">
        <ele>2235.6</ele>
        <time>2021-10-03T08:51:45Z</time>
      </trkpt>
      <trkpt lat="45.74295" lon="6.79288">
        <ele>2234.4</ele>
        <time>2021-10-03T08:51:46Z</time>
      </trkpt>
      <trkpt lat="45.7429" lon="6.7929">
        <ele>2232.4</ele>
        <time>2021-10-03T08:51:48Z</time>
      </trkpt>
      <trkpt lat="45.74285" lon="6.79294">
        <ele>2230.8</ele>
        <time>2021-10-03T08:51:50Z</time>
      </trkpt>
      <trkpt lat="45.74282" lon="6.79294">
        <ele>2230.4</ele>
        <time>2021-10-03T08:51:51Z</time>
      </trkpt>
      <trkpt lat="45.74272" lon="6.79286">
        <ele>2229.8</ele>
        <time>2021-10-03T08:51:56Z</time>
      </trkpt>
      <trkpt lat="45.74264" lon="6.79284">
        <ele>2228.6</ele>
        <time>2021-10-03T08:51:59Z</time>
      </trkpt>
      <trkpt lat="45.74262" lon="6.7928">
        <ele>2227.2</ele>
        <time>2021-10-03T08:52:01Z</time>
      </trkpt>
      <trkpt lat="45.74256" lon="6.7927">
        <ele>2226.2</ele>
        <time>2021-10-03T08:52:04Z</time>
      </trkpt>
      <trkpt lat="45.74246" lon="6.79258">
        <ele>2224.4</ele>
        <time>2021-10-03T08:52:09Z</time>
      </trkpt>
      <trkpt lat="45.74239" lon="6.79255">
        <ele>2222.8</ele>
        <time>2021-10-03T08:52:12Z</time>
      </trkpt>
      <trkpt lat="45.74236" lon="6.79254">
        <ele>2221.6</ele>
        <time>2021-10-03T08:52:13Z</time>
      </trkpt>
      <trkpt lat="45.74234" lon="6.79253">
        <ele>2220.4</ele>
        <time>2021-10-03T08:52:14Z</time>
      </trkpt>
      <trkpt lat="45.74232" lon="6.79251">
        <ele>2219.2</ele>
        <time>2021-10-03T08:52:15Z</time>
      </trkpt>
      <trkpt lat="45.74229" lon="6.79246">
        <ele>2218</ele>
        <time>2021-10-03T08:52:17Z</time>
      </trkpt>
      <trkpt lat="45.74225" lon="6.79241">
        <ele>2216.6</ele>
        <time>2021-10-03T08:52:19Z</time>
      </trkpt>
      <trkpt lat="45.74221" lon="6.79236">
        <ele>2215</ele>
        <time>2021-10-03T08:52:21Z</time>
      </trkpt>
      <trkpt lat="45.74218" lon="6.79233">
        <ele>2213.6</ele>
        <time>2021-10-03T08:52:23Z</time>
      </trkpt>
      <trkpt lat="45.74214" lon="6.79231">
        <ele>2211.6</ele>
        <time>2021-10-03T08:52:25Z</time>
      </trkpt>
      <trkpt lat="45.74211" lon="6.79227">
        <ele>2209.8</ele>
        <time>2021-10-03T08:52:27Z</time>
      </trkpt>
      <trkpt lat="45.74207" lon="6.79224">
        <ele>2208.8</ele>
        <time>2021-10-03T08:52:29Z</time>
      </trkpt>
      <trkpt lat="45.74203" lon="6.79219">
        <ele>2207.4</ele>
        <time>2021-10-03T08:52:32Z</time>
      </trkpt>
      <trkpt lat="45.742" lon="6.7921">
        <ele>2205.8</ele>
        <time>2021-10-03T08:52:35Z</time>
      </trkpt>
      <trkpt lat="45.742" lon="6.79203">
        <ele>2204.8</ele>
        <time>2021-10-03T08:52:37Z</time>
      </trkpt>
      <trkpt lat="45.742" lon="6.79193">
        <ele>2203.4</ele>
        <time>2021-10-03T08:52:40Z</time>
      </trkpt>
      <trkpt lat="45.74201" lon="6.79186">
        <ele>2202.2</ele>
        <time>2021-10-03T08:52:42Z</time>
      </trkpt>
      <trkpt lat="45.74201" lon="6.79175">
        <ele>2200.6</ele>
        <time>2021-10-03T08:52:45Z</time>
      </trkpt>
      <trkpt lat="45.74199" lon="6.79169">
        <ele>2199</ele>
        <time>2021-10-03T08:52:47Z</time>
      </trkpt>
      <trkpt lat="45.74195" lon="6.7917">
        <ele>2197.6</ele>
        <time>2021-10-03T08:52:49Z</time>
      </trkpt>
      <trkpt lat="45.74193" lon="6.7917">
        <ele>2197.2</ele>
        <time>2021-10-03T08:52:50Z</time>
      </trkpt>
      <trkpt lat="45.74189" lon="6.79166">
        <ele>2196.4</ele>
        <time>2021-10-03T08:52:52Z</time>
      </trkpt>
      <trkpt lat="45.74187" lon="6.79142">
        <ele>2195.2</ele>
        <time>2021-10-03T08:52:58Z</time>
      </trkpt>
      <trkpt lat="45.7418" lon="6.79124">
        <ele>2194</ele>
        <time>2021-10-03T08:53:03Z</time>
      </trkpt>
      <trkpt lat="45.74174" lon="6.79115">
        <ele>2192.2</ele>
        <time>2021-10-03T08:53:06Z</time>
      </trkpt>
      <trkpt lat="45.7417" lon="6.79105">
        <ele>2190.6</ele>
        <time>2021-10-03T08:53:09Z</time>
      </trkpt>
      <trkpt lat="45.74168" lon="6.79098">
        <ele>2189.6</ele>
        <time>2021-10-03T08:53:11Z</time>
      </trkpt>
      <trkpt lat="45.74165" lon="6.79088">
        <ele>2188.4</ele>
        <time>2021-10-03T08:53:14Z</time>
      </trkpt>
      <trkpt lat="45.74163" lon="6.79083">
        <ele>2187.2</ele>
        <time>2021-10-03T08:53:16Z</time>
      </trkpt>
      <trkpt lat="45.74159" lon="6.79073">
        <ele>2186.2</ele>
        <time>2021-10-03T08:53:19Z</time>
      </trkpt>
      <trkpt lat="45.74156" lon="6.79061">
        <ele>2184.4</ele>
        <time>2021-10-03T08:53:22Z</time>
      </trkpt>
      <trkpt lat="45.74153" lon="6.7905">
        <ele>2183.2</ele>
        <time>2021-10-03T08:53:25Z</time>
      </trkpt>
      <trkpt lat="45.74151" lon="6.79043">
        <ele>2182.2</ele>
        <time>2021-10-03T08:53:27Z</time>
      </trkpt>
      <trkpt lat="45.74149" lon="6.79036">
        <ele>2180.8</ele>
        <time>2021-10-03T08:53:29Z</time>
      </trkpt>
      <trkpt lat="45.74148" lon="6.79028">
        <ele>2179.2</ele>
        <time>2021-10-03T08:53:31Z</time>
      </trkpt>
      <trkpt lat="45.74147" lon="6.79019">
        <ele>2178</ele>
        <time>2021-10-03T08:53:33Z</time>
      </trkpt>
      <trkpt lat="45.74147" lon="6.79004">
        <ele>2176.4</ele>
        <time>2021-10-03T08:53:37Z</time>
      </trkpt>
      <trkpt lat="45.74143" lon="6.78986">
        <ele>2175.2</ele>
        <time>2021-10-03T08:53:42Z</time>
      </trkpt>
      <trkpt lat="45.74134" lon="6.7897">
        <ele>2173.4</ele>
        <time>2021-10-03T08:53:48Z</time>
      </trkpt>
      <trkpt lat="45.7413" lon="6.78965">
        <ele>2171.2</ele>
        <time>2021-10-03T08:53:50Z</time>
      </trkpt>
      <trkpt lat="45.74127" lon="6.7896">
        <ele>2170</ele>
        <time>2021-10-03T08:53:52Z</time>
      </trkpt>
      <trkpt lat="45.74122" lon="6.78952">
        <ele>2169</ele>
        <time>2021-10-03T08:53:55Z</time>
      </trkpt>
      <trkpt lat="45.74115" lon="6.78945">
        <ele>2167.6</ele>
        <time>2021-10-03T08:53:58Z</time>
      </trkpt>
      <trkpt lat="45.74105" lon="6.78933">
        <ele>2166.4</ele>
        <time>2021-10-03T08:54:03Z</time>
      </trkpt>
      <trkpt lat="45.74098" lon="6.78929">
        <ele>2164.8</ele>
        <time>2021-10-03T08:54:06Z</time>
      </trkpt>
      <trkpt lat="45.74092" lon="6.78927">
        <ele>2163.6</ele>
        <time>2021-10-03T08:54:08Z</time>
      </trkpt>
      <trkpt lat="45.74082" lon="6.78924">
        <ele>2162.4</ele>
        <time>2021-10-03T08:54:12Z</time>
      </trkpt>
      <trkpt lat="45.74072" lon="6.78917">
        <ele>2161</ele>
        <time>2021-10-03T08:54:16Z</time>
      </trkpt>
      <trkpt lat="45.74056" lon="6.78907">
        <ele>2159.4</ele>
        <time>2021-10-03T08:54:23Z</time>
      </trkpt>
      <trkpt lat="45.74054" lon="6.78908">
        <ele>2158.6</ele>
        <time>2021-10-03T08:54:24Z</time>
      </trkpt>
      <trkpt lat="45.74053" lon="6.78911">
        <ele>2158</ele>
        <time>2021-10-03T08:54:25Z</time>
      </trkpt>
      <trkpt lat="45.7405" lon="6.78917">
        <ele>2156.6</ele>
        <time>2021-10-03T08:54:27Z</time>
      </trkpt>
      <trkpt lat="45.74046" lon="6.78919">
        <ele>2155.6</ele>
        <time>2021-10-03T08:54:29Z</time>
      </trkpt>
      <trkpt lat="45.74038" lon="6.78915">
        <ele>2154.2</ele>
        <time>2021-10-03T08:54:33Z</time>
      </trkpt>
      <trkpt lat="45.74034" lon="6.78915">
        <ele>2152.8</ele>
        <time>2021-10-03T08:54:35Z</time>
      </trkpt>
      <trkpt lat="45.74032" lon="6.78915">
        <ele>2151.8</ele>
        <time>2021-10-03T08:54:36Z</time>
      </trkpt>
      <trkpt lat="45.7403" lon="6.78916">
        <ele>2150.6</ele>
        <time>2021-10-03T08:54:37Z</time>
      </trkpt>
      <trkpt lat="45.74028" lon="6.78917">
        <ele>2149.4</ele>
        <time>2021-10-03T08:54:38Z</time>
      </trkpt>
      <trkpt lat="45.74026" lon="6.78918">
        <ele>2148.4</ele>
        <time>2021-10-03T08:54:39Z</time>
      </trkpt>
      <trkpt lat="45.74021" lon="6.78918">
        <ele>2147.4</ele>
        <time>2021-10-03T08:54:41Z</time>
      </trkpt>
      <trkpt lat="45.74013" lon="6.78916">
        <ele>2146.2</ele>
        <time>2021-10-03T08:54:44Z</time>
      </trkpt>
      <trkpt lat="45.74005" lon="6.78916">
        <ele>2145</ele>
        <time>2021-10-03T08:54:47Z</time>
      </trkpt>
      <trkpt lat="45.73999" lon="6.7892">
        <ele>2143.4</ele>
        <time>2021-10-03T08:54:50Z</time>
      </trkpt>
      <trkpt lat="45.73995" lon="6.78925">
        <ele>2142.2</ele>
        <time>2021-10-03T08:54:52Z</time>
      </trkpt>
      <trkpt lat="45.73989" lon="6.7893">
        <ele>2141</ele>
        <time>2021-10-03T08:54:55Z</time>
      </trkpt>
      <trkpt lat="45.73988" lon="6.78932">
        <ele>2140.8</ele>
        <time>2021-10-03T08:54:56Z</time>
      </trkpt>
      <trkpt lat="45.73985" lon="6.7894">
        <ele>2139.8</ele>
        <time>2021-10-03T08:55:00Z</time>
      </trkpt>
      <trkpt lat="45.73983" lon="6.78945">
        <ele>2138.8</ele>
        <time>2021-10-03T08:55:03Z</time>
      </trkpt>
      <trkpt lat="45.73982" lon="6.78945">
        <ele>2138.8</ele>
        <time>2021-10-03T08:55:04Z</time>
      </trkpt>
      <trkpt lat="45.73977" lon="6.78944">
        <ele>2139</ele>
        <time>2021-10-03T08:55:07Z</time>
      </trkpt>
      <trkpt lat="45.73964" lon="6.78924">
        <ele>2139.6</ele>
        <time>2021-10-03T08:55:20Z</time>
      </trkpt>
      <trkpt lat="45.73962" lon="6.78918">
        <ele>2139.2</ele>
        <time>2021-10-03T08:55:23Z</time>
      </trkpt>
      <trkpt lat="45.7396" lon="6.78904">
        <ele>2139.6</ele>
        <time>2021-10-03T08:55:30Z</time>
      </trkpt>
      <trkpt lat="45.73958" lon="6.78893">
        <ele>2140</ele>
        <time>2021-10-03T08:55:36Z</time>
      </trkpt>
      <trkpt lat="45.73954" lon="6.78884">
        <ele>2141</ele>
        <time>2021-10-03T08:55:41Z</time>
      </trkpt>
      <trkpt lat="45.73952" lon="6.78879">
        <ele>2142</ele>
        <time>2021-10-03T08:55:44Z</time>
      </trkpt>
      <trkpt lat="45.73951" lon="6.78875">
        <ele>2143</ele>
        <time>2021-10-03T08:55:46Z</time>
      </trkpt>
      <trkpt lat="45.73951" lon="6.78873">
        <ele>2143.2</ele>
        <time>2021-10-03T08:55:47Z</time>
      </trkpt>
      <trkpt lat="45.73942" lon="6.7885">
        <ele>2142.8</ele>
        <time>2021-10-03T08:55:59Z</time>
      </trkpt>
      <trkpt lat="45.7394" lon="6.78847">
        <ele>2142.8</ele>
        <time>2021-10-03T08:56:01Z</time>
      </trkpt>
      <trkpt lat="45.73939" lon="6.78838">
        <ele>2142</ele>
        <time>2021-10-03T08:56:04Z</time>
      </trkpt>
      <trkpt lat="45.73941" lon="6.7881">
        <ele>2142.8</ele>
        <time>2021-10-03T08:56:12Z</time>
      </trkpt>
      <trkpt lat="45.7394" lon="6.78805">
        <ele>2143.2</ele>
        <time>2021-10-03T08:56:14Z</time>
      </trkpt>
      <trkpt lat="45.73938" lon="6.78798">
        <ele>2143.8</ele>
        <time>2021-10-03T08:56:16Z</time>
      </trkpt>
      <trkpt lat="45.73934" lon="6.78792">
        <ele>2144.6</ele>
        <time>2021-10-03T08:56:19Z</time>
      </trkpt>
      <trkpt lat="45.73932" lon="6.78787">
        <ele>2146</ele>
        <time>2021-10-03T08:56:21Z</time>
      </trkpt>
      <trkpt lat="45.73929" lon="6.78781">
        <ele>2147.8</ele>
        <time>2021-10-03T08:56:23Z</time>
      </trkpt>
      <trkpt lat="45.73928" lon="6.78779">
        <ele>2149.2</ele>
        <time>2021-10-03T08:56:24Z</time>
      </trkpt>
      <trkpt lat="45.73927" lon="6.78776">
        <ele>2150.4</ele>
        <time>2021-10-03T08:56:25Z</time>
      </trkpt>
      <trkpt lat="45.73924" lon="6.78771">
        <ele>2151.4</ele>
        <time>2021-10-03T08:56:27Z</time>
      </trkpt>
      <trkpt lat="45.73916" lon="6.78756">
        <ele>2149.6</ele>
        <time>2021-10-03T08:56:33Z</time>
      </trkpt>
      <trkpt lat="45.73914" lon="6.78751">
        <ele>2148.4</ele>
        <time>2021-10-03T08:56:35Z</time>
      </trkpt>
      <trkpt lat="45.73911" lon="6.78746">
        <ele>2147.2</ele>
        <time>2021-10-03T08:56:37Z</time>
      </trkpt>
      <trkpt lat="45.73907" lon="6.78742">
        <ele>2146</ele>
        <time>2021-10-03T08:56:39Z</time>
      </trkpt>
      <trkpt lat="45.73904" lon="6.78736">
        <ele>2144.6</ele>
        <time>2021-10-03T08:56:41Z</time>
      </trkpt>
      <trkpt lat="45.73902" lon="6.78729">
        <ele>2143.2</ele>
        <time>2021-10-03T08:56:43Z</time>
      </trkpt>
      <trkpt lat="45.73903" lon="6.78704">
        <ele>2143.8</ele>
        <time>2021-10-03T08:56:51Z</time>
      </trkpt>
      <trkpt lat="45.73905" lon="6.78692">
        <ele>2141.8</ele>
        <time>2021-10-03T08:56:55Z</time>
      </trkpt>
      <trkpt lat="45.73906" lon="6.78683">
        <ele>2140.6</ele>
        <time>2021-10-03T08:56:58Z</time>
      </trkpt>
      <trkpt lat="45.73901" lon="6.78669">
        <ele>2139.2</ele>
        <time>2021-10-03T08:57:03Z</time>
      </trkpt>
      <trkpt lat="45.73899" lon="6.78667">
        <ele>2138</ele>
        <time>2021-10-03T08:57:04Z</time>
      </trkpt>
      <trkpt lat="45.73897" lon="6.78664">
        <ele>2137</ele>
        <time>2021-10-03T08:57:05Z</time>
      </trkpt>
      <trkpt lat="45.73893" lon="6.78661">
        <ele>2135.6</ele>
        <time>2021-10-03T08:57:07Z</time>
      </trkpt>
      <trkpt lat="45.73886" lon="6.78656">
        <ele>2134.4</ele>
        <time>2021-10-03T08:57:10Z</time>
      </trkpt>
      <trkpt lat="45.73882" lon="6.78653">
        <ele>2133.2</ele>
        <time>2021-10-03T08:57:12Z</time>
      </trkpt>
      <trkpt lat="45.73879" lon="6.78649">
        <ele>2132.2</ele>
        <time>2021-10-03T08:57:14Z</time>
      </trkpt>
      <trkpt lat="45.73876" lon="6.78644">
        <ele>2131.2</ele>
        <time>2021-10-03T08:57:16Z</time>
      </trkpt>
      <trkpt lat="45.73872" lon="6.78637">
        <ele>2129.6</ele>
        <time>2021-10-03T08:57:19Z</time>
      </trkpt>
      <trkpt lat="45.73869" lon="6.78633">
        <ele>2128.4</ele>
        <time>2021-10-03T08:57:21Z</time>
      </trkpt>
      <trkpt lat="45.73864" lon="6.78629">
        <ele>2126.8</ele>
        <time>2021-10-03T08:57:23Z</time>
      </trkpt>
      <trkpt lat="45.73859" lon="6.78626">
        <ele>2125</ele>
        <time>2021-10-03T08:57:25Z</time>
      </trkpt>
      <trkpt lat="45.73857" lon="6.78625">
        <ele>2124</ele>
        <time>2021-10-03T08:57:26Z</time>
      </trkpt>
      <trkpt lat="45.73853" lon="6.78624">
        <ele>2122.6</ele>
        <time>2021-10-03T08:57:28Z</time>
      </trkpt>
      <trkpt lat="45.73849" lon="6.78622">
        <ele>2121.6</ele>
        <time>2021-10-03T08:57:30Z</time>
      </trkpt>
      <trkpt lat="45.73848" lon="6.7862">
        <ele>2120.8</ele>
        <time>2021-10-03T08:57:31Z</time>
      </trkpt>
      <trkpt lat="45.73844" lon="6.78616">
        <ele>2119.4</ele>
        <time>2021-10-03T08:57:33Z</time>
      </trkpt>
      <trkpt lat="45.7384" lon="6.78611">
        <ele>2117.8</ele>
        <time>2021-10-03T08:57:35Z</time>
      </trkpt>
      <trkpt lat="45.73837" lon="6.78605">
        <ele>2116</ele>
        <time>2021-10-03T08:57:37Z</time>
      </trkpt>
      <trkpt lat="45.73833" lon="6.78601">
        <ele>2114.2</ele>
        <time>2021-10-03T08:57:39Z</time>
      </trkpt>
      <trkpt lat="45.73828" lon="6.78597">
        <ele>2112.8</ele>
        <time>2021-10-03T08:57:41Z</time>
      </trkpt>
      <trkpt lat="45.73822" lon="6.78595">
        <ele>2111.6</ele>
        <time>2021-10-03T08:57:43Z</time>
      </trkpt>
      <trkpt lat="45.73815" lon="6.78592">
        <ele>2110.6</ele>
        <time>2021-10-03T08:57:46Z</time>
      </trkpt>
      <trkpt lat="45.73802" lon="6.78584">
        <ele>2109.4</ele>
        <time>2021-10-03T08:57:51Z</time>
      </trkpt>
      <trkpt lat="45.738" lon="6.78582">
        <ele>2108.2</ele>
        <time>2021-10-03T08:57:52Z</time>
      </trkpt>
      <trkpt lat="45.73793" lon="6.78576">
        <ele>2106.6</ele>
        <time>2021-10-03T08:57:55Z</time>
      </trkpt>
      <trkpt lat="45.73789" lon="6.78573">
        <ele>2105</ele>
        <time>2021-10-03T08:57:57Z</time>
      </trkpt>
      <trkpt lat="45.73784" lon="6.7857">
        <ele>2103.4</ele>
        <time>2021-10-03T08:57:59Z</time>
      </trkpt>
      <trkpt lat="45.73778" lon="6.78567">
        <ele>2101.2</ele>
        <time>2021-10-03T08:58:01Z</time>
      </trkpt>
      <trkpt lat="45.73773" lon="6.78563">
        <ele>2099.6</ele>
        <time>2021-10-03T08:58:03Z</time>
      </trkpt>
      <trkpt lat="45.73766" lon="6.78552">
        <ele>2098.2</ele>
        <time>2021-10-03T08:58:07Z</time>
      </trkpt>
      <trkpt lat="45.73762" lon="6.78549">
        <ele>2096</ele>
        <time>2021-10-03T08:58:09Z</time>
      </trkpt>
      <trkpt lat="45.73759" lon="6.78547">
        <ele>2094.8</ele>
        <time>2021-10-03T08:58:10Z</time>
      </trkpt>
      <trkpt lat="45.73757" lon="6.78545">
        <ele>2093.8</ele>
        <time>2021-10-03T08:58:11Z</time>
      </trkpt>
      <trkpt lat="45.73754" lon="6.78539">
        <ele>2092.2</ele>
        <time>2021-10-03T08:58:13Z</time>
      </trkpt>
      <trkpt lat="45.73751" lon="6.78526">
        <ele>2091.2</ele>
        <time>2021-10-03T08:58:17Z</time>
      </trkpt>
      <trkpt lat="45.7374" lon="6.78515">
        <ele>2089.8</ele>
        <time>2021-10-03T08:58:22Z</time>
      </trkpt>
      <trkpt lat="45.73735" lon="6.78511">
        <ele>2088.4</ele>
        <time>2021-10-03T08:58:24Z</time>
      </trkpt>
      <trkpt lat="45.7373" lon="6.78509">
        <ele>2086.6</ele>
        <time>2021-10-03T08:58:26Z</time>
      </trkpt>
      <trkpt lat="45.73728" lon="6.78507">
        <ele>2085.4</ele>
        <time>2021-10-03T08:58:27Z</time>
      </trkpt>
      <trkpt lat="45.73726" lon="6.78506">
        <ele>2084.4</ele>
        <time>2021-10-03T08:58:28Z</time>
      </trkpt>
      <trkpt lat="45.73721" lon="6.78503">
        <ele>2082.6</ele>
        <time>2021-10-03T08:58:30Z</time>
      </trkpt>
      <trkpt lat="45.73713" lon="6.78499">
        <ele>2081.2</ele>
        <time>2021-10-03T08:58:33Z</time>
      </trkpt>
      <trkpt lat="45.73706" lon="6.78494">
        <ele>2080</ele>
        <time>2021-10-03T08:58:36Z</time>
      </trkpt>
      <trkpt lat="45.73693" lon="6.78489">
        <ele>2078.6</ele>
        <time>2021-10-03T08:58:41Z</time>
      </trkpt>
      <trkpt lat="45.73687" lon="6.78487">
        <ele>2077.2</ele>
        <time>2021-10-03T08:58:43Z</time>
      </trkpt>
      <trkpt lat="45.73671" lon="6.78472">
        <ele>2076.8</ele>
        <time>2021-10-03T08:58:51Z</time>
      </trkpt>
      <trkpt lat="45.73669" lon="6.7847">
        <ele>2076</ele>
        <time>2021-10-03T08:58:52Z</time>
      </trkpt>
      <trkpt lat="45.73664" lon="6.78468">
        <ele>2073.8</ele>
        <time>2021-10-03T08:58:54Z</time>
      </trkpt>
      <trkpt lat="45.73662" lon="6.78467">
        <ele>2072.8</ele>
        <time>2021-10-03T08:58:55Z</time>
      </trkpt>
      <trkpt lat="45.7366" lon="6.78467">
        <ele>2072.2</ele>
        <time>2021-10-03T08:58:56Z</time>
      </trkpt>
      <trkpt lat="45.73658" lon="6.78469">
        <ele>2071.2</ele>
        <time>2021-10-03T08:58:57Z</time>
      </trkpt>
      <trkpt lat="45.73654" lon="6.78473">
        <ele>2069.8</ele>
        <time>2021-10-03T08:58:59Z</time>
      </trkpt>
      <trkpt lat="45.7365" lon="6.78473">
        <ele>2069.2</ele>
        <time>2021-10-03T08:59:01Z</time>
      </trkpt>
      <trkpt lat="45.73633" lon="6.78463">
        <ele>2070</ele>
        <time>2021-10-03T08:59:09Z</time>
      </trkpt>
      <trkpt lat="45.73623" lon="6.78448">
        <ele>2068.8</ele>
        <time>2021-10-03T08:59:15Z</time>
      </trkpt>
      <trkpt lat="45.7362" lon="6.78443">
        <ele>2068</ele>
        <time>2021-10-03T08:59:17Z</time>
      </trkpt>
      <trkpt lat="45.73618" lon="6.78441">
        <ele>2067.4</ele>
        <time>2021-10-03T08:59:18Z</time>
      </trkpt>
      <trkpt lat="45.73613" lon="6.78439">
        <ele>2066</ele>
        <time>2021-10-03T08:59:20Z</time>
      </trkpt>
      <trkpt lat="45.73608" lon="6.7844">
        <ele>2064.8</ele>
        <time>2021-10-03T08:59:22Z</time>
      </trkpt>
      <trkpt lat="45.73604" lon="6.78442">
        <ele>2063.6</ele>
        <time>2021-10-03T08:59:24Z</time>
      </trkpt>
      <trkpt lat="45.73595" lon="6.78443">
        <ele>2062.4</ele>
        <time>2021-10-03T08:59:28Z</time>
      </trkpt>
      <trkpt lat="45.73593" lon="6.78441">
        <ele>2062.2</ele>
        <time>2021-10-03T08:59:29Z</time>
      </trkpt>
      <trkpt lat="45.73589" lon="6.78436">
        <ele>2061</ele>
        <time>2021-10-03T08:59:31Z</time>
      </trkpt>
      <trkpt lat="45.73585" lon="6.7843">
        <ele>2059.6</ele>
        <time>2021-10-03T08:59:33Z</time>
      </trkpt>
      <trkpt lat="45.7358" lon="6.78425">
        <ele>2058.2</ele>
        <time>2021-10-03T08:59:35Z</time>
      </trkpt>
      <trkpt lat="45.73578" lon="6.7842">
        <ele>2057</ele>
        <time>2021-10-03T08:59:37Z</time>
      </trkpt>
      <trkpt lat="45.73576" lon="6.78413">
        <ele>2056</ele>
        <time>2021-10-03T08:59:39Z</time>
      </trkpt>
      <trkpt lat="45.73575" lon="6.78406">
        <ele>2054.8</ele>
        <time>2021-10-03T08:59:41Z</time>
      </trkpt>
      <trkpt lat="45.73572" lon="6.78393">
        <ele>2053.8</ele>
        <time>2021-10-03T08:59:45Z</time>
      </trkpt>
      <trkpt lat="45.73571" lon="6.78383">
        <ele>2052.8</ele>
        <time>2021-10-03T08:59:48Z</time>
      </trkpt>
      <trkpt lat="45.73569" lon="6.78375">
        <ele>2051.6</ele>
        <time>2021-10-03T08:59:50Z</time>
      </trkpt>
      <trkpt lat="45.73567" lon="6.78363">
        <ele>2050.4</ele>
        <time>2021-10-03T08:59:53Z</time>
      </trkpt>
      <trkpt lat="45.73564" lon="6.78353">
        <ele>2049</ele>
        <time>2021-10-03T08:59:56Z</time>
      </trkpt>
      <trkpt lat="45.7356" lon="6.78344">
        <ele>2047.6</ele>
        <time>2021-10-03T08:59:59Z</time>
      </trkpt>
      <trkpt lat="45.73547" lon="6.78327">
        <ele>2046.4</ele>
        <time>2021-10-03T09:00:05Z</time>
      </trkpt>
      <trkpt lat="45.73544" lon="6.78322">
        <ele>2044.8</ele>
        <time>2021-10-03T09:00:07Z</time>
      </trkpt>
      <trkpt lat="45.73543" lon="6.7832">
        <ele>2043.2</ele>
        <time>2021-10-03T09:00:08Z</time>
      </trkpt>
      <trkpt lat="45.73541" lon="6.78318">
        <ele>2041.8</ele>
        <time>2021-10-03T09:00:09Z</time>
      </trkpt>
      <trkpt lat="45.73537" lon="6.78313">
        <ele>2040.2</ele>
        <time>2021-10-03T09:00:11Z</time>
      </trkpt>
      <trkpt lat="45.73532" lon="6.78309">
        <ele>2039.2</ele>
        <time>2021-10-03T09:00:13Z</time>
      </trkpt>
      <trkpt lat="45.73527" lon="6.78304">
        <ele>2038</ele>
        <time>2021-10-03T09:00:15Z</time>
      </trkpt>
      <trkpt lat="45.73522" lon="6.78299">
        <ele>2037</ele>
        <time>2021-10-03T09:00:17Z</time>
      </trkpt>
      <trkpt lat="45.73516" lon="6.78294">
        <ele>2035.8</ele>
        <time>2021-10-03T09:00:19Z</time>
      </trkpt>
      <trkpt lat="45.7351" lon="6.78291">
        <ele>2034.6</ele>
        <time>2021-10-03T09:00:21Z</time>
      </trkpt>
      <trkpt lat="45.735" lon="6.78286">
        <ele>2033</ele>
        <time>2021-10-03T09:00:25Z</time>
      </trkpt>
      <trkpt lat="45.73497" lon="6.78287">
        <ele>2032.4</ele>
        <time>2021-10-03T09:00:26Z</time>
      </trkpt>
      <trkpt lat="45.73495" lon="6.78288">
        <ele>2031.6</ele>
        <time>2021-10-03T09:00:27Z</time>
      </trkpt>
      <trkpt lat="45.7349" lon="6.78295">
        <ele>2030.8</ele>
        <time>2021-10-03T09:00:31Z</time>
      </trkpt>
      <trkpt lat="45.7349" lon="6.78298">
        <ele>2030.8</ele>
        <time>2021-10-03T09:00:33Z</time>
      </trkpt>
      <trkpt lat="45.73489" lon="6.783">
        <ele>2031.4</ele>
        <time>2021-10-03T09:00:35Z</time>
      </trkpt>
      <trkpt lat="45.73486" lon="6.78303">
        <ele>2032.8</ele>
        <time>2021-10-03T09:00:38Z</time>
      </trkpt>
      <trkpt lat="45.73482" lon="6.78302">
        <ele>2034</ele>
        <time>2021-10-03T09:00:42Z</time>
      </trkpt>
      <trkpt lat="45.73483" lon="6.78305">
        <ele>2035.2</ele>
        <time>2021-10-03T09:00:46Z</time>
      </trkpt>
      <trkpt lat="45.73484" lon="6.78308">
        <ele>2036.8</ele>
        <time>2021-10-03T09:00:50Z</time>
      </trkpt>
      <trkpt lat="45.73484" lon="6.7831">
        <ele>2038.2</ele>
        <time>2021-10-03T09:00:52Z</time>
      </trkpt>
      <trkpt lat="45.73484" lon="6.78311">
        <ele>2038.8</ele>
        <time>2021-10-03T09:00:53Z</time>
      </trkpt>
      <trkpt lat="45.73485" lon="6.78313">
        <ele>2039.4</ele>
        <time>2021-10-03T09:00:55Z</time>
      </trkpt>
      <trkpt lat="45.73486" lon="6.78316">
        <ele>2041.2</ele>
        <time>2021-10-03T09:00:59Z</time>
      </trkpt>
      <trkpt lat="45.73486" lon="6.78319">
        <ele>2042.4</ele>
        <time>2021-10-03T09:01:01Z</time>
      </trkpt>
      <trkpt lat="45.73487" lon="6.78326">
        <ele>2043.6</ele>
        <time>2021-10-03T09:01:10Z</time>
      </trkpt>
      <trkpt lat="45.73487" lon="6.78334">
        <ele>2045.2</ele>
        <time>2021-10-03T09:01:15Z</time>
      </trkpt>
      <trkpt lat="45.73486" lon="6.78347">
        <ele>2043.6</ele>
        <time>2021-10-03T09:01:22Z</time>
      </trkpt>
      <trkpt lat="45.73486" lon="6.78348">
        <ele>2042.2</ele>
        <time>2021-10-03T09:01:23Z</time>
      </trkpt>
      <trkpt lat="45.73487" lon="6.78349">
        <ele>2040.4</ele>
        <time>2021-10-03T09:01:24Z</time>
      </trkpt>
      <trkpt lat="45.73487" lon="6.78351">
        <ele>2039</ele>
        <time>2021-10-03T09:01:25Z</time>
      </trkpt>
      <trkpt lat="45.73488" lon="6.78353">
        <ele>2038.2</ele>
        <time>2021-10-03T09:01:26Z</time>
      </trkpt>
      <trkpt lat="45.73488" lon="6.78355">
        <ele>2037.6</ele>
        <time>2021-10-03T09:01:27Z</time>
      </trkpt>
      <trkpt lat="45.73488" lon="6.78358">
        <ele>2037.2</ele>
        <time>2021-10-03T09:01:29Z</time>
      </trkpt>
      <trkpt lat="45.73486" lon="6.7836">
        <ele>2037</ele>
        <time>2021-10-03T09:01:31Z</time>
      </trkpt>
      <trkpt lat="45.73483" lon="6.7836">
        <ele>2036.4</ele>
        <time>2021-10-03T09:01:33Z</time>
      </trkpt>
      <trkpt lat="45.7348" lon="6.78359">
        <ele>2035</ele>
        <time>2021-10-03T09:01:35Z</time>
      </trkpt>
      <trkpt lat="45.73476" lon="6.78358">
        <ele>2033.4</ele>
        <time>2021-10-03T09:01:37Z</time>
      </trkpt>
      <trkpt lat="45.73474" lon="6.78357">
        <ele>2031.4</ele>
        <time>2021-10-03T09:01:39Z</time>
      </trkpt>
      <trkpt lat="45.73473" lon="6.78359">
        <ele>2030.2</ele>
        <time>2021-10-03T09:01:40Z</time>
      </trkpt>
      <trkpt lat="45.73472" lon="6.78361">
        <ele>2029</ele>
        <time>2021-10-03T09:01:41Z</time>
      </trkpt>
      <trkpt lat="45.73471" lon="6.78364">
        <ele>2027.2</ele>
        <time>2021-10-03T09:01:43Z</time>
      </trkpt>
      <trkpt lat="45.7347" lon="6.78368">
        <ele>2026.2</ele>
        <time>2021-10-03T09:01:45Z</time>
      </trkpt>
      <trkpt lat="45.73471" lon="6.78376">
        <ele>2025.2</ele>
        <time>2021-10-03T09:01:48Z</time>
      </trkpt>
      <trkpt lat="45.73471" lon="6.7838">
        <ele>2023.8</ele>
        <time>2021-10-03T09:01:50Z</time>
      </trkpt>
      <trkpt lat="45.73466" lon="6.78388">
        <ele>2022.4</ele>
        <time>2021-10-03T09:01:55Z</time>
      </trkpt>
      <trkpt lat="45.73463" lon="6.78391">
        <ele>2022</ele>
        <time>2021-10-03T09:01:57Z</time>
      </trkpt>
      <trkpt lat="45.7346" lon="6.78397">
        <ele>2021.2</ele>
        <time>2021-10-03T09:02:01Z</time>
      </trkpt>
      <trkpt lat="45.73459" lon="6.78398">
        <ele>2021</ele>
        <time>2021-10-03T09:02:02Z</time>
      </trkpt>
      <trkpt lat="45.73457" lon="6.78399">
        <ele>2020.2</ele>
        <time>2021-10-03T09:02:04Z</time>
      </trkpt>
      <trkpt lat="45.73454" lon="6.78401">
        <ele>2019</ele>
        <time>2021-10-03T09:02:06Z</time>
      </trkpt>
      <trkpt lat="45.73449" lon="6.78405">
        <ele>2017.6</ele>
        <time>2021-10-03T09:02:09Z</time>
      </trkpt>
      <trkpt lat="45.73447" lon="6.78405">
        <ele>2017</ele>
        <time>2021-10-03T09:02:10Z</time>
      </trkpt>
      <trkpt lat="45.73436" lon="6.78409">
        <ele>2016.4</ele>
        <time>2021-10-03T09:02:15Z</time>
      </trkpt>
      <trkpt lat="45.73431" lon="6.78416">
        <ele>2015.2</ele>
        <time>2021-10-03T09:02:19Z</time>
      </trkpt>
      <trkpt lat="45.73424" lon="6.78421">
        <ele>2014.6</ele>
        <time>2021-10-03T09:02:24Z</time>
      </trkpt>
      <trkpt lat="45.73422" lon="6.78424">
        <ele>2014.8</ele>
        <time>2021-10-03T09:02:27Z</time>
      </trkpt>
      <trkpt lat="45.73419" lon="6.78425">
        <ele>2014.4</ele>
        <time>2021-10-03T09:02:30Z</time>
      </trkpt>
      <trkpt lat="45.73417" lon="6.78424">
        <ele>2013.6</ele>
        <time>2021-10-03T09:02:31Z</time>
      </trkpt>
      <trkpt lat="45.73415" lon="6.78425">
        <ele>2011.8</ele>
        <time>2021-10-03T09:02:33Z</time>
      </trkpt>
      <trkpt lat="45.73415" lon="6.78427">
        <ele>2010.4</ele>
        <time>2021-10-03T09:02:35Z</time>
      </trkpt>
      <trkpt lat="45.73413" lon="6.78428">
        <ele>2009.4</ele>
        <time>2021-10-03T09:02:37Z</time>
      </trkpt>
      <trkpt lat="45.73412" lon="6.78433">
        <ele>2007.8</ele>
        <time>2021-10-03T09:02:40Z</time>
      </trkpt>
      <trkpt lat="45.73413" lon="6.78435">
        <ele>2007.2</ele>
        <time>2021-10-03T09:02:41Z</time>
      </trkpt>
      <trkpt lat="45.73413" lon="6.78437">
        <ele>2006.4</ele>
        <time>2021-10-03T09:02:42Z</time>
      </trkpt>
      <trkpt lat="45.73413" lon="6.78438">
        <ele>2005.8</ele>
        <time>2021-10-03T09:02:43Z</time>
      </trkpt>
      <trkpt lat="45.73411" lon="6.78438">
        <ele>2005</ele>
        <time>2021-10-03T09:02:45Z</time>
      </trkpt>
      <trkpt lat="45.7341" lon="6.7844">
        <ele>2004.8</ele>
        <time>2021-10-03T09:02:46Z</time>
      </trkpt>
      <trkpt lat="45.73409" lon="6.78443">
        <ele>2003.8</ele>
        <time>2021-10-03T09:02:48Z</time>
      </trkpt>
      <trkpt lat="45.73408" lon="6.78444">
        <ele>2003.4</ele>
        <time>2021-10-03T09:02:49Z</time>
      </trkpt>
      <trkpt lat="45.73411" lon="6.78447">
        <ele>2004.2</ele>
        <time>2021-10-03T09:02:53Z</time>
      </trkpt>
      <trkpt lat="45.73412" lon="6.78447">
        <ele>2004.8</ele>
        <time>2021-10-03T09:02:54Z</time>
      </trkpt>
      <trkpt lat="45.73412" lon="6.78447">
        <ele>2006</ele>
        <time>2021-10-03T09:02:56Z</time>
      </trkpt>
      <trkpt lat="45.73411" lon="6.78457">
        <ele>2006.8</ele>
        <time>2021-10-03T09:03:03Z</time>
      </trkpt>
      <trkpt lat="45.7341" lon="6.78458">
        <ele>2007</ele>
        <time>2021-10-03T09:03:04Z</time>
      </trkpt>
      <trkpt lat="45.73407" lon="6.78468">
        <ele>2008.2</ele>
        <time>2021-10-03T09:03:10Z</time>
      </trkpt>
      <trkpt lat="45.73407" lon="6.78474">
        <ele>2009.2</ele>
        <time>2021-10-03T09:03:14Z</time>
      </trkpt>
      <trkpt lat="45.73406" lon="6.78479">
        <ele>2009.6</ele>
        <time>2021-10-03T09:03:17Z</time>
      </trkpt>
      <trkpt lat="45.73406" lon="6.7848">
        <ele>2009.8</ele>
        <time>2021-10-03T09:03:19Z</time>
      </trkpt>
      <trkpt lat="45.73406" lon="6.7848">
        <ele>2010</ele>
        <time>2021-10-03T09:03:21Z</time>
      </trkpt>
      <trkpt lat="45.73399" lon="6.7848">
        <ele>2008.4</ele>
        <time>2021-10-03T09:03:34Z</time>
      </trkpt>
      <trkpt lat="45.73398" lon="6.7848">
        <ele>2007.8</ele>
        <time>2021-10-03T09:03:35Z</time>
      </trkpt>
      <trkpt lat="45.73395" lon="6.78479">
        <ele>2006.8</ele>
        <time>2021-10-03T09:03:38Z</time>
      </trkpt>
      <trkpt lat="45.7339" lon="6.78476">
        <ele>2006.8</ele>
        <time>2021-10-03T09:03:42Z</time>
      </trkpt>
      <trkpt lat="45.73391" lon="6.78467">
        <ele>2005.4</ele>
        <time>2021-10-03T09:03:49Z</time>
      </trkpt>
      <trkpt lat="45.73392" lon="6.78464">
        <ele>2003.8</ele>
        <time>2021-10-03T09:03:51Z</time>
      </trkpt>
      <trkpt lat="45.73392" lon="6.78462">
        <ele>2003.2</ele>
        <time>2021-10-03T09:03:53Z</time>
      </trkpt>
      <trkpt lat="45.73393" lon="6.7846">
        <ele>2003.2</ele>
        <time>2021-10-03T09:03:57Z</time>
      </trkpt>
      <trkpt lat="45.73391" lon="6.78458">
        <ele>2005</ele>
        <time>2021-10-03T09:04:02Z</time>
      </trkpt>
      <trkpt lat="45.7339" lon="6.78459">
        <ele>2006</ele>
        <time>2021-10-03T09:04:06Z</time>
      </trkpt>
      <trkpt lat="45.73388" lon="6.7846">
        <ele>2007.2</ele>
        <time>2021-10-03T09:04:10Z</time>
      </trkpt>
      <trkpt lat="45.73387" lon="6.78458">
        <ele>2008.4</ele>
        <time>2021-10-03T09:04:12Z</time>
      </trkpt>
      <trkpt lat="45.73387" lon="6.78457">
        <ele>2009.6</ele>
        <time>2021-10-03T09:04:14Z</time>
      </trkpt>
      <trkpt lat="45.73385" lon="6.78454">
        <ele>2010.8</ele>
        <time>2021-10-03T09:04:17Z</time>
      </trkpt>
      <trkpt lat="45.73383" lon="6.78453">
        <ele>2012.4</ele>
        <time>2021-10-03T09:04:20Z</time>
      </trkpt>
      <trkpt lat="45.73375" lon="6.78449">
        <ele>2013.4</ele>
        <time>2021-10-03T09:04:34Z</time>
      </trkpt>
      <trkpt lat="45.73375" lon="6.78448">
        <ele>2014.8</ele>
        <time>2021-10-03T09:04:36Z</time>
      </trkpt>
      <trkpt lat="45.73373" lon="6.78447">
        <ele>2016.6</ele>
        <time>2021-10-03T09:04:38Z</time>
      </trkpt>
      <trkpt lat="45.7337" lon="6.78447">
        <ele>2017.8</ele>
        <time>2021-10-03T09:04:40Z</time>
      </trkpt>
      <trkpt lat="45.73368" lon="6.78449">
        <ele>2019</ele>
        <time>2021-10-03T09:04:45Z</time>
      </trkpt>
      <trkpt lat="45.73366" lon="6.7845">
        <ele>2020.4</ele>
        <time>2021-10-03T09:04:47Z</time>
      </trkpt>
      <trkpt lat="45.73363" lon="6.78453">
        <ele>2022</ele>
        <time>2021-10-03T09:04:49Z</time>
      </trkpt>
      <trkpt lat="45.73361" lon="6.78455">
        <ele>2023.2</ele>
        <time>2021-10-03T09:04:53Z</time>
      </trkpt>
      <trkpt lat="45.73358" lon="6.7845">
        <ele>2024.4</ele>
        <time>2021-10-03T09:05:01Z</time>
      </trkpt>
      <trkpt lat="45.73357" lon="6.7845">
        <ele>2025.8</ele>
        <time>2021-10-03T09:05:05Z</time>
      </trkpt>
      <trkpt lat="45.73355" lon="6.7845">
        <ele>2027</ele>
        <time>2021-10-03T09:05:07Z</time>
      </trkpt>
      <trkpt lat="45.73353" lon="6.78448">
        <ele>2028</ele>
        <time>2021-10-03T09:05:10Z</time>
      </trkpt>
      <trkpt lat="45.73354" lon="6.78447">
        <ele>2029.2</ele>
        <time>2021-10-03T09:05:12Z</time>
      </trkpt>
      <trkpt lat="45.73353" lon="6.78445">
        <ele>2030.6</ele>
        <time>2021-10-03T09:05:15Z</time>
      </trkpt>
      <trkpt lat="45.7335" lon="6.78444">
        <ele>2031.2</ele>
        <time>2021-10-03T09:05:18Z</time>
      </trkpt>
      <trkpt lat="45.73346" lon="6.7844">
        <ele>2030.8</ele>
        <time>2021-10-03T09:05:22Z</time>
      </trkpt>
      <trkpt lat="45.73342" lon="6.78436">
        <ele>2029.8</ele>
        <time>2021-10-03T09:05:27Z</time>
      </trkpt>
      <trkpt lat="45.73341" lon="6.78433">
        <ele>2029.6</ele>
        <time>2021-10-03T09:05:29Z</time>
      </trkpt>
      <trkpt lat="45.7334" lon="6.78431">
        <ele>2029.8</ele>
        <time>2021-10-03T09:05:31Z</time>
      </trkpt>
      <trkpt lat="45.73338" lon="6.7843">
        <ele>2029.6</ele>
        <time>2021-10-03T09:05:33Z</time>
      </trkpt>
      <trkpt lat="45.73333" lon="6.78427">
        <ele>2029.2</ele>
        <time>2021-10-03T09:05:38Z</time>
      </trkpt>
      <trkpt lat="45.7333" lon="6.78426">
        <ele>2029.2</ele>
        <time>2021-10-03T09:05:41Z</time>
      </trkpt>
      <trkpt lat="45.73329" lon="6.78424">
        <ele>2029.6</ele>
        <time>2021-10-03T09:05:44Z</time>
      </trkpt>
      <trkpt lat="45.73327" lon="6.7842">
        <ele>2029.4</ele>
        <time>2021-10-03T09:05:47Z</time>
      </trkpt>
      <trkpt lat="45.73324" lon="6.78416">
        <ele>2029.6</ele>
        <time>2021-10-03T09:05:51Z</time>
      </trkpt>
      <trkpt lat="45.73315" lon="6.78408">
        <ele>2030.6</ele>
        <time>2021-10-03T09:05:58Z</time>
      </trkpt>
      <trkpt lat="45.73315" lon="6.78408">
        <ele>2030.8</ele>
        <time>2021-10-03T09:05:59Z</time>
      </trkpt>
      <trkpt lat="45.73315" lon="6.78408">
        <ele>2030.8</ele>
        <time>2021-10-03T09:06:00Z</time>
      </trkpt>
      <trkpt lat="45.73315" lon="6.78408">
        <ele>2031.2</ele>
        <time>2021-10-03T09:06:02Z</time>
      </trkpt>
      <trkpt lat="45.73316" lon="6.78411">
        <ele>2032</ele>
        <time>2021-10-03T09:06:05Z</time>
      </trkpt>
      <trkpt lat="45.73315" lon="6.78414">
        <ele>2033.2</ele>
        <time>2021-10-03T09:06:08Z</time>
      </trkpt>
      <trkpt lat="45.73312" lon="6.78415">
        <ele>2034.6</ele>
        <time>2021-10-03T09:06:14Z</time>
      </trkpt>
      <trkpt lat="45.73311" lon="6.78412">
        <ele>2035.8</ele>
        <time>2021-10-03T09:06:18Z</time>
      </trkpt>
      <trkpt lat="45.73311" lon="6.78411">
        <ele>2036</ele>
        <time>2021-10-03T09:06:19Z</time>
      </trkpt>
      <trkpt lat="45.73311" lon="6.78407">
        <ele>2036.6</ele>
        <time>2021-10-03T09:06:22Z</time>
      </trkpt>
      <trkpt lat="45.7331" lon="6.78407">
        <ele>2036.8</ele>
        <time>2021-10-03T09:06:23Z</time>
      </trkpt>
      <trkpt lat="45.73309" lon="6.78406">
        <ele>2037</ele>
        <time>2021-10-03T09:06:24Z</time>
      </trkpt>
      <trkpt lat="45.73307" lon="6.78404">
        <ele>2037.8</ele>
        <time>2021-10-03T09:06:28Z</time>
      </trkpt>
      <trkpt lat="45.73305" lon="6.78403">
        <ele>2038.6</ele>
        <time>2021-10-03T09:06:31Z</time>
      </trkpt>
      <trkpt lat="45.73303" lon="6.78399">
        <ele>2038.6</ele>
        <time>2021-10-03T09:06:34Z</time>
      </trkpt>
      <trkpt lat="45.73302" lon="6.78395">
        <ele>2038.4</ele>
        <time>2021-10-03T09:06:37Z</time>
      </trkpt>
      <trkpt lat="45.73299" lon="6.78393">
        <ele>2039</ele>
        <time>2021-10-03T09:06:40Z</time>
      </trkpt>
      <trkpt lat="45.73297" lon="6.78392">
        <ele>2039.4</ele>
        <time>2021-10-03T09:06:42Z</time>
      </trkpt>
      <trkpt lat="45.73293" lon="6.7839">
        <ele>2040</ele>
        <time>2021-10-03T09:06:45Z</time>
      </trkpt>
      <trkpt lat="45.73292" lon="6.78389">
        <ele>2040.6</ele>
        <time>2021-10-03T09:06:46Z</time>
      </trkpt>
      <trkpt lat="45.73292" lon="6.78388">
        <ele>2041.2</ele>
        <time>2021-10-03T09:06:48Z</time>
      </trkpt>
      <trkpt lat="45.73292" lon="6.78388">
        <ele>2041.6</ele>
        <time>2021-10-03T09:06:49Z</time>
      </trkpt>
      <trkpt lat="45.7329" lon="6.78385">
        <ele>2042.2</ele>
        <time>2021-10-03T09:06:53Z</time>
      </trkpt>
      <trkpt lat="45.7329" lon="6.78383">
        <ele>2042.4</ele>
        <time>2021-10-03T09:06:54Z</time>
      </trkpt>
      <trkpt lat="45.73288" lon="6.7837">
        <ele>2043.8</ele>
        <time>2021-10-03T09:07:03Z</time>
      </trkpt>
      <trkpt lat="45.73287" lon="6.78368">
        <ele>2045.2</ele>
        <time>2021-10-03T09:07:05Z</time>
      </trkpt>
      <trkpt lat="45.73288" lon="6.78366">
        <ele>2046.2</ele>
        <time>2021-10-03T09:07:07Z</time>
      </trkpt>
      <trkpt lat="45.73287" lon="6.78365">
        <ele>2046.8</ele>
        <time>2021-10-03T09:07:08Z</time>
      </trkpt>
      <trkpt lat="45.73287" lon="6.78364">
        <ele>2047.4</ele>
        <time>2021-10-03T09:07:09Z</time>
      </trkpt>
      <trkpt lat="45.73287" lon="6.78363">
        <ele>2047.8</ele>
        <time>2021-10-03T09:07:10Z</time>
      </trkpt>
      <trkpt lat="45.73286" lon="6.78359">
        <ele>2048.8</ele>
        <time>2021-10-03T09:07:13Z</time>
      </trkpt>
      <trkpt lat="45.73286" lon="6.78357">
        <ele>2049.4</ele>
        <time>2021-10-03T09:07:15Z</time>
      </trkpt>
      <trkpt lat="45.73286" lon="6.78355">
        <ele>2050.2</ele>
        <time>2021-10-03T09:07:17Z</time>
      </trkpt>
      <trkpt lat="45.73286" lon="6.78352">
        <ele>2050.8</ele>
        <time>2021-10-03T09:07:19Z</time>
      </trkpt>
      <trkpt lat="45.73286" lon="6.7835">
        <ele>2051.4</ele>
        <time>2021-10-03T09:07:20Z</time>
      </trkpt>
      <trkpt lat="45.73286" lon="6.78347">
        <ele>2052.2</ele>
        <time>2021-10-03T09:07:22Z</time>
      </trkpt>
      <trkpt lat="45.73285" lon="6.78345">
        <ele>2052.4</ele>
        <time>2021-10-03T09:07:23Z</time>
      </trkpt>
      <trkpt lat="45.73284" lon="6.78342">
        <ele>2053.4</ele>
        <time>2021-10-03T09:07:25Z</time>
      </trkpt>
      <trkpt lat="45.73284" lon="6.7834">
        <ele>2053.8</ele>
        <time>2021-10-03T09:07:26Z</time>
      </trkpt>
      <trkpt lat="45.73283" lon="6.78339">
        <ele>2054.4</ele>
        <time>2021-10-03T09:07:27Z</time>
      </trkpt>
      <trkpt lat="45.73283" lon="6.78337">
        <ele>2055.2</ele>
        <time>2021-10-03T09:07:29Z</time>
      </trkpt>
      <trkpt lat="45.73285" lon="6.78331">
        <ele>2056.4</ele>
        <time>2021-10-03T09:07:33Z</time>
      </trkpt>
      <trkpt lat="45.73287" lon="6.78328">
        <ele>2057.6</ele>
        <time>2021-10-03T09:07:35Z</time>
      </trkpt>
      <trkpt lat="45.73287" lon="6.78326">
        <ele>2059.2</ele>
        <time>2021-10-03T09:07:37Z</time>
      </trkpt>
      <trkpt lat="45.73287" lon="6.78325">
        <ele>2060.4</ele>
        <time>2021-10-03T09:07:39Z</time>
      </trkpt>
      <trkpt lat="45.73286" lon="6.78325">
        <ele>2061</ele>
        <time>2021-10-03T09:07:42Z</time>
      </trkpt>
      <trkpt lat="45.73285" lon="6.78328">
        <ele>2060.4</ele>
        <time>2021-10-03T09:07:44Z</time>
      </trkpt>
      <trkpt lat="45.73284" lon="6.78331">
        <ele>2059.2</ele>
        <time>2021-10-03T09:07:46Z</time>
      </trkpt>
      <trkpt lat="45.73283" lon="6.78335">
        <ele>2058.6</ele>
        <time>2021-10-03T09:07:48Z</time>
      </trkpt>
      <trkpt lat="45.73281" lon="6.78338">
        <ele>2058.8</ele>
        <time>2021-10-03T09:07:50Z</time>
      </trkpt>
      <trkpt lat="45.73279" lon="6.78341">
        <ele>2060.4</ele>
        <time>2021-10-03T09:07:53Z</time>
      </trkpt>
      <trkpt lat="45.73278" lon="6.78341">
        <ele>2061.2</ele>
        <time>2021-10-03T09:07:54Z</time>
      </trkpt>
      <trkpt lat="45.73277" lon="6.7834">
        <ele>2062</ele>
        <time>2021-10-03T09:07:55Z</time>
      </trkpt>
      <trkpt lat="45.73272" lon="6.78339">
        <ele>2062.6</ele>
        <time>2021-10-03T09:07:59Z</time>
      </trkpt>
      <trkpt lat="45.73267" lon="6.7834">
        <ele>2062.2</ele>
        <time>2021-10-03T09:08:02Z</time>
      </trkpt>
      <trkpt lat="45.73253" lon="6.78338">
        <ele>2062.2</ele>
        <time>2021-10-03T09:08:09Z</time>
      </trkpt>
      <trkpt lat="45.73251" lon="6.78338">
        <ele>2063.2</ele>
        <time>2021-10-03T09:08:11Z</time>
      </trkpt>
      <trkpt lat="45.73248" lon="6.78338">
        <ele>2064.2</ele>
        <time>2021-10-03T09:08:14Z</time>
      </trkpt>
      <trkpt lat="45.73244" lon="6.78336">
        <ele>2063.8</ele>
        <time>2021-10-03T09:08:18Z</time>
      </trkpt>
      <trkpt lat="45.73242" lon="6.78336">
        <ele>2063.8</ele>
        <time>2021-10-03T09:08:22Z</time>
      </trkpt>
      <trkpt lat="45.73239" lon="6.78335">
        <ele>2065</ele>
        <time>2021-10-03T09:08:25Z</time>
      </trkpt>
      <trkpt lat="45.73239" lon="6.78335">
        <ele>2065.2</ele>
        <time>2021-10-03T09:08:27Z</time>
      </trkpt>
      <trkpt lat="45.73238" lon="6.78335">
        <ele>2065.4</ele>
        <time>2021-10-03T09:08:28Z</time>
      </trkpt>
      <trkpt lat="45.73237" lon="6.78334">
        <ele>2066.6</ele>
        <time>2021-10-03T09:08:33Z</time>
      </trkpt>
      <trkpt lat="45.73237" lon="6.78333">
        <ele>2067.8</ele>
        <time>2021-10-03T09:08:35Z</time>
      </trkpt>
      <trkpt lat="45.73236" lon="6.78333">
        <ele>2068.8</ele>
        <time>2021-10-03T09:08:37Z</time>
      </trkpt>
      <trkpt lat="45.73231" lon="6.78329">
        <ele>2070.2</ele>
        <time>2021-10-03T09:08:44Z</time>
      </trkpt>
      <trkpt lat="45.73228" lon="6.78325">
        <ele>2071.8</ele>
        <time>2021-10-03T09:08:47Z</time>
      </trkpt>
      <trkpt lat="45.73226" lon="6.78323">
        <ele>2073.2</ele>
        <time>2021-10-03T09:08:49Z</time>
      </trkpt>
      <trkpt lat="45.73223" lon="6.78322">
        <ele>2074.4</ele>
        <time>2021-10-03T09:08:52Z</time>
      </trkpt>
      <trkpt lat="45.73223" lon="6.78321">
        <ele>2074.4</ele>
        <time>2021-10-03T09:08:53Z</time>
      </trkpt>
      <trkpt lat="45.73219" lon="6.78319">
        <ele>2074.6</ele>
        <time>2021-10-03T09:08:57Z</time>
      </trkpt>
      <trkpt lat="45.73218" lon="6.78319">
        <ele>2074.8</ele>
        <time>2021-10-03T09:08:59Z</time>
      </trkpt>
      <trkpt lat="45.73216" lon="6.78319">
        <ele>2075</ele>
        <time>2021-10-03T09:09:01Z</time>
      </trkpt>
      <trkpt lat="45.73215" lon="6.78319">
        <ele>2075.6</ele>
        <time>2021-10-03T09:09:02Z</time>
      </trkpt>
      <trkpt lat="45.73213" lon="6.78317">
        <ele>2076.6</ele>
        <time>2021-10-03T09:09:04Z</time>
      </trkpt>
      <trkpt lat="45.73212" lon="6.78317">
        <ele>2076.8</ele>
        <time>2021-10-03T09:09:05Z</time>
      </trkpt>
      <trkpt lat="45.73207" lon="6.78313">
        <ele>2076.8</ele>
        <time>2021-10-03T09:09:10Z</time>
      </trkpt>
      <trkpt lat="45.73201" lon="6.78311">
        <ele>2077.8</ele>
        <time>2021-10-03T09:09:15Z</time>
      </trkpt>
      <trkpt lat="45.73192" lon="6.78305">
        <ele>2078.4</ele>
        <time>2021-10-03T09:09:25Z</time>
      </trkpt>
      <trkpt lat="45.7319" lon="6.78302">
        <ele>2079</ele>
        <time>2021-10-03T09:09:27Z</time>
      </trkpt>
      <trkpt lat="45.73187" lon="6.78298">
        <ele>2080</ele>
        <time>2021-10-03T09:09:30Z</time>
      </trkpt>
      <trkpt lat="45.73183" lon="6.78293">
        <ele>2081.2</ele>
        <time>2021-10-03T09:09:33Z</time>
      </trkpt>
      <trkpt lat="45.73181" lon="6.78291">
        <ele>2081.6</ele>
        <time>2021-10-03T09:09:34Z</time>
      </trkpt>
      <trkpt lat="45.73166" lon="6.78276">
        <ele>2082.4</ele>
        <time>2021-10-03T09:09:45Z</time>
      </trkpt>
      <trkpt lat="45.73163" lon="6.78275">
        <ele>2082.6</ele>
        <time>2021-10-03T09:09:47Z</time>
      </trkpt>
      <trkpt lat="45.73146" lon="6.78266">
        <ele>2082.8</ele>
        <time>2021-10-03T09:09:59Z</time>
      </trkpt>
      <trkpt lat="45.73143" lon="6.78264">
        <ele>2083</ele>
        <time>2021-10-03T09:10:01Z</time>
      </trkpt>
      <trkpt lat="45.73142" lon="6.78263">
        <ele>2082.8</ele>
        <time>2021-10-03T09:10:03Z</time>
      </trkpt>
      <trkpt lat="45.73137" lon="6.78262">
        <ele>2081</ele>
        <time>2021-10-03T09:10:07Z</time>
      </trkpt>
      <trkpt lat="45.73135" lon="6.78261">
        <ele>2080.2</ele>
        <time>2021-10-03T09:10:09Z</time>
      </trkpt>
      <trkpt lat="45.73133" lon="6.78261">
        <ele>2079.8</ele>
        <time>2021-10-03T09:10:11Z</time>
      </trkpt>
      <trkpt lat="45.7313" lon="6.78259">
        <ele>2079</ele>
        <time>2021-10-03T09:10:14Z</time>
      </trkpt>
      <trkpt lat="45.73129" lon="6.78257">
        <ele>2078.8</ele>
        <time>2021-10-03T09:10:16Z</time>
      </trkpt>
      <trkpt lat="45.73126" lon="6.78257">
        <ele>2078.8</ele>
        <time>2021-10-03T09:10:19Z</time>
      </trkpt>
      <trkpt lat="45.73124" lon="6.78256">
        <ele>2079.2</ele>
        <time>2021-10-03T09:10:21Z</time>
      </trkpt>
      <trkpt lat="45.73122" lon="6.78252">
        <ele>2080.2</ele>
        <time>2021-10-03T09:10:26Z</time>
      </trkpt>
      <trkpt lat="45.7312" lon="6.78251">
        <ele>2080.8</ele>
        <time>2021-10-03T09:10:30Z</time>
      </trkpt>
      <trkpt lat="45.73118" lon="6.78249">
        <ele>2082.2</ele>
        <time>2021-10-03T09:10:33Z</time>
      </trkpt>
      <trkpt lat="45.73115" lon="6.78248">
        <ele>2083.6</ele>
        <time>2021-10-03T09:10:36Z</time>
      </trkpt>
      <trkpt lat="45.73113" lon="6.78248">
        <ele>2084.8</ele>
        <time>2021-10-03T09:10:39Z</time>
      </trkpt>
      <trkpt lat="45.73113" lon="6.78247">
        <ele>2085.8</ele>
        <time>2021-10-03T09:10:41Z</time>
      </trkpt>
      <trkpt lat="45.73111" lon="6.78248">
        <ele>2087</ele>
        <time>2021-10-03T09:10:44Z</time>
      </trkpt>
      <trkpt lat="45.73108" lon="6.78248">
        <ele>2088</ele>
        <time>2021-10-03T09:10:50Z</time>
      </trkpt>
      <trkpt lat="45.73105" lon="6.78251">
        <ele>2089.2</ele>
        <time>2021-10-03T09:11:00Z</time>
      </trkpt>
      <trkpt lat="45.73106" lon="6.78254">
        <ele>2090.2</ele>
        <time>2021-10-03T09:11:03Z</time>
      </trkpt>
      <trkpt lat="45.73108" lon="6.78257">
        <ele>2091.4</ele>
        <time>2021-10-03T09:11:10Z</time>
      </trkpt>
      <trkpt lat="45.73108" lon="6.7826">
        <ele>2092.4</ele>
        <time>2021-10-03T09:11:13Z</time>
      </trkpt>
      <trkpt lat="45.73109" lon="6.7826">
        <ele>2093.8</ele>
        <time>2021-10-03T09:11:15Z</time>
      </trkpt>
      <trkpt lat="45.7311" lon="6.7826">
        <ele>2094.8</ele>
        <time>2021-10-03T09:11:17Z</time>
      </trkpt>
      <trkpt lat="45.73112" lon="6.78265">
        <ele>2096</ele>
        <time>2021-10-03T09:11:21Z</time>
      </trkpt>
      <trkpt lat="45.7311" lon="6.78269">
        <ele>2097.2</ele>
        <time>2021-10-03T09:11:26Z</time>
      </trkpt>
      <trkpt lat="45.73109" lon="6.78267">
        <ele>2098.2</ele>
        <time>2021-10-03T09:11:31Z</time>
      </trkpt>
      <trkpt lat="45.73107" lon="6.78266">
        <ele>2098.2</ele>
        <time>2021-10-03T09:11:32Z</time>
      </trkpt>
      <trkpt lat="45.73106" lon="6.78265">
        <ele>2098.6</ele>
        <time>2021-10-03T09:11:34Z</time>
      </trkpt>
      <trkpt lat="45.73102" lon="6.78264">
        <ele>2099.2</ele>
        <time>2021-10-03T09:11:38Z</time>
      </trkpt>
      <trkpt lat="45.73101" lon="6.78264">
        <ele>2099.4</ele>
        <time>2021-10-03T09:11:40Z</time>
      </trkpt>
      <trkpt lat="45.73094" lon="6.78263">
        <ele>2100.6</ele>
        <time>2021-10-03T09:11:49Z</time>
      </trkpt>
      <trkpt lat="45.73092" lon="6.78263">
        <ele>2101.6</ele>
        <time>2021-10-03T09:11:52Z</time>
      </trkpt>
      <trkpt lat="45.73091" lon="6.78264">
        <ele>2102.8</ele>
        <time>2021-10-03T09:11:56Z</time>
      </trkpt>
      <trkpt lat="45.73088" lon="6.78262">
        <ele>2104</ele>
        <time>2021-10-03T09:12:02Z</time>
      </trkpt>
      <trkpt lat="45.73084" lon="6.78258">
        <ele>2105.2</ele>
        <time>2021-10-03T09:12:09Z</time>
      </trkpt>
      <trkpt lat="45.73082" lon="6.78257">
        <ele>2106.4</ele>
        <time>2021-10-03T09:12:12Z</time>
      </trkpt>
      <trkpt lat="45.7308" lon="6.78255">
        <ele>2107.8</ele>
        <time>2021-10-03T09:12:16Z</time>
      </trkpt>
      <trkpt lat="45.73079" lon="6.78253">
        <ele>2109</ele>
        <time>2021-10-03T09:12:19Z</time>
      </trkpt>
      <trkpt lat="45.73065" lon="6.7825">
        <ele>2109</ele>
        <time>2021-10-03T09:12:32Z</time>
      </trkpt>
      <trkpt lat="45.73063" lon="6.78251">
        <ele>2109.4</ele>
        <time>2021-10-03T09:12:35Z</time>
      </trkpt>
      <trkpt lat="45.7306" lon="6.7825">
        <ele>2110</ele>
        <time>2021-10-03T09:12:38Z</time>
      </trkpt>
      <trkpt lat="45.73059" lon="6.78249">
        <ele>2110</ele>
        <time>2021-10-03T09:12:39Z</time>
      </trkpt>
      <trkpt lat="45.73056" lon="6.78247">
        <ele>2111</ele>
        <time>2021-10-03T09:12:42Z</time>
      </trkpt>
      <trkpt lat="45.73055" lon="6.78246">
        <ele>2111.2</ele>
        <time>2021-10-03T09:12:43Z</time>
      </trkpt>
      <trkpt lat="45.73052" lon="6.78243">
        <ele>2112.4</ele>
        <time>2021-10-03T09:12:47Z</time>
      </trkpt>
      <trkpt lat="45.73051" lon="6.7824">
        <ele>2113.2</ele>
        <time>2021-10-03T09:12:50Z</time>
      </trkpt>
      <trkpt lat="45.73049" lon="6.78236">
        <ele>2113.6</ele>
        <time>2021-10-03T09:12:54Z</time>
      </trkpt>
      <trkpt lat="45.73049" lon="6.78234">
        <ele>2113.8</ele>
        <time>2021-10-03T09:12:55Z</time>
      </trkpt>
      <trkpt lat="45.7305" lon="6.78228">
        <ele>2114.8</ele>
        <time>2021-10-03T09:12:58Z</time>
      </trkpt>
      <trkpt lat="45.7305" lon="6.78225">
        <ele>2115.8</ele>
        <time>2021-10-03T09:13:00Z</time>
      </trkpt>
      <trkpt lat="45.73051" lon="6.78223">
        <ele>2117.2</ele>
        <time>2021-10-03T09:13:02Z</time>
      </trkpt>
      <trkpt lat="45.73052" lon="6.78219">
        <ele>2118.6</ele>
        <time>2021-10-03T09:13:05Z</time>
      </trkpt>
      <trkpt lat="45.73045" lon="6.78207">
        <ele>2118.8</ele>
        <time>2021-10-03T09:13:11Z</time>
      </trkpt>
      <trkpt lat="45.73033" lon="6.78199">
        <ele>2117.4</ele>
        <time>2021-10-03T09:13:18Z</time>
      </trkpt>
      <trkpt lat="45.73029" lon="6.78199">
        <ele>2116.4</ele>
        <time>2021-10-03T09:13:20Z</time>
      </trkpt>
      <trkpt lat="45.73026" lon="6.78201">
        <ele>2115.2</ele>
        <time>2021-10-03T09:13:23Z</time>
      </trkpt>
      <trkpt lat="45.73021" lon="6.78204">
        <ele>2115</ele>
        <time>2021-10-03T09:13:27Z</time>
      </trkpt>
      <trkpt lat="45.73012" lon="6.78208">
        <ele>2114.2</ele>
        <time>2021-10-03T09:13:32Z</time>
      </trkpt>
      <trkpt lat="45.73006" lon="6.78211">
        <ele>2113</ele>
        <time>2021-10-03T09:13:36Z</time>
      </trkpt>
      <trkpt lat="45.73002" lon="6.78212">
        <ele>2112.4</ele>
        <time>2021-10-03T09:13:40Z</time>
      </trkpt>
      <trkpt lat="45.72997" lon="6.78207">
        <ele>2112.8</ele>
        <time>2021-10-03T09:13:45Z</time>
      </trkpt>
      <trkpt lat="45.72996" lon="6.7818">
        <ele>2113.6</ele>
        <time>2021-10-03T09:13:57Z</time>
      </trkpt>
      <trkpt lat="45.72995" lon="6.78177">
        <ele>2113.6</ele>
        <time>2021-10-03T09:13:59Z</time>
      </trkpt>
      <trkpt lat="45.72993" lon="6.78174">
        <ele>2113.6</ele>
        <time>2021-10-03T09:14:01Z</time>
      </trkpt>
      <trkpt lat="45.72993" lon="6.78171">
        <ele>2114</ele>
        <time>2021-10-03T09:14:03Z</time>
      </trkpt>
      <trkpt lat="45.72992" lon="6.78162">
        <ele>2115.6</ele>
        <time>2021-10-03T09:14:09Z</time>
      </trkpt>
      <trkpt lat="45.72991" lon="6.78159">
        <ele>2117.6</ele>
        <time>2021-10-03T09:14:11Z</time>
      </trkpt>
      <trkpt lat="45.72991" lon="6.78157">
        <ele>2118.8</ele>
        <time>2021-10-03T09:14:13Z</time>
      </trkpt>
      <trkpt lat="45.72989" lon="6.78157">
        <ele>2119.6</ele>
        <time>2021-10-03T09:14:15Z</time>
      </trkpt>
      <trkpt lat="45.72988" lon="6.78157">
        <ele>2120</ele>
        <time>2021-10-03T09:14:16Z</time>
      </trkpt>
      <trkpt lat="45.72989" lon="6.78157">
        <ele>2120.4</ele>
        <time>2021-10-03T09:14:17Z</time>
      </trkpt>
      <trkpt lat="45.72989" lon="6.78155">
        <ele>2121.2</ele>
        <time>2021-10-03T09:14:20Z</time>
      </trkpt>
      <trkpt lat="45.72986" lon="6.78155">
        <ele>2121.4</ele>
        <time>2021-10-03T09:14:23Z</time>
      </trkpt>
      <trkpt lat="45.72981" lon="6.78155">
        <ele>2121.6</ele>
        <time>2021-10-03T09:14:28Z</time>
      </trkpt>
      <trkpt lat="45.72977" lon="6.78154">
        <ele>2122.2</ele>
        <time>2021-10-03T09:14:32Z</time>
      </trkpt>
      <trkpt lat="45.72976" lon="6.78154">
        <ele>2122.8</ele>
        <time>2021-10-03T09:14:34Z</time>
      </trkpt>
      <trkpt lat="45.72976" lon="6.78153">
        <ele>2123.4</ele>
        <time>2021-10-03T09:14:35Z</time>
      </trkpt>
      <trkpt lat="45.72974" lon="6.78153">
        <ele>2124.4</ele>
        <time>2021-10-03T09:14:38Z</time>
      </trkpt>
      <trkpt lat="45.72973" lon="6.78152">
        <ele>2124.6</ele>
        <time>2021-10-03T09:14:39Z</time>
      </trkpt>
      <trkpt lat="45.7297" lon="6.78151">
        <ele>2125.8</ele>
        <time>2021-10-03T09:14:45Z</time>
      </trkpt>
      <trkpt lat="45.72969" lon="6.78149">
        <ele>2126.8</ele>
        <time>2021-10-03T09:14:47Z</time>
      </trkpt>
      <trkpt lat="45.72963" lon="6.7815">
        <ele>2128</ele>
        <time>2021-10-03T09:14:57Z</time>
      </trkpt>
      <trkpt lat="45.7296" lon="6.7815">
        <ele>2129.2</ele>
        <time>2021-10-03T09:15:01Z</time>
      </trkpt>
      <trkpt lat="45.72957" lon="6.78151">
        <ele>2130.2</ele>
        <time>2021-10-03T09:15:06Z</time>
      </trkpt>
      <trkpt lat="45.72951" lon="6.7815">
        <ele>2131.2</ele>
        <time>2021-10-03T09:15:13Z</time>
      </trkpt>
      <trkpt lat="45.72948" lon="6.78154">
        <ele>2132.4</ele>
        <time>2021-10-03T09:15:21Z</time>
      </trkpt>
      <trkpt lat="45.72947" lon="6.78155">
        <ele>2133.6</ele>
        <time>2021-10-03T09:15:23Z</time>
      </trkpt>
      <trkpt lat="45.72947" lon="6.78158">
        <ele>2135</ele>
        <time>2021-10-03T09:15:26Z</time>
      </trkpt>
      <trkpt lat="45.72948" lon="6.78159">
        <ele>2135.6</ele>
        <time>2021-10-03T09:15:27Z</time>
      </trkpt>
      <trkpt lat="45.72948" lon="6.78161">
        <ele>2136.4</ele>
        <time>2021-10-03T09:15:28Z</time>
      </trkpt>
      <trkpt lat="45.72948" lon="6.78162">
        <ele>2136.8</ele>
        <time>2021-10-03T09:15:29Z</time>
      </trkpt>
      <trkpt lat="45.72949" lon="6.78165">
        <ele>2137</ele>
        <time>2021-10-03T09:15:32Z</time>
      </trkpt>
      <trkpt lat="45.72948" lon="6.78167">
        <ele>2137.4</ele>
        <time>2021-10-03T09:15:36Z</time>
      </trkpt>
      <trkpt lat="45.72945" lon="6.78168">
        <ele>2138.4</ele>
        <time>2021-10-03T09:15:39Z</time>
      </trkpt>
      <trkpt lat="45.72942" lon="6.78167">
        <ele>2139.4</ele>
        <time>2021-10-03T09:15:43Z</time>
      </trkpt>
      <trkpt lat="45.72935" lon="6.78162">
        <ele>2140.4</ele>
        <time>2021-10-03T09:15:53Z</time>
      </trkpt>
      <trkpt lat="45.7293" lon="6.78162">
        <ele>2141.6</ele>
        <time>2021-10-03T09:15:59Z</time>
      </trkpt>
      <trkpt lat="45.72926" lon="6.78161">
        <ele>2142.4</ele>
        <time>2021-10-03T09:16:04Z</time>
      </trkpt>
      <trkpt lat="45.72924" lon="6.7816">
        <ele>2142.6</ele>
        <time>2021-10-03T09:16:06Z</time>
      </trkpt>
      <trkpt lat="45.72923" lon="6.7816">
        <ele>2142.8</ele>
        <time>2021-10-03T09:16:08Z</time>
      </trkpt>
      <trkpt lat="45.72922" lon="6.7816">
        <ele>2142.8</ele>
        <time>2021-10-03T09:16:09Z</time>
      </trkpt>
      <trkpt lat="45.72919" lon="6.7816">
        <ele>2144</ele>
        <time>2021-10-03T09:16:12Z</time>
      </trkpt>
      <trkpt lat="45.72917" lon="6.7816">
        <ele>2144.6</ele>
        <time>2021-10-03T09:16:14Z</time>
      </trkpt>
      <trkpt lat="45.72914" lon="6.78159">
        <ele>2145</ele>
        <time>2021-10-03T09:16:17Z</time>
      </trkpt>
      <trkpt lat="45.72913" lon="6.78159">
        <ele>2145.2</ele>
        <time>2021-10-03T09:16:18Z</time>
      </trkpt>
      <trkpt lat="45.72912" lon="6.78157">
        <ele>2145.8</ele>
        <time>2021-10-03T09:16:21Z</time>
      </trkpt>
      <trkpt lat="45.7291" lon="6.78157">
        <ele>2146.4</ele>
        <time>2021-10-03T09:16:23Z</time>
      </trkpt>
      <trkpt lat="45.7291" lon="6.78157">
        <ele>2146.6</ele>
        <time>2021-10-03T09:16:24Z</time>
      </trkpt>
      <trkpt lat="45.72908" lon="6.78155">
        <ele>2147.6</ele>
        <time>2021-10-03T09:16:28Z</time>
      </trkpt>
      <trkpt lat="45.72906" lon="6.78155">
        <ele>2148.6</ele>
        <time>2021-10-03T09:16:30Z</time>
      </trkpt>
      <trkpt lat="45.72901" lon="6.78153">
        <ele>2149.6</ele>
        <time>2021-10-03T09:16:37Z</time>
      </trkpt>
      <trkpt lat="45.72897" lon="6.78154">
        <ele>2151</ele>
        <time>2021-10-03T09:16:40Z</time>
      </trkpt>
      <trkpt lat="45.72895" lon="6.78154">
        <ele>2152.2</ele>
        <time>2021-10-03T09:16:42Z</time>
      </trkpt>
      <trkpt lat="45.72892" lon="6.78154">
        <ele>2152.8</ele>
        <time>2021-10-03T09:16:46Z</time>
      </trkpt>
      <trkpt lat="45.72889" lon="6.78156">
        <ele>2151.2</ele>
        <time>2021-10-03T09:16:52Z</time>
      </trkpt>
      <trkpt lat="45.7288" lon="6.78159">
        <ele>2152.6</ele>
        <time>2021-10-03T09:17:04Z</time>
      </trkpt>
      <trkpt lat="45.72878" lon="6.78159">
        <ele>2154</ele>
        <time>2021-10-03T09:17:06Z</time>
      </trkpt>
      <trkpt lat="45.72876" lon="6.7816">
        <ele>2155.6</ele>
        <time>2021-10-03T09:17:08Z</time>
      </trkpt>
      <trkpt lat="45.72874" lon="6.78159">
        <ele>2156.6</ele>
        <time>2021-10-03T09:17:11Z</time>
      </trkpt>
      <trkpt lat="45.72872" lon="6.78158">
        <ele>2157.2</ele>
        <time>2021-10-03T09:17:13Z</time>
      </trkpt>
      <trkpt lat="45.72871" lon="6.78157">
        <ele>2157.8</ele>
        <time>2021-10-03T09:17:15Z</time>
      </trkpt>
      <trkpt lat="45.7287" lon="6.78158">
        <ele>2159</ele>
        <time>2021-10-03T09:17:18Z</time>
      </trkpt>
      <trkpt lat="45.72868" lon="6.78159">
        <ele>2160</ele>
        <time>2021-10-03T09:17:22Z</time>
      </trkpt>
      <trkpt lat="45.7286" lon="6.78159">
        <ele>2161.2</ele>
        <time>2021-10-03T09:17:32Z</time>
      </trkpt>
      <trkpt lat="45.72857" lon="6.78158">
        <ele>2162.4</ele>
        <time>2021-10-03T09:17:36Z</time>
      </trkpt>
      <trkpt lat="45.72848" lon="6.78156">
        <ele>2163.4</ele>
        <time>2021-10-03T09:17:45Z</time>
      </trkpt>
      <trkpt lat="45.72845" lon="6.78155">
        <ele>2164.6</ele>
        <time>2021-10-03T09:17:50Z</time>
      </trkpt>
      <trkpt lat="45.72842" lon="6.78154">
        <ele>2165.8</ele>
        <time>2021-10-03T09:17:53Z</time>
      </trkpt>
      <trkpt lat="45.72839" lon="6.78153">
        <ele>2167</ele>
        <time>2021-10-03T09:17:58Z</time>
      </trkpt>
      <trkpt lat="45.72834" lon="6.78151">
        <ele>2168.2</ele>
        <time>2021-10-03T09:18:05Z</time>
      </trkpt>
      <trkpt lat="45.72825" lon="6.78154">
        <ele>2169.2</ele>
        <time>2021-10-03T09:18:17Z</time>
      </trkpt>
      <trkpt lat="45.72818" lon="6.78154">
        <ele>2169.6</ele>
        <time>2021-10-03T09:18:24Z</time>
      </trkpt>
      <trkpt lat="45.72814" lon="6.78152">
        <ele>2170.2</ele>
        <time>2021-10-03T09:18:30Z</time>
      </trkpt>
      <trkpt lat="45.72813" lon="6.78152">
        <ele>2170.4</ele>
        <time>2021-10-03T09:18:31Z</time>
      </trkpt>
      <trkpt lat="45.7281" lon="6.78154">
        <ele>2171.4</ele>
        <time>2021-10-03T09:18:35Z</time>
      </trkpt>
      <trkpt lat="45.72807" lon="6.78156">
        <ele>2172.8</ele>
        <time>2021-10-03T09:18:38Z</time>
      </trkpt>
      <trkpt lat="45.72807" lon="6.78157">
        <ele>2173.2</ele>
        <time>2021-10-03T09:18:39Z</time>
      </trkpt>
      <trkpt lat="45.72806" lon="6.78159">
        <ele>2174.2</ele>
        <time>2021-10-03T09:18:41Z</time>
      </trkpt>
      <trkpt lat="45.72803" lon="6.78161">
        <ele>2174.8</ele>
        <time>2021-10-03T09:18:44Z</time>
      </trkpt>
      <trkpt lat="45.728" lon="6.78161">
        <ele>2175.2</ele>
        <time>2021-10-03T09:18:47Z</time>
      </trkpt>
      <trkpt lat="45.72797" lon="6.78162">
        <ele>2175.2</ele>
        <time>2021-10-03T09:18:49Z</time>
      </trkpt>
      <trkpt lat="45.72786" lon="6.78162">
        <ele>2176.4</ele>
        <time>2021-10-03T09:19:00Z</time>
      </trkpt>
      <trkpt lat="45.72782" lon="6.78163">
        <ele>2177.6</ele>
        <time>2021-10-03T09:19:04Z</time>
      </trkpt>
      <trkpt lat="45.72778" lon="6.78164">
        <ele>2177.8</ele>
        <time>2021-10-03T09:19:09Z</time>
      </trkpt>
      <trkpt lat="45.7277" lon="6.78164">
        <ele>2178.6</ele>
        <time>2021-10-03T09:19:18Z</time>
      </trkpt>
      <trkpt lat="45.72769" lon="6.78164">
        <ele>2179</ele>
        <time>2021-10-03T09:19:19Z</time>
      </trkpt>
      <trkpt lat="45.72766" lon="6.78165">
        <ele>2179.8</ele>
        <time>2021-10-03T09:19:22Z</time>
      </trkpt>
      <trkpt lat="45.72764" lon="6.78165">
        <ele>2179.8</ele>
        <time>2021-10-03T09:19:23Z</time>
      </trkpt>
      <trkpt lat="45.72761" lon="6.78166">
        <ele>2180.6</ele>
        <time>2021-10-03T09:19:27Z</time>
      </trkpt>
      <trkpt lat="45.7276" lon="6.78166">
        <ele>2180.8</ele>
        <time>2021-10-03T09:19:28Z</time>
      </trkpt>
      <trkpt lat="45.72759" lon="6.78167">
        <ele>2181.6</ele>
        <time>2021-10-03T09:19:30Z</time>
      </trkpt>
      <trkpt lat="45.72758" lon="6.78168">
        <ele>2182</ele>
        <time>2021-10-03T09:19:31Z</time>
      </trkpt>
      <trkpt lat="45.72757" lon="6.78168">
        <ele>2182.6</ele>
        <time>2021-10-03T09:19:32Z</time>
      </trkpt>
      <trkpt lat="45.72757" lon="6.78169">
        <ele>2183</ele>
        <time>2021-10-03T09:19:33Z</time>
      </trkpt>
      <trkpt lat="45.72753" lon="6.7817">
        <ele>2184.2</ele>
        <time>2021-10-03T09:19:39Z</time>
      </trkpt>
      <trkpt lat="45.7275" lon="6.78171">
        <ele>2185.2</ele>
        <time>2021-10-03T09:19:42Z</time>
      </trkpt>
      <trkpt lat="45.72749" lon="6.78172">
        <ele>2186.4</ele>
        <time>2021-10-03T09:19:44Z</time>
      </trkpt>
      <trkpt lat="45.72743" lon="6.7817">
        <ele>2187.6</ele>
        <time>2021-10-03T09:19:50Z</time>
      </trkpt>
      <trkpt lat="45.72741" lon="6.7817">
        <ele>2189</ele>
        <time>2021-10-03T09:19:52Z</time>
      </trkpt>
      <trkpt lat="45.72739" lon="6.7817">
        <ele>2190</ele>
        <time>2021-10-03T09:19:54Z</time>
      </trkpt>
      <trkpt lat="45.72738" lon="6.7817">
        <ele>2190.2</ele>
        <time>2021-10-03T09:19:55Z</time>
      </trkpt>
      <trkpt lat="45.72733" lon="6.7817">
        <ele>2190.6</ele>
        <time>2021-10-03T09:20:01Z</time>
      </trkpt>
      <trkpt lat="45.72731" lon="6.7817">
        <ele>2189.4</ele>
        <time>2021-10-03T09:20:03Z</time>
      </trkpt>
      <trkpt lat="45.72731" lon="6.78169">
        <ele>2188.8</ele>
        <time>2021-10-03T09:20:04Z</time>
      </trkpt>
      <trkpt lat="45.7273" lon="6.7817">
        <ele>2188.4</ele>
        <time>2021-10-03T09:20:05Z</time>
      </trkpt>
      <trkpt lat="45.72729" lon="6.7817">
        <ele>2187.8</ele>
        <time>2021-10-03T09:20:07Z</time>
      </trkpt>
      <trkpt lat="45.72729" lon="6.7817">
        <ele>2186.4</ele>
        <time>2021-10-03T09:20:09Z</time>
      </trkpt>
      <trkpt lat="45.72725" lon="6.78171">
        <ele>2188.2</ele>
        <time>2021-10-03T09:20:15Z</time>
      </trkpt>
      <trkpt lat="45.72723" lon="6.78171">
        <ele>2189.2</ele>
        <time>2021-10-03T09:20:17Z</time>
      </trkpt>
      <trkpt lat="45.72719" lon="6.78172">
        <ele>2190.6</ele>
        <time>2021-10-03T09:20:20Z</time>
      </trkpt>
      <trkpt lat="45.72714" lon="6.78173">
        <ele>2191.8</ele>
        <time>2021-10-03T09:20:25Z</time>
      </trkpt>
      <trkpt lat="45.72711" lon="6.78173">
        <ele>2192.8</ele>
        <time>2021-10-03T09:20:27Z</time>
      </trkpt>
      <trkpt lat="45.72709" lon="6.78173">
        <ele>2194.4</ele>
        <time>2021-10-03T09:20:29Z</time>
      </trkpt>
      <trkpt lat="45.72708" lon="6.78173">
        <ele>2195.8</ele>
        <time>2021-10-03T09:20:31Z</time>
      </trkpt>
      <trkpt lat="45.72707" lon="6.78172">
        <ele>2197.4</ele>
        <time>2021-10-03T09:20:33Z</time>
      </trkpt>
      <trkpt lat="45.72705" lon="6.78172">
        <ele>2198.8</ele>
        <time>2021-10-03T09:20:35Z</time>
      </trkpt>
      <trkpt lat="45.72704" lon="6.78172">
        <ele>2199.2</ele>
        <time>2021-10-03T09:20:37Z</time>
      </trkpt>
      <trkpt lat="45.72702" lon="6.78173">
        <ele>2199.2</ele>
        <time>2021-10-03T09:20:40Z</time>
      </trkpt>
      <trkpt lat="45.72699" lon="6.78174">
        <ele>2199.8</ele>
        <time>2021-10-03T09:20:45Z</time>
      </trkpt>
      <trkpt lat="45.72698" lon="6.78178">
        <ele>2201</ele>
        <time>2021-10-03T09:20:50Z</time>
      </trkpt>
      <trkpt lat="45.72696" lon="6.7818">
        <ele>2199.4</ele>
        <time>2021-10-03T09:20:56Z</time>
      </trkpt>
      <trkpt lat="45.72694" lon="6.7818">
        <ele>2197.8</ele>
        <time>2021-10-03T09:20:58Z</time>
      </trkpt>
      <trkpt lat="45.72688" lon="6.7818">
        <ele>2199</ele>
        <time>2021-10-03T09:21:05Z</time>
      </trkpt>
      <trkpt lat="45.72685" lon="6.78181">
        <ele>2200.2</ele>
        <time>2021-10-03T09:21:08Z</time>
      </trkpt>
      <trkpt lat="45.7268" lon="6.78183">
        <ele>2201.4</ele>
        <time>2021-10-03T09:21:12Z</time>
      </trkpt>
      <trkpt lat="45.72676" lon="6.78184">
        <ele>2202.6</ele>
        <time>2021-10-03T09:21:15Z</time>
      </trkpt>
      <trkpt lat="45.72671" lon="6.78185">
        <ele>2203.8</ele>
        <time>2021-10-03T09:21:19Z</time>
      </trkpt>
      <trkpt lat="45.72668" lon="6.78188">
        <ele>2205.2</ele>
        <time>2021-10-03T09:21:22Z</time>
      </trkpt>
      <trkpt lat="45.72668" lon="6.78188">
        <ele>2205.2</ele>
        <time>2021-10-03T09:21:23Z</time>
      </trkpt>
      <trkpt lat="45.72664" lon="6.78188">
        <ele>2205.6</ele>
        <time>2021-10-03T09:21:27Z</time>
      </trkpt>
      <trkpt lat="45.72663" lon="6.78187">
        <ele>2206.4</ele>
        <time>2021-10-03T09:21:28Z</time>
      </trkpt>
      <trkpt lat="45.72661" lon="6.78187">
        <ele>2208</ele>
        <time>2021-10-03T09:21:30Z</time>
      </trkpt>
      <trkpt lat="45.7266" lon="6.78188">
        <ele>2208.4</ele>
        <time>2021-10-03T09:21:31Z</time>
      </trkpt>
      <trkpt lat="45.72658" lon="6.78189">
        <ele>2209</ele>
        <time>2021-10-03T09:21:33Z</time>
      </trkpt>
      <trkpt lat="45.72656" lon="6.78189">
        <ele>2210.2</ele>
        <time>2021-10-03T09:21:36Z</time>
      </trkpt>
      <trkpt lat="45.72651" lon="6.78189">
        <ele>2211</ele>
        <time>2021-10-03T09:21:40Z</time>
      </trkpt>
      <trkpt lat="45.7265" lon="6.78189">
        <ele>2211.2</ele>
        <time>2021-10-03T09:21:41Z</time>
      </trkpt>
      <trkpt lat="45.72647" lon="6.78191">
        <ele>2209.8</ele>
        <time>2021-10-03T09:21:47Z</time>
      </trkpt>
      <trkpt lat="45.72646" lon="6.78192">
        <ele>2208.4</ele>
        <time>2021-10-03T09:21:48Z</time>
      </trkpt>
      <trkpt lat="45.72645" lon="6.78193">
        <ele>2207.2</ele>
        <time>2021-10-03T09:21:50Z</time>
      </trkpt>
      <trkpt lat="45.72642" lon="6.78195">
        <ele>2208.2</ele>
        <time>2021-10-03T09:21:52Z</time>
      </trkpt>
      <trkpt lat="45.72641" lon="6.78196">
        <ele>2208.6</ele>
        <time>2021-10-03T09:21:53Z</time>
      </trkpt>
      <trkpt lat="45.72638" lon="6.78197">
        <ele>2209.6</ele>
        <time>2021-10-03T09:21:55Z</time>
      </trkpt>
      <trkpt lat="45.72637" lon="6.78198">
        <ele>2209.8</ele>
        <time>2021-10-03T09:21:56Z</time>
      </trkpt>
      <trkpt lat="45.72637" lon="6.78198">
        <ele>2211.2</ele>
        <time>2021-10-03T09:21:59Z</time>
      </trkpt>
      <trkpt lat="45.72637" lon="6.78198">
        <ele>2212.6</ele>
        <time>2021-10-03T09:22:01Z</time>
      </trkpt>
      <trkpt lat="45.72633" lon="6.78197">
        <ele>2213.8</ele>
        <time>2021-10-03T09:22:04Z</time>
      </trkpt>
      <trkpt lat="45.72626" lon="6.78198">
        <ele>2215</ele>
        <time>2021-10-03T09:22:08Z</time>
      </trkpt>
      <trkpt lat="45.72623" lon="6.782">
        <ele>2216</ele>
        <time>2021-10-03T09:22:12Z</time>
      </trkpt>
      <trkpt lat="45.72622" lon="6.78199">
        <ele>2216.4</ele>
        <time>2021-10-03T09:22:13Z</time>
      </trkpt>
      <trkpt lat="45.72621" lon="6.78199">
        <ele>2217.2</ele>
        <time>2021-10-03T09:22:15Z</time>
      </trkpt>
      <trkpt lat="45.72616" lon="6.782">
        <ele>2217.8</ele>
        <time>2021-10-03T09:22:24Z</time>
      </trkpt>
      <trkpt lat="45.72614" lon="6.782">
        <ele>2217.8</ele>
        <time>2021-10-03T09:22:26Z</time>
      </trkpt>
      <trkpt lat="45.7261" lon="6.78203">
        <ele>2218.4</ele>
        <time>2021-10-03T09:22:33Z</time>
      </trkpt>
      <trkpt lat="45.72605" lon="6.78206">
        <ele>2219.6</ele>
        <time>2021-10-03T09:22:37Z</time>
      </trkpt>
      <trkpt lat="45.72605" lon="6.78207">
        <ele>2220.6</ele>
        <time>2021-10-03T09:22:39Z</time>
      </trkpt>
      <trkpt lat="45.72605" lon="6.78207">
        <ele>2221</ele>
        <time>2021-10-03T09:22:40Z</time>
      </trkpt>
      <trkpt lat="45.72602" lon="6.78208">
        <ele>2222.2</ele>
        <time>2021-10-03T09:22:43Z</time>
      </trkpt>
      <trkpt lat="45.72601" lon="6.7821">
        <ele>2223</ele>
        <time>2021-10-03T09:22:45Z</time>
      </trkpt>
      <trkpt lat="45.726" lon="6.7821">
        <ele>2223.4</ele>
        <time>2021-10-03T09:22:47Z</time>
      </trkpt>
      <trkpt lat="45.72595" lon="6.78214">
        <ele>2224.4</ele>
        <time>2021-10-03T09:22:53Z</time>
      </trkpt>
      <trkpt lat="45.72598" lon="6.78214">
        <ele>2224.6</ele>
        <time>2021-10-03T09:22:55Z</time>
      </trkpt>
      <trkpt lat="45.72597" lon="6.78217">
        <ele>2225.6</ele>
        <time>2021-10-03T09:23:00Z</time>
      </trkpt>
      <trkpt lat="45.72593" lon="6.78219">
        <ele>2226.4</ele>
        <time>2021-10-03T09:23:03Z</time>
      </trkpt>
      <trkpt lat="45.72593" lon="6.7822">
        <ele>2226.6</ele>
        <time>2021-10-03T09:23:04Z</time>
      </trkpt>
      <trkpt lat="45.72592" lon="6.7822">
        <ele>2226.8</ele>
        <time>2021-10-03T09:23:05Z</time>
      </trkpt>
      <trkpt lat="45.72587" lon="6.78225">
        <ele>2227.6</ele>
        <time>2021-10-03T09:23:11Z</time>
      </trkpt>
      <trkpt lat="45.72586" lon="6.78227">
        <ele>2229</ele>
        <time>2021-10-03T09:23:14Z</time>
      </trkpt>
      <trkpt lat="45.72583" lon="6.78229">
        <ele>2230</ele>
        <time>2021-10-03T09:23:17Z</time>
      </trkpt>
      <trkpt lat="45.72583" lon="6.78231">
        <ele>2229.8</ele>
        <time>2021-10-03T09:23:20Z</time>
      </trkpt>
      <trkpt lat="45.72582" lon="6.78231">
        <ele>2229.4</ele>
        <time>2021-10-03T09:23:22Z</time>
      </trkpt>
      <trkpt lat="45.72579" lon="6.78234">
        <ele>2230</ele>
        <time>2021-10-03T09:23:26Z</time>
      </trkpt>
      <trkpt lat="45.72578" lon="6.78235">
        <ele>2230.6</ele>
        <time>2021-10-03T09:23:27Z</time>
      </trkpt>
      <trkpt lat="45.72578" lon="6.78235">
        <ele>2231</ele>
        <time>2021-10-03T09:23:28Z</time>
      </trkpt>
      <trkpt lat="45.72576" lon="6.78235">
        <ele>2233.2</ele>
        <time>2021-10-03T09:23:30Z</time>
      </trkpt>
      <trkpt lat="45.72573" lon="6.78235">
        <ele>2234.4</ele>
        <time>2021-10-03T09:23:32Z</time>
      </trkpt>
      <trkpt lat="45.72571" lon="6.78244">
        <ele>2235.6</ele>
        <time>2021-10-03T09:23:50Z</time>
      </trkpt>
      <trkpt lat="45.72573" lon="6.78245">
        <ele>2236.8</ele>
        <time>2021-10-03T09:23:52Z</time>
      </trkpt>
      <trkpt lat="45.72574" lon="6.78247">
        <ele>2238</ele>
        <time>2021-10-03T09:23:54Z</time>
      </trkpt>
      <trkpt lat="45.72575" lon="6.78248">
        <ele>2239.2</ele>
        <time>2021-10-03T09:23:56Z</time>
      </trkpt>
      <trkpt lat="45.72577" lon="6.78249">
        <ele>2240.4</ele>
        <time>2021-10-03T09:23:58Z</time>
      </trkpt>
      <trkpt lat="45.72578" lon="6.7825">
        <ele>2241.6</ele>
        <time>2021-10-03T09:24:00Z</time>
      </trkpt>
      <trkpt lat="45.72581" lon="6.78253">
        <ele>2242.6</ele>
        <time>2021-10-03T09:24:05Z</time>
      </trkpt>
      <trkpt lat="45.72586" lon="6.78257">
        <ele>2243.6</ele>
        <time>2021-10-03T09:24:13Z</time>
      </trkpt>
      <trkpt lat="45.7259" lon="6.78259">
        <ele>2244.8</ele>
        <time>2021-10-03T09:24:19Z</time>
      </trkpt>
      <trkpt lat="45.7259" lon="6.7826">
        <ele>2245</ele>
        <time>2021-10-03T09:24:20Z</time>
      </trkpt>
      <trkpt lat="45.72588" lon="6.78266">
        <ele>2245.8</ele>
        <time>2021-10-03T09:24:29Z</time>
      </trkpt>
      <trkpt lat="45.72585" lon="6.78269">
        <ele>2247</ele>
        <time>2021-10-03T09:24:33Z</time>
      </trkpt>
      <trkpt lat="45.72583" lon="6.78271">
        <ele>2247.6</ele>
        <time>2021-10-03T09:24:36Z</time>
      </trkpt>
      <trkpt lat="45.72581" lon="6.78273">
        <ele>2248</ele>
        <time>2021-10-03T09:24:39Z</time>
      </trkpt>
      <trkpt lat="45.72577" lon="6.78276">
        <ele>2249.2</ele>
        <time>2021-10-03T09:24:43Z</time>
      </trkpt>
      <trkpt lat="45.72576" lon="6.78277">
        <ele>2249.6</ele>
        <time>2021-10-03T09:24:45Z</time>
      </trkpt>
      <trkpt lat="45.72575" lon="6.78278">
        <ele>2250.4</ele>
        <time>2021-10-03T09:24:47Z</time>
      </trkpt>
      <trkpt lat="45.72573" lon="6.7828">
        <ele>2251.6</ele>
        <time>2021-10-03T09:24:50Z</time>
      </trkpt>
      <trkpt lat="45.72573" lon="6.7828">
        <ele>2252</ele>
        <time>2021-10-03T09:24:51Z</time>
      </trkpt>
      <trkpt lat="45.72571" lon="6.7828">
        <ele>2253</ele>
        <time>2021-10-03T09:24:53Z</time>
      </trkpt>
      <trkpt lat="45.72571" lon="6.78281">
        <ele>2253.2</ele>
        <time>2021-10-03T09:24:54Z</time>
      </trkpt>
      <trkpt lat="45.72567" lon="6.78286">
        <ele>2254</ele>
        <time>2021-10-03T09:25:03Z</time>
      </trkpt>
      <trkpt lat="45.72566" lon="6.78289">
        <ele>2255.2</ele>
        <time>2021-10-03T09:25:09Z</time>
      </trkpt>
      <trkpt lat="45.72564" lon="6.78293">
        <ele>2256.6</ele>
        <time>2021-10-03T09:25:15Z</time>
      </trkpt>
      <trkpt lat="45.72563" lon="6.78293">
        <ele>2257.8</ele>
        <time>2021-10-03T09:25:18Z</time>
      </trkpt>
      <trkpt lat="45.72561" lon="6.78293">
        <ele>2258.8</ele>
        <time>2021-10-03T09:25:21Z</time>
      </trkpt>
      <trkpt lat="45.72558" lon="6.78295">
        <ele>2259.8</ele>
        <time>2021-10-03T09:25:27Z</time>
      </trkpt>
      <trkpt lat="45.72554" lon="6.78297">
        <ele>2261</ele>
        <time>2021-10-03T09:25:34Z</time>
      </trkpt>
      <trkpt lat="45.72552" lon="6.78299">
        <ele>2262</ele>
        <time>2021-10-03T09:25:38Z</time>
      </trkpt>
      <trkpt lat="45.72549" lon="6.78306">
        <ele>2263</ele>
        <time>2021-10-03T09:25:47Z</time>
      </trkpt>
      <trkpt lat="45.72548" lon="6.7831">
        <ele>2264.4</ele>
        <time>2021-10-03T09:25:52Z</time>
      </trkpt>
      <trkpt lat="45.72546" lon="6.78311">
        <ele>2265.6</ele>
        <time>2021-10-03T09:25:55Z</time>
      </trkpt>
      <trkpt lat="45.72544" lon="6.78313">
        <ele>2266.8</ele>
        <time>2021-10-03T09:25:59Z</time>
      </trkpt>
      <trkpt lat="45.72538" lon="6.78319">
        <ele>2267.8</ele>
        <time>2021-10-03T09:26:07Z</time>
      </trkpt>
      <trkpt lat="45.7253" lon="6.78321">
        <ele>2267.4</ele>
        <time>2021-10-03T09:26:16Z</time>
      </trkpt>
      <trkpt lat="45.72528" lon="6.78322">
        <ele>2268.2</ele>
        <time>2021-10-03T09:26:19Z</time>
      </trkpt>
      <trkpt lat="45.72527" lon="6.78323">
        <ele>2269.2</ele>
        <time>2021-10-03T09:26:21Z</time>
      </trkpt>
      <trkpt lat="45.72527" lon="6.78323">
        <ele>2269.8</ele>
        <time>2021-10-03T09:26:22Z</time>
      </trkpt>
      <trkpt lat="45.72526" lon="6.78323">
        <ele>2270.4</ele>
        <time>2021-10-03T09:26:24Z</time>
      </trkpt>
      <trkpt lat="45.72525" lon="6.78323">
        <ele>2271.6</ele>
        <time>2021-10-03T09:26:28Z</time>
      </trkpt>
      <trkpt lat="45.72518" lon="6.78328">
        <ele>2272.8</ele>
        <time>2021-10-03T09:26:38Z</time>
      </trkpt>
      <trkpt lat="45.72518" lon="6.7833">
        <ele>2273.8</ele>
        <time>2021-10-03T09:26:41Z</time>
      </trkpt>
      <trkpt lat="45.72517" lon="6.7833">
        <ele>2274.8</ele>
        <time>2021-10-03T09:26:45Z</time>
      </trkpt>
      <trkpt lat="45.72515" lon="6.78334">
        <ele>2276</ele>
        <time>2021-10-03T09:26:51Z</time>
      </trkpt>
      <trkpt lat="45.72512" lon="6.78335">
        <ele>2277.2</ele>
        <time>2021-10-03T09:26:59Z</time>
      </trkpt>
      <trkpt lat="45.72514" lon="6.78336">
        <ele>2278.4</ele>
        <time>2021-10-03T09:27:04Z</time>
      </trkpt>
      <trkpt lat="45.72519" lon="6.78343">
        <ele>2279.6</ele>
        <time>2021-10-03T09:27:15Z</time>
      </trkpt>
      <trkpt lat="45.72521" lon="6.78345">
        <ele>2280.8</ele>
        <time>2021-10-03T09:27:19Z</time>
      </trkpt>
      <trkpt lat="45.72526" lon="6.78348">
        <ele>2281.8</ele>
        <time>2021-10-03T09:27:25Z</time>
      </trkpt>
      <trkpt lat="45.7253" lon="6.7835">
        <ele>2283</ele>
        <time>2021-10-03T09:27:31Z</time>
      </trkpt>
      <trkpt lat="45.72531" lon="6.78351">
        <ele>2284</ele>
        <time>2021-10-03T09:27:34Z</time>
      </trkpt>
      <trkpt lat="45.72534" lon="6.7835">
        <ele>2285.2</ele>
        <time>2021-10-03T09:27:39Z</time>
      </trkpt>
      <trkpt lat="45.7254" lon="6.7836">
        <ele>2287.2</ele>
        <time>2021-10-03T09:27:53Z</time>
      </trkpt>
      <trkpt lat="45.7254" lon="6.78362">
        <ele>2288.2</ele>
        <time>2021-10-03T09:27:56Z</time>
      </trkpt>
      <trkpt lat="45.7254" lon="6.78365">
        <ele>2289.4</ele>
        <time>2021-10-03T09:28:01Z</time>
      </trkpt>
      <trkpt lat="45.7254" lon="6.78369">
        <ele>2290.6</ele>
        <time>2021-10-03T09:28:04Z</time>
      </trkpt>
      <trkpt lat="45.72538" lon="6.7837">
        <ele>2291.6</ele>
        <time>2021-10-03T09:28:07Z</time>
      </trkpt>
      <trkpt lat="45.72534" lon="6.7837">
        <ele>2293</ele>
        <time>2021-10-03T09:28:12Z</time>
      </trkpt>
      <trkpt lat="45.7253" lon="6.78372">
        <ele>2294</ele>
        <time>2021-10-03T09:28:19Z</time>
      </trkpt>
      <trkpt lat="45.72527" lon="6.78374">
        <ele>2295.2</ele>
        <time>2021-10-03T09:28:25Z</time>
      </trkpt>
      <trkpt lat="45.72527" lon="6.78378">
        <ele>2296.4</ele>
        <time>2021-10-03T09:28:29Z</time>
      </trkpt>
      <trkpt lat="45.72521" lon="6.78383">
        <ele>2297.8</ele>
        <time>2021-10-03T09:28:38Z</time>
      </trkpt>
      <trkpt lat="45.72518" lon="6.78384">
        <ele>2299</ele>
        <time>2021-10-03T09:28:42Z</time>
      </trkpt>
      <trkpt lat="45.72516" lon="6.78385">
        <ele>2300</ele>
        <time>2021-10-03T09:28:45Z</time>
      </trkpt>
      <trkpt lat="45.72515" lon="6.78386">
        <ele>2302</ele>
        <time>2021-10-03T09:28:47Z</time>
      </trkpt>
      <trkpt lat="45.72514" lon="6.78388">
        <ele>2303</ele>
        <time>2021-10-03T09:28:49Z</time>
      </trkpt>
      <trkpt lat="45.72511" lon="6.78394">
        <ele>2301.8</ele>
        <time>2021-10-03T09:28:57Z</time>
      </trkpt>
      <trkpt lat="45.72509" lon="6.78406">
        <ele>2303</ele>
        <time>2021-10-03T09:29:07Z</time>
      </trkpt>
      <trkpt lat="45.72507" lon="6.78409">
        <ele>2304.4</ele>
        <time>2021-10-03T09:29:11Z</time>
      </trkpt>
      <trkpt lat="45.72504" lon="6.78409">
        <ele>2305.2</ele>
        <time>2021-10-03T09:29:13Z</time>
      </trkpt>
      <trkpt lat="45.72503" lon="6.7841">
        <ele>2305.4</ele>
        <time>2021-10-03T09:29:14Z</time>
      </trkpt>
      <trkpt lat="45.72502" lon="6.7841">
        <ele>2305.8</ele>
        <time>2021-10-03T09:29:15Z</time>
      </trkpt>
      <trkpt lat="45.725" lon="6.78411">
        <ele>2306.4</ele>
        <time>2021-10-03T09:29:17Z</time>
      </trkpt>
      <trkpt lat="45.72499" lon="6.78412">
        <ele>2306.6</ele>
        <time>2021-10-03T09:29:18Z</time>
      </trkpt>
      <trkpt lat="45.72498" lon="6.78414">
        <ele>2307.2</ele>
        <time>2021-10-03T09:29:20Z</time>
      </trkpt>
      <trkpt lat="45.72497" lon="6.78415">
        <ele>2307.6</ele>
        <time>2021-10-03T09:29:21Z</time>
      </trkpt>
      <trkpt lat="45.72497" lon="6.78415">
        <ele>2307.8</ele>
        <time>2021-10-03T09:29:22Z</time>
      </trkpt>
      <trkpt lat="45.72489" lon="6.78428">
        <ele>2308</ele>
        <time>2021-10-03T09:29:32Z</time>
      </trkpt>
      <trkpt lat="45.72485" lon="6.78426">
        <ele>2307</ele>
        <time>2021-10-03T09:29:36Z</time>
      </trkpt>
      <trkpt lat="45.72483" lon="6.78426">
        <ele>2306.6</ele>
        <time>2021-10-03T09:29:38Z</time>
      </trkpt>
      <trkpt lat="45.72478" lon="6.78426">
        <ele>2306</ele>
        <time>2021-10-03T09:29:46Z</time>
      </trkpt>
      <trkpt lat="45.72474" lon="6.78429">
        <ele>2307.6</ele>
        <time>2021-10-03T09:29:54Z</time>
      </trkpt>
      <trkpt lat="45.72472" lon="6.78429">
        <ele>2308.4</ele>
        <time>2021-10-03T09:29:57Z</time>
      </trkpt>
      <trkpt lat="45.72472" lon="6.7843">
        <ele>2308.6</ele>
        <time>2021-10-03T09:29:58Z</time>
      </trkpt>
      <trkpt lat="45.7247" lon="6.78433">
        <ele>2309.2</ele>
        <time>2021-10-03T09:30:00Z</time>
      </trkpt>
      <trkpt lat="45.72466" lon="6.78435">
        <ele>2309.6</ele>
        <time>2021-10-03T09:30:03Z</time>
      </trkpt>
      <trkpt lat="45.72464" lon="6.78435">
        <ele>2309.8</ele>
        <time>2021-10-03T09:30:04Z</time>
      </trkpt>
      <trkpt lat="45.72461" lon="6.78436">
        <ele>2310.8</ele>
        <time>2021-10-03T09:30:07Z</time>
      </trkpt>
      <trkpt lat="45.72457" lon="6.7844">
        <ele>2309.6</ele>
        <time>2021-10-03T09:30:11Z</time>
      </trkpt>
      <trkpt lat="45.72456" lon="6.7844">
        <ele>2309.4</ele>
        <time>2021-10-03T09:30:12Z</time>
      </trkpt>
      <trkpt lat="45.72454" lon="6.7844">
        <ele>2310.8</ele>
        <time>2021-10-03T09:30:16Z</time>
      </trkpt>
      <trkpt lat="45.72452" lon="6.78439">
        <ele>2312</ele>
        <time>2021-10-03T09:30:18Z</time>
      </trkpt>
      <trkpt lat="45.72447" lon="6.78437">
        <ele>2313</ele>
        <time>2021-10-03T09:30:23Z</time>
      </trkpt>
      <trkpt lat="45.72444" lon="6.78439">
        <ele>2314.6</ele>
        <time>2021-10-03T09:30:26Z</time>
      </trkpt>
      <trkpt lat="45.72433" lon="6.78445">
        <ele>2313.6</ele>
        <time>2021-10-03T09:30:34Z</time>
      </trkpt>
      <trkpt lat="45.7243" lon="6.78447">
        <ele>2313</ele>
        <time>2021-10-03T09:30:36Z</time>
      </trkpt>
      <trkpt lat="45.72428" lon="6.7845">
        <ele>2312.4</ele>
        <time>2021-10-03T09:30:38Z</time>
      </trkpt>
      <trkpt lat="45.72424" lon="6.78451">
        <ele>2312.2</ele>
        <time>2021-10-03T09:30:41Z</time>
      </trkpt>
      <trkpt lat="45.72413" lon="6.78452">
        <ele>2312</ele>
        <time>2021-10-03T09:30:49Z</time>
      </trkpt>
      <trkpt lat="45.72412" lon="6.78448">
        <ele>2311.2</ele>
        <time>2021-10-03T09:30:52Z</time>
      </trkpt>
      <trkpt lat="45.7241" lon="6.78449">
        <ele>2311</ele>
        <time>2021-10-03T09:30:55Z</time>
      </trkpt>
      <trkpt lat="45.72409" lon="6.78448">
        <ele>2311.4</ele>
        <time>2021-10-03T09:30:58Z</time>
      </trkpt>
      <trkpt lat="45.72407" lon="6.78448">
        <ele>2311.6</ele>
        <time>2021-10-03T09:31:00Z</time>
      </trkpt>
      <trkpt lat="45.72404" lon="6.78446">
        <ele>2311.8</ele>
        <time>2021-10-03T09:31:02Z</time>
      </trkpt>
      <trkpt lat="45.72397" lon="6.78445">
        <ele>2311.4</ele>
        <time>2021-10-03T09:31:07Z</time>
      </trkpt>
      <trkpt lat="45.72395" lon="6.78445">
        <ele>2311.2</ele>
        <time>2021-10-03T09:31:10Z</time>
      </trkpt>
      <trkpt lat="45.72392" lon="6.78444">
        <ele>2311.6</ele>
        <time>2021-10-03T09:31:12Z</time>
      </trkpt>
      <trkpt lat="45.72391" lon="6.78443">
        <ele>2312.2</ele>
        <time>2021-10-03T09:31:14Z</time>
      </trkpt>
      <trkpt lat="45.72385" lon="6.7844">
        <ele>2312.4</ele>
        <time>2021-10-03T09:31:18Z</time>
      </trkpt>
      <trkpt lat="45.72382" lon="6.78438">
        <ele>2312.2</ele>
        <time>2021-10-03T09:31:20Z</time>
      </trkpt>
      <trkpt lat="45.72379" lon="6.78427">
        <ele>2310.8</ele>
        <time>2021-10-03T09:31:26Z</time>
      </trkpt>
      <trkpt lat="45.72379" lon="6.78424">
        <ele>2310.8</ele>
        <time>2021-10-03T09:31:29Z</time>
      </trkpt>
      <trkpt lat="45.72379" lon="6.7842">
        <ele>2312</ele>
        <time>2021-10-03T09:31:32Z</time>
      </trkpt>
      <trkpt lat="45.72379" lon="6.78419">
        <ele>2312.2</ele>
        <time>2021-10-03T09:31:33Z</time>
      </trkpt>
      <trkpt lat="45.72378" lon="6.78418">
        <ele>2313</ele>
        <time>2021-10-03T09:31:35Z</time>
      </trkpt>
      <trkpt lat="45.72379" lon="6.78417">
        <ele>2313.2</ele>
        <time>2021-10-03T09:31:36Z</time>
      </trkpt>
      <trkpt lat="45.72377" lon="6.78415">
        <ele>2314</ele>
        <time>2021-10-03T09:31:38Z</time>
      </trkpt>
      <trkpt lat="45.72377" lon="6.78415">
        <ele>2314.4</ele>
        <time>2021-10-03T09:31:39Z</time>
      </trkpt>
      <trkpt lat="45.72377" lon="6.78413">
        <ele>2315.4</ele>
        <time>2021-10-03T09:31:41Z</time>
      </trkpt>
      <trkpt lat="45.72377" lon="6.78409">
        <ele>2316.8</ele>
        <time>2021-10-03T09:31:43Z</time>
      </trkpt>
      <trkpt lat="45.72377" lon="6.78407">
        <ele>2317.4</ele>
        <time>2021-10-03T09:31:44Z</time>
      </trkpt>
      <trkpt lat="45.72376" lon="6.78405">
        <ele>2318</ele>
        <time>2021-10-03T09:31:46Z</time>
      </trkpt>
      <trkpt lat="45.72374" lon="6.78403">
        <ele>2318.8</ele>
        <time>2021-10-03T09:31:49Z</time>
      </trkpt>
      <trkpt lat="45.72374" lon="6.78402">
        <ele>2319.2</ele>
        <time>2021-10-03T09:31:50Z</time>
      </trkpt>
      <trkpt lat="45.72373" lon="6.78402">
        <ele>2320</ele>
        <time>2021-10-03T09:31:53Z</time>
      </trkpt>
      <trkpt lat="45.72372" lon="6.78402">
        <ele>2320.4</ele>
        <time>2021-10-03T09:31:54Z</time>
      </trkpt>
      <trkpt lat="45.72371" lon="6.78401">
        <ele>2321.4</ele>
        <time>2021-10-03T09:31:57Z</time>
      </trkpt>
      <trkpt lat="45.72368" lon="6.784">
        <ele>2322.6</ele>
        <time>2021-10-03T09:32:02Z</time>
      </trkpt>
      <trkpt lat="45.72366" lon="6.78398">
        <ele>2324</ele>
        <time>2021-10-03T09:32:06Z</time>
      </trkpt>
      <trkpt lat="45.72363" lon="6.78396">
        <ele>2325</ele>
        <time>2021-10-03T09:32:10Z</time>
      </trkpt>
      <trkpt lat="45.72361" lon="6.78394">
        <ele>2326</ele>
        <time>2021-10-03T09:32:14Z</time>
      </trkpt>
      <trkpt lat="45.72357" lon="6.78392">
        <ele>2327.2</ele>
        <time>2021-10-03T09:32:25Z</time>
      </trkpt>
      <trkpt lat="45.72355" lon="6.7839">
        <ele>2326</ele>
        <time>2021-10-03T09:32:27Z</time>
      </trkpt>
      <trkpt lat="45.7235" lon="6.78386">
        <ele>2326.6</ele>
        <time>2021-10-03T09:32:31Z</time>
      </trkpt>
      <trkpt lat="45.72348" lon="6.78384">
        <ele>2327.2</ele>
        <time>2021-10-03T09:32:33Z</time>
      </trkpt>
      <trkpt lat="45.72347" lon="6.78383">
        <ele>2327.4</ele>
        <time>2021-10-03T09:32:34Z</time>
      </trkpt>
      <trkpt lat="45.72345" lon="6.78382">
        <ele>2328.2</ele>
        <time>2021-10-03T09:32:36Z</time>
      </trkpt>
      <trkpt lat="45.72344" lon="6.78381">
        <ele>2329.4</ele>
        <time>2021-10-03T09:32:39Z</time>
      </trkpt>
      <trkpt lat="45.72344" lon="6.7838">
        <ele>2330.4</ele>
        <time>2021-10-03T09:32:41Z</time>
      </trkpt>
      <trkpt lat="45.72344" lon="6.78379">
        <ele>2331.8</ele>
        <time>2021-10-03T09:32:43Z</time>
      </trkpt>
      <trkpt lat="45.72343" lon="6.78379">
        <ele>2333.2</ele>
        <time>2021-10-03T09:32:46Z</time>
      </trkpt>
      <trkpt lat="45.72341" lon="6.78378">
        <ele>2334.2</ele>
        <time>2021-10-03T09:32:49Z</time>
      </trkpt>
      <trkpt lat="45.7234" lon="6.78378">
        <ele>2335.4</ele>
        <time>2021-10-03T09:32:53Z</time>
      </trkpt>
      <trkpt lat="45.72338" lon="6.78376">
        <ele>2336.4</ele>
        <time>2021-10-03T09:33:03Z</time>
      </trkpt>
      <trkpt lat="45.72335" lon="6.78374">
        <ele>2337.6</ele>
        <time>2021-10-03T09:33:07Z</time>
      </trkpt>
      <trkpt lat="45.72326" lon="6.78371">
        <ele>2338.8</ele>
        <time>2021-10-03T09:33:18Z</time>
      </trkpt>
      <trkpt lat="45.72326" lon="6.78371">
        <ele>2339.8</ele>
        <time>2021-10-03T09:33:21Z</time>
      </trkpt>
      <trkpt lat="45.72327" lon="6.78371">
        <ele>2341</ele>
        <time>2021-10-03T09:33:24Z</time>
      </trkpt>
      <trkpt lat="45.72327" lon="6.78371">
        <ele>2342</ele>
        <time>2021-10-03T09:33:27Z</time>
      </trkpt>
      <trkpt lat="45.72315" lon="6.78367">
        <ele>2343.2</ele>
        <time>2021-10-03T09:33:40Z</time>
      </trkpt>
      <trkpt lat="45.72304" lon="6.78365">
        <ele>2344.2</ele>
        <time>2021-10-03T09:33:54Z</time>
      </trkpt>
      <trkpt lat="45.72298" lon="6.78361">
        <ele>2345.4</ele>
        <time>2021-10-03T09:34:03Z</time>
      </trkpt>
      <trkpt lat="45.72293" lon="6.78357">
        <ele>2346.4</ele>
        <time>2021-10-03T09:34:11Z</time>
      </trkpt>
      <trkpt lat="45.7229" lon="6.78356">
        <ele>2347.8</ele>
        <time>2021-10-03T09:34:16Z</time>
      </trkpt>
      <trkpt lat="45.7229" lon="6.78358">
        <ele>2348.8</ele>
        <time>2021-10-03T09:34:20Z</time>
      </trkpt>
      <trkpt lat="45.72291" lon="6.78361">
        <ele>2350</ele>
        <time>2021-10-03T09:34:23Z</time>
      </trkpt>
      <trkpt lat="45.72292" lon="6.78367">
        <ele>2351</ele>
        <time>2021-10-03T09:34:28Z</time>
      </trkpt>
      <trkpt lat="45.72295" lon="6.78372">
        <ele>2352.4</ele>
        <time>2021-10-03T09:34:35Z</time>
      </trkpt>
      <trkpt lat="45.72296" lon="6.78374">
        <ele>2353.8</ele>
        <time>2021-10-03T09:34:37Z</time>
      </trkpt>
      <trkpt lat="45.72298" lon="6.78375">
        <ele>2355.2</ele>
        <time>2021-10-03T09:34:40Z</time>
      </trkpt>
      <trkpt lat="45.723" lon="6.78376">
        <ele>2356.4</ele>
        <time>2021-10-03T09:34:43Z</time>
      </trkpt>
      <trkpt lat="45.72302" lon="6.78378">
        <ele>2357.8</ele>
        <time>2021-10-03T09:34:46Z</time>
      </trkpt>
      <trkpt lat="45.72304" lon="6.78382">
        <ele>2356.6</ele>
        <time>2021-10-03T09:34:51Z</time>
      </trkpt>
      <trkpt lat="45.72305" lon="6.7839">
        <ele>2357.6</ele>
        <time>2021-10-03T09:35:02Z</time>
      </trkpt>
      <trkpt lat="45.72305" lon="6.78392">
        <ele>2358.8</ele>
        <time>2021-10-03T09:35:07Z</time>
      </trkpt>
      <trkpt lat="45.72307" lon="6.78398">
        <ele>2360</ele>
        <time>2021-10-03T09:35:13Z</time>
      </trkpt>
      <trkpt lat="45.72308" lon="6.78404">
        <ele>2361</ele>
        <time>2021-10-03T09:35:18Z</time>
      </trkpt>
      <trkpt lat="45.7231" lon="6.7841">
        <ele>2362</ele>
        <time>2021-10-03T09:35:24Z</time>
      </trkpt>
      <trkpt lat="45.72308" lon="6.7841">
        <ele>2363.2</ele>
        <time>2021-10-03T09:35:28Z</time>
      </trkpt>
      <trkpt lat="45.72304" lon="6.78407">
        <ele>2364.2</ele>
        <time>2021-10-03T09:35:33Z</time>
      </trkpt>
      <trkpt lat="45.72301" lon="6.78407">
        <ele>2365.6</ele>
        <time>2021-10-03T09:35:38Z</time>
      </trkpt>
      <trkpt lat="45.723" lon="6.78407">
        <ele>2366.6</ele>
        <time>2021-10-03T09:35:41Z</time>
      </trkpt>
      <trkpt lat="45.72296" lon="6.78406">
        <ele>2367.6</ele>
        <time>2021-10-03T09:35:48Z</time>
      </trkpt>
      <trkpt lat="45.72292" lon="6.78404">
        <ele>2368.8</ele>
        <time>2021-10-03T09:35:52Z</time>
      </trkpt>
      <trkpt lat="45.72288" lon="6.78402">
        <ele>2370</ele>
        <time>2021-10-03T09:35:56Z</time>
      </trkpt>
      <trkpt lat="45.72281" lon="6.78399">
        <ele>2370.6</ele>
        <time>2021-10-03T09:35:59Z</time>
      </trkpt>
      <trkpt lat="45.7228" lon="6.78398">
        <ele>2371.2</ele>
        <time>2021-10-03T09:36:03Z</time>
      </trkpt>
      <trkpt lat="45.72273" lon="6.78395">
        <ele>2372.2</ele>
        <time>2021-10-03T09:36:29Z</time>
      </trkpt>
      <trkpt lat="45.72272" lon="6.7839">
        <ele>2373.4</ele>
        <time>2021-10-03T09:36:36Z</time>
      </trkpt>
      <trkpt lat="45.72269" lon="6.78386">
        <ele>2374.4</ele>
        <time>2021-10-03T09:36:43Z</time>
      </trkpt>
      <trkpt lat="45.72266" lon="6.78381">
        <ele>2375.6</ele>
        <time>2021-10-03T09:36:47Z</time>
      </trkpt>
      <trkpt lat="45.72265" lon="6.7838">
        <ele>2376</ele>
        <time>2021-10-03T09:36:48Z</time>
      </trkpt>
      <trkpt lat="45.72265" lon="6.7838">
        <ele>2377</ele>
        <time>2021-10-03T09:36:50Z</time>
      </trkpt>
      <trkpt lat="45.72263" lon="6.78379">
        <ele>2378.4</ele>
        <time>2021-10-03T09:36:53Z</time>
      </trkpt>
      <trkpt lat="45.72263" lon="6.78378">
        <ele>2379.4</ele>
        <time>2021-10-03T09:36:55Z</time>
      </trkpt>
      <trkpt lat="45.7226" lon="6.78379">
        <ele>2380.4</ele>
        <time>2021-10-03T09:37:00Z</time>
      </trkpt>
      <trkpt lat="45.72261" lon="6.78381">
        <ele>2380.8</ele>
        <time>2021-10-03T09:37:02Z</time>
      </trkpt>
      <trkpt lat="45.72262" lon="6.78383">
        <ele>2381</ele>
        <time>2021-10-03T09:37:04Z</time>
      </trkpt>
      <trkpt lat="45.72263" lon="6.78385">
        <ele>2381.6</ele>
        <time>2021-10-03T09:37:06Z</time>
      </trkpt>
      <trkpt lat="45.72265" lon="6.78391">
        <ele>2383</ele>
        <time>2021-10-03T09:37:12Z</time>
      </trkpt>
      <trkpt lat="45.72265" lon="6.78392">
        <ele>2384.8</ele>
        <time>2021-10-03T09:37:14Z</time>
      </trkpt>
      <trkpt lat="45.72265" lon="6.78394">
        <ele>2385.8</ele>
        <time>2021-10-03T09:37:15Z</time>
      </trkpt>
      <trkpt lat="45.72265" lon="6.78395">
        <ele>2385.8</ele>
        <time>2021-10-03T09:37:16Z</time>
      </trkpt>
      <trkpt lat="45.72265" lon="6.78397">
        <ele>2386.2</ele>
        <time>2021-10-03T09:37:19Z</time>
      </trkpt>
      <trkpt lat="45.72262" lon="6.78391">
        <ele>2387</ele>
        <time>2021-10-03T09:37:28Z</time>
      </trkpt>
      <trkpt lat="45.7226" lon="6.78388">
        <ele>2388.4</ele>
        <time>2021-10-03T09:37:31Z</time>
      </trkpt>
      <trkpt lat="45.72259" lon="6.78386">
        <ele>2389.8</ele>
        <time>2021-10-03T09:37:34Z</time>
      </trkpt>
      <trkpt lat="45.72254" lon="6.78381">
        <ele>2390.8</ele>
        <time>2021-10-03T09:37:42Z</time>
      </trkpt>
      <trkpt lat="45.72242" lon="6.78366">
        <ele>2392</ele>
        <time>2021-10-03T09:37:58Z</time>
      </trkpt>
      <trkpt lat="45.72243" lon="6.78367">
        <ele>2392.2</ele>
        <time>2021-10-03T09:37:59Z</time>
      </trkpt>
      <trkpt lat="45.72244" lon="6.7837">
        <ele>2393.2</ele>
        <time>2021-10-03T09:38:04Z</time>
      </trkpt>
      <trkpt lat="45.72245" lon="6.78372">
        <ele>2393.4</ele>
        <time>2021-10-03T09:38:07Z</time>
      </trkpt>
      <trkpt lat="45.72246" lon="6.78374">
        <ele>2394.4</ele>
        <time>2021-10-03T09:38:11Z</time>
      </trkpt>
      <trkpt lat="45.72244" lon="6.78376">
        <ele>2396</ele>
        <time>2021-10-03T09:38:21Z</time>
      </trkpt>
      <trkpt lat="45.72243" lon="6.78376">
        <ele>2397.2</ele>
        <time>2021-10-03T09:38:24Z</time>
      </trkpt>
      <trkpt lat="45.72234" lon="6.78374">
        <ele>2398.2</ele>
        <time>2021-10-03T09:38:42Z</time>
      </trkpt>
      <trkpt lat="45.72231" lon="6.78374">
        <ele>2399.6</ele>
        <time>2021-10-03T09:38:55Z</time>
      </trkpt>
      <trkpt lat="45.72231" lon="6.78374">
        <ele>2400.6</ele>
        <time>2021-10-03T09:38:59Z</time>
      </trkpt>
      <trkpt lat="45.72231" lon="6.78376">
        <ele>2401.8</ele>
        <time>2021-10-03T09:39:02Z</time>
      </trkpt>
      <trkpt lat="45.72231" lon="6.78378">
        <ele>2403</ele>
        <time>2021-10-03T09:39:06Z</time>
      </trkpt>
      <trkpt lat="45.72232" lon="6.7838">
        <ele>2404.2</ele>
        <time>2021-10-03T09:39:10Z</time>
      </trkpt>
      <trkpt lat="45.72232" lon="6.78385">
        <ele>2405.4</ele>
        <time>2021-10-03T09:39:15Z</time>
      </trkpt>
      <trkpt lat="45.72231" lon="6.78391">
        <ele>2406.4</ele>
        <time>2021-10-03T09:39:22Z</time>
      </trkpt>
      <trkpt lat="45.72231" lon="6.78394">
        <ele>2407.4</ele>
        <time>2021-10-03T09:39:26Z</time>
      </trkpt>
      <trkpt lat="45.72232" lon="6.78402">
        <ele>2408.6</ele>
        <time>2021-10-03T09:39:34Z</time>
      </trkpt>
      <trkpt lat="45.72232" lon="6.78404">
        <ele>2409.6</ele>
        <time>2021-10-03T09:39:37Z</time>
      </trkpt>
      <trkpt lat="45.7223" lon="6.78407">
        <ele>2410.8</ele>
        <time>2021-10-03T09:39:41Z</time>
      </trkpt>
      <trkpt lat="45.7223" lon="6.78413">
        <ele>2412</ele>
        <time>2021-10-03T09:39:48Z</time>
      </trkpt>
      <trkpt lat="45.7223" lon="6.78418">
        <ele>2413.2</ele>
        <time>2021-10-03T09:39:54Z</time>
      </trkpt>
      <trkpt lat="45.72229" lon="6.78419">
        <ele>2414.2</ele>
        <time>2021-10-03T09:39:58Z</time>
      </trkpt>
      <trkpt lat="45.72227" lon="6.78419">
        <ele>2415.2</ele>
        <time>2021-10-03T09:40:06Z</time>
      </trkpt>
      <trkpt lat="45.72227" lon="6.78423">
        <ele>2416.6</ele>
        <time>2021-10-03T09:40:11Z</time>
      </trkpt>
      <trkpt lat="45.72229" lon="6.78428">
        <ele>2417.6</ele>
        <time>2021-10-03T09:40:15Z</time>
      </trkpt>
      <trkpt lat="45.7223" lon="6.7843">
        <ele>2418.8</ele>
        <time>2021-10-03T09:40:18Z</time>
      </trkpt>
      <trkpt lat="45.7223" lon="6.78434">
        <ele>2419.8</ele>
        <time>2021-10-03T09:40:21Z</time>
      </trkpt>
      <trkpt lat="45.72229" lon="6.78437">
        <ele>2421</ele>
        <time>2021-10-03T09:40:25Z</time>
      </trkpt>
      <trkpt lat="45.72229" lon="6.78442">
        <ele>2422.4</ele>
        <time>2021-10-03T09:40:29Z</time>
      </trkpt>
      <trkpt lat="45.72228" lon="6.78463">
        <ele>2423.4</ele>
        <time>2021-10-03T09:40:52Z</time>
      </trkpt>
      <trkpt lat="45.7223" lon="6.78466">
        <ele>2423.6</ele>
        <time>2021-10-03T09:40:56Z</time>
      </trkpt>
      <trkpt lat="45.72234" lon="6.78471">
        <ele>2424.4</ele>
        <time>2021-10-03T09:41:04Z</time>
      </trkpt>
      <trkpt lat="45.72234" lon="6.78477">
        <ele>2425.4</ele>
        <time>2021-10-03T09:41:13Z</time>
      </trkpt>
      <trkpt lat="45.72234" lon="6.7848">
        <ele>2426.4</ele>
        <time>2021-10-03T09:41:21Z</time>
      </trkpt>
      <trkpt lat="45.72232" lon="6.78481">
        <ele>2427.4</ele>
        <time>2021-10-03T09:41:25Z</time>
      </trkpt>
      <trkpt lat="45.7223" lon="6.78481">
        <ele>2428.8</ele>
        <time>2021-10-03T09:41:28Z</time>
      </trkpt>
      <trkpt lat="45.72229" lon="6.78481">
        <ele>2430</ele>
        <time>2021-10-03T09:41:31Z</time>
      </trkpt>
      <trkpt lat="45.72226" lon="6.78481">
        <ele>2431</ele>
        <time>2021-10-03T09:41:34Z</time>
      </trkpt>
      <trkpt lat="45.72225" lon="6.7848">
        <ele>2432</ele>
        <time>2021-10-03T09:41:37Z</time>
      </trkpt>
      <trkpt lat="45.72223" lon="6.78479">
        <ele>2433.2</ele>
        <time>2021-10-03T09:41:40Z</time>
      </trkpt>
      <trkpt lat="45.72221" lon="6.78478">
        <ele>2434.2</ele>
        <time>2021-10-03T09:41:44Z</time>
      </trkpt>
      <trkpt lat="45.72219" lon="6.7848">
        <ele>2435.6</ele>
        <time>2021-10-03T09:41:50Z</time>
      </trkpt>
      <trkpt lat="45.72219" lon="6.78482">
        <ele>2437</ele>
        <time>2021-10-03T09:41:55Z</time>
      </trkpt>
      <trkpt lat="45.72219" lon="6.78485">
        <ele>2438</ele>
        <time>2021-10-03T09:42:09Z</time>
      </trkpt>
      <trkpt lat="45.7222" lon="6.7849">
        <ele>2439.2</ele>
        <time>2021-10-03T09:42:18Z</time>
      </trkpt>
      <trkpt lat="45.72221" lon="6.78491">
        <ele>2440.4</ele>
        <time>2021-10-03T09:42:21Z</time>
      </trkpt>
      <trkpt lat="45.72222" lon="6.78492">
        <ele>2440.8</ele>
        <time>2021-10-03T09:42:22Z</time>
      </trkpt>
      <trkpt lat="45.72222" lon="6.78494">
        <ele>2441.4</ele>
        <time>2021-10-03T09:42:25Z</time>
      </trkpt>
      <trkpt lat="45.7222" lon="6.78498">
        <ele>2442.6</ele>
        <time>2021-10-03T09:42:33Z</time>
      </trkpt>
      <trkpt lat="45.72216" lon="6.785">
        <ele>2443.6</ele>
        <time>2021-10-03T09:42:41Z</time>
      </trkpt>
      <trkpt lat="45.72213" lon="6.78501">
        <ele>2444.6</ele>
        <time>2021-10-03T09:42:51Z</time>
      </trkpt>
      <trkpt lat="45.72208" lon="6.78501">
        <ele>2445.6</ele>
        <time>2021-10-03T09:42:58Z</time>
      </trkpt>
      <trkpt lat="45.722" lon="6.78498">
        <ele>2446.8</ele>
        <time>2021-10-03T09:43:07Z</time>
      </trkpt>
      <trkpt lat="45.72198" lon="6.78499">
        <ele>2447.8</ele>
        <time>2021-10-03T09:43:12Z</time>
      </trkpt>
      <trkpt lat="45.72197" lon="6.78501">
        <ele>2449</ele>
        <time>2021-10-03T09:43:18Z</time>
      </trkpt>
      <trkpt lat="45.72199" lon="6.78505">
        <ele>2450</ele>
        <time>2021-10-03T09:43:22Z</time>
      </trkpt>
      <trkpt lat="45.722" lon="6.78507">
        <ele>2451</ele>
        <time>2021-10-03T09:43:25Z</time>
      </trkpt>
      <trkpt lat="45.72201" lon="6.78511">
        <ele>2452.2</ele>
        <time>2021-10-03T09:43:30Z</time>
      </trkpt>
      <trkpt lat="45.72202" lon="6.78517">
        <ele>2453.2</ele>
        <time>2021-10-03T09:43:35Z</time>
      </trkpt>
      <trkpt lat="45.722" lon="6.78521">
        <ele>2454.4</ele>
        <time>2021-10-03T09:43:39Z</time>
      </trkpt>
      <trkpt lat="45.72201" lon="6.78524">
        <ele>2455.4</ele>
        <time>2021-10-03T09:43:44Z</time>
      </trkpt>
      <trkpt lat="45.72202" lon="6.7853">
        <ele>2456.6</ele>
        <time>2021-10-03T09:43:49Z</time>
      </trkpt>
      <trkpt lat="45.722" lon="6.78534">
        <ele>2457.6</ele>
        <time>2021-10-03T09:43:53Z</time>
      </trkpt>
      <trkpt lat="45.72197" lon="6.78543">
        <ele>2458.8</ele>
        <time>2021-10-03T09:44:02Z</time>
      </trkpt>
      <trkpt lat="45.72198" lon="6.78546">
        <ele>2459.4</ele>
        <time>2021-10-03T09:44:05Z</time>
      </trkpt>
      <trkpt lat="45.72198" lon="6.78549">
        <ele>2459.8</ele>
        <time>2021-10-03T09:44:07Z</time>
      </trkpt>
      <trkpt lat="45.72199" lon="6.78552">
        <ele>2461</ele>
        <time>2021-10-03T09:44:11Z</time>
      </trkpt>
      <trkpt lat="45.72197" lon="6.78557">
        <ele>2462</ele>
        <time>2021-10-03T09:44:17Z</time>
      </trkpt>
      <trkpt lat="45.72198" lon="6.78568">
        <ele>2463</ele>
        <time>2021-10-03T09:44:28Z</time>
      </trkpt>
      <trkpt lat="45.72202" lon="6.78579">
        <ele>2464.2</ele>
        <time>2021-10-03T09:44:35Z</time>
      </trkpt>
      <trkpt lat="45.72205" lon="6.78587">
        <ele>2464.4</ele>
        <time>2021-10-03T09:44:41Z</time>
      </trkpt>
      <trkpt lat="45.72204" lon="6.78589">
        <ele>2464.6</ele>
        <time>2021-10-03T09:44:43Z</time>
      </trkpt>
      <trkpt lat="45.72204" lon="6.78593">
        <ele>2464.8</ele>
        <time>2021-10-03T09:44:46Z</time>
      </trkpt>
      <trkpt lat="45.72201" lon="6.78611">
        <ele>2465.2</ele>
        <time>2021-10-03T09:45:00Z</time>
      </trkpt>
      <trkpt lat="45.722" lon="6.78614">
        <ele>2465.4</ele>
        <time>2021-10-03T09:45:02Z</time>
      </trkpt>
      <trkpt lat="45.72198" lon="6.78615">
        <ele>2466.2</ele>
        <time>2021-10-03T09:45:06Z</time>
      </trkpt>
      <trkpt lat="45.72198" lon="6.78622">
        <ele>2467.4</ele>
        <time>2021-10-03T09:45:13Z</time>
      </trkpt>
      <trkpt lat="45.72198" lon="6.78623">
        <ele>2467.8</ele>
        <time>2021-10-03T09:45:15Z</time>
      </trkpt>
      <trkpt lat="45.72199" lon="6.78627">
        <ele>2468.4</ele>
        <time>2021-10-03T09:45:22Z</time>
      </trkpt>
      <trkpt lat="45.72199" lon="6.78632">
        <ele>2469.4</ele>
        <time>2021-10-03T09:45:30Z</time>
      </trkpt>
      <trkpt lat="45.722" lon="6.7864">
        <ele>2470.6</ele>
        <time>2021-10-03T09:45:38Z</time>
      </trkpt>
      <trkpt lat="45.72201" lon="6.78644">
        <ele>2471.8</ele>
        <time>2021-10-03T09:45:43Z</time>
      </trkpt>
      <trkpt lat="45.722" lon="6.78648">
        <ele>2472.8</ele>
        <time>2021-10-03T09:45:47Z</time>
      </trkpt>
      <trkpt lat="45.722" lon="6.7865">
        <ele>2473.8</ele>
        <time>2021-10-03T09:45:51Z</time>
      </trkpt>
      <trkpt lat="45.72199" lon="6.78658">
        <ele>2475</ele>
        <time>2021-10-03T09:46:04Z</time>
      </trkpt>
      <trkpt lat="45.72197" lon="6.7866">
        <ele>2476.4</ele>
        <time>2021-10-03T09:46:08Z</time>
      </trkpt>
      <trkpt lat="45.72197" lon="6.78662">
        <ele>2477.6</ele>
        <time>2021-10-03T09:46:12Z</time>
      </trkpt>
      <trkpt lat="45.72197" lon="6.78665">
        <ele>2478.6</ele>
        <time>2021-10-03T09:46:16Z</time>
      </trkpt>
      <trkpt lat="45.72197" lon="6.78669">
        <ele>2480</ele>
        <time>2021-10-03T09:46:22Z</time>
      </trkpt>
      <trkpt lat="45.72197" lon="6.78671">
        <ele>2481</ele>
        <time>2021-10-03T09:46:26Z</time>
      </trkpt>
      <trkpt lat="45.72198" lon="6.78673">
        <ele>2482.2</ele>
        <time>2021-10-03T09:46:30Z</time>
      </trkpt>
      <trkpt lat="45.72199" lon="6.78675">
        <ele>2483.2</ele>
        <time>2021-10-03T09:46:33Z</time>
      </trkpt>
      <trkpt lat="45.72199" lon="6.78678">
        <ele>2484.2</ele>
        <time>2021-10-03T09:46:37Z</time>
      </trkpt>
      <trkpt lat="45.722" lon="6.7868">
        <ele>2485.6</ele>
        <time>2021-10-03T09:46:40Z</time>
      </trkpt>
      <trkpt lat="45.722" lon="6.78684">
        <ele>2486.6</ele>
        <time>2021-10-03T09:46:43Z</time>
      </trkpt>
      <trkpt lat="45.72202" lon="6.78686">
        <ele>2488</ele>
        <time>2021-10-03T09:46:46Z</time>
      </trkpt>
      <trkpt lat="45.72204" lon="6.78689">
        <ele>2489</ele>
        <time>2021-10-03T09:46:50Z</time>
      </trkpt>
      <trkpt lat="45.72205" lon="6.78698">
        <ele>2490</ele>
        <time>2021-10-03T09:47:01Z</time>
      </trkpt>
      <trkpt lat="45.72205" lon="6.78701">
        <ele>2491.2</ele>
        <time>2021-10-03T09:47:06Z</time>
      </trkpt>
      <trkpt lat="45.72207" lon="6.78704">
        <ele>2492.6</ele>
        <time>2021-10-03T09:47:10Z</time>
      </trkpt>
      <trkpt lat="45.72208" lon="6.78712">
        <ele>2493.6</ele>
        <time>2021-10-03T09:47:21Z</time>
      </trkpt>
      <trkpt lat="45.72206" lon="6.78711">
        <ele>2495</ele>
        <time>2021-10-03T09:47:24Z</time>
      </trkpt>
      <trkpt lat="45.72207" lon="6.78712">
        <ele>2496.2</ele>
        <time>2021-10-03T09:47:29Z</time>
      </trkpt>
      <trkpt lat="45.72207" lon="6.78717">
        <ele>2497.4</ele>
        <time>2021-10-03T09:47:35Z</time>
      </trkpt>
      <trkpt lat="45.72201" lon="6.78719">
        <ele>2498.4</ele>
        <time>2021-10-03T09:47:48Z</time>
      </trkpt>
      <trkpt lat="45.72203" lon="6.78723">
        <ele>2499.8</ele>
        <time>2021-10-03T09:47:54Z</time>
      </trkpt>
      <trkpt lat="45.72203" lon="6.78724">
        <ele>2500.8</ele>
        <time>2021-10-03T09:47:56Z</time>
      </trkpt>
      <trkpt lat="45.72204" lon="6.78726">
        <ele>2501.8</ele>
        <time>2021-10-03T09:47:59Z</time>
      </trkpt>
      <trkpt lat="45.722" lon="6.78735">
        <ele>2503</ele>
        <time>2021-10-03T09:48:15Z</time>
      </trkpt>
      <trkpt lat="45.72199" lon="6.78735">
        <ele>2504.4</ele>
        <time>2021-10-03T09:48:17Z</time>
      </trkpt>
      <trkpt lat="45.72198" lon="6.78735">
        <ele>2505.4</ele>
        <time>2021-10-03T09:48:19Z</time>
      </trkpt>
      <trkpt lat="45.72196" lon="6.78736">
        <ele>2506.6</ele>
        <time>2021-10-03T09:48:22Z</time>
      </trkpt>
      <trkpt lat="45.72197" lon="6.78739">
        <ele>2508</ele>
        <time>2021-10-03T09:48:27Z</time>
      </trkpt>
      <trkpt lat="45.72197" lon="6.78742">
        <ele>2509</ele>
        <time>2021-10-03T09:48:32Z</time>
      </trkpt>
      <trkpt lat="45.72197" lon="6.78744">
        <ele>2510.2</ele>
        <time>2021-10-03T09:48:36Z</time>
      </trkpt>
      <trkpt lat="45.72197" lon="6.78745">
        <ele>2511.2</ele>
        <time>2021-10-03T09:48:38Z</time>
      </trkpt>
      <trkpt lat="45.722" lon="6.78749">
        <ele>2512.2</ele>
        <time>2021-10-03T09:48:43Z</time>
      </trkpt>
      <trkpt lat="45.72205" lon="6.78751">
        <ele>2512.6</ele>
        <time>2021-10-03T09:48:51Z</time>
      </trkpt>
      <trkpt lat="45.72208" lon="6.7875">
        <ele>2513.2</ele>
        <time>2021-10-03T09:48:56Z</time>
      </trkpt>
      <trkpt lat="45.7221" lon="6.78751">
        <ele>2513.6</ele>
        <time>2021-10-03T09:48:59Z</time>
      </trkpt>
      <trkpt lat="45.72213" lon="6.78747">
        <ele>2514.4</ele>
        <time>2021-10-03T09:49:06Z</time>
      </trkpt>
      <trkpt lat="45.72215" lon="6.78744">
        <ele>2515.2</ele>
        <time>2021-10-03T09:49:10Z</time>
      </trkpt>
      <trkpt lat="45.72217" lon="6.78748">
        <ele>2515.4</ele>
        <time>2021-10-03T09:49:13Z</time>
      </trkpt>
      <trkpt lat="45.72218" lon="6.78752">
        <ele>2515.6</ele>
        <time>2021-10-03T09:49:16Z</time>
      </trkpt>
      <trkpt lat="45.72218" lon="6.78757">
        <ele>2516.4</ele>
        <time>2021-10-03T09:49:20Z</time>
      </trkpt>
      <trkpt lat="45.72217" lon="6.78759">
        <ele>2517.4</ele>
        <time>2021-10-03T09:49:23Z</time>
      </trkpt>
      <trkpt lat="45.72217" lon="6.7876">
        <ele>2517.6</ele>
        <time>2021-10-03T09:49:24Z</time>
      </trkpt>
      <trkpt lat="45.72217" lon="6.78761">
        <ele>2517.8</ele>
        <time>2021-10-03T09:49:25Z</time>
      </trkpt>
      <trkpt lat="45.72216" lon="6.78763">
        <ele>2518.8</ele>
        <time>2021-10-03T09:49:28Z</time>
      </trkpt>
      <trkpt lat="45.72217" lon="6.78766">
        <ele>2519.8</ele>
        <time>2021-10-03T09:49:31Z</time>
      </trkpt>
      <trkpt lat="45.72216" lon="6.78767">
        <ele>2520.8</ele>
        <time>2021-10-03T09:49:33Z</time>
      </trkpt>
      <trkpt lat="45.72216" lon="6.78769">
        <ele>2521.8</ele>
        <time>2021-10-03T09:49:36Z</time>
      </trkpt>
      <trkpt lat="45.72203" lon="6.78781">
        <ele>2523.4</ele>
        <time>2021-10-03T09:50:00Z</time>
      </trkpt>
      <trkpt lat="45.72202" lon="6.78782">
        <ele>2524.8</ele>
        <time>2021-10-03T09:50:02Z</time>
      </trkpt>
      <trkpt lat="45.72201" lon="6.78782">
        <ele>2526</ele>
        <time>2021-10-03T09:50:04Z</time>
      </trkpt>
      <trkpt lat="45.72199" lon="6.78787">
        <ele>2527.2</ele>
        <time>2021-10-03T09:50:11Z</time>
      </trkpt>
      <trkpt lat="45.72198" lon="6.78788">
        <ele>2528.4</ele>
        <time>2021-10-03T09:50:14Z</time>
      </trkpt>
      <trkpt lat="45.72196" lon="6.78789">
        <ele>2529.8</ele>
        <time>2021-10-03T09:50:18Z</time>
      </trkpt>
      <trkpt lat="45.72194" lon="6.7879">
        <ele>2530.8</ele>
        <time>2021-10-03T09:50:22Z</time>
      </trkpt>
      <trkpt lat="45.72192" lon="6.7879">
        <ele>2532.4</ele>
        <time>2021-10-03T09:50:26Z</time>
      </trkpt>
      <trkpt lat="45.7219" lon="6.78794">
        <ele>2533.4</ele>
        <time>2021-10-03T09:50:32Z</time>
      </trkpt>
      <trkpt lat="45.72185" lon="6.78802">
        <ele>2534.4</ele>
        <time>2021-10-03T09:50:49Z</time>
      </trkpt>
      <trkpt lat="45.72187" lon="6.78804">
        <ele>2536</ele>
        <time>2021-10-03T09:50:52Z</time>
      </trkpt>
      <trkpt lat="45.72188" lon="6.78805">
        <ele>2537.4</ele>
        <time>2021-10-03T09:50:55Z</time>
      </trkpt>
      <trkpt lat="45.7219" lon="6.78807">
        <ele>2538.6</ele>
        <time>2021-10-03T09:50:58Z</time>
      </trkpt>
      <trkpt lat="45.72195" lon="6.78812">
        <ele>2539.6</ele>
        <time>2021-10-03T09:51:11Z</time>
      </trkpt>
      <trkpt lat="45.72197" lon="6.78813">
        <ele>2540.6</ele>
        <time>2021-10-03T09:51:16Z</time>
      </trkpt>
      <trkpt lat="45.72197" lon="6.78814">
        <ele>2542</ele>
        <time>2021-10-03T09:51:20Z</time>
      </trkpt>
      <trkpt lat="45.72197" lon="6.78816">
        <ele>2543.6</ele>
        <time>2021-10-03T09:51:22Z</time>
      </trkpt>
      <trkpt lat="45.72196" lon="6.78817">
        <ele>2544.6</ele>
        <time>2021-10-03T09:51:23Z</time>
      </trkpt>
      <trkpt lat="45.72196" lon="6.78818">
        <ele>2545.6</ele>
        <time>2021-10-03T09:51:24Z</time>
      </trkpt>
      <trkpt lat="45.72196" lon="6.78821">
        <ele>2547.4</ele>
        <time>2021-10-03T09:51:26Z</time>
      </trkpt>
      <trkpt lat="45.72196" lon="6.78822">
        <ele>2548.6</ele>
        <time>2021-10-03T09:51:28Z</time>
      </trkpt>
      <trkpt lat="45.72197" lon="6.78825">
        <ele>2549.8</ele>
        <time>2021-10-03T09:51:31Z</time>
      </trkpt>
      <trkpt lat="45.72197" lon="6.78828">
        <ele>2551.4</ele>
        <time>2021-10-03T09:51:34Z</time>
      </trkpt>
      <trkpt lat="45.72197" lon="6.7883">
        <ele>2553.2</ele>
        <time>2021-10-03T09:51:36Z</time>
      </trkpt>
      <trkpt lat="45.72197" lon="6.78832">
        <ele>2554.4</ele>
        <time>2021-10-03T09:51:38Z</time>
      </trkpt>
      <trkpt lat="45.72196" lon="6.78835">
        <ele>2555.4</ele>
        <time>2021-10-03T09:51:41Z</time>
      </trkpt>
      <trkpt lat="45.72195" lon="6.78835">
        <ele>2557.4</ele>
        <time>2021-10-03T09:51:43Z</time>
      </trkpt>
      <trkpt lat="45.72193" lon="6.78836">
        <ele>2558.8</ele>
        <time>2021-10-03T09:51:45Z</time>
      </trkpt>
      <trkpt lat="45.72192" lon="6.78841">
        <ele>2557.4</ele>
        <time>2021-10-03T09:51:52Z</time>
      </trkpt>
      <trkpt lat="45.72193" lon="6.78842">
        <ele>2556.4</ele>
        <time>2021-10-03T09:51:54Z</time>
      </trkpt>
      <trkpt lat="45.72192" lon="6.78851">
        <ele>2555.2</ele>
        <time>2021-10-03T09:52:10Z</time>
      </trkpt>
      <trkpt lat="45.72188" lon="6.78857">
        <ele>2556.4</ele>
        <time>2021-10-03T09:52:19Z</time>
      </trkpt>
      <trkpt lat="45.72178" lon="6.78863">
        <ele>2557.4</ele>
        <time>2021-10-03T09:52:42Z</time>
      </trkpt>
      <trkpt lat="45.72177" lon="6.78864">
        <ele>2558.8</ele>
        <time>2021-10-03T09:52:45Z</time>
      </trkpt>
      <trkpt lat="45.72176" lon="6.78866">
        <ele>2560</ele>
        <time>2021-10-03T09:52:49Z</time>
      </trkpt>
      <trkpt lat="45.72174" lon="6.78869">
        <ele>2561.2</ele>
        <time>2021-10-03T09:52:54Z</time>
      </trkpt>
      <trkpt lat="45.72173" lon="6.78871">
        <ele>2562.4</ele>
        <time>2021-10-03T09:53:00Z</time>
      </trkpt>
      <trkpt lat="45.72171" lon="6.78874">
        <ele>2563.6</ele>
        <time>2021-10-03T09:53:05Z</time>
      </trkpt>
      <trkpt lat="45.72167" lon="6.78877">
        <ele>2564.6</ele>
        <time>2021-10-03T09:53:12Z</time>
      </trkpt>
      <trkpt lat="45.72163" lon="6.78877">
        <ele>2565.8</ele>
        <time>2021-10-03T09:53:20Z</time>
      </trkpt>
      <trkpt lat="45.7216" lon="6.78877">
        <ele>2567</ele>
        <time>2021-10-03T09:53:26Z</time>
      </trkpt>
      <trkpt lat="45.72158" lon="6.78874">
        <ele>2568.2</ele>
        <time>2021-10-03T09:53:29Z</time>
      </trkpt>
      <trkpt lat="45.72151" lon="6.7887">
        <ele>2569.4</ele>
        <time>2021-10-03T09:53:41Z</time>
      </trkpt>
      <trkpt lat="45.72149" lon="6.7887">
        <ele>2570.6</ele>
        <time>2021-10-03T09:53:45Z</time>
      </trkpt>
      <trkpt lat="45.72146" lon="6.7887">
        <ele>2571.6</ele>
        <time>2021-10-03T09:53:51Z</time>
      </trkpt>
      <trkpt lat="45.72146" lon="6.78872">
        <ele>2572.6</ele>
        <time>2021-10-03T09:53:56Z</time>
      </trkpt>
      <trkpt lat="45.72146" lon="6.78876">
        <ele>2573.8</ele>
        <time>2021-10-03T09:54:04Z</time>
      </trkpt>
      <trkpt lat="45.72147" lon="6.78879">
        <ele>2574.8</ele>
        <time>2021-10-03T09:54:12Z</time>
      </trkpt>
      <trkpt lat="45.72147" lon="6.78879">
        <ele>2576.2</ele>
        <time>2021-10-03T09:54:15Z</time>
      </trkpt>
      <trkpt lat="45.72146" lon="6.7888">
        <ele>2577.4</ele>
        <time>2021-10-03T09:54:18Z</time>
      </trkpt>
      <trkpt lat="45.72145" lon="6.78882">
        <ele>2578.6</ele>
        <time>2021-10-03T09:54:23Z</time>
      </trkpt>
      <trkpt lat="45.72143" lon="6.78882">
        <ele>2579.6</ele>
        <time>2021-10-03T09:54:28Z</time>
      </trkpt>
      <trkpt lat="45.72143" lon="6.78885">
        <ele>2580.8</ele>
        <time>2021-10-03T09:54:35Z</time>
      </trkpt>
      <trkpt lat="45.72142" lon="6.78886">
        <ele>2582</ele>
        <time>2021-10-03T09:54:38Z</time>
      </trkpt>
      <trkpt lat="45.72143" lon="6.78887">
        <ele>2583</ele>
        <time>2021-10-03T09:54:42Z</time>
      </trkpt>
      <trkpt lat="45.72142" lon="6.78888">
        <ele>2584.2</ele>
        <time>2021-10-03T09:54:45Z</time>
      </trkpt>
      <trkpt lat="45.72143" lon="6.78889">
        <ele>2585.6</ele>
        <time>2021-10-03T09:54:47Z</time>
      </trkpt>
      <trkpt lat="45.72142" lon="6.7889">
        <ele>2586.8</ele>
        <time>2021-10-03T09:54:49Z</time>
      </trkpt>
      <trkpt lat="45.72141" lon="6.78896">
        <ele>2585.8</ele>
        <time>2021-10-03T09:55:04Z</time>
      </trkpt>
      <trkpt lat="45.72139" lon="6.78897">
        <ele>2587.2</ele>
        <time>2021-10-03T09:55:11Z</time>
      </trkpt>
      <trkpt lat="45.72137" lon="6.78896">
        <ele>2588.4</ele>
        <time>2021-10-03T09:55:14Z</time>
      </trkpt>
      <trkpt lat="45.72135" lon="6.78899">
        <ele>2589.6</ele>
        <time>2021-10-03T09:55:30Z</time>
      </trkpt>
      <trkpt lat="45.72133" lon="6.78899">
        <ele>2591</ele>
        <time>2021-10-03T09:55:33Z</time>
      </trkpt>
      <trkpt lat="45.72132" lon="6.78899">
        <ele>2592.2</ele>
        <time>2021-10-03T09:55:36Z</time>
      </trkpt>
      <trkpt lat="45.72133" lon="6.78899">
        <ele>2593.4</ele>
        <time>2021-10-03T09:55:39Z</time>
      </trkpt>
      <trkpt lat="45.72133" lon="6.78904">
        <ele>2594.4</ele>
        <time>2021-10-03T09:55:48Z</time>
      </trkpt>
      <trkpt lat="45.72131" lon="6.78909">
        <ele>2595.6</ele>
        <time>2021-10-03T09:56:04Z</time>
      </trkpt>
      <trkpt lat="45.72129" lon="6.78911">
        <ele>2597</ele>
        <time>2021-10-03T09:56:19Z</time>
      </trkpt>
      <trkpt lat="45.72128" lon="6.78912">
        <ele>2598</ele>
        <time>2021-10-03T09:56:22Z</time>
      </trkpt>
      <trkpt lat="45.72125" lon="6.78912">
        <ele>2599</ele>
        <time>2021-10-03T09:56:32Z</time>
      </trkpt>
      <trkpt lat="45.72126" lon="6.78914">
        <ele>2600</ele>
        <time>2021-10-03T09:56:35Z</time>
      </trkpt>
      <trkpt lat="45.72127" lon="6.78916">
        <ele>2601.2</ele>
        <time>2021-10-03T09:56:39Z</time>
      </trkpt>
      <trkpt lat="45.72124" lon="6.78918">
        <ele>2602.2</ele>
        <time>2021-10-03T09:56:48Z</time>
      </trkpt>
      <trkpt lat="45.72122" lon="6.78918">
        <ele>2603.4</ele>
        <time>2021-10-03T09:56:54Z</time>
      </trkpt>
      <trkpt lat="45.72122" lon="6.78918">
        <ele>2604.4</ele>
        <time>2021-10-03T09:57:00Z</time>
      </trkpt>
      <trkpt lat="45.72122" lon="6.78916">
        <ele>2605.6</ele>
        <time>2021-10-03T09:57:04Z</time>
      </trkpt>
      <trkpt lat="45.72122" lon="6.78916">
        <ele>2606.8</ele>
        <time>2021-10-03T09:57:09Z</time>
      </trkpt>
      <trkpt lat="45.72122" lon="6.78919">
        <ele>2608.2</ele>
        <time>2021-10-03T09:57:13Z</time>
      </trkpt>
      <trkpt lat="45.72123" lon="6.78919">
        <ele>2609.2</ele>
        <time>2021-10-03T09:57:20Z</time>
      </trkpt>
      <trkpt lat="45.72125" lon="6.78919">
        <ele>2610.8</ele>
        <time>2021-10-03T09:57:23Z</time>
      </trkpt>
      <trkpt lat="45.72127" lon="6.7892">
        <ele>2611.8</ele>
        <time>2021-10-03T09:57:26Z</time>
      </trkpt>
      <trkpt lat="45.72127" lon="6.78924">
        <ele>2613.2</ele>
        <time>2021-10-03T09:57:32Z</time>
      </trkpt>
      <trkpt lat="45.72126" lon="6.78926">
        <ele>2614.6</ele>
        <time>2021-10-03T09:57:34Z</time>
      </trkpt>
      <trkpt lat="45.72122" lon="6.78927">
        <ele>2616.4</ele>
        <time>2021-10-03T09:57:36Z</time>
      </trkpt>
      <trkpt lat="45.7212" lon="6.78927">
        <ele>2617.4</ele>
        <time>2021-10-03T09:57:38Z</time>
      </trkpt>
      <trkpt lat="45.72118" lon="6.78924">
        <ele>2618.8</ele>
        <time>2021-10-03T09:57:42Z</time>
      </trkpt>
      <trkpt lat="45.72117" lon="6.78923">
        <ele>2620.4</ele>
        <time>2021-10-03T09:57:44Z</time>
      </trkpt>
      <trkpt lat="45.72117" lon="6.78922">
        <ele>2622.4</ele>
        <time>2021-10-03T09:57:46Z</time>
      </trkpt>
      <trkpt lat="45.72116" lon="6.78922">
        <ele>2623.8</ele>
        <time>2021-10-03T09:57:47Z</time>
      </trkpt>
      <trkpt lat="45.72116" lon="6.78922">
        <ele>2625</ele>
        <time>2021-10-03T09:57:48Z</time>
      </trkpt>
      <trkpt lat="45.72115" lon="6.78922">
        <ele>2626.6</ele>
        <time>2021-10-03T09:57:51Z</time>
      </trkpt>
      <trkpt lat="45.72113" lon="6.78921">
        <ele>2628.4</ele>
        <time>2021-10-03T09:57:53Z</time>
      </trkpt>
      <trkpt lat="45.72113" lon="6.78921">
        <ele>2630</ele>
        <time>2021-10-03T09:57:54Z</time>
      </trkpt>
      <trkpt lat="45.72113" lon="6.78922">
        <ele>2632.8</ele>
        <time>2021-10-03T09:57:55Z</time>
      </trkpt>
      <trkpt lat="45.72113" lon="6.78922">
        <ele>2634.4</ele>
        <time>2021-10-03T09:57:56Z</time>
      </trkpt>
      <trkpt lat="45.72112" lon="6.78922">
        <ele>2635.8</ele>
        <time>2021-10-03T09:57:58Z</time>
      </trkpt>
      <trkpt lat="45.72113" lon="6.78923">
        <ele>2632.4</ele>
        <time>2021-10-03T09:58:00Z</time>
      </trkpt>
      <trkpt lat="45.72113" lon="6.78924">
        <ele>2629.4</ele>
        <time>2021-10-03T09:58:01Z</time>
      </trkpt>
      <trkpt lat="45.72113" lon="6.78925">
        <ele>2626.6</ele>
        <time>2021-10-03T09:58:02Z</time>
      </trkpt>
      <trkpt lat="45.72114" lon="6.78926">
        <ele>2624.8</ele>
        <time>2021-10-03T09:58:03Z</time>
      </trkpt>
      <trkpt lat="45.72115" lon="6.78927">
        <ele>2623.6</ele>
        <time>2021-10-03T09:58:04Z</time>
      </trkpt>
      <trkpt lat="45.72116" lon="6.78929">
        <ele>2622.2</ele>
        <time>2021-10-03T09:58:06Z</time>
      </trkpt>
      <trkpt lat="45.72117" lon="6.78933">
        <ele>2620.8</ele>
        <time>2021-10-03T09:58:08Z</time>
      </trkpt>
      <trkpt lat="45.72117" lon="6.78935">
        <ele>2619.2</ele>
        <time>2021-10-03T09:58:09Z</time>
      </trkpt>
      <trkpt lat="45.72117" lon="6.78937">
        <ele>2617.6</ele>
        <time>2021-10-03T09:58:10Z</time>
      </trkpt>
      <trkpt lat="45.72118" lon="6.78938">
        <ele>2616</ele>
        <time>2021-10-03T09:58:11Z</time>
      </trkpt>
      <trkpt lat="45.72118" lon="6.78942">
        <ele>2614.4</ele>
        <time>2021-10-03T09:58:13Z</time>
      </trkpt>
      <trkpt lat="45.7212" lon="6.78947">
        <ele>2613.4</ele>
        <time>2021-10-03T09:58:17Z</time>
      </trkpt>
      <trkpt lat="45.72122" lon="6.7895">
        <ele>2612.2</ele>
        <time>2021-10-03T09:58:20Z</time>
      </trkpt>
      <trkpt lat="45.72123" lon="6.78955">
        <ele>2610.4</ele>
        <time>2021-10-03T09:58:24Z</time>
      </trkpt>
      <trkpt lat="45.72122" lon="6.78956">
        <ele>2609.2</ele>
        <time>2021-10-03T09:58:25Z</time>
      </trkpt>
      <trkpt lat="45.7212" lon="6.78958">
        <ele>2607.6</ele>
        <time>2021-10-03T09:58:27Z</time>
      </trkpt>
      <trkpt lat="45.72119" lon="6.78959">
        <ele>2606.8</ele>
        <time>2021-10-03T09:58:29Z</time>
      </trkpt>
      <trkpt lat="45.72118" lon="6.78961">
        <ele>2606.2</ele>
        <time>2021-10-03T09:58:31Z</time>
      </trkpt>
      <trkpt lat="45.72115" lon="6.7896">
        <ele>2606</ele>
        <time>2021-10-03T09:58:33Z</time>
      </trkpt>
      <trkpt lat="45.72114" lon="6.78961">
        <ele>2604.4</ele>
        <time>2021-10-03T09:58:35Z</time>
      </trkpt>
      <trkpt lat="45.72112" lon="6.7896">
        <ele>2602.8</ele>
        <time>2021-10-03T09:58:37Z</time>
      </trkpt>
      <trkpt lat="45.7211" lon="6.78958">
        <ele>2601.4</ele>
        <time>2021-10-03T09:58:39Z</time>
      </trkpt>
      <trkpt lat="45.72109" lon="6.78959">
        <ele>2600.6</ele>
        <time>2021-10-03T09:58:41Z</time>
      </trkpt>
      <trkpt lat="45.72109" lon="6.78959">
        <ele>2600.2</ele>
        <time>2021-10-03T09:58:43Z</time>
      </trkpt>
      <trkpt lat="45.72109" lon="6.78961">
        <ele>2599.2</ele>
        <time>2021-10-03T09:58:50Z</time>
      </trkpt>
      <trkpt lat="45.72106" lon="6.78963">
        <ele>2598.8</ele>
        <time>2021-10-03T09:58:58Z</time>
      </trkpt>
      <trkpt lat="45.72102" lon="6.78965">
        <ele>2598.2</ele>
        <time>2021-10-03T09:59:01Z</time>
      </trkpt>
      <trkpt lat="45.721" lon="6.78965">
        <ele>2597.8</ele>
        <time>2021-10-03T09:59:03Z</time>
      </trkpt>
      <trkpt lat="45.72098" lon="6.78964">
        <ele>2596.4</ele>
        <time>2021-10-03T09:59:05Z</time>
      </trkpt>
      <trkpt lat="45.72094" lon="6.78963">
        <ele>2594.8</ele>
        <time>2021-10-03T09:59:08Z</time>
      </trkpt>
      <trkpt lat="45.72091" lon="6.78962">
        <ele>2593.6</ele>
        <time>2021-10-03T09:59:10Z</time>
      </trkpt>
      <trkpt lat="45.72086" lon="6.78961">
        <ele>2592.2</ele>
        <time>2021-10-03T09:59:13Z</time>
      </trkpt>
      <trkpt lat="45.72083" lon="6.7896">
        <ele>2591.2</ele>
        <time>2021-10-03T09:59:15Z</time>
      </trkpt>
      <trkpt lat="45.7208" lon="6.7896">
        <ele>2589.6</ele>
        <time>2021-10-03T09:59:17Z</time>
      </trkpt>
      <trkpt lat="45.72076" lon="6.7896">
        <ele>2588.2</ele>
        <time>2021-10-03T09:59:20Z</time>
      </trkpt>
      <trkpt lat="45.72063" lon="6.78952">
        <ele>2586.6</ele>
        <time>2021-10-03T09:59:28Z</time>
      </trkpt>
      <trkpt lat="45.72059" lon="6.78952">
        <ele>2585.2</ele>
        <time>2021-10-03T09:59:30Z</time>
      </trkpt>
      <trkpt lat="45.72042" lon="6.78943">
        <ele>2583.8</ele>
        <time>2021-10-03T09:59:39Z</time>
      </trkpt>
      <trkpt lat="45.72035" lon="6.7894">
        <ele>2582.4</ele>
        <time>2021-10-03T09:59:43Z</time>
      </trkpt>
      <trkpt lat="45.72029" lon="6.78936">
        <ele>2581</ele>
        <time>2021-10-03T09:59:46Z</time>
      </trkpt>
      <trkpt lat="45.72022" lon="6.78935">
        <ele>2579.8</ele>
        <time>2021-10-03T09:59:49Z</time>
      </trkpt>
      <trkpt lat="45.72008" lon="6.78927">
        <ele>2578.6</ele>
        <time>2021-10-03T09:59:55Z</time>
      </trkpt>
      <trkpt lat="45.72002" lon="6.78923">
        <ele>2576.8</ele>
        <time>2021-10-03T09:59:58Z</time>
      </trkpt>
      <trkpt lat="45.71997" lon="6.7892">
        <ele>2574.8</ele>
        <time>2021-10-03T10:00:00Z</time>
      </trkpt>
      <trkpt lat="45.71993" lon="6.78918">
        <ele>2573.4</ele>
        <time>2021-10-03T10:00:02Z</time>
      </trkpt>
      <trkpt lat="45.71982" lon="6.78912">
        <ele>2572.4</ele>
        <time>2021-10-03T10:00:07Z</time>
      </trkpt>
      <trkpt lat="45.71977" lon="6.78909">
        <ele>2570.8</ele>
        <time>2021-10-03T10:00:09Z</time>
      </trkpt>
      <trkpt lat="45.71973" lon="6.78906">
        <ele>2569.6</ele>
        <time>2021-10-03T10:00:11Z</time>
      </trkpt>
      <trkpt lat="45.71966" lon="6.78904">
        <ele>2568.6</ele>
        <time>2021-10-03T10:00:14Z</time>
      </trkpt>
      <trkpt lat="45.71953" lon="6.78899">
        <ele>2567.2</ele>
        <time>2021-10-03T10:00:20Z</time>
      </trkpt>
      <trkpt lat="45.71947" lon="6.78894">
        <ele>2566</ele>
        <time>2021-10-03T10:00:23Z</time>
      </trkpt>
      <trkpt lat="45.71942" lon="6.78888">
        <ele>2565</ele>
        <time>2021-10-03T10:00:26Z</time>
      </trkpt>
      <trkpt lat="45.71939" lon="6.78883">
        <ele>2563.6</ele>
        <time>2021-10-03T10:00:28Z</time>
      </trkpt>
      <trkpt lat="45.71935" lon="6.78879">
        <ele>2562.4</ele>
        <time>2021-10-03T10:00:30Z</time>
      </trkpt>
      <trkpt lat="45.71931" lon="6.78876">
        <ele>2561.4</ele>
        <time>2021-10-03T10:00:32Z</time>
      </trkpt>
      <trkpt lat="45.71915" lon="6.78865">
        <ele>2560.4</ele>
        <time>2021-10-03T10:00:39Z</time>
      </trkpt>
      <trkpt lat="45.71908" lon="6.78863">
        <ele>2559.2</ele>
        <time>2021-10-03T10:00:42Z</time>
      </trkpt>
      <trkpt lat="45.71894" lon="6.78863">
        <ele>2558</ele>
        <time>2021-10-03T10:00:48Z</time>
      </trkpt>
      <trkpt lat="45.71886" lon="6.78859">
        <ele>2559.2</ele>
        <time>2021-10-03T10:00:53Z</time>
      </trkpt>
      <trkpt lat="45.71876" lon="6.7885">
        <ele>2558</ele>
        <time>2021-10-03T10:01:01Z</time>
      </trkpt>
      <trkpt lat="45.71871" lon="6.78847">
        <ele>2556.6</ele>
        <time>2021-10-03T10:01:05Z</time>
      </trkpt>
      <trkpt lat="45.71868" lon="6.78845">
        <ele>2555.6</ele>
        <time>2021-10-03T10:01:08Z</time>
      </trkpt>
      <trkpt lat="45.71864" lon="6.78845">
        <ele>2554.4</ele>
        <time>2021-10-03T10:01:12Z</time>
      </trkpt>
      <trkpt lat="45.7186" lon="6.78844">
        <ele>2553.2</ele>
        <time>2021-10-03T10:01:15Z</time>
      </trkpt>
      <trkpt lat="45.71856" lon="6.78844">
        <ele>2552</ele>
        <time>2021-10-03T10:01:18Z</time>
      </trkpt>
      <trkpt lat="45.71852" lon="6.78845">
        <ele>2550.8</ele>
        <time>2021-10-03T10:01:22Z</time>
      </trkpt>
      <trkpt lat="45.71844" lon="6.78848">
        <ele>2549.6</ele>
        <time>2021-10-03T10:01:28Z</time>
      </trkpt>
      <trkpt lat="45.71841" lon="6.78847">
        <ele>2549.2</ele>
        <time>2021-10-03T10:01:30Z</time>
      </trkpt>
      <trkpt lat="45.71837" lon="6.78846">
        <ele>2548.2</ele>
        <time>2021-10-03T10:01:32Z</time>
      </trkpt>
      <trkpt lat="45.71823" lon="6.78844">
        <ele>2547.2</ele>
        <time>2021-10-03T10:01:38Z</time>
      </trkpt>
      <trkpt lat="45.71816" lon="6.78842">
        <ele>2546.2</ele>
        <time>2021-10-03T10:01:41Z</time>
      </trkpt>
      <trkpt lat="45.71798" lon="6.78836">
        <ele>2547.2</ele>
        <time>2021-10-03T10:01:50Z</time>
      </trkpt>
      <trkpt lat="45.71779" lon="6.78836">
        <ele>2547.6</ele>
        <time>2021-10-03T10:01:59Z</time>
      </trkpt>
      <trkpt lat="45.71763" lon="6.78846">
        <ele>2546.8</ele>
        <time>2021-10-03T10:02:08Z</time>
      </trkpt>
      <trkpt lat="45.71753" lon="6.78856">
        <ele>2546.2</ele>
        <time>2021-10-03T10:02:14Z</time>
      </trkpt>
      <trkpt lat="45.71748" lon="6.7886">
        <ele>2545</ele>
        <time>2021-10-03T10:02:17Z</time>
      </trkpt>
      <trkpt lat="45.71742" lon="6.78862">
        <ele>2544</ele>
        <time>2021-10-03T10:02:20Z</time>
      </trkpt>
      <trkpt lat="45.71737" lon="6.78864">
        <ele>2542.8</ele>
        <time>2021-10-03T10:02:22Z</time>
      </trkpt>
      <trkpt lat="45.71732" lon="6.78865">
        <ele>2541.4</ele>
        <time>2021-10-03T10:02:24Z</time>
      </trkpt>
      <trkpt lat="45.71728" lon="6.78867">
        <ele>2539.8</ele>
        <time>2021-10-03T10:02:26Z</time>
      </trkpt>
      <trkpt lat="45.71724" lon="6.78868">
        <ele>2538.8</ele>
        <time>2021-10-03T10:02:28Z</time>
      </trkpt>
      <trkpt lat="45.71716" lon="6.78872">
        <ele>2537.4</ele>
        <time>2021-10-03T10:02:32Z</time>
      </trkpt>
      <trkpt lat="45.71711" lon="6.78876">
        <ele>2536.4</ele>
        <time>2021-10-03T10:02:35Z</time>
      </trkpt>
      <trkpt lat="45.71706" lon="6.78881">
        <ele>2535.8</ele>
        <time>2021-10-03T10:02:38Z</time>
      </trkpt>
      <trkpt lat="45.71698" lon="6.78888">
        <ele>2535.2</ele>
        <time>2021-10-03T10:02:43Z</time>
      </trkpt>
      <trkpt lat="45.7169" lon="6.78904">
        <ele>2536.2</ele>
        <time>2021-10-03T10:02:50Z</time>
      </trkpt>
      <trkpt lat="45.7168" lon="6.78915">
        <ele>2534.6</ele>
        <time>2021-10-03T10:02:56Z</time>
      </trkpt>
      <trkpt lat="45.71679" lon="6.78917">
        <ele>2533.6</ele>
        <time>2021-10-03T10:02:57Z</time>
      </trkpt>
      <trkpt lat="45.71676" lon="6.78922">
        <ele>2531.6</ele>
        <time>2021-10-03T10:02:59Z</time>
      </trkpt>
      <trkpt lat="45.71673" lon="6.78925">
        <ele>2530.4</ele>
        <time>2021-10-03T10:03:01Z</time>
      </trkpt>
      <trkpt lat="45.71671" lon="6.78927">
        <ele>2529.4</ele>
        <time>2021-10-03T10:03:02Z</time>
      </trkpt>
      <trkpt lat="45.71667" lon="6.78931">
        <ele>2528</ele>
        <time>2021-10-03T10:03:04Z</time>
      </trkpt>
      <trkpt lat="45.71651" lon="6.78948">
        <ele>2527.4</ele>
        <time>2021-10-03T10:03:12Z</time>
      </trkpt>
      <trkpt lat="45.71643" lon="6.78954">
        <ele>2526.4</ele>
        <time>2021-10-03T10:03:16Z</time>
      </trkpt>
      <trkpt lat="45.71638" lon="6.78958">
        <ele>2525</ele>
        <time>2021-10-03T10:03:19Z</time>
      </trkpt>
      <trkpt lat="45.7162" lon="6.78972">
        <ele>2523.8</ele>
        <time>2021-10-03T10:03:28Z</time>
      </trkpt>
      <trkpt lat="45.71612" lon="6.78979">
        <ele>2522.2</ele>
        <time>2021-10-03T10:03:32Z</time>
      </trkpt>
      <trkpt lat="45.71608" lon="6.78983">
        <ele>2521</ele>
        <time>2021-10-03T10:03:34Z</time>
      </trkpt>
      <trkpt lat="45.71605" lon="6.78987">
        <ele>2519.8</ele>
        <time>2021-10-03T10:03:36Z</time>
      </trkpt>
      <trkpt lat="45.7159" lon="6.79003">
        <ele>2519.8</ele>
        <time>2021-10-03T10:03:44Z</time>
      </trkpt>
      <trkpt lat="45.71585" lon="6.79009">
        <ele>2518.8</ele>
        <time>2021-10-03T10:03:47Z</time>
      </trkpt>
      <trkpt lat="45.7158" lon="6.79015">
        <ele>2517.4</ele>
        <time>2021-10-03T10:03:50Z</time>
      </trkpt>
      <trkpt lat="45.71569" lon="6.79024">
        <ele>2516.2</ele>
        <time>2021-10-03T10:03:56Z</time>
      </trkpt>
      <trkpt lat="45.71564" lon="6.79023">
        <ele>2515.8</ele>
        <time>2021-10-03T10:03:59Z</time>
      </trkpt>
      <trkpt lat="45.71563" lon="6.79023">
        <ele>2515.6</ele>
        <time>2021-10-03T10:04:01Z</time>
      </trkpt>
      <trkpt lat="45.71563" lon="6.79019">
        <ele>2515.2</ele>
        <time>2021-10-03T10:04:09Z</time>
      </trkpt>
      <trkpt lat="45.71563" lon="6.79019">
        <ele>2516.4</ele>
        <time>2021-10-03T10:04:18Z</time>
      </trkpt>
      <trkpt lat="45.71564" lon="6.79022">
        <ele>2515</ele>
        <time>2021-10-03T10:05:21Z</time>
      </trkpt>
      <trkpt lat="45.71563" lon="6.79023">
        <ele>2514.4</ele>
        <time>2021-10-03T10:05:23Z</time>
      </trkpt>
      <trkpt lat="45.71561" lon="6.79028">
        <ele>2513.4</ele>
        <time>2021-10-03T10:05:26Z</time>
      </trkpt>
      <trkpt lat="45.71558" lon="6.79031">
        <ele>2512</ele>
        <time>2021-10-03T10:05:28Z</time>
      </trkpt>
      <trkpt lat="45.71554" lon="6.79036">
        <ele>2510.2</ele>
        <time>2021-10-03T10:05:30Z</time>
      </trkpt>
      <trkpt lat="45.71552" lon="6.79038">
        <ele>2509.2</ele>
        <time>2021-10-03T10:05:31Z</time>
      </trkpt>
      <trkpt lat="45.7155" lon="6.7904">
        <ele>2507.6</ele>
        <time>2021-10-03T10:05:32Z</time>
      </trkpt>
      <trkpt lat="45.71548" lon="6.79042">
        <ele>2506</ele>
        <time>2021-10-03T10:05:34Z</time>
      </trkpt>
      <trkpt lat="45.71545" lon="6.79046">
        <ele>2504.8</ele>
        <time>2021-10-03T10:05:37Z</time>
      </trkpt>
      <trkpt lat="45.71542" lon="6.79048">
        <ele>2504.6</ele>
        <time>2021-10-03T10:05:43Z</time>
      </trkpt>
      <trkpt lat="45.71541" lon="6.79052">
        <ele>2505.4</ele>
        <time>2021-10-03T10:05:45Z</time>
      </trkpt>
      <trkpt lat="45.7154" lon="6.79055">
        <ele>2506.2</ele>
        <time>2021-10-03T10:05:46Z</time>
      </trkpt>
      <trkpt lat="45.71537" lon="6.79063">
        <ele>2507.2</ele>
        <time>2021-10-03T10:05:49Z</time>
      </trkpt>
      <trkpt lat="45.71529" lon="6.79075">
        <ele>2506.2</ele>
        <time>2021-10-03T10:05:54Z</time>
      </trkpt>
      <trkpt lat="45.71523" lon="6.79079">
        <ele>2504.8</ele>
        <time>2021-10-03T10:05:57Z</time>
      </trkpt>
      <trkpt lat="45.71517" lon="6.79082">
        <ele>2503.6</ele>
        <time>2021-10-03T10:05:59Z</time>
      </trkpt>
      <trkpt lat="45.71499" lon="6.7909">
        <ele>2503.6</ele>
        <time>2021-10-03T10:06:07Z</time>
      </trkpt>
      <trkpt lat="45.71491" lon="6.79091">
        <ele>2502.4</ele>
        <time>2021-10-03T10:06:10Z</time>
      </trkpt>
      <trkpt lat="45.71477" lon="6.7909">
        <ele>2501.4</ele>
        <time>2021-10-03T10:06:16Z</time>
      </trkpt>
      <trkpt lat="45.7147" lon="6.79091">
        <ele>2499.6</ele>
        <time>2021-10-03T10:06:19Z</time>
      </trkpt>
      <trkpt lat="45.71456" lon="6.79089">
        <ele>2498.4</ele>
        <time>2021-10-03T10:06:25Z</time>
      </trkpt>
      <trkpt lat="45.71448" lon="6.79092">
        <ele>2497.2</ele>
        <time>2021-10-03T10:06:29Z</time>
      </trkpt>
      <trkpt lat="45.71444" lon="6.79094">
        <ele>2496</ele>
        <time>2021-10-03T10:06:31Z</time>
      </trkpt>
      <trkpt lat="45.71436" lon="6.79098">
        <ele>2494.6</ele>
        <time>2021-10-03T10:06:35Z</time>
      </trkpt>
      <trkpt lat="45.71435" lon="6.79099">
        <ele>2493.6</ele>
        <time>2021-10-03T10:06:36Z</time>
      </trkpt>
      <trkpt lat="45.71431" lon="6.79101">
        <ele>2491.8</ele>
        <time>2021-10-03T10:06:38Z</time>
      </trkpt>
      <trkpt lat="45.71428" lon="6.79104">
        <ele>2490</ele>
        <time>2021-10-03T10:06:40Z</time>
      </trkpt>
      <trkpt lat="45.71422" lon="6.79108">
        <ele>2488.8</ele>
        <time>2021-10-03T10:06:43Z</time>
      </trkpt>
      <trkpt lat="45.71416" lon="6.79113">
        <ele>2487.6</ele>
        <time>2021-10-03T10:06:46Z</time>
      </trkpt>
      <trkpt lat="45.71412" lon="6.79117">
        <ele>2485.6</ele>
        <time>2021-10-03T10:06:48Z</time>
      </trkpt>
      <trkpt lat="45.71408" lon="6.7912">
        <ele>2483.8</ele>
        <time>2021-10-03T10:06:50Z</time>
      </trkpt>
      <trkpt lat="45.71401" lon="6.79123">
        <ele>2482.2</ele>
        <time>2021-10-03T10:06:53Z</time>
      </trkpt>
      <trkpt lat="45.71396" lon="6.79128">
        <ele>2481</ele>
        <time>2021-10-03T10:06:56Z</time>
      </trkpt>
      <trkpt lat="45.71389" lon="6.79133">
        <ele>2480</ele>
        <time>2021-10-03T10:07:00Z</time>
      </trkpt>
      <trkpt lat="45.71385" lon="6.79134">
        <ele>2478.2</ele>
        <time>2021-10-03T10:07:02Z</time>
      </trkpt>
      <trkpt lat="45.71381" lon="6.79135">
        <ele>2476.6</ele>
        <time>2021-10-03T10:07:04Z</time>
      </trkpt>
      <trkpt lat="45.71377" lon="6.79136">
        <ele>2475.4</ele>
        <time>2021-10-03T10:07:06Z</time>
      </trkpt>
      <trkpt lat="45.71371" lon="6.79138">
        <ele>2473.8</ele>
        <time>2021-10-03T10:07:09Z</time>
      </trkpt>
      <trkpt lat="45.71366" lon="6.79141">
        <ele>2472.2</ele>
        <time>2021-10-03T10:07:11Z</time>
      </trkpt>
      <trkpt lat="45.71364" lon="6.79143">
        <ele>2471</ele>
        <time>2021-10-03T10:07:12Z</time>
      </trkpt>
      <trkpt lat="45.71362" lon="6.79145">
        <ele>2470</ele>
        <time>2021-10-03T10:07:13Z</time>
      </trkpt>
      <trkpt lat="45.71358" lon="6.79148">
        <ele>2468.8</ele>
        <time>2021-10-03T10:07:15Z</time>
      </trkpt>
      <trkpt lat="45.71352" lon="6.79152">
        <ele>2467.8</ele>
        <time>2021-10-03T10:07:18Z</time>
      </trkpt>
      <trkpt lat="45.71348" lon="6.79154">
        <ele>2466</ele>
        <time>2021-10-03T10:07:20Z</time>
      </trkpt>
      <trkpt lat="45.71346" lon="6.79156">
        <ele>2465</ele>
        <time>2021-10-03T10:07:21Z</time>
      </trkpt>
      <trkpt lat="45.71342" lon="6.79158">
        <ele>2463.2</ele>
        <time>2021-10-03T10:07:23Z</time>
      </trkpt>
      <trkpt lat="45.71339" lon="6.79161">
        <ele>2461.6</ele>
        <time>2021-10-03T10:07:25Z</time>
      </trkpt>
      <trkpt lat="45.71335" lon="6.79165">
        <ele>2460.6</ele>
        <time>2021-10-03T10:07:28Z</time>
      </trkpt>
      <trkpt lat="45.71331" lon="6.79169">
        <ele>2460.2</ele>
        <time>2021-10-03T10:07:31Z</time>
      </trkpt>
      <trkpt lat="45.71324" lon="6.79194">
        <ele>2460.2</ele>
        <time>2021-10-03T10:07:44Z</time>
      </trkpt>
      <trkpt lat="45.71324" lon="6.79201">
        <ele>2461.2</ele>
        <time>2021-10-03T10:07:49Z</time>
      </trkpt>
      <trkpt lat="45.71322" lon="6.79203">
        <ele>2461.6</ele>
        <time>2021-10-03T10:07:51Z</time>
      </trkpt>
      <trkpt lat="45.7132" lon="6.79205">
        <ele>2461.8</ele>
        <time>2021-10-03T10:07:53Z</time>
      </trkpt>
      <trkpt lat="45.71307" lon="6.79226">
        <ele>2460.6</ele>
        <time>2021-10-03T10:08:05Z</time>
      </trkpt>
      <trkpt lat="45.71303" lon="6.79229">
        <ele>2460.6</ele>
        <time>2021-10-03T10:08:07Z</time>
      </trkpt>
      <trkpt lat="45.71296" lon="6.79238">
        <ele>2459.2</ele>
        <time>2021-10-03T10:08:12Z</time>
      </trkpt>
      <trkpt lat="45.71293" lon="6.79242">
        <ele>2457.6</ele>
        <time>2021-10-03T10:08:15Z</time>
      </trkpt>
      <trkpt lat="45.71292" lon="6.79245">
        <ele>2456.6</ele>
        <time>2021-10-03T10:08:17Z</time>
      </trkpt>
      <trkpt lat="45.71284" lon="6.79258">
        <ele>2455.6</ele>
        <time>2021-10-03T10:08:26Z</time>
      </trkpt>
      <trkpt lat="45.7128" lon="6.79268">
        <ele>2455.8</ele>
        <time>2021-10-03T10:08:31Z</time>
      </trkpt>
      <trkpt lat="45.7128" lon="6.79275">
        <ele>2453.8</ele>
        <time>2021-10-03T10:08:34Z</time>
      </trkpt>
      <trkpt lat="45.71278" lon="6.79282">
        <ele>2452.8</ele>
        <time>2021-10-03T10:08:37Z</time>
      </trkpt>
      <trkpt lat="45.71276" lon="6.79287">
        <ele>2451.6</ele>
        <time>2021-10-03T10:08:39Z</time>
      </trkpt>
      <trkpt lat="45.71273" lon="6.79292">
        <ele>2450.2</ele>
        <time>2021-10-03T10:08:42Z</time>
      </trkpt>
      <trkpt lat="45.7127" lon="6.79296">
        <ele>2448.8</ele>
        <time>2021-10-03T10:08:44Z</time>
      </trkpt>
      <trkpt lat="45.71268" lon="6.793">
        <ele>2447.4</ele>
        <time>2021-10-03T10:08:46Z</time>
      </trkpt>
      <trkpt lat="45.71253" lon="6.79318">
        <ele>2447</ele>
        <time>2021-10-03T10:08:56Z</time>
      </trkpt>
      <trkpt lat="45.71252" lon="6.79323">
        <ele>2447.6</ele>
        <time>2021-10-03T10:08:58Z</time>
      </trkpt>
      <trkpt lat="45.71252" lon="6.79328">
        <ele>2446.6</ele>
        <time>2021-10-03T10:09:00Z</time>
      </trkpt>
      <trkpt lat="45.71249" lon="6.79333">
        <ele>2444.8</ele>
        <time>2021-10-03T10:09:02Z</time>
      </trkpt>
      <trkpt lat="45.71248" lon="6.79335">
        <ele>2442.6</ele>
        <time>2021-10-03T10:09:03Z</time>
      </trkpt>
      <trkpt lat="45.71247" lon="6.79337">
        <ele>2441</ele>
        <time>2021-10-03T10:09:04Z</time>
      </trkpt>
      <trkpt lat="45.71244" lon="6.79341">
        <ele>2439.6</ele>
        <time>2021-10-03T10:09:06Z</time>
      </trkpt>
      <trkpt lat="45.7124" lon="6.79344">
        <ele>2438.4</ele>
        <time>2021-10-03T10:09:08Z</time>
      </trkpt>
      <trkpt lat="45.71237" lon="6.79347">
        <ele>2437.2</ele>
        <time>2021-10-03T10:09:10Z</time>
      </trkpt>
      <trkpt lat="45.71234" lon="6.7935">
        <ele>2435</ele>
        <time>2021-10-03T10:09:12Z</time>
      </trkpt>
      <trkpt lat="45.71233" lon="6.79352">
        <ele>2433.8</ele>
        <time>2021-10-03T10:09:13Z</time>
      </trkpt>
      <trkpt lat="45.71226" lon="6.79367">
        <ele>2435</ele>
        <time>2021-10-03T10:09:19Z</time>
      </trkpt>
      <trkpt lat="45.71223" lon="6.79374">
        <ele>2434</ele>
        <time>2021-10-03T10:09:22Z</time>
      </trkpt>
      <trkpt lat="45.71219" lon="6.79383">
        <ele>2432.8</ele>
        <time>2021-10-03T10:09:25Z</time>
      </trkpt>
      <trkpt lat="45.71216" lon="6.79392">
        <ele>2431</ele>
        <time>2021-10-03T10:09:28Z</time>
      </trkpt>
      <trkpt lat="45.71215" lon="6.79395">
        <ele>2429.8</ele>
        <time>2021-10-03T10:09:29Z</time>
      </trkpt>
      <trkpt lat="45.71214" lon="6.79397">
        <ele>2428.4</ele>
        <time>2021-10-03T10:09:30Z</time>
      </trkpt>
      <trkpt lat="45.71213" lon="6.79399">
        <ele>2427.4</ele>
        <time>2021-10-03T10:09:31Z</time>
      </trkpt>
      <trkpt lat="45.7121" lon="6.79404">
        <ele>2426.2</ele>
        <time>2021-10-03T10:09:33Z</time>
      </trkpt>
      <trkpt lat="45.71198" lon="6.79425">
        <ele>2424.8</ele>
        <time>2021-10-03T10:09:42Z</time>
      </trkpt>
      <trkpt lat="45.71194" lon="6.79432">
        <ele>2422.8</ele>
        <time>2021-10-03T10:09:45Z</time>
      </trkpt>
      <trkpt lat="45.71191" lon="6.79436">
        <ele>2421.4</ele>
        <time>2021-10-03T10:09:47Z</time>
      </trkpt>
      <trkpt lat="45.71186" lon="6.79442">
        <ele>2419.8</ele>
        <time>2021-10-03T10:09:50Z</time>
      </trkpt>
      <trkpt lat="45.71183" lon="6.79448">
        <ele>2418.6</ele>
        <time>2021-10-03T10:09:52Z</time>
      </trkpt>
      <trkpt lat="45.71181" lon="6.7945">
        <ele>2417.4</ele>
        <time>2021-10-03T10:09:53Z</time>
      </trkpt>
      <trkpt lat="45.71178" lon="6.79455">
        <ele>2415.8</ele>
        <time>2021-10-03T10:09:55Z</time>
      </trkpt>
      <trkpt lat="45.71174" lon="6.79463">
        <ele>2414</ele>
        <time>2021-10-03T10:09:58Z</time>
      </trkpt>
      <trkpt lat="45.71172" lon="6.79468">
        <ele>2413</ele>
        <time>2021-10-03T10:10:00Z</time>
      </trkpt>
      <trkpt lat="45.71157" lon="6.79487">
        <ele>2411.6</ele>
        <time>2021-10-03T10:10:09Z</time>
      </trkpt>
      <trkpt lat="45.71154" lon="6.79493">
        <ele>2410.2</ele>
        <time>2021-10-03T10:10:11Z</time>
      </trkpt>
      <trkpt lat="45.71153" lon="6.79496">
        <ele>2409</ele>
        <time>2021-10-03T10:10:12Z</time>
      </trkpt>
      <trkpt lat="45.71152" lon="6.79498">
        <ele>2407.8</ele>
        <time>2021-10-03T10:10:13Z</time>
      </trkpt>
      <trkpt lat="45.71151" lon="6.79501">
        <ele>2406.6</ele>
        <time>2021-10-03T10:10:14Z</time>
      </trkpt>
      <trkpt lat="45.71141" lon="6.79525">
        <ele>2404.6</ele>
        <time>2021-10-03T10:10:23Z</time>
      </trkpt>
      <trkpt lat="45.7114" lon="6.79528">
        <ele>2402.8</ele>
        <time>2021-10-03T10:10:24Z</time>
      </trkpt>
      <trkpt lat="45.71139" lon="6.7953">
        <ele>2401.2</ele>
        <time>2021-10-03T10:10:25Z</time>
      </trkpt>
      <trkpt lat="45.71138" lon="6.79534">
        <ele>2400</ele>
        <time>2021-10-03T10:10:26Z</time>
      </trkpt>
      <trkpt lat="45.71137" lon="6.79546">
        <ele>2398.8</ele>
        <time>2021-10-03T10:10:30Z</time>
      </trkpt>
      <trkpt lat="45.71136" lon="6.7955">
        <ele>2398.6</ele>
        <time>2021-10-03T10:10:31Z</time>
      </trkpt>
      <trkpt lat="45.71132" lon="6.79557">
        <ele>2397.8</ele>
        <time>2021-10-03T10:10:34Z</time>
      </trkpt>
      <trkpt lat="45.71129" lon="6.79562">
        <ele>2395.6</ele>
        <time>2021-10-03T10:10:36Z</time>
      </trkpt>
      <trkpt lat="45.71121" lon="6.7957">
        <ele>2394.2</ele>
        <time>2021-10-03T10:10:40Z</time>
      </trkpt>
      <trkpt lat="45.7112" lon="6.79572">
        <ele>2394</ele>
        <time>2021-10-03T10:10:41Z</time>
      </trkpt>
      <trkpt lat="45.71118" lon="6.79583">
        <ele>2393.2</ele>
        <time>2021-10-03T10:10:45Z</time>
      </trkpt>
      <trkpt lat="45.71114" lon="6.79587">
        <ele>2391.4</ele>
        <time>2021-10-03T10:10:47Z</time>
      </trkpt>
      <trkpt lat="45.71111" lon="6.79592">
        <ele>2390.2</ele>
        <time>2021-10-03T10:10:49Z</time>
      </trkpt>
      <trkpt lat="45.71104" lon="6.79597">
        <ele>2389</ele>
        <time>2021-10-03T10:10:52Z</time>
      </trkpt>
      <trkpt lat="45.71099" lon="6.796">
        <ele>2387.6</ele>
        <time>2021-10-03T10:10:54Z</time>
      </trkpt>
      <trkpt lat="45.71097" lon="6.79602">
        <ele>2386.6</ele>
        <time>2021-10-03T10:10:55Z</time>
      </trkpt>
      <trkpt lat="45.71094" lon="6.79606">
        <ele>2384.6</ele>
        <time>2021-10-03T10:10:57Z</time>
      </trkpt>
      <trkpt lat="45.71091" lon="6.79611">
        <ele>2383.4</ele>
        <time>2021-10-03T10:10:59Z</time>
      </trkpt>
      <trkpt lat="45.71087" lon="6.79629">
        <ele>2384</ele>
        <time>2021-10-03T10:11:07Z</time>
      </trkpt>
      <trkpt lat="45.71084" lon="6.79634">
        <ele>2382.6</ele>
        <time>2021-10-03T10:11:10Z</time>
      </trkpt>
      <trkpt lat="45.71082" lon="6.79635">
        <ele>2382.2</ele>
        <time>2021-10-03T10:11:11Z</time>
      </trkpt>
      <trkpt lat="45.7108" lon="6.79639">
        <ele>2381.2</ele>
        <time>2021-10-03T10:11:14Z</time>
      </trkpt>
      <trkpt lat="45.71079" lon="6.79643">
        <ele>2381</ele>
        <time>2021-10-03T10:11:17Z</time>
      </trkpt>
      <trkpt lat="45.71077" lon="6.79645">
        <ele>2380</ele>
        <time>2021-10-03T10:11:19Z</time>
      </trkpt>
      <trkpt lat="45.71074" lon="6.79649">
        <ele>2378.6</ele>
        <time>2021-10-03T10:11:22Z</time>
      </trkpt>
      <trkpt lat="45.71069" lon="6.79656">
        <ele>2377.6</ele>
        <time>2021-10-03T10:11:25Z</time>
      </trkpt>
      <trkpt lat="45.71059" lon="6.7967">
        <ele>2376.4</ele>
        <time>2021-10-03T10:11:31Z</time>
      </trkpt>
      <trkpt lat="45.71059" lon="6.79672">
        <ele>2376.4</ele>
        <time>2021-10-03T10:11:32Z</time>
      </trkpt>
      <trkpt lat="45.71056" lon="6.79679">
        <ele>2375.2</ele>
        <time>2021-10-03T10:11:35Z</time>
      </trkpt>
      <trkpt lat="45.71051" lon="6.79685">
        <ele>2374</ele>
        <time>2021-10-03T10:11:38Z</time>
      </trkpt>
      <trkpt lat="45.71045" lon="6.79695">
        <ele>2372.6</ele>
        <time>2021-10-03T10:11:42Z</time>
      </trkpt>
      <trkpt lat="45.71042" lon="6.79699">
        <ele>2371.4</ele>
        <time>2021-10-03T10:11:44Z</time>
      </trkpt>
      <trkpt lat="45.7104" lon="6.79702">
        <ele>2370.4</ele>
        <time>2021-10-03T10:11:45Z</time>
      </trkpt>
      <trkpt lat="45.71036" lon="6.79705">
        <ele>2369.2</ele>
        <time>2021-10-03T10:11:47Z</time>
      </trkpt>
      <trkpt lat="45.71032" lon="6.7971">
        <ele>2368.2</ele>
        <time>2021-10-03T10:11:49Z</time>
      </trkpt>
      <trkpt lat="45.7103" lon="6.79715">
        <ele>2367</ele>
        <time>2021-10-03T10:11:51Z</time>
      </trkpt>
      <trkpt lat="45.71022" lon="6.79739">
        <ele>2366.2</ele>
        <time>2021-10-03T10:11:59Z</time>
      </trkpt>
      <trkpt lat="45.71021" lon="6.79742">
        <ele>2366</ele>
        <time>2021-10-03T10:12:00Z</time>
      </trkpt>
      <trkpt lat="45.71019" lon="6.79747">
        <ele>2363.8</ele>
        <time>2021-10-03T10:12:02Z</time>
      </trkpt>
      <trkpt lat="45.71018" lon="6.7975">
        <ele>2362.2</ele>
        <time>2021-10-03T10:12:03Z</time>
      </trkpt>
      <trkpt lat="45.71015" lon="6.79755">
        <ele>2361.2</ele>
        <time>2021-10-03T10:12:05Z</time>
      </trkpt>
      <trkpt lat="45.71008" lon="6.79766">
        <ele>2362.4</ele>
        <time>2021-10-03T10:12:10Z</time>
      </trkpt>
      <trkpt lat="45.71001" lon="6.79775">
        <ele>2361.4</ele>
        <time>2021-10-03T10:12:14Z</time>
      </trkpt>
      <trkpt lat="45.70996" lon="6.79781">
        <ele>2360</ele>
        <time>2021-10-03T10:12:17Z</time>
      </trkpt>
      <trkpt lat="45.70991" lon="6.79784">
        <ele>2358.6</ele>
        <time>2021-10-03T10:12:19Z</time>
      </trkpt>
      <trkpt lat="45.70987" lon="6.79787">
        <ele>2357.4</ele>
        <time>2021-10-03T10:12:21Z</time>
      </trkpt>
      <trkpt lat="45.70981" lon="6.79791">
        <ele>2356.2</ele>
        <time>2021-10-03T10:12:23Z</time>
      </trkpt>
      <trkpt lat="45.70974" lon="6.79796">
        <ele>2355.2</ele>
        <time>2021-10-03T10:12:26Z</time>
      </trkpt>
      <trkpt lat="45.70964" lon="6.79806">
        <ele>2354</ele>
        <time>2021-10-03T10:12:31Z</time>
      </trkpt>
      <trkpt lat="45.70952" lon="6.79824">
        <ele>2352.8</ele>
        <time>2021-10-03T10:12:39Z</time>
      </trkpt>
      <trkpt lat="45.70943" lon="6.79833">
        <ele>2351.6</ele>
        <time>2021-10-03T10:12:44Z</time>
      </trkpt>
      <trkpt lat="45.70932" lon="6.7985">
        <ele>2351</ele>
        <time>2021-10-03T10:12:52Z</time>
      </trkpt>
      <trkpt lat="45.70931" lon="6.79852">
        <ele>2350</ele>
        <time>2021-10-03T10:12:53Z</time>
      </trkpt>
      <trkpt lat="45.70929" lon="6.79857">
        <ele>2348.2</ele>
        <time>2021-10-03T10:12:55Z</time>
      </trkpt>
      <trkpt lat="45.70917" lon="6.79867">
        <ele>2347.2</ele>
        <time>2021-10-03T10:13:02Z</time>
      </trkpt>
      <trkpt lat="45.70915" lon="6.7987">
        <ele>2345.8</ele>
        <time>2021-10-03T10:13:04Z</time>
      </trkpt>
      <trkpt lat="45.70908" lon="6.7988">
        <ele>2346.8</ele>
        <time>2021-10-03T10:13:09Z</time>
      </trkpt>
      <trkpt lat="45.70898" lon="6.79887">
        <ele>2345.6</ele>
        <time>2021-10-03T10:13:15Z</time>
      </trkpt>
      <trkpt lat="45.70895" lon="6.79891">
        <ele>2344</ele>
        <time>2021-10-03T10:13:17Z</time>
      </trkpt>
      <trkpt lat="45.70886" lon="6.79914">
        <ele>2343.2</ele>
        <time>2021-10-03T10:13:25Z</time>
      </trkpt>
      <trkpt lat="45.70883" lon="6.7992">
        <ele>2342.8</ele>
        <time>2021-10-03T10:13:28Z</time>
      </trkpt>
      <trkpt lat="45.70878" lon="6.79927">
        <ele>2341.2</ele>
        <time>2021-10-03T10:13:32Z</time>
      </trkpt>
      <trkpt lat="45.70875" lon="6.79931">
        <ele>2339.6</ele>
        <time>2021-10-03T10:13:34Z</time>
      </trkpt>
      <trkpt lat="45.70872" lon="6.79934">
        <ele>2338.4</ele>
        <time>2021-10-03T10:13:36Z</time>
      </trkpt>
      <trkpt lat="45.70868" lon="6.7994">
        <ele>2337.4</ele>
        <time>2021-10-03T10:13:39Z</time>
      </trkpt>
      <trkpt lat="45.70864" lon="6.79946">
        <ele>2336.2</ele>
        <time>2021-10-03T10:13:42Z</time>
      </trkpt>
      <trkpt lat="45.7086" lon="6.79949">
        <ele>2335.2</ele>
        <time>2021-10-03T10:13:45Z</time>
      </trkpt>
      <trkpt lat="45.70854" lon="6.79954">
        <ele>2334</ele>
        <time>2021-10-03T10:13:49Z</time>
      </trkpt>
      <trkpt lat="45.70853" lon="6.79956">
        <ele>2332</ele>
        <time>2021-10-03T10:13:51Z</time>
      </trkpt>
      <trkpt lat="45.70853" lon="6.79957">
        <ele>2331</ele>
        <time>2021-10-03T10:13:52Z</time>
      </trkpt>
      <trkpt lat="45.70852" lon="6.79957">
        <ele>2330</ele>
        <time>2021-10-03T10:13:53Z</time>
      </trkpt>
      <trkpt lat="45.70851" lon="6.7996">
        <ele>2329.2</ele>
        <time>2021-10-03T10:13:56Z</time>
      </trkpt>
      <trkpt lat="45.70851" lon="6.79961">
        <ele>2328.8</ele>
        <time>2021-10-03T10:13:57Z</time>
      </trkpt>
      <trkpt lat="45.70844" lon="6.79966">
        <ele>2328.6</ele>
        <time>2021-10-03T10:14:06Z</time>
      </trkpt>
      <trkpt lat="45.70839" lon="6.79957">
        <ele>2329.2</ele>
        <time>2021-10-03T10:14:11Z</time>
      </trkpt>
      <trkpt lat="45.70834" lon="6.79954">
        <ele>2328.6</ele>
        <time>2021-10-03T10:14:15Z</time>
      </trkpt>
      <trkpt lat="45.7082" lon="6.79965">
        <ele>2327.8</ele>
        <time>2021-10-03T10:14:24Z</time>
      </trkpt>
      <trkpt lat="45.70813" lon="6.79974">
        <ele>2327.6</ele>
        <time>2021-10-03T10:14:31Z</time>
      </trkpt>
      <trkpt lat="45.70812" lon="6.79977">
        <ele>2327.2</ele>
        <time>2021-10-03T10:14:33Z</time>
      </trkpt>
      <trkpt lat="45.70811" lon="6.79978">
        <ele>2326.8</ele>
        <time>2021-10-03T10:14:34Z</time>
      </trkpt>
      <trkpt lat="45.70811" lon="6.7998">
        <ele>2326.4</ele>
        <time>2021-10-03T10:14:35Z</time>
      </trkpt>
      <trkpt lat="45.7081" lon="6.79983">
        <ele>2325.6</ele>
        <time>2021-10-03T10:14:36Z</time>
      </trkpt>
      <trkpt lat="45.70809" lon="6.79985">
        <ele>2324.4</ele>
        <time>2021-10-03T10:14:37Z</time>
      </trkpt>
      <trkpt lat="45.70808" lon="6.79987">
        <ele>2322.6</ele>
        <time>2021-10-03T10:14:38Z</time>
      </trkpt>
      <trkpt lat="45.70806" lon="6.7999">
        <ele>2321.6</ele>
        <time>2021-10-03T10:14:39Z</time>
      </trkpt>
      <trkpt lat="45.70805" lon="6.79992">
        <ele>2320.6</ele>
        <time>2021-10-03T10:14:40Z</time>
      </trkpt>
      <trkpt lat="45.70804" lon="6.79995">
        <ele>2319.4</ele>
        <time>2021-10-03T10:14:41Z</time>
      </trkpt>
      <trkpt lat="45.70789" lon="6.80012">
        <ele>2319.2</ele>
        <time>2021-10-03T10:14:49Z</time>
      </trkpt>
      <trkpt lat="45.70772" lon="6.80025">
        <ele>2319</ele>
        <time>2021-10-03T10:14:57Z</time>
      </trkpt>
      <trkpt lat="45.70766" lon="6.80032">
        <ele>2317.6</ele>
        <time>2021-10-03T10:15:01Z</time>
      </trkpt>
      <trkpt lat="45.70763" lon="6.80036">
        <ele>2316.4</ele>
        <time>2021-10-03T10:15:03Z</time>
      </trkpt>
      <trkpt lat="45.70753" lon="6.80044">
        <ele>2315.4</ele>
        <time>2021-10-03T10:15:08Z</time>
      </trkpt>
      <trkpt lat="45.70738" lon="6.80049">
        <ele>2314.4</ele>
        <time>2021-10-03T10:15:20Z</time>
      </trkpt>
      <trkpt lat="45.70734" lon="6.80051">
        <ele>2313.4</ele>
        <time>2021-10-03T10:15:23Z</time>
      </trkpt>
      <trkpt lat="45.70732" lon="6.80052">
        <ele>2312.8</ele>
        <time>2021-10-03T10:15:24Z</time>
      </trkpt>
      <trkpt lat="45.70731" lon="6.80052">
        <ele>2312</ele>
        <time>2021-10-03T10:15:25Z</time>
      </trkpt>
      <trkpt lat="45.70729" lon="6.80051">
        <ele>2311.2</ele>
        <time>2021-10-03T10:15:26Z</time>
      </trkpt>
      <trkpt lat="45.70726" lon="6.80051">
        <ele>2310</ele>
        <time>2021-10-03T10:15:28Z</time>
      </trkpt>
      <trkpt lat="45.70723" lon="6.80054">
        <ele>2308.8</ele>
        <time>2021-10-03T10:15:30Z</time>
      </trkpt>
      <trkpt lat="45.70721" lon="6.80056">
        <ele>2307.6</ele>
        <time>2021-10-03T10:15:32Z</time>
      </trkpt>
      <trkpt lat="45.70718" lon="6.80059">
        <ele>2306.6</ele>
        <time>2021-10-03T10:15:34Z</time>
      </trkpt>
      <trkpt lat="45.70702" lon="6.80072">
        <ele>2305.8</ele>
        <time>2021-10-03T10:15:44Z</time>
      </trkpt>
      <trkpt lat="45.707" lon="6.80074">
        <ele>2305.4</ele>
        <time>2021-10-03T10:15:45Z</time>
      </trkpt>
      <trkpt lat="45.70695" lon="6.80078">
        <ele>2304.2</ele>
        <time>2021-10-03T10:15:48Z</time>
      </trkpt>
      <trkpt lat="45.70689" lon="6.80081">
        <ele>2302.8</ele>
        <time>2021-10-03T10:15:51Z</time>
      </trkpt>
      <trkpt lat="45.70672" lon="6.8009">
        <ele>2302.6</ele>
        <time>2021-10-03T10:16:01Z</time>
      </trkpt>
      <trkpt lat="45.7067" lon="6.80092">
        <ele>2302.4</ele>
        <time>2021-10-03T10:16:02Z</time>
      </trkpt>
      <trkpt lat="45.70666" lon="6.80095">
        <ele>2301.2</ele>
        <time>2021-10-03T10:16:04Z</time>
      </trkpt>
      <trkpt lat="45.70661" lon="6.80097">
        <ele>2300</ele>
        <time>2021-10-03T10:16:06Z</time>
      </trkpt>
      <trkpt lat="45.70654" lon="6.801">
        <ele>2299</ele>
        <time>2021-10-03T10:16:09Z</time>
      </trkpt>
      <trkpt lat="45.70637" lon="6.80111">
        <ele>2299.2</ele>
        <time>2021-10-03T10:16:18Z</time>
      </trkpt>
      <trkpt lat="45.70628" lon="6.80117">
        <ele>2297.8</ele>
        <time>2021-10-03T10:16:24Z</time>
      </trkpt>
      <trkpt lat="45.70612" lon="6.80132">
        <ele>2296.8</ele>
        <time>2021-10-03T10:16:34Z</time>
      </trkpt>
      <trkpt lat="45.70609" lon="6.80136">
        <ele>2295.6</ele>
        <time>2021-10-03T10:16:36Z</time>
      </trkpt>
      <trkpt lat="45.70604" lon="6.8014">
        <ele>2294.4</ele>
        <time>2021-10-03T10:16:39Z</time>
      </trkpt>
      <trkpt lat="45.70601" lon="6.80143">
        <ele>2292.4</ele>
        <time>2021-10-03T10:16:41Z</time>
      </trkpt>
      <trkpt lat="45.70598" lon="6.80147">
        <ele>2291</ele>
        <time>2021-10-03T10:16:43Z</time>
      </trkpt>
      <trkpt lat="45.70597" lon="6.8015">
        <ele>2289.8</ele>
        <time>2021-10-03T10:16:44Z</time>
      </trkpt>
      <trkpt lat="45.70594" lon="6.80156">
        <ele>2289.2</ele>
        <time>2021-10-03T10:16:46Z</time>
      </trkpt>
      <trkpt lat="45.7059" lon="6.80175">
        <ele>2288.4</ele>
        <time>2021-10-03T10:16:53Z</time>
      </trkpt>
      <trkpt lat="45.70589" lon="6.8018">
        <ele>2287.4</ele>
        <time>2021-10-03T10:16:55Z</time>
      </trkpt>
      <trkpt lat="45.70585" lon="6.8019">
        <ele>2286.2</ele>
        <time>2021-10-03T10:16:59Z</time>
      </trkpt>
      <trkpt lat="45.70581" lon="6.80198">
        <ele>2284.2</ele>
        <time>2021-10-03T10:17:02Z</time>
      </trkpt>
      <trkpt lat="45.70575" lon="6.80211">
        <ele>2283.2</ele>
        <time>2021-10-03T10:17:07Z</time>
      </trkpt>
      <trkpt lat="45.70569" lon="6.80221">
        <ele>2282.6</ele>
        <time>2021-10-03T10:17:11Z</time>
      </trkpt>
      <trkpt lat="45.70562" lon="6.80225">
        <ele>2282</ele>
        <time>2021-10-03T10:17:14Z</time>
      </trkpt>
      <trkpt lat="45.7056" lon="6.80226">
        <ele>2281.8</ele>
        <time>2021-10-03T10:17:15Z</time>
      </trkpt>
      <trkpt lat="45.70552" lon="6.80232">
        <ele>2280.6</ele>
        <time>2021-10-03T10:17:19Z</time>
      </trkpt>
      <trkpt lat="45.70548" lon="6.80236">
        <ele>2279.4</ele>
        <time>2021-10-03T10:17:21Z</time>
      </trkpt>
      <trkpt lat="45.70529" lon="6.80242">
        <ele>2279.4</ele>
        <time>2021-10-03T10:17:30Z</time>
      </trkpt>
      <trkpt lat="45.70523" lon="6.80245">
        <ele>2278</ele>
        <time>2021-10-03T10:17:33Z</time>
      </trkpt>
      <trkpt lat="45.7052" lon="6.80248">
        <ele>2276.4</ele>
        <time>2021-10-03T10:17:35Z</time>
      </trkpt>
      <trkpt lat="45.70516" lon="6.80251">
        <ele>2275</ele>
        <time>2021-10-03T10:17:37Z</time>
      </trkpt>
      <trkpt lat="45.70512" lon="6.80254">
        <ele>2274</ele>
        <time>2021-10-03T10:17:39Z</time>
      </trkpt>
      <trkpt lat="45.70499" lon="6.80263">
        <ele>2273.8</ele>
        <time>2021-10-03T10:17:45Z</time>
      </trkpt>
      <trkpt lat="45.70496" lon="6.80267">
        <ele>2272.8</ele>
        <time>2021-10-03T10:17:47Z</time>
      </trkpt>
      <trkpt lat="45.70494" lon="6.80268">
        <ele>2271.8</ele>
        <time>2021-10-03T10:17:48Z</time>
      </trkpt>
      <trkpt lat="45.70492" lon="6.80269">
        <ele>2270.2</ele>
        <time>2021-10-03T10:17:49Z</time>
      </trkpt>
      <trkpt lat="45.70491" lon="6.80271">
        <ele>2268.8</ele>
        <time>2021-10-03T10:17:50Z</time>
      </trkpt>
      <trkpt lat="45.70489" lon="6.80273">
        <ele>2267.6</ele>
        <time>2021-10-03T10:17:51Z</time>
      </trkpt>
      <trkpt lat="45.70487" lon="6.80279">
        <ele>2265.8</ele>
        <time>2021-10-03T10:17:53Z</time>
      </trkpt>
      <trkpt lat="45.70482" lon="6.80286">
        <ele>2264.6</ele>
        <time>2021-10-03T10:17:56Z</time>
      </trkpt>
      <trkpt lat="45.70476" lon="6.80297">
        <ele>2263.6</ele>
        <time>2021-10-03T10:18:00Z</time>
      </trkpt>
      <trkpt lat="45.70464" lon="6.80313">
        <ele>2262.4</ele>
        <time>2021-10-03T10:18:08Z</time>
      </trkpt>
      <trkpt lat="45.70461" lon="6.80317">
        <ele>2261.4</ele>
        <time>2021-10-03T10:18:10Z</time>
      </trkpt>
      <trkpt lat="45.70456" lon="6.80328">
        <ele>2260.2</ele>
        <time>2021-10-03T10:18:14Z</time>
      </trkpt>
      <trkpt lat="45.70446" lon="6.8034">
        <ele>2259</ele>
        <time>2021-10-03T10:18:21Z</time>
      </trkpt>
      <trkpt lat="45.70444" lon="6.80344">
        <ele>2257.2</ele>
        <time>2021-10-03T10:18:23Z</time>
      </trkpt>
      <trkpt lat="45.70443" lon="6.80347">
        <ele>2256.2</ele>
        <time>2021-10-03T10:18:25Z</time>
      </trkpt>
      <trkpt lat="45.70439" lon="6.80352">
        <ele>2254.8</ele>
        <time>2021-10-03T10:18:29Z</time>
      </trkpt>
      <trkpt lat="45.70437" lon="6.80356">
        <ele>2253.6</ele>
        <time>2021-10-03T10:18:31Z</time>
      </trkpt>
      <trkpt lat="45.70432" lon="6.8036">
        <ele>2252.2</ele>
        <time>2021-10-03T10:18:33Z</time>
      </trkpt>
      <trkpt lat="45.70429" lon="6.80367">
        <ele>2250.8</ele>
        <time>2021-10-03T10:18:36Z</time>
      </trkpt>
      <trkpt lat="45.70426" lon="6.80372">
        <ele>2249.4</ele>
        <time>2021-10-03T10:18:38Z</time>
      </trkpt>
      <trkpt lat="45.70424" lon="6.80374">
        <ele>2249.2</ele>
        <time>2021-10-03T10:18:39Z</time>
      </trkpt>
      <trkpt lat="45.7042" lon="6.80377">
        <ele>2250.6</ele>
        <time>2021-10-03T10:18:41Z</time>
      </trkpt>
      <trkpt lat="45.70409" lon="6.80387">
        <ele>2248.8</ele>
        <time>2021-10-03T10:18:47Z</time>
      </trkpt>
      <trkpt lat="45.70408" lon="6.80394">
        <ele>2247.2</ele>
        <time>2021-10-03T10:18:50Z</time>
      </trkpt>
      <trkpt lat="45.70408" lon="6.80401">
        <ele>2246.2</ele>
        <time>2021-10-03T10:18:53Z</time>
      </trkpt>
      <trkpt lat="45.70404" lon="6.80409">
        <ele>2244</ele>
        <time>2021-10-03T10:18:56Z</time>
      </trkpt>
      <trkpt lat="45.70402" lon="6.80411">
        <ele>2242.6</ele>
        <time>2021-10-03T10:18:57Z</time>
      </trkpt>
      <trkpt lat="45.70399" lon="6.80415">
        <ele>2241.2</ele>
        <time>2021-10-03T10:18:59Z</time>
      </trkpt>
      <trkpt lat="45.70397" lon="6.80418">
        <ele>2240</ele>
        <time>2021-10-03T10:19:01Z</time>
      </trkpt>
      <trkpt lat="45.70395" lon="6.80423">
        <ele>2238.6</ele>
        <time>2021-10-03T10:19:04Z</time>
      </trkpt>
      <trkpt lat="45.70394" lon="6.80428">
        <ele>2238</ele>
        <time>2021-10-03T10:19:06Z</time>
      </trkpt>
      <trkpt lat="45.70393" lon="6.8043">
        <ele>2237.6</ele>
        <time>2021-10-03T10:19:07Z</time>
      </trkpt>
      <trkpt lat="45.70384" lon="6.80445">
        <ele>2236.4</ele>
        <time>2021-10-03T10:19:13Z</time>
      </trkpt>
      <trkpt lat="45.70375" lon="6.8046">
        <ele>2235.8</ele>
        <time>2021-10-03T10:19:18Z</time>
      </trkpt>
      <trkpt lat="45.70372" lon="6.80462">
        <ele>2235.2</ele>
        <time>2021-10-03T10:19:19Z</time>
      </trkpt>
      <trkpt lat="45.70368" lon="6.80467">
        <ele>2234</ele>
        <time>2021-10-03T10:19:21Z</time>
      </trkpt>
      <trkpt lat="45.70362" lon="6.80478">
        <ele>2233</ele>
        <time>2021-10-03T10:19:25Z</time>
      </trkpt>
      <trkpt lat="45.70361" lon="6.80481">
        <ele>2232.6</ele>
        <time>2021-10-03T10:19:26Z</time>
      </trkpt>
      <trkpt lat="45.70359" lon="6.80488">
        <ele>2231</ele>
        <time>2021-10-03T10:19:28Z</time>
      </trkpt>
      <trkpt lat="45.70357" lon="6.80491">
        <ele>2230</ele>
        <time>2021-10-03T10:19:29Z</time>
      </trkpt>
      <trkpt lat="45.70356" lon="6.80494">
        <ele>2228.6</ele>
        <time>2021-10-03T10:19:30Z</time>
      </trkpt>
      <trkpt lat="45.70354" lon="6.805">
        <ele>2227.6</ele>
        <time>2021-10-03T10:19:32Z</time>
      </trkpt>
      <trkpt lat="45.70344" lon="6.80522">
        <ele>2227.4</ele>
        <time>2021-10-03T10:19:40Z</time>
      </trkpt>
      <trkpt lat="45.70337" lon="6.80537">
        <ele>2225.6</ele>
        <time>2021-10-03T10:19:45Z</time>
      </trkpt>
      <trkpt lat="45.70333" lon="6.80542">
        <ele>2224.4</ele>
        <time>2021-10-03T10:19:47Z</time>
      </trkpt>
      <trkpt lat="45.70318" lon="6.80557">
        <ele>2223.8</ele>
        <time>2021-10-03T10:19:54Z</time>
      </trkpt>
      <trkpt lat="45.70314" lon="6.80559">
        <ele>2222.8</ele>
        <time>2021-10-03T10:19:56Z</time>
      </trkpt>
      <trkpt lat="45.7031" lon="6.80561">
        <ele>2221.4</ele>
        <time>2021-10-03T10:19:58Z</time>
      </trkpt>
      <trkpt lat="45.703" lon="6.80567">
        <ele>2222.6</ele>
        <time>2021-10-03T10:20:03Z</time>
      </trkpt>
      <trkpt lat="45.70293" lon="6.8057">
        <ele>2223.8</ele>
        <time>2021-10-03T10:20:06Z</time>
      </trkpt>
      <trkpt lat="45.70283" lon="6.80569">
        <ele>2222.6</ele>
        <time>2021-10-03T10:20:10Z</time>
      </trkpt>
      <trkpt lat="45.70277" lon="6.80569">
        <ele>2221.4</ele>
        <time>2021-10-03T10:20:13Z</time>
      </trkpt>
      <trkpt lat="45.70273" lon="6.80569">
        <ele>2220.2</ele>
        <time>2021-10-03T10:20:15Z</time>
      </trkpt>
      <trkpt lat="45.7026" lon="6.80574">
        <ele>2221.8</ele>
        <time>2021-10-03T10:20:22Z</time>
      </trkpt>
      <trkpt lat="45.70256" lon="6.80574">
        <ele>2222.8</ele>
        <time>2021-10-03T10:20:24Z</time>
      </trkpt>
      <trkpt lat="45.70242" lon="6.8058">
        <ele>2221.8</ele>
        <time>2021-10-03T10:20:30Z</time>
      </trkpt>
      <trkpt lat="45.7024" lon="6.80581">
        <ele>2220.6</ele>
        <time>2021-10-03T10:20:31Z</time>
      </trkpt>
      <trkpt lat="45.70235" lon="6.80583">
        <ele>2219.2</ele>
        <time>2021-10-03T10:20:33Z</time>
      </trkpt>
      <trkpt lat="45.70228" lon="6.80585">
        <ele>2218</ele>
        <time>2021-10-03T10:20:36Z</time>
      </trkpt>
      <trkpt lat="45.70218" lon="6.80589">
        <ele>2217</ele>
        <time>2021-10-03T10:20:40Z</time>
      </trkpt>
      <trkpt lat="45.70204" lon="6.80603">
        <ele>2216</ele>
        <time>2021-10-03T10:20:48Z</time>
      </trkpt>
      <trkpt lat="45.70189" lon="6.80616">
        <ele>2215.6</ele>
        <time>2021-10-03T10:20:57Z</time>
      </trkpt>
      <trkpt lat="45.7018" lon="6.80625">
        <ele>2214.4</ele>
        <time>2021-10-03T10:21:02Z</time>
      </trkpt>
      <trkpt lat="45.70173" lon="6.80629">
        <ele>2213.2</ele>
        <time>2021-10-03T10:21:06Z</time>
      </trkpt>
      <trkpt lat="45.70165" lon="6.80629">
        <ele>2212.8</ele>
        <time>2021-10-03T10:21:26Z</time>
      </trkpt>
      <trkpt lat="45.70162" lon="6.8063">
        <ele>2212.2</ele>
        <time>2021-10-03T10:21:29Z</time>
      </trkpt>
      <trkpt lat="45.7016" lon="6.8063">
        <ele>2212</ele>
        <time>2021-10-03T10:21:31Z</time>
      </trkpt>
      <trkpt lat="45.7015" lon="6.8063">
        <ele>2211.4</ele>
        <time>2021-10-03T10:21:38Z</time>
      </trkpt>
      <trkpt lat="45.70149" lon="6.80632">
        <ele>2211.2</ele>
        <time>2021-10-03T10:21:39Z</time>
      </trkpt>
      <trkpt lat="45.70147" lon="6.80637">
        <ele>2210.2</ele>
        <time>2021-10-03T10:21:41Z</time>
      </trkpt>
      <trkpt lat="45.70142" lon="6.80644">
        <ele>2208.8</ele>
        <time>2021-10-03T10:21:44Z</time>
      </trkpt>
      <trkpt lat="45.70138" lon="6.80647">
        <ele>2207.6</ele>
        <time>2021-10-03T10:21:46Z</time>
      </trkpt>
      <trkpt lat="45.70136" lon="6.80649">
        <ele>2206.6</ele>
        <time>2021-10-03T10:21:47Z</time>
      </trkpt>
      <trkpt lat="45.70132" lon="6.80653">
        <ele>2205.4</ele>
        <time>2021-10-03T10:21:49Z</time>
      </trkpt>
      <trkpt lat="45.70127" lon="6.80658">
        <ele>2204</ele>
        <time>2021-10-03T10:21:52Z</time>
      </trkpt>
      <trkpt lat="45.70122" lon="6.80665">
        <ele>2202.6</ele>
        <time>2021-10-03T10:21:55Z</time>
      </trkpt>
      <trkpt lat="45.70118" lon="6.8067">
        <ele>2201.4</ele>
        <time>2021-10-03T10:21:57Z</time>
      </trkpt>
      <trkpt lat="45.70114" lon="6.80676">
        <ele>2200</ele>
        <time>2021-10-03T10:21:59Z</time>
      </trkpt>
      <trkpt lat="45.70107" lon="6.8068">
        <ele>2198.8</ele>
        <time>2021-10-03T10:22:02Z</time>
      </trkpt>
      <trkpt lat="45.70093" lon="6.80692">
        <ele>2197.2</ele>
        <time>2021-10-03T10:22:08Z</time>
      </trkpt>
      <trkpt lat="45.70089" lon="6.80696">
        <ele>2196.2</ele>
        <time>2021-10-03T10:22:10Z</time>
      </trkpt>
      <trkpt lat="45.70073" lon="6.80714">
        <ele>2196</ele>
        <time>2021-10-03T10:22:18Z</time>
      </trkpt>
      <trkpt lat="45.70063" lon="6.80723">
        <ele>2194.8</ele>
        <time>2021-10-03T10:22:23Z</time>
      </trkpt>
      <trkpt lat="45.70057" lon="6.80733">
        <ele>2193.6</ele>
        <time>2021-10-03T10:22:27Z</time>
      </trkpt>
      <trkpt lat="45.70051" lon="6.8074">
        <ele>2192</ele>
        <time>2021-10-03T10:22:30Z</time>
      </trkpt>
      <trkpt lat="45.70049" lon="6.80742">
        <ele>2191</ele>
        <time>2021-10-03T10:22:31Z</time>
      </trkpt>
      <trkpt lat="45.70045" lon="6.80746">
        <ele>2189.8</ele>
        <time>2021-10-03T10:22:33Z</time>
      </trkpt>
      <trkpt lat="45.70042" lon="6.8075">
        <ele>2189.2</ele>
        <time>2021-10-03T10:22:35Z</time>
      </trkpt>
      <trkpt lat="45.70042" lon="6.80758">
        <ele>2188.6</ele>
        <time>2021-10-03T10:22:39Z</time>
      </trkpt>
      <trkpt lat="45.70049" lon="6.80763">
        <ele>2187</ele>
        <time>2021-10-03T10:22:43Z</time>
      </trkpt>
      <trkpt lat="45.70053" lon="6.80766">
        <ele>2185.6</ele>
        <time>2021-10-03T10:22:45Z</time>
      </trkpt>
      <trkpt lat="45.70057" lon="6.80767">
        <ele>2184.2</ele>
        <time>2021-10-03T10:22:47Z</time>
      </trkpt>
      <trkpt lat="45.70059" lon="6.80767">
        <ele>2183.2</ele>
        <time>2021-10-03T10:22:49Z</time>
      </trkpt>
      <trkpt lat="45.7006" lon="6.80768">
        <ele>2182.8</ele>
        <time>2021-10-03T10:22:50Z</time>
      </trkpt>
      <trkpt lat="45.70061" lon="6.80769">
        <ele>2182.6</ele>
        <time>2021-10-03T10:22:51Z</time>
      </trkpt>
      <trkpt lat="45.7006" lon="6.80774">
        <ele>2182.2</ele>
        <time>2021-10-03T10:22:55Z</time>
      </trkpt>
      <trkpt lat="45.70042" lon="6.80779">
        <ele>2182.8</ele>
        <time>2021-10-03T10:23:08Z</time>
      </trkpt>
      <trkpt lat="45.70036" lon="6.80776">
        <ele>2182.2</ele>
        <time>2021-10-03T10:23:12Z</time>
      </trkpt>
      <trkpt lat="45.70033" lon="6.80776">
        <ele>2181.8</ele>
        <time>2021-10-03T10:23:14Z</time>
      </trkpt>
      <trkpt lat="45.70027" lon="6.8078">
        <ele>2180.6</ele>
        <time>2021-10-03T10:23:19Z</time>
      </trkpt>
      <trkpt lat="45.70026" lon="6.8078">
        <ele>2180.6</ele>
        <time>2021-10-03T10:23:20Z</time>
      </trkpt>
      <trkpt lat="45.70007" lon="6.80785">
        <ele>2180.6</ele>
        <time>2021-10-03T10:23:33Z</time>
      </trkpt>
      <trkpt lat="45.69989" lon="6.80791">
        <ele>2180.6</ele>
        <time>2021-10-03T10:23:47Z</time>
      </trkpt>
      <trkpt lat="45.6998" lon="6.8079">
        <ele>2181.2</ele>
        <time>2021-10-03T10:23:53Z</time>
      </trkpt>
      <trkpt lat="45.69976" lon="6.80792">
        <ele>2182</ele>
        <time>2021-10-03T10:23:58Z</time>
      </trkpt>
      <trkpt lat="45.69958" lon="6.80799">
        <ele>2181.6</ele>
        <time>2021-10-03T10:24:12Z</time>
      </trkpt>
      <trkpt lat="45.69953" lon="6.808">
        <ele>2180.8</ele>
        <time>2021-10-03T10:24:15Z</time>
      </trkpt>
      <trkpt lat="45.69937" lon="6.80812">
        <ele>2179.2</ele>
        <time>2021-10-03T10:24:24Z</time>
      </trkpt>
      <trkpt lat="45.69933" lon="6.80813">
        <ele>2178</ele>
        <time>2021-10-03T10:24:26Z</time>
      </trkpt>
      <trkpt lat="45.69914" lon="6.8082">
        <ele>2177.4</ele>
        <time>2021-10-03T10:24:34Z</time>
      </trkpt>
      <trkpt lat="45.69904" lon="6.80827">
        <ele>2176.8</ele>
        <time>2021-10-03T10:24:38Z</time>
      </trkpt>
      <trkpt lat="45.69895" lon="6.80838">
        <ele>2175.8</ele>
        <time>2021-10-03T10:24:43Z</time>
      </trkpt>
      <trkpt lat="45.69888" lon="6.80849">
        <ele>2174.6</ele>
        <time>2021-10-03T10:24:47Z</time>
      </trkpt>
      <trkpt lat="45.69886" lon="6.80854">
        <ele>2174.6</ele>
        <time>2021-10-03T10:24:49Z</time>
      </trkpt>
      <trkpt lat="45.69871" lon="6.80864">
        <ele>2173.6</ele>
        <time>2021-10-03T10:24:55Z</time>
      </trkpt>
      <trkpt lat="45.6986" lon="6.80871">
        <ele>2172.6</ele>
        <time>2021-10-03T10:25:00Z</time>
      </trkpt>
      <trkpt lat="45.69843" lon="6.80878">
        <ele>2171.6</ele>
        <time>2021-10-03T10:25:08Z</time>
      </trkpt>
      <trkpt lat="45.6983" lon="6.80884">
        <ele>2170.4</ele>
        <time>2021-10-03T10:25:14Z</time>
      </trkpt>
      <trkpt lat="45.69817" lon="6.80895">
        <ele>2169.4</ele>
        <time>2021-10-03T10:25:21Z</time>
      </trkpt>
      <trkpt lat="45.69808" lon="6.80902">
        <ele>2168.2</ele>
        <time>2021-10-03T10:25:26Z</time>
      </trkpt>
      <trkpt lat="45.69802" lon="6.80908">
        <ele>2167.2</ele>
        <time>2021-10-03T10:25:29Z</time>
      </trkpt>
      <trkpt lat="45.69796" lon="6.80911">
        <ele>2166</ele>
        <time>2021-10-03T10:25:33Z</time>
      </trkpt>
      <trkpt lat="45.69793" lon="6.80912">
        <ele>2165.4</ele>
        <time>2021-10-03T10:25:37Z</time>
      </trkpt>
      <trkpt lat="45.6979" lon="6.80914">
        <ele>2165</ele>
        <time>2021-10-03T10:25:41Z</time>
      </trkpt>
      <trkpt lat="45.69788" lon="6.80917">
        <ele>2164.4</ele>
        <time>2021-10-03T10:25:44Z</time>
      </trkpt>
      <trkpt lat="45.69786" lon="6.80921">
        <ele>2163.8</ele>
        <time>2021-10-03T10:25:47Z</time>
      </trkpt>
      <trkpt lat="45.6978" lon="6.80923">
        <ele>2162.8</ele>
        <time>2021-10-03T10:25:52Z</time>
      </trkpt>
      <trkpt lat="45.69771" lon="6.80926">
        <ele>2163</ele>
        <time>2021-10-03T10:26:00Z</time>
      </trkpt>
      <trkpt lat="45.69763" lon="6.80933">
        <ele>2162.6</ele>
        <time>2021-10-03T10:26:05Z</time>
      </trkpt>
      <trkpt lat="45.69761" lon="6.80935">
        <ele>2162.4</ele>
        <time>2021-10-03T10:26:07Z</time>
      </trkpt>
      <trkpt lat="45.6976" lon="6.80935">
        <ele>2162.4</ele>
        <time>2021-10-03T10:26:09Z</time>
      </trkpt>
      <trkpt lat="45.69756" lon="6.80936">
        <ele>2161.6</ele>
        <time>2021-10-03T10:26:13Z</time>
      </trkpt>
      <trkpt lat="45.69742" lon="6.80943">
        <ele>2160.4</ele>
        <time>2021-10-03T10:26:21Z</time>
      </trkpt>
      <trkpt lat="45.69734" lon="6.80947">
        <ele>2159.2</ele>
        <time>2021-10-03T10:26:25Z</time>
      </trkpt>
      <trkpt lat="45.69723" lon="6.80949">
        <ele>2158</ele>
        <time>2021-10-03T10:26:30Z</time>
      </trkpt>
      <trkpt lat="45.69716" lon="6.80954">
        <ele>2156.8</ele>
        <time>2021-10-03T10:26:35Z</time>
      </trkpt>
      <trkpt lat="45.69709" lon="6.80956">
        <ele>2155.8</ele>
        <time>2021-10-03T10:26:39Z</time>
      </trkpt>
      <trkpt lat="45.69706" lon="6.80957">
        <ele>2155.2</ele>
        <time>2021-10-03T10:26:42Z</time>
      </trkpt>
      <trkpt lat="45.69705" lon="6.80959">
        <ele>2154.8</ele>
        <time>2021-10-03T10:26:45Z</time>
      </trkpt>
      <trkpt lat="45.69698" lon="6.80964">
        <ele>2154.2</ele>
        <time>2021-10-03T10:26:51Z</time>
      </trkpt>
      <trkpt lat="45.69689" lon="6.80968">
        <ele>2153.6</ele>
        <time>2021-10-03T10:26:55Z</time>
      </trkpt>
      <trkpt lat="45.69671" lon="6.80975">
        <ele>2152.6</ele>
        <time>2021-10-03T10:27:02Z</time>
      </trkpt>
      <trkpt lat="45.69669" lon="6.80976">
        <ele>2152.2</ele>
        <time>2021-10-03T10:27:03Z</time>
      </trkpt>
      <trkpt lat="45.69663" lon="6.80977">
        <ele>2150.6</ele>
        <time>2021-10-03T10:27:05Z</time>
      </trkpt>
      <trkpt lat="45.69659" lon="6.80979">
        <ele>2149.6</ele>
        <time>2021-10-03T10:27:07Z</time>
      </trkpt>
      <trkpt lat="45.69649" lon="6.8098">
        <ele>2148.2</ele>
        <time>2021-10-03T10:27:11Z</time>
      </trkpt>
      <trkpt lat="45.69642" lon="6.8098">
        <ele>2147</ele>
        <time>2021-10-03T10:27:15Z</time>
      </trkpt>
      <trkpt lat="45.69638" lon="6.80982">
        <ele>2146.4</ele>
        <time>2021-10-03T10:27:17Z</time>
      </trkpt>
      <trkpt lat="45.69631" lon="6.80984">
        <ele>2145.8</ele>
        <time>2021-10-03T10:27:20Z</time>
      </trkpt>
      <trkpt lat="45.69614" lon="6.80993">
        <ele>2145</ele>
        <time>2021-10-03T10:27:28Z</time>
      </trkpt>
      <trkpt lat="45.69612" lon="6.80994">
        <ele>2144.8</ele>
        <time>2021-10-03T10:27:29Z</time>
      </trkpt>
      <trkpt lat="45.69594" lon="6.80997">
        <ele>2143.6</ele>
        <time>2021-10-03T10:27:37Z</time>
      </trkpt>
      <trkpt lat="45.69582" lon="6.81004">
        <ele>2143.6</ele>
        <time>2021-10-03T10:27:43Z</time>
      </trkpt>
      <trkpt lat="45.69563" lon="6.81007">
        <ele>2143.4</ele>
        <time>2021-10-03T10:27:53Z</time>
      </trkpt>
      <trkpt lat="45.69558" lon="6.81011">
        <ele>2142.6</ele>
        <time>2021-10-03T10:27:57Z</time>
      </trkpt>
      <trkpt lat="45.69554" lon="6.81017">
        <ele>2141.6</ele>
        <time>2021-10-03T10:28:00Z</time>
      </trkpt>
      <trkpt lat="45.69543" lon="6.81039">
        <ele>2140.8</ele>
        <time>2021-10-03T10:28:10Z</time>
      </trkpt>
      <trkpt lat="45.69542" lon="6.8104">
        <ele>2140.4</ele>
        <time>2021-10-03T10:28:11Z</time>
      </trkpt>
      <trkpt lat="45.69535" lon="6.81046">
        <ele>2140</ele>
        <time>2021-10-03T10:28:18Z</time>
      </trkpt>
      <trkpt lat="45.69521" lon="6.81045">
        <ele>2140.8</ele>
        <time>2021-10-03T10:28:25Z</time>
      </trkpt>
      <trkpt lat="45.69514" lon="6.81052">
        <ele>2139.4</ele>
        <time>2021-10-03T10:28:30Z</time>
      </trkpt>
      <trkpt lat="45.695" lon="6.81064">
        <ele>2138.2</ele>
        <time>2021-10-03T10:28:38Z</time>
      </trkpt>
      <trkpt lat="45.6949" lon="6.81071">
        <ele>2137</ele>
        <time>2021-10-03T10:28:43Z</time>
      </trkpt>
      <trkpt lat="45.6948" lon="6.81076">
        <ele>2136.4</ele>
        <time>2021-10-03T10:28:48Z</time>
      </trkpt>
      <trkpt lat="45.69478" lon="6.81076">
        <ele>2135.8</ele>
        <time>2021-10-03T10:28:49Z</time>
      </trkpt>
      <trkpt lat="45.6947" lon="6.8108">
        <ele>2134.8</ele>
        <time>2021-10-03T10:28:54Z</time>
      </trkpt>
      <trkpt lat="45.69462" lon="6.81083">
        <ele>2133.6</ele>
        <time>2021-10-03T10:28:58Z</time>
      </trkpt>
      <trkpt lat="45.69449" lon="6.81091">
        <ele>2132.4</ele>
        <time>2021-10-03T10:29:05Z</time>
      </trkpt>
      <trkpt lat="45.69445" lon="6.81093">
        <ele>2132</ele>
        <time>2021-10-03T10:29:07Z</time>
      </trkpt>
      <trkpt lat="45.69432" lon="6.81111">
        <ele>2131.4</ele>
        <time>2021-10-03T10:29:18Z</time>
      </trkpt>
      <trkpt lat="45.69426" lon="6.81118">
        <ele>2130</ele>
        <time>2021-10-03T10:29:22Z</time>
      </trkpt>
      <trkpt lat="45.69409" lon="6.81132">
        <ele>2130</ele>
        <time>2021-10-03T10:29:32Z</time>
      </trkpt>
      <trkpt lat="45.69398" lon="6.81141">
        <ele>2129</ele>
        <time>2021-10-03T10:29:39Z</time>
      </trkpt>
      <trkpt lat="45.69386" lon="6.81149">
        <ele>2128.2</ele>
        <time>2021-10-03T10:29:47Z</time>
      </trkpt>
      <trkpt lat="45.69373" lon="6.81154">
        <ele>2128</ele>
        <time>2021-10-03T10:29:54Z</time>
      </trkpt>
      <trkpt lat="45.69369" lon="6.81157">
        <ele>2127</ele>
        <time>2021-10-03T10:29:57Z</time>
      </trkpt>
      <trkpt lat="45.69365" lon="6.81161">
        <ele>2125.8</ele>
        <time>2021-10-03T10:30:00Z</time>
      </trkpt>
      <trkpt lat="45.69349" lon="6.81169">
        <ele>2124.6</ele>
        <time>2021-10-03T10:30:08Z</time>
      </trkpt>
      <trkpt lat="45.69343" lon="6.81174">
        <ele>2123.6</ele>
        <time>2021-10-03T10:30:11Z</time>
      </trkpt>
      <trkpt lat="45.69335" lon="6.8118">
        <ele>2122</ele>
        <time>2021-10-03T10:30:15Z</time>
      </trkpt>
      <trkpt lat="45.6932" lon="6.81194">
        <ele>2121.4</ele>
        <time>2021-10-03T10:30:26Z</time>
      </trkpt>
      <trkpt lat="45.69312" lon="6.81202">
        <ele>2121</ele>
        <time>2021-10-03T10:30:30Z</time>
      </trkpt>
      <trkpt lat="45.69295" lon="6.81211">
        <ele>2119.8</ele>
        <time>2021-10-03T10:30:37Z</time>
      </trkpt>
      <trkpt lat="45.69278" lon="6.8122">
        <ele>2119.6</ele>
        <time>2021-10-03T10:30:45Z</time>
      </trkpt>
      <trkpt lat="45.69272" lon="6.81221">
        <ele>2119</ele>
        <time>2021-10-03T10:30:48Z</time>
      </trkpt>
      <trkpt lat="45.69272" lon="6.81223">
        <ele>2118.4</ele>
        <time>2021-10-03T10:30:49Z</time>
      </trkpt>
      <trkpt lat="45.69271" lon="6.8123">
        <ele>2117.2</ele>
        <time>2021-10-03T10:30:51Z</time>
      </trkpt>
      <trkpt lat="45.69271" lon="6.81234">
        <ele>2116.4</ele>
        <time>2021-10-03T10:30:52Z</time>
      </trkpt>
      <trkpt lat="45.69268" lon="6.81236">
        <ele>2115.8</ele>
        <time>2021-10-03T10:30:53Z</time>
      </trkpt>
      <trkpt lat="45.69253" lon="6.81249">
        <ele>2115.6</ele>
        <time>2021-10-03T10:31:01Z</time>
      </trkpt>
      <trkpt lat="45.69249" lon="6.81261">
        <ele>2115</ele>
        <time>2021-10-03T10:31:05Z</time>
      </trkpt>
      <trkpt lat="45.69247" lon="6.81262">
        <ele>2114.8</ele>
        <time>2021-10-03T10:31:06Z</time>
      </trkpt>
      <trkpt lat="45.69243" lon="6.81262">
        <ele>2115</ele>
        <time>2021-10-03T10:31:08Z</time>
      </trkpt>
      <trkpt lat="45.6924" lon="6.81261">
        <ele>2115.2</ele>
        <time>2021-10-03T10:31:10Z</time>
      </trkpt>
      <trkpt lat="45.69235" lon="6.81265">
        <ele>2115.8</ele>
        <time>2021-10-03T10:31:14Z</time>
      </trkpt>
      <trkpt lat="45.69231" lon="6.81267">
        <ele>2116</ele>
        <time>2021-10-03T10:31:17Z</time>
      </trkpt>
      <trkpt lat="45.69224" lon="6.81263">
        <ele>2116.4</ele>
        <time>2021-10-03T10:31:21Z</time>
      </trkpt>
      <trkpt lat="45.69215" lon="6.81271">
        <ele>2114.6</ele>
        <time>2021-10-03T10:31:27Z</time>
      </trkpt>
      <trkpt lat="45.69212" lon="6.81275">
        <ele>2113.4</ele>
        <time>2021-10-03T10:31:29Z</time>
      </trkpt>
      <trkpt lat="45.69211" lon="6.81278">
        <ele>2113</ele>
        <time>2021-10-03T10:31:30Z</time>
      </trkpt>
      <trkpt lat="45.69211" lon="6.81281">
        <ele>2112.4</ele>
        <time>2021-10-03T10:31:31Z</time>
      </trkpt>
      <trkpt lat="45.69212" lon="6.81284">
        <ele>2111.6</ele>
        <time>2021-10-03T10:31:32Z</time>
      </trkpt>
      <trkpt lat="45.69213" lon="6.81286">
        <ele>2111</ele>
        <time>2021-10-03T10:31:33Z</time>
      </trkpt>
      <trkpt lat="45.69214" lon="6.81288">
        <ele>2110.6</ele>
        <time>2021-10-03T10:31:34Z</time>
      </trkpt>
      <trkpt lat="45.69214" lon="6.81292">
        <ele>2109.6</ele>
        <time>2021-10-03T10:31:36Z</time>
      </trkpt>
      <trkpt lat="45.69215" lon="6.81294">
        <ele>2108.6</ele>
        <time>2021-10-03T10:31:38Z</time>
      </trkpt>
      <trkpt lat="45.69213" lon="6.813">
        <ele>2107.8</ele>
        <time>2021-10-03T10:31:42Z</time>
      </trkpt>
      <trkpt lat="45.69213" lon="6.81303">
        <ele>2107.6</ele>
        <time>2021-10-03T10:31:44Z</time>
      </trkpt>
      <trkpt lat="45.69211" lon="6.81305">
        <ele>2108</ele>
        <time>2021-10-03T10:31:47Z</time>
      </trkpt>
      <trkpt lat="45.69206" lon="6.81312">
        <ele>2109</ele>
        <time>2021-10-03T10:31:53Z</time>
      </trkpt>
      <trkpt lat="45.69192" lon="6.81329">
        <ele>2109.2</ele>
        <time>2021-10-03T10:32:01Z</time>
      </trkpt>
      <trkpt lat="45.69174" lon="6.81343">
        <ele>2107.4</ele>
        <time>2021-10-03T10:32:09Z</time>
      </trkpt>
      <trkpt lat="45.69165" lon="6.81347">
        <ele>2106.4</ele>
        <time>2021-10-03T10:32:13Z</time>
      </trkpt>
      <trkpt lat="45.6916" lon="6.8135">
        <ele>2105.4</ele>
        <time>2021-10-03T10:32:15Z</time>
      </trkpt>
      <trkpt lat="45.69153" lon="6.81354">
        <ele>2104.2</ele>
        <time>2021-10-03T10:32:18Z</time>
      </trkpt>
      <trkpt lat="45.69146" lon="6.8136">
        <ele>2102.6</ele>
        <time>2021-10-03T10:32:21Z</time>
      </trkpt>
      <trkpt lat="45.6914" lon="6.81367">
        <ele>2101</ele>
        <time>2021-10-03T10:32:24Z</time>
      </trkpt>
      <trkpt lat="45.69135" lon="6.81376">
        <ele>2099.8</ele>
        <time>2021-10-03T10:32:27Z</time>
      </trkpt>
      <trkpt lat="45.69126" lon="6.81389">
        <ele>2098.8</ele>
        <time>2021-10-03T10:32:31Z</time>
      </trkpt>
      <trkpt lat="45.69118" lon="6.814">
        <ele>2097.6</ele>
        <time>2021-10-03T10:32:35Z</time>
      </trkpt>
      <trkpt lat="45.69106" lon="6.81412">
        <ele>2096.4</ele>
        <time>2021-10-03T10:32:40Z</time>
      </trkpt>
      <trkpt lat="45.69098" lon="6.81422">
        <ele>2095</ele>
        <time>2021-10-03T10:32:44Z</time>
      </trkpt>
      <trkpt lat="45.69093" lon="6.81431">
        <ele>2094</ele>
        <time>2021-10-03T10:32:47Z</time>
      </trkpt>
      <trkpt lat="45.69088" lon="6.81445">
        <ele>2092.6</ele>
        <time>2021-10-03T10:32:51Z</time>
      </trkpt>
      <trkpt lat="45.69085" lon="6.8146">
        <ele>2091.6</ele>
        <time>2021-10-03T10:32:55Z</time>
      </trkpt>
      <trkpt lat="45.69077" lon="6.81484">
        <ele>2090.8</ele>
        <time>2021-10-03T10:33:02Z</time>
      </trkpt>
      <trkpt lat="45.69075" lon="6.81487">
        <ele>2090.6</ele>
        <time>2021-10-03T10:33:03Z</time>
      </trkpt>
      <trkpt lat="45.69061" lon="6.81503">
        <ele>2090</ele>
        <time>2021-10-03T10:33:10Z</time>
      </trkpt>
      <trkpt lat="45.69053" lon="6.81509">
        <ele>2089.6</ele>
        <time>2021-10-03T10:33:13Z</time>
      </trkpt>
      <trkpt lat="45.69036" lon="6.81523">
        <ele>2088.4</ele>
        <time>2021-10-03T10:33:21Z</time>
      </trkpt>
      <trkpt lat="45.6902" lon="6.81538">
        <ele>2087.6</ele>
        <time>2021-10-03T10:33:29Z</time>
      </trkpt>
      <trkpt lat="45.69004" lon="6.81553">
        <ele>2087.6</ele>
        <time>2021-10-03T10:33:37Z</time>
      </trkpt>
      <trkpt lat="45.69002" lon="6.81555">
        <ele>2087.6</ele>
        <time>2021-10-03T10:33:38Z</time>
      </trkpt>
      <trkpt lat="45.68997" lon="6.81564">
        <ele>2087.4</ele>
        <time>2021-10-03T10:33:42Z</time>
      </trkpt>
      <trkpt lat="45.68991" lon="6.81574">
        <ele>2086.2</ele>
        <time>2021-10-03T10:33:46Z</time>
      </trkpt>
      <trkpt lat="45.68977" lon="6.81584">
        <ele>2085</ele>
        <time>2021-10-03T10:33:52Z</time>
      </trkpt>
      <trkpt lat="45.6897" lon="6.81588">
        <ele>2083.8</ele>
        <time>2021-10-03T10:33:55Z</time>
      </trkpt>
      <trkpt lat="45.68962" lon="6.81591">
        <ele>2082.4</ele>
        <time>2021-10-03T10:33:58Z</time>
      </trkpt>
      <trkpt lat="45.68955" lon="6.81592">
        <ele>2080.8</ele>
        <time>2021-10-03T10:34:01Z</time>
      </trkpt>
      <trkpt lat="45.68945" lon="6.81595">
        <ele>2079.8</ele>
        <time>2021-10-03T10:34:05Z</time>
      </trkpt>
      <trkpt lat="45.68933" lon="6.81602">
        <ele>2078.6</ele>
        <time>2021-10-03T10:34:10Z</time>
      </trkpt>
      <trkpt lat="45.68926" lon="6.81612">
        <ele>2077.6</ele>
        <time>2021-10-03T10:34:14Z</time>
      </trkpt>
      <trkpt lat="45.68916" lon="6.81631">
        <ele>2076.4</ele>
        <time>2021-10-03T10:34:20Z</time>
      </trkpt>
      <trkpt lat="45.68901" lon="6.81638">
        <ele>2075.4</ele>
        <time>2021-10-03T10:34:26Z</time>
      </trkpt>
      <trkpt lat="45.68883" lon="6.81651">
        <ele>2076.4</ele>
        <time>2021-10-03T10:34:35Z</time>
      </trkpt>
      <trkpt lat="45.68866" lon="6.81658">
        <ele>2075.8</ele>
        <time>2021-10-03T10:34:43Z</time>
      </trkpt>
      <trkpt lat="45.68852" lon="6.81659">
        <ele>2074.4</ele>
        <time>2021-10-03T10:34:48Z</time>
      </trkpt>
      <trkpt lat="45.68834" lon="6.81667">
        <ele>2073</ele>
        <time>2021-10-03T10:34:55Z</time>
      </trkpt>
      <trkpt lat="45.68829" lon="6.8167">
        <ele>2071.4</ele>
        <time>2021-10-03T10:34:57Z</time>
      </trkpt>
      <trkpt lat="45.68825" lon="6.81675">
        <ele>2070</ele>
        <time>2021-10-03T10:34:59Z</time>
      </trkpt>
      <trkpt lat="45.68818" lon="6.81681">
        <ele>2069</ele>
        <time>2021-10-03T10:35:02Z</time>
      </trkpt>
      <trkpt lat="45.68803" lon="6.81699">
        <ele>2069</ele>
        <time>2021-10-03T10:35:10Z</time>
      </trkpt>
      <trkpt lat="45.68784" lon="6.81703">
        <ele>2069.6</ele>
        <time>2021-10-03T10:35:18Z</time>
      </trkpt>
      <trkpt lat="45.68777" lon="6.81704">
        <ele>2070.2</ele>
        <time>2021-10-03T10:35:21Z</time>
      </trkpt>
      <trkpt lat="45.68757" lon="6.81708">
        <ele>2070.2</ele>
        <time>2021-10-03T10:35:29Z</time>
      </trkpt>
      <trkpt lat="45.6874" lon="6.81708">
        <ele>2069</ele>
        <time>2021-10-03T10:35:36Z</time>
      </trkpt>
      <trkpt lat="45.6873" lon="6.81709">
        <ele>2068</ele>
        <time>2021-10-03T10:35:40Z</time>
      </trkpt>
      <trkpt lat="45.68717" lon="6.81704">
        <ele>2067</ele>
        <time>2021-10-03T10:35:45Z</time>
      </trkpt>
      <trkpt lat="45.68706" lon="6.81703">
        <ele>2065.8</ele>
        <time>2021-10-03T10:35:49Z</time>
      </trkpt>
      <trkpt lat="45.687" lon="6.81703">
        <ele>2064.8</ele>
        <time>2021-10-03T10:35:54Z</time>
      </trkpt>
      <trkpt lat="45.68687" lon="6.81705">
        <ele>2063.8</ele>
        <time>2021-10-03T10:36:05Z</time>
      </trkpt>
      <trkpt lat="45.68686" lon="6.81705">
        <ele>2063.6</ele>
        <time>2021-10-03T10:36:06Z</time>
      </trkpt>
      <trkpt lat="45.68681" lon="6.81703">
        <ele>2062.6</ele>
        <time>2021-10-03T10:36:11Z</time>
      </trkpt>
      <trkpt lat="45.68677" lon="6.81704">
        <ele>2062.2</ele>
        <time>2021-10-03T10:36:16Z</time>
      </trkpt>
      <trkpt lat="45.68676" lon="6.81699">
        <ele>2061.6</ele>
        <time>2021-10-03T10:37:38Z</time>
      </trkpt>
      <trkpt lat="45.68674" lon="6.81702">
        <ele>2060.8</ele>
        <time>2021-10-03T10:38:36Z</time>
      </trkpt>
      <trkpt lat="45.68673" lon="6.81702">
        <ele>2062.6</ele>
        <time>2021-10-03T10:39:04Z</time>
      </trkpt>
      <trkpt lat="45.68672" lon="6.81702">
        <ele>2061.4</ele>
        <time>2021-10-03T10:39:29Z</time>
      </trkpt>
      <trkpt lat="45.68671" lon="6.81702">
        <ele>2062.6</ele>
        <time>2021-10-03T10:39:47Z</time>
      </trkpt>
      <trkpt lat="45.68676" lon="6.81704">
        <ele>2061.4</ele>
        <time>2021-10-03T10:40:24Z</time>
      </trkpt>
      <trkpt lat="45.68672" lon="6.81701">
        <ele>2061.8</ele>
        <time>2021-10-03T10:42:27Z</time>
      </trkpt>
      <trkpt lat="45.68664" lon="6.81707">
        <ele>2061.8</ele>
        <time>2021-10-03T10:43:16Z</time>
      </trkpt>
      <trkpt lat="45.68663" lon="6.81709">
        <ele>2062.4</ele>
        <time>2021-10-03T10:43:18Z</time>
      </trkpt>
      <trkpt lat="45.68662" lon="6.8171">
        <ele>2062.6</ele>
        <time>2021-10-03T10:43:19Z</time>
      </trkpt>
      <trkpt lat="45.68661" lon="6.81711">
        <ele>2062.6</ele>
        <time>2021-10-03T10:43:20Z</time>
      </trkpt>
      <trkpt lat="45.68643" lon="6.81718">
        <ele>2062.8</ele>
        <time>2021-10-03T10:43:35Z</time>
      </trkpt>
      <trkpt lat="45.68632" lon="6.81719">
        <ele>2063.6</ele>
        <time>2021-10-03T10:43:44Z</time>
      </trkpt>
      <trkpt lat="45.68614" lon="6.81721">
        <ele>2062.8</ele>
        <time>2021-10-03T10:43:59Z</time>
      </trkpt>
      <trkpt lat="45.68613" lon="6.81721">
        <ele>2062.6</ele>
        <time>2021-10-03T10:44:00Z</time>
      </trkpt>
      <trkpt lat="45.68596" lon="6.81725">
        <ele>2061.4</ele>
        <time>2021-10-03T10:44:13Z</time>
      </trkpt>
      <trkpt lat="45.6859" lon="6.81726">
        <ele>2060.4</ele>
        <time>2021-10-03T10:44:17Z</time>
      </trkpt>
      <trkpt lat="45.68571" lon="6.81723">
        <ele>2060</ele>
        <time>2021-10-03T10:44:28Z</time>
      </trkpt>
      <trkpt lat="45.68553" lon="6.8172">
        <ele>2059.2</ele>
        <time>2021-10-03T10:44:39Z</time>
      </trkpt>
      <trkpt lat="45.68545" lon="6.81717">
        <ele>2058.2</ele>
        <time>2021-10-03T10:44:44Z</time>
      </trkpt>
      <trkpt lat="45.68531" lon="6.81708">
        <ele>2057</ele>
        <time>2021-10-03T10:44:54Z</time>
      </trkpt>
      <trkpt lat="45.68513" lon="6.81699">
        <ele>2058</ele>
        <time>2021-10-03T10:45:05Z</time>
      </trkpt>
      <trkpt lat="45.68509" lon="6.81697">
        <ele>2058</ele>
        <time>2021-10-03T10:45:07Z</time>
      </trkpt>
      <trkpt lat="45.68497" lon="6.81693">
        <ele>2057</ele>
        <time>2021-10-03T10:45:14Z</time>
      </trkpt>
      <trkpt lat="45.68492" lon="6.81692">
        <ele>2056</ele>
        <time>2021-10-03T10:45:17Z</time>
      </trkpt>
      <trkpt lat="45.68477" lon="6.81686">
        <ele>2057</ele>
        <time>2021-10-03T10:45:28Z</time>
      </trkpt>
      <trkpt lat="45.68465" lon="6.81687">
        <ele>2056</ele>
        <time>2021-10-03T10:45:35Z</time>
      </trkpt>
      <trkpt lat="45.68449" lon="6.81693">
        <ele>2057.2</ele>
        <time>2021-10-03T10:45:44Z</time>
      </trkpt>
      <trkpt lat="45.68443" lon="6.81694">
        <ele>2058.4</ele>
        <time>2021-10-03T10:45:48Z</time>
      </trkpt>
      <trkpt lat="45.68434" lon="6.8169">
        <ele>2059.6</ele>
        <time>2021-10-03T10:45:54Z</time>
      </trkpt>
      <trkpt lat="45.68432" lon="6.8169">
        <ele>2061</ele>
        <time>2021-10-03T10:45:56Z</time>
      </trkpt>
      <trkpt lat="45.68429" lon="6.81689">
        <ele>2062.8</ele>
        <time>2021-10-03T10:45:58Z</time>
      </trkpt>
      <trkpt lat="45.68425" lon="6.81686">
        <ele>2064.2</ele>
        <time>2021-10-03T10:46:00Z</time>
      </trkpt>
      <trkpt lat="45.68423" lon="6.81686">
        <ele>2065</ele>
        <time>2021-10-03T10:46:02Z</time>
      </trkpt>
      <trkpt lat="45.68422" lon="6.81688">
        <ele>2065.2</ele>
        <time>2021-10-03T10:46:03Z</time>
      </trkpt>
      <trkpt lat="45.68418" lon="6.8169">
        <ele>2066</ele>
        <time>2021-10-03T10:46:06Z</time>
      </trkpt>
      <trkpt lat="45.68416" lon="6.81691">
        <ele>2066.4</ele>
        <time>2021-10-03T10:46:08Z</time>
      </trkpt>
      <trkpt lat="45.6841" lon="6.81694">
        <ele>2067.6</ele>
        <time>2021-10-03T10:46:13Z</time>
      </trkpt>
      <trkpt lat="45.68407" lon="6.817">
        <ele>2069</ele>
        <time>2021-10-03T10:46:18Z</time>
      </trkpt>
      <trkpt lat="45.68403" lon="6.81728">
        <ele>2067.8</ele>
        <time>2021-10-03T10:46:29Z</time>
      </trkpt>
      <trkpt lat="45.68401" lon="6.81739">
        <ele>2067.4</ele>
        <time>2021-10-03T10:46:35Z</time>
      </trkpt>
      <trkpt lat="45.68397" lon="6.81742">
        <ele>2068.2</ele>
        <time>2021-10-03T10:46:40Z</time>
      </trkpt>
      <trkpt lat="45.68396" lon="6.81743">
        <ele>2069</ele>
        <time>2021-10-03T10:46:41Z</time>
      </trkpt>
      <trkpt lat="45.68384" lon="6.81752">
        <ele>2069.6</ele>
        <time>2021-10-03T10:46:52Z</time>
      </trkpt>
      <trkpt lat="45.68383" lon="6.81753">
        <ele>2070.2</ele>
        <time>2021-10-03T10:46:53Z</time>
      </trkpt>
      <trkpt lat="45.68383" lon="6.81754">
        <ele>2071.4</ele>
        <time>2021-10-03T10:46:54Z</time>
      </trkpt>
      <trkpt lat="45.68381" lon="6.81756">
        <ele>2072.6</ele>
        <time>2021-10-03T10:46:56Z</time>
      </trkpt>
      <trkpt lat="45.68373" lon="6.81761">
        <ele>2074</ele>
        <time>2021-10-03T10:47:03Z</time>
      </trkpt>
      <trkpt lat="45.68371" lon="6.81762">
        <ele>2075</ele>
        <time>2021-10-03T10:47:05Z</time>
      </trkpt>
      <trkpt lat="45.68369" lon="6.81764">
        <ele>2076.2</ele>
        <time>2021-10-03T10:47:08Z</time>
      </trkpt>
      <trkpt lat="45.68366" lon="6.81766">
        <ele>2077.4</ele>
        <time>2021-10-03T10:47:11Z</time>
      </trkpt>
      <trkpt lat="45.68365" lon="6.81767">
        <ele>2078.6</ele>
        <time>2021-10-03T10:47:13Z</time>
      </trkpt>
      <trkpt lat="45.68362" lon="6.81768">
        <ele>2080.4</ele>
        <time>2021-10-03T10:47:15Z</time>
      </trkpt>
      <trkpt lat="45.6836" lon="6.81769">
        <ele>2081.8</ele>
        <time>2021-10-03T10:47:17Z</time>
      </trkpt>
      <trkpt lat="45.68358" lon="6.8177">
        <ele>2083</ele>
        <time>2021-10-03T10:47:19Z</time>
      </trkpt>
      <trkpt lat="45.68355" lon="6.81772">
        <ele>2084.6</ele>
        <time>2021-10-03T10:47:22Z</time>
      </trkpt>
      <trkpt lat="45.68338" lon="6.81782">
        <ele>2083.6</ele>
        <time>2021-10-03T10:47:36Z</time>
      </trkpt>
      <trkpt lat="45.68337" lon="6.81783">
        <ele>2083.2</ele>
        <time>2021-10-03T10:47:37Z</time>
      </trkpt>
      <trkpt lat="45.68333" lon="6.81782">
        <ele>2083</ele>
        <time>2021-10-03T10:47:43Z</time>
      </trkpt>
      <trkpt lat="45.68321" lon="6.81802">
        <ele>2082.8</ele>
        <time>2021-10-03T10:47:58Z</time>
      </trkpt>
      <trkpt lat="45.68319" lon="6.81806">
        <ele>2081.6</ele>
        <time>2021-10-03T10:48:01Z</time>
      </trkpt>
      <trkpt lat="45.68319" lon="6.81809">
        <ele>2079.8</ele>
        <time>2021-10-03T10:48:03Z</time>
      </trkpt>
      <trkpt lat="45.68317" lon="6.81813">
        <ele>2078.8</ele>
        <time>2021-10-03T10:48:06Z</time>
      </trkpt>
      <trkpt lat="45.68314" lon="6.81814">
        <ele>2080</ele>
        <time>2021-10-03T10:48:09Z</time>
      </trkpt>
      <trkpt lat="45.68312" lon="6.81815">
        <ele>2080.2</ele>
        <time>2021-10-03T10:48:12Z</time>
      </trkpt>
      <trkpt lat="45.6831" lon="6.81814">
        <ele>2079.4</ele>
        <time>2021-10-03T10:48:14Z</time>
      </trkpt>
      <trkpt lat="45.68307" lon="6.81814">
        <ele>2079</ele>
        <time>2021-10-03T10:48:16Z</time>
      </trkpt>
      <trkpt lat="45.68305" lon="6.81815">
        <ele>2079</ele>
        <time>2021-10-03T10:48:18Z</time>
      </trkpt>
      <trkpt lat="45.68302" lon="6.81814">
        <ele>2078.8</ele>
        <time>2021-10-03T10:48:22Z</time>
      </trkpt>
      <trkpt lat="45.68299" lon="6.81813">
        <ele>2078.6</ele>
        <time>2021-10-03T10:48:25Z</time>
      </trkpt>
      <trkpt lat="45.68296" lon="6.81812">
        <ele>2079</ele>
        <time>2021-10-03T10:48:29Z</time>
      </trkpt>
      <trkpt lat="45.68294" lon="6.81813">
        <ele>2079.6</ele>
        <time>2021-10-03T10:48:31Z</time>
      </trkpt>
      <trkpt lat="45.68292" lon="6.81814">
        <ele>2080.2</ele>
        <time>2021-10-03T10:48:33Z</time>
      </trkpt>
      <trkpt lat="45.68288" lon="6.81818">
        <ele>2081.2</ele>
        <time>2021-10-03T10:48:39Z</time>
      </trkpt>
      <trkpt lat="45.68286" lon="6.81819">
        <ele>2082.2</ele>
        <time>2021-10-03T10:48:42Z</time>
      </trkpt>
      <trkpt lat="45.68285" lon="6.8182">
        <ele>2082.6</ele>
        <time>2021-10-03T10:48:43Z</time>
      </trkpt>
      <trkpt lat="45.68282" lon="6.8182">
        <ele>2084.4</ele>
        <time>2021-10-03T10:48:45Z</time>
      </trkpt>
      <trkpt lat="45.6828" lon="6.8182">
        <ele>2085.6</ele>
        <time>2021-10-03T10:48:47Z</time>
      </trkpt>
      <trkpt lat="45.68263" lon="6.81822">
        <ele>2086.8</ele>
        <time>2021-10-03T10:49:02Z</time>
      </trkpt>
      <trkpt lat="45.68258" lon="6.81823">
        <ele>2088.2</ele>
        <time>2021-10-03T10:49:07Z</time>
      </trkpt>
      <trkpt lat="45.68258" lon="6.81824">
        <ele>2088.6</ele>
        <time>2021-10-03T10:49:08Z</time>
      </trkpt>
      <trkpt lat="45.68256" lon="6.81825">
        <ele>2089.6</ele>
        <time>2021-10-03T10:49:10Z</time>
      </trkpt>
      <trkpt lat="45.68254" lon="6.81826">
        <ele>2090</ele>
        <time>2021-10-03T10:49:12Z</time>
      </trkpt>
      <trkpt lat="45.68251" lon="6.81827">
        <ele>2090.8</ele>
        <time>2021-10-03T10:49:17Z</time>
      </trkpt>
      <trkpt lat="45.6825" lon="6.81827">
        <ele>2091.2</ele>
        <time>2021-10-03T10:49:18Z</time>
      </trkpt>
      <trkpt lat="45.68249" lon="6.81827">
        <ele>2092</ele>
        <time>2021-10-03T10:49:20Z</time>
      </trkpt>
      <trkpt lat="45.68248" lon="6.81827">
        <ele>2092.4</ele>
        <time>2021-10-03T10:49:21Z</time>
      </trkpt>
      <trkpt lat="45.68246" lon="6.81826">
        <ele>2093.2</ele>
        <time>2021-10-03T10:49:23Z</time>
      </trkpt>
      <trkpt lat="45.68243" lon="6.81826">
        <ele>2094</ele>
        <time>2021-10-03T10:49:25Z</time>
      </trkpt>
      <trkpt lat="45.68243" lon="6.81826">
        <ele>2094.4</ele>
        <time>2021-10-03T10:49:26Z</time>
      </trkpt>
      <trkpt lat="45.68242" lon="6.81826">
        <ele>2094.6</ele>
        <time>2021-10-03T10:49:27Z</time>
      </trkpt>
      <trkpt lat="45.68241" lon="6.81826">
        <ele>2094.4</ele>
        <time>2021-10-03T10:49:29Z</time>
      </trkpt>
      <trkpt lat="45.68238" lon="6.81827">
        <ele>2093.8</ele>
        <time>2021-10-03T10:49:33Z</time>
      </trkpt>
      <trkpt lat="45.68237" lon="6.81827">
        <ele>2095</ele>
        <time>2021-10-03T10:49:35Z</time>
      </trkpt>
      <trkpt lat="45.68236" lon="6.81826">
        <ele>2095.6</ele>
        <time>2021-10-03T10:49:36Z</time>
      </trkpt>
      <trkpt lat="45.68235" lon="6.81826">
        <ele>2096.8</ele>
        <time>2021-10-03T10:49:38Z</time>
      </trkpt>
      <trkpt lat="45.68234" lon="6.81826">
        <ele>2097.4</ele>
        <time>2021-10-03T10:49:39Z</time>
      </trkpt>
      <trkpt lat="45.68233" lon="6.81825">
        <ele>2098</ele>
        <time>2021-10-03T10:49:40Z</time>
      </trkpt>
      <trkpt lat="45.68232" lon="6.81825">
        <ele>2099</ele>
        <time>2021-10-03T10:49:43Z</time>
      </trkpt>
      <trkpt lat="45.68226" lon="6.81832">
        <ele>2097.8</ele>
        <time>2021-10-03T10:49:53Z</time>
      </trkpt>
      <trkpt lat="45.68218" lon="6.81836">
        <ele>2099.6</ele>
        <time>2021-10-03T10:50:04Z</time>
      </trkpt>
      <trkpt lat="45.68217" lon="6.81837">
        <ele>2100.8</ele>
        <time>2021-10-03T10:50:06Z</time>
      </trkpt>
      <trkpt lat="45.68215" lon="6.81838">
        <ele>2102.2</ele>
        <time>2021-10-03T10:50:09Z</time>
      </trkpt>
      <trkpt lat="45.68213" lon="6.81837">
        <ele>2103.8</ele>
        <time>2021-10-03T10:50:11Z</time>
      </trkpt>
      <trkpt lat="45.68212" lon="6.81838">
        <ele>2104.8</ele>
        <time>2021-10-03T10:50:14Z</time>
      </trkpt>
      <trkpt lat="45.68204" lon="6.81839">
        <ele>2106</ele>
        <time>2021-10-03T10:50:24Z</time>
      </trkpt>
      <trkpt lat="45.68199" lon="6.81843">
        <ele>2105.8</ele>
        <time>2021-10-03T10:50:30Z</time>
      </trkpt>
      <trkpt lat="45.68197" lon="6.81844">
        <ele>2106</ele>
        <time>2021-10-03T10:50:33Z</time>
      </trkpt>
      <trkpt lat="45.68196" lon="6.81844">
        <ele>2107</ele>
        <time>2021-10-03T10:50:35Z</time>
      </trkpt>
      <trkpt lat="45.68196" lon="6.81844">
        <ele>2107.2</ele>
        <time>2021-10-03T10:50:36Z</time>
      </trkpt>
      <trkpt lat="45.68195" lon="6.81844">
        <ele>2108.6</ele>
        <time>2021-10-03T10:50:39Z</time>
      </trkpt>
      <trkpt lat="45.68194" lon="6.81845">
        <ele>2110.4</ele>
        <time>2021-10-03T10:50:41Z</time>
      </trkpt>
      <trkpt lat="45.68192" lon="6.81847">
        <ele>2111.6</ele>
        <time>2021-10-03T10:50:44Z</time>
      </trkpt>
      <trkpt lat="45.68188" lon="6.81849">
        <ele>2112.6</ele>
        <time>2021-10-03T10:50:50Z</time>
      </trkpt>
      <trkpt lat="45.68184" lon="6.8185">
        <ele>2113.8</ele>
        <time>2021-10-03T10:50:55Z</time>
      </trkpt>
      <trkpt lat="45.68182" lon="6.81851">
        <ele>2115</ele>
        <time>2021-10-03T10:50:58Z</time>
      </trkpt>
      <trkpt lat="45.68179" lon="6.81851">
        <ele>2116</ele>
        <time>2021-10-03T10:51:02Z</time>
      </trkpt>
      <trkpt lat="45.68171" lon="6.81857">
        <ele>2117.2</ele>
        <time>2021-10-03T10:51:13Z</time>
      </trkpt>
      <trkpt lat="45.68169" lon="6.81857">
        <ele>2118.2</ele>
        <time>2021-10-03T10:51:16Z</time>
      </trkpt>
      <trkpt lat="45.6816" lon="6.81866">
        <ele>2118.8</ele>
        <time>2021-10-03T10:51:30Z</time>
      </trkpt>
      <trkpt lat="45.68157" lon="6.81871">
        <ele>2116.8</ele>
        <time>2021-10-03T10:51:36Z</time>
      </trkpt>
      <trkpt lat="45.68156" lon="6.81872">
        <ele>2118</ele>
        <time>2021-10-03T10:51:39Z</time>
      </trkpt>
      <trkpt lat="45.68154" lon="6.81873">
        <ele>2119</ele>
        <time>2021-10-03T10:51:41Z</time>
      </trkpt>
      <trkpt lat="45.68153" lon="6.81873">
        <ele>2120.2</ele>
        <time>2021-10-03T10:51:43Z</time>
      </trkpt>
      <trkpt lat="45.68152" lon="6.81874">
        <ele>2121.4</ele>
        <time>2021-10-03T10:51:45Z</time>
      </trkpt>
      <trkpt lat="45.6815" lon="6.81875">
        <ele>2123</ele>
        <time>2021-10-03T10:51:47Z</time>
      </trkpt>
      <trkpt lat="45.68142" lon="6.81881">
        <ele>2124</ele>
        <time>2021-10-03T10:51:58Z</time>
      </trkpt>
      <trkpt lat="45.68141" lon="6.81883">
        <ele>2125.4</ele>
        <time>2021-10-03T10:52:00Z</time>
      </trkpt>
      <trkpt lat="45.6814" lon="6.81885">
        <ele>2126.8</ele>
        <time>2021-10-03T10:52:02Z</time>
      </trkpt>
      <trkpt lat="45.68138" lon="6.81886">
        <ele>2127.8</ele>
        <time>2021-10-03T10:52:05Z</time>
      </trkpt>
      <trkpt lat="45.68134" lon="6.8189">
        <ele>2128.8</ele>
        <time>2021-10-03T10:52:11Z</time>
      </trkpt>
      <trkpt lat="45.6813" lon="6.81892">
        <ele>2130</ele>
        <time>2021-10-03T10:52:14Z</time>
      </trkpt>
      <trkpt lat="45.68127" lon="6.81895">
        <ele>2130</ele>
        <time>2021-10-03T10:52:17Z</time>
      </trkpt>
      <trkpt lat="45.68125" lon="6.819">
        <ele>2129.4</ele>
        <time>2021-10-03T10:52:20Z</time>
      </trkpt>
      <trkpt lat="45.6812" lon="6.8191">
        <ele>2131</ele>
        <time>2021-10-03T10:52:27Z</time>
      </trkpt>
      <trkpt lat="45.68118" lon="6.81911">
        <ele>2131.6</ele>
        <time>2021-10-03T10:52:29Z</time>
      </trkpt>
      <trkpt lat="45.68116" lon="6.81912">
        <ele>2132.4</ele>
        <time>2021-10-03T10:52:31Z</time>
      </trkpt>
      <trkpt lat="45.68113" lon="6.8192">
        <ele>2132.2</ele>
        <time>2021-10-03T10:52:37Z</time>
      </trkpt>
      <trkpt lat="45.68113" lon="6.81922">
        <ele>2132</ele>
        <time>2021-10-03T10:52:39Z</time>
      </trkpt>
      <trkpt lat="45.68109" lon="6.81928">
        <ele>2133.2</ele>
        <time>2021-10-03T10:52:44Z</time>
      </trkpt>
      <trkpt lat="45.68105" lon="6.81936">
        <ele>2133.4</ele>
        <time>2021-10-03T10:52:49Z</time>
      </trkpt>
      <trkpt lat="45.68102" lon="6.8194">
        <ele>2134</ele>
        <time>2021-10-03T10:52:52Z</time>
      </trkpt>
      <trkpt lat="45.681" lon="6.81948">
        <ele>2134.2</ele>
        <time>2021-10-03T10:52:57Z</time>
      </trkpt>
      <trkpt lat="45.68095" lon="6.8195">
        <ele>2134</ele>
        <time>2021-10-03T10:53:02Z</time>
      </trkpt>
      <trkpt lat="45.68091" lon="6.81956">
        <ele>2134.6</ele>
        <time>2021-10-03T10:53:06Z</time>
      </trkpt>
      <trkpt lat="45.68089" lon="6.81958">
        <ele>2135.4</ele>
        <time>2021-10-03T10:53:08Z</time>
      </trkpt>
      <trkpt lat="45.68087" lon="6.8196">
        <ele>2135.6</ele>
        <time>2021-10-03T10:53:10Z</time>
      </trkpt>
      <trkpt lat="45.68084" lon="6.81961">
        <ele>2134.8</ele>
        <time>2021-10-03T10:53:13Z</time>
      </trkpt>
      <trkpt lat="45.68082" lon="6.81962">
        <ele>2134.4</ele>
        <time>2021-10-03T10:53:14Z</time>
      </trkpt>
      <trkpt lat="45.68067" lon="6.81965">
        <ele>2133.6</ele>
        <time>2021-10-03T10:53:26Z</time>
      </trkpt>
      <trkpt lat="45.68066" lon="6.81966">
        <ele>2133.2</ele>
        <time>2021-10-03T10:53:27Z</time>
      </trkpt>
      <trkpt lat="45.68057" lon="6.81971">
        <ele>2132.8</ele>
        <time>2021-10-03T10:53:33Z</time>
      </trkpt>
      <trkpt lat="45.68043" lon="6.81982">
        <ele>2133.8</ele>
        <time>2021-10-03T10:53:44Z</time>
      </trkpt>
      <trkpt lat="45.6804" lon="6.81983">
        <ele>2134.2</ele>
        <time>2021-10-03T10:53:47Z</time>
      </trkpt>
      <trkpt lat="45.68035" lon="6.81984">
        <ele>2134.4</ele>
        <time>2021-10-03T10:53:50Z</time>
      </trkpt>
      <trkpt lat="45.6802" lon="6.81999">
        <ele>2134.4</ele>
        <time>2021-10-03T10:54:02Z</time>
      </trkpt>
      <trkpt lat="45.68018" lon="6.82002">
        <ele>2134.4</ele>
        <time>2021-10-03T10:54:04Z</time>
      </trkpt>
      <trkpt lat="45.68015" lon="6.82005">
        <ele>2134.4</ele>
        <time>2021-10-03T10:54:06Z</time>
      </trkpt>
      <trkpt lat="45.68013" lon="6.8201">
        <ele>2134.4</ele>
        <time>2021-10-03T10:54:09Z</time>
      </trkpt>
      <trkpt lat="45.68011" lon="6.82012">
        <ele>2134.6</ele>
        <time>2021-10-03T10:54:11Z</time>
      </trkpt>
      <trkpt lat="45.68008" lon="6.82016">
        <ele>2135.4</ele>
        <time>2021-10-03T10:54:14Z</time>
      </trkpt>
      <trkpt lat="45.68006" lon="6.82017">
        <ele>2135.8</ele>
        <time>2021-10-03T10:54:16Z</time>
      </trkpt>
      <trkpt lat="45.67992" lon="6.82019">
        <ele>2135.6</ele>
        <time>2021-10-03T10:54:25Z</time>
      </trkpt>
      <trkpt lat="45.6799" lon="6.82022">
        <ele>2135.8</ele>
        <time>2021-10-03T10:54:27Z</time>
      </trkpt>
      <trkpt lat="45.67973" lon="6.82031">
        <ele>2136.8</ele>
        <time>2021-10-03T10:54:39Z</time>
      </trkpt>
      <trkpt lat="45.67967" lon="6.82035">
        <ele>2137.8</ele>
        <time>2021-10-03T10:54:43Z</time>
      </trkpt>
      <trkpt lat="45.67949" lon="6.82044">
        <ele>2138.2</ele>
        <time>2021-10-03T10:54:54Z</time>
      </trkpt>
      <trkpt lat="45.67941" lon="6.82051">
        <ele>2139</ele>
        <time>2021-10-03T10:55:00Z</time>
      </trkpt>
      <trkpt lat="45.67936" lon="6.82048">
        <ele>2138.6</ele>
        <time>2021-10-03T10:55:04Z</time>
      </trkpt>
      <trkpt lat="45.67932" lon="6.82047">
        <ele>2137.8</ele>
        <time>2021-10-03T10:55:07Z</time>
      </trkpt>
      <trkpt lat="45.67918" lon="6.82046">
        <ele>2139</ele>
        <time>2021-10-03T10:55:16Z</time>
      </trkpt>
      <trkpt lat="45.67903" lon="6.82056">
        <ele>2139</ele>
        <time>2021-10-03T10:55:28Z</time>
      </trkpt>
      <trkpt lat="45.67889" lon="6.82062">
        <ele>2138.8</ele>
        <time>2021-10-03T10:55:39Z</time>
      </trkpt>
      <trkpt lat="45.67876" lon="6.82077">
        <ele>2139.6</ele>
        <time>2021-10-03T10:55:53Z</time>
      </trkpt>
      <trkpt lat="45.67873" lon="6.82086">
        <ele>2140</ele>
        <time>2021-10-03T10:55:58Z</time>
      </trkpt>
      <trkpt lat="45.67872" lon="6.82089">
        <ele>2140.6</ele>
        <time>2021-10-03T10:56:00Z</time>
      </trkpt>
      <trkpt lat="45.67869" lon="6.82094">
        <ele>2141.2</ele>
        <time>2021-10-03T10:56:03Z</time>
      </trkpt>
      <trkpt lat="45.67867" lon="6.82096">
        <ele>2142.4</ele>
        <time>2021-10-03T10:56:06Z</time>
      </trkpt>
      <trkpt lat="45.67865" lon="6.82097">
        <ele>2142.8</ele>
        <time>2021-10-03T10:56:08Z</time>
      </trkpt>
      <trkpt lat="45.67846" lon="6.82096">
        <ele>2141.8</ele>
        <time>2021-10-03T10:56:20Z</time>
      </trkpt>
      <trkpt lat="45.67838" lon="6.82098">
        <ele>2141.2</ele>
        <time>2021-10-03T10:56:24Z</time>
      </trkpt>
      <trkpt lat="45.67832" lon="6.82101">
        <ele>2140.8</ele>
        <time>2021-10-03T10:56:27Z</time>
      </trkpt>
      <trkpt lat="45.67827" lon="6.82099">
        <ele>2140</ele>
        <time>2021-10-03T10:56:30Z</time>
      </trkpt>
      <trkpt lat="45.67824" lon="6.82097">
        <ele>2139.4</ele>
        <time>2021-10-03T10:56:32Z</time>
      </trkpt>
      <trkpt lat="45.67822" lon="6.82097">
        <ele>2138.6</ele>
        <time>2021-10-03T10:56:33Z</time>
      </trkpt>
      <trkpt lat="45.67817" lon="6.82098">
        <ele>2137</ele>
        <time>2021-10-03T10:56:35Z</time>
      </trkpt>
      <trkpt lat="45.67813" lon="6.82098">
        <ele>2136</ele>
        <time>2021-10-03T10:56:37Z</time>
      </trkpt>
      <trkpt lat="45.67803" lon="6.82105">
        <ele>2135.8</ele>
        <time>2021-10-03T10:56:43Z</time>
      </trkpt>
      <trkpt lat="45.67803" lon="6.82117">
        <ele>2136.6</ele>
        <time>2021-10-03T10:56:48Z</time>
      </trkpt>
      <trkpt lat="45.678" lon="6.8212">
        <ele>2137.2</ele>
        <time>2021-10-03T10:56:50Z</time>
      </trkpt>
      <trkpt lat="45.67794" lon="6.82124">
        <ele>2138.4</ele>
        <time>2021-10-03T10:56:54Z</time>
      </trkpt>
      <trkpt lat="45.67793" lon="6.82124">
        <ele>2138.6</ele>
        <time>2021-10-03T10:56:55Z</time>
      </trkpt>
      <trkpt lat="45.67789" lon="6.82121">
        <ele>2138.6</ele>
        <time>2021-10-03T10:56:58Z</time>
      </trkpt>
      <trkpt lat="45.67783" lon="6.8213">
        <ele>2137.4</ele>
        <time>2021-10-03T10:57:04Z</time>
      </trkpt>
      <trkpt lat="45.67778" lon="6.82137">
        <ele>2136.8</ele>
        <time>2021-10-03T10:57:08Z</time>
      </trkpt>
      <trkpt lat="45.67768" lon="6.82147">
        <ele>2137.4</ele>
        <time>2021-10-03T10:57:18Z</time>
      </trkpt>
      <trkpt lat="45.6776" lon="6.82149">
        <ele>2138.2</ele>
        <time>2021-10-03T10:57:24Z</time>
      </trkpt>
      <trkpt lat="45.67745" lon="6.8215">
        <ele>2137.8</ele>
        <time>2021-10-03T10:57:33Z</time>
      </trkpt>
      <trkpt lat="45.67736" lon="6.82159">
        <ele>2136</ele>
        <time>2021-10-03T10:57:41Z</time>
      </trkpt>
      <trkpt lat="45.67734" lon="6.82156">
        <ele>2134.6</ele>
        <time>2021-10-03T10:57:43Z</time>
      </trkpt>
      <trkpt lat="45.67732" lon="6.82156">
        <ele>2134</ele>
        <time>2021-10-03T10:57:44Z</time>
      </trkpt>
      <trkpt lat="45.6773" lon="6.82157">
        <ele>2133.4</ele>
        <time>2021-10-03T10:57:46Z</time>
      </trkpt>
      <trkpt lat="45.67726" lon="6.82158">
        <ele>2132.2</ele>
        <time>2021-10-03T10:57:48Z</time>
      </trkpt>
      <trkpt lat="45.6772" lon="6.82162">
        <ele>2131</ele>
        <time>2021-10-03T10:57:51Z</time>
      </trkpt>
      <trkpt lat="45.67718" lon="6.82165">
        <ele>2130.2</ele>
        <time>2021-10-03T10:57:53Z</time>
      </trkpt>
      <trkpt lat="45.67722" lon="6.82171">
        <ele>2130.4</ele>
        <time>2021-10-03T10:57:57Z</time>
      </trkpt>
      <trkpt lat="45.67728" lon="6.82176">
        <ele>2130</ele>
        <time>2021-10-03T10:58:01Z</time>
      </trkpt>
      <trkpt lat="45.67731" lon="6.82183">
        <ele>2128.4</ele>
        <time>2021-10-03T10:58:03Z</time>
      </trkpt>
      <trkpt lat="45.67734" lon="6.8219">
        <ele>2127.2</ele>
        <time>2021-10-03T10:58:05Z</time>
      </trkpt>
      <trkpt lat="45.67742" lon="6.82213">
        <ele>2127.6</ele>
        <time>2021-10-03T10:58:12Z</time>
      </trkpt>
      <trkpt lat="45.67741" lon="6.82217">
        <ele>2127</ele>
        <time>2021-10-03T10:58:14Z</time>
      </trkpt>
      <trkpt lat="45.67738" lon="6.82221">
        <ele>2126.2</ele>
        <time>2021-10-03T10:58:17Z</time>
      </trkpt>
      <trkpt lat="45.67735" lon="6.82224">
        <ele>2125.4</ele>
        <time>2021-10-03T10:58:19Z</time>
      </trkpt>
      <trkpt lat="45.67734" lon="6.82225">
        <ele>2125</ele>
        <time>2021-10-03T10:58:20Z</time>
      </trkpt>
      <trkpt lat="45.6773" lon="6.82227">
        <ele>2124.2</ele>
        <time>2021-10-03T10:58:22Z</time>
      </trkpt>
      <trkpt lat="45.67727" lon="6.82229">
        <ele>2124</ele>
        <time>2021-10-03T10:58:24Z</time>
      </trkpt>
      <trkpt lat="45.67717" lon="6.82228">
        <ele>2122.8</ele>
        <time>2021-10-03T10:58:30Z</time>
      </trkpt>
      <trkpt lat="45.67715" lon="6.82228">
        <ele>2121.6</ele>
        <time>2021-10-03T10:58:32Z</time>
      </trkpt>
      <trkpt lat="45.67713" lon="6.82227">
        <ele>2120.8</ele>
        <time>2021-10-03T10:58:33Z</time>
      </trkpt>
      <trkpt lat="45.67712" lon="6.82227">
        <ele>2120.4</ele>
        <time>2021-10-03T10:58:34Z</time>
      </trkpt>
      <trkpt lat="45.6771" lon="6.82227">
        <ele>2120</ele>
        <time>2021-10-03T10:58:35Z</time>
      </trkpt>
      <trkpt lat="45.67706" lon="6.82227">
        <ele>2119</ele>
        <time>2021-10-03T10:58:37Z</time>
      </trkpt>
      <trkpt lat="45.67701" lon="6.82224">
        <ele>2118</ele>
        <time>2021-10-03T10:58:40Z</time>
      </trkpt>
      <trkpt lat="45.677" lon="6.82223">
        <ele>2117.6</ele>
        <time>2021-10-03T10:58:41Z</time>
      </trkpt>
      <trkpt lat="45.67695" lon="6.82224">
        <ele>2116.8</ele>
        <time>2021-10-03T10:58:44Z</time>
      </trkpt>
      <trkpt lat="45.67694" lon="6.82225">
        <ele>2116.4</ele>
        <time>2021-10-03T10:58:45Z</time>
      </trkpt>
      <trkpt lat="45.67692" lon="6.82229">
        <ele>2116</ele>
        <time>2021-10-03T10:58:47Z</time>
      </trkpt>
      <trkpt lat="45.67689" lon="6.82232">
        <ele>2115.6</ele>
        <time>2021-10-03T10:58:50Z</time>
      </trkpt>
      <trkpt lat="45.67679" lon="6.82239">
        <ele>2114</ele>
        <time>2021-10-03T10:58:56Z</time>
      </trkpt>
      <trkpt lat="45.67676" lon="6.82243">
        <ele>2112.6</ele>
        <time>2021-10-03T10:58:58Z</time>
      </trkpt>
      <trkpt lat="45.67674" lon="6.82248">
        <ele>2111.6</ele>
        <time>2021-10-03T10:59:00Z</time>
      </trkpt>
      <trkpt lat="45.67661" lon="6.82265">
        <ele>2110.6</ele>
        <time>2021-10-03T10:59:08Z</time>
      </trkpt>
      <trkpt lat="45.67656" lon="6.82278">
        <ele>2110</ele>
        <time>2021-10-03T10:59:13Z</time>
      </trkpt>
      <trkpt lat="45.67655" lon="6.82284">
        <ele>2109.4</ele>
        <time>2021-10-03T10:59:15Z</time>
      </trkpt>
      <trkpt lat="45.67655" lon="6.82292">
        <ele>2108.6</ele>
        <time>2021-10-03T10:59:18Z</time>
      </trkpt>
      <trkpt lat="45.67653" lon="6.82296">
        <ele>2108.2</ele>
        <time>2021-10-03T10:59:20Z</time>
      </trkpt>
      <trkpt lat="45.67642" lon="6.82317">
        <ele>2107.6</ele>
        <time>2021-10-03T10:59:30Z</time>
      </trkpt>
      <trkpt lat="45.6763" lon="6.82329">
        <ele>2107</ele>
        <time>2021-10-03T10:59:41Z</time>
      </trkpt>
      <trkpt lat="45.67629" lon="6.8233">
        <ele>2106.8</ele>
        <time>2021-10-03T10:59:42Z</time>
      </trkpt>
      <trkpt lat="45.67615" lon="6.82338">
        <ele>2106.8</ele>
        <time>2021-10-03T10:59:55Z</time>
      </trkpt>
      <trkpt lat="45.67614" lon="6.82341">
        <ele>2107</ele>
        <time>2021-10-03T10:59:57Z</time>
      </trkpt>
      <trkpt lat="45.67609" lon="6.82342">
        <ele>2106.8</ele>
        <time>2021-10-03T11:00:00Z</time>
      </trkpt>
      <trkpt lat="45.67603" lon="6.82348">
        <ele>2105.8</ele>
        <time>2021-10-03T11:00:04Z</time>
      </trkpt>
      <trkpt lat="45.67586" lon="6.82357">
        <ele>2106.4</ele>
        <time>2021-10-03T11:00:16Z</time>
      </trkpt>
      <trkpt lat="45.67575" lon="6.8236">
        <ele>2107</ele>
        <time>2021-10-03T11:00:22Z</time>
      </trkpt>
      <trkpt lat="45.67565" lon="6.82364">
        <ele>2108</ele>
        <time>2021-10-03T11:00:29Z</time>
      </trkpt>
      <trkpt lat="45.67561" lon="6.82365">
        <ele>2109</ele>
        <time>2021-10-03T11:00:32Z</time>
      </trkpt>
      <trkpt lat="45.67543" lon="6.82373">
        <ele>2109</ele>
        <time>2021-10-03T11:00:46Z</time>
      </trkpt>
      <trkpt lat="45.67527" lon="6.82385">
        <ele>2110.4</ele>
        <time>2021-10-03T11:00:55Z</time>
      </trkpt>
      <trkpt lat="45.67513" lon="6.82392">
        <ele>2111.4</ele>
        <time>2021-10-03T11:01:03Z</time>
      </trkpt>
      <trkpt lat="45.67508" lon="6.82395">
        <ele>2112.4</ele>
        <time>2021-10-03T11:01:06Z</time>
      </trkpt>
      <trkpt lat="45.67503" lon="6.82396">
        <ele>2113.6</ele>
        <time>2021-10-03T11:01:09Z</time>
      </trkpt>
      <trkpt lat="45.67493" lon="6.824">
        <ele>2112.4</ele>
        <time>2021-10-03T11:01:16Z</time>
      </trkpt>
      <trkpt lat="45.67475" lon="6.82407">
        <ele>2113.4</ele>
        <time>2021-10-03T11:01:28Z</time>
      </trkpt>
      <trkpt lat="45.6747" lon="6.8241">
        <ele>2111.4</ele>
        <time>2021-10-03T11:01:33Z</time>
      </trkpt>
      <trkpt lat="45.67459" lon="6.82417">
        <ele>2112.6</ele>
        <time>2021-10-03T11:01:44Z</time>
      </trkpt>
      <trkpt lat="45.67454" lon="6.82418">
        <ele>2113.8</ele>
        <time>2021-10-03T11:01:48Z</time>
      </trkpt>
      <trkpt lat="45.67447" lon="6.8242">
        <ele>2112.6</ele>
        <time>2021-10-03T11:01:53Z</time>
      </trkpt>
      <trkpt lat="45.67429" lon="6.82424">
        <ele>2112.8</ele>
        <time>2021-10-03T11:02:03Z</time>
      </trkpt>
      <trkpt lat="45.67419" lon="6.82428">
        <ele>2111.6</ele>
        <time>2021-10-03T11:02:10Z</time>
      </trkpt>
      <trkpt lat="45.67416" lon="6.82429">
        <ele>2111.8</ele>
        <time>2021-10-03T11:02:12Z</time>
      </trkpt>
      <trkpt lat="45.67409" lon="6.82432">
        <ele>2112.6</ele>
        <time>2021-10-03T11:02:17Z</time>
      </trkpt>
      <trkpt lat="45.674" lon="6.82437">
        <ele>2113.8</ele>
        <time>2021-10-03T11:02:21Z</time>
      </trkpt>
      <trkpt lat="45.67389" lon="6.82441">
        <ele>2115</ele>
        <time>2021-10-03T11:02:27Z</time>
      </trkpt>
      <trkpt lat="45.67374" lon="6.82447">
        <ele>2116.2</ele>
        <time>2021-10-03T11:02:37Z</time>
      </trkpt>
      <trkpt lat="45.67372" lon="6.82448">
        <ele>2117.4</ele>
        <time>2021-10-03T11:02:39Z</time>
      </trkpt>
      <trkpt lat="45.67353" lon="6.82454">
        <ele>2118.4</ele>
        <time>2021-10-03T11:02:52Z</time>
      </trkpt>
      <trkpt lat="45.67345" lon="6.82457">
        <ele>2118.4</ele>
        <time>2021-10-03T11:02:58Z</time>
      </trkpt>
      <trkpt lat="45.67327" lon="6.82458">
        <ele>2117.6</ele>
        <time>2021-10-03T11:03:10Z</time>
      </trkpt>
      <trkpt lat="45.67326" lon="6.82459">
        <ele>2117</ele>
        <time>2021-10-03T11:03:11Z</time>
      </trkpt>
      <trkpt lat="45.67322" lon="6.82463">
        <ele>2115.8</ele>
        <time>2021-10-03T11:03:14Z</time>
      </trkpt>
      <trkpt lat="45.67312" lon="6.82471">
        <ele>2117.4</ele>
        <time>2021-10-03T11:03:22Z</time>
      </trkpt>
      <trkpt lat="45.67307" lon="6.82471">
        <ele>2117.6</ele>
        <time>2021-10-03T11:03:25Z</time>
      </trkpt>
      <trkpt lat="45.67297" lon="6.82479">
        <ele>2116.4</ele>
        <time>2021-10-03T11:03:33Z</time>
      </trkpt>
      <trkpt lat="45.67283" lon="6.82484">
        <ele>2116.2</ele>
        <time>2021-10-03T11:03:44Z</time>
      </trkpt>
      <trkpt lat="45.67273" lon="6.82485">
        <ele>2117.4</ele>
        <time>2021-10-03T11:03:52Z</time>
      </trkpt>
      <trkpt lat="45.67268" lon="6.82486">
        <ele>2118.4</ele>
        <time>2021-10-03T11:03:59Z</time>
      </trkpt>
      <trkpt lat="45.67257" lon="6.82488">
        <ele>2117.2</ele>
        <time>2021-10-03T11:04:08Z</time>
      </trkpt>
      <trkpt lat="45.67252" lon="6.8249">
        <ele>2116.2</ele>
        <time>2021-10-03T11:04:12Z</time>
      </trkpt>
      <trkpt lat="45.67242" lon="6.82495">
        <ele>2117.2</ele>
        <time>2021-10-03T11:04:20Z</time>
      </trkpt>
      <trkpt lat="45.67238" lon="6.825">
        <ele>2117.2</ele>
        <time>2021-10-03T11:04:25Z</time>
      </trkpt>
      <trkpt lat="45.67235" lon="6.82503">
        <ele>2118.8</ele>
        <time>2021-10-03T11:04:28Z</time>
      </trkpt>
      <trkpt lat="45.67233" lon="6.82504">
        <ele>2119.8</ele>
        <time>2021-10-03T11:04:30Z</time>
      </trkpt>
      <trkpt lat="45.67232" lon="6.82505">
        <ele>2120.2</ele>
        <time>2021-10-03T11:04:32Z</time>
      </trkpt>
      <trkpt lat="45.6723" lon="6.82505">
        <ele>2120.8</ele>
        <time>2021-10-03T11:04:34Z</time>
      </trkpt>
      <trkpt lat="45.67229" lon="6.82506">
        <ele>2120.8</ele>
        <time>2021-10-03T11:04:35Z</time>
      </trkpt>
      <trkpt lat="45.67228" lon="6.82508">
        <ele>2121.2</ele>
        <time>2021-10-03T11:04:37Z</time>
      </trkpt>
      <trkpt lat="45.67224" lon="6.8251">
        <ele>2122</ele>
        <time>2021-10-03T11:04:41Z</time>
      </trkpt>
      <trkpt lat="45.67223" lon="6.82511">
        <ele>2122.2</ele>
        <time>2021-10-03T11:04:43Z</time>
      </trkpt>
      <trkpt lat="45.6722" lon="6.82514">
        <ele>2122.4</ele>
        <time>2021-10-03T11:04:46Z</time>
      </trkpt>
      <trkpt lat="45.67217" lon="6.82516">
        <ele>2123.2</ele>
        <time>2021-10-03T11:04:50Z</time>
      </trkpt>
      <trkpt lat="45.67216" lon="6.82517">
        <ele>2124.2</ele>
        <time>2021-10-03T11:04:52Z</time>
      </trkpt>
      <trkpt lat="45.67213" lon="6.82518">
        <ele>2125.4</ele>
        <time>2021-10-03T11:04:56Z</time>
      </trkpt>
      <trkpt lat="45.67211" lon="6.82519">
        <ele>2125.8</ele>
        <time>2021-10-03T11:04:58Z</time>
      </trkpt>
      <trkpt lat="45.6721" lon="6.8252">
        <ele>2126</ele>
        <time>2021-10-03T11:05:00Z</time>
      </trkpt>
      <trkpt lat="45.67208" lon="6.82524">
        <ele>2125.6</ele>
        <time>2021-10-03T11:05:04Z</time>
      </trkpt>
      <trkpt lat="45.67206" lon="6.82525">
        <ele>2125.4</ele>
        <time>2021-10-03T11:05:06Z</time>
      </trkpt>
      <trkpt lat="45.67205" lon="6.82526">
        <ele>2125.6</ele>
        <time>2021-10-03T11:05:08Z</time>
      </trkpt>
      <trkpt lat="45.67202" lon="6.82532">
        <ele>2126.8</ele>
        <time>2021-10-03T11:05:17Z</time>
      </trkpt>
      <trkpt lat="45.67201" lon="6.82534">
        <ele>2128</ele>
        <time>2021-10-03T11:05:19Z</time>
      </trkpt>
      <trkpt lat="45.67198" lon="6.82537">
        <ele>2129</ele>
        <time>2021-10-03T11:05:25Z</time>
      </trkpt>
      <trkpt lat="45.67197" lon="6.82538">
        <ele>2130.4</ele>
        <time>2021-10-03T11:05:27Z</time>
      </trkpt>
      <trkpt lat="45.67196" lon="6.82538">
        <ele>2132</ele>
        <time>2021-10-03T11:05:29Z</time>
      </trkpt>
      <trkpt lat="45.67194" lon="6.82538">
        <ele>2133.4</ele>
        <time>2021-10-03T11:05:33Z</time>
      </trkpt>
      <trkpt lat="45.67193" lon="6.82538">
        <ele>2135</ele>
        <time>2021-10-03T11:05:35Z</time>
      </trkpt>
      <trkpt lat="45.67192" lon="6.82538">
        <ele>2136.2</ele>
        <time>2021-10-03T11:05:37Z</time>
      </trkpt>
      <trkpt lat="45.67189" lon="6.82539">
        <ele>2137.2</ele>
        <time>2021-10-03T11:05:43Z</time>
      </trkpt>
      <trkpt lat="45.67186" lon="6.8254">
        <ele>2138.4</ele>
        <time>2021-10-03T11:05:48Z</time>
      </trkpt>
      <trkpt lat="45.67185" lon="6.8254">
        <ele>2139.4</ele>
        <time>2021-10-03T11:05:51Z</time>
      </trkpt>
      <trkpt lat="45.67181" lon="6.82539">
        <ele>2140.6</ele>
        <time>2021-10-03T11:05:57Z</time>
      </trkpt>
      <trkpt lat="45.67179" lon="6.82537">
        <ele>2142.4</ele>
        <time>2021-10-03T11:06:00Z</time>
      </trkpt>
      <trkpt lat="45.67177" lon="6.82538">
        <ele>2143.4</ele>
        <time>2021-10-03T11:06:02Z</time>
      </trkpt>
      <trkpt lat="45.67174" lon="6.82539">
        <ele>2144.6</ele>
        <time>2021-10-03T11:06:07Z</time>
      </trkpt>
      <trkpt lat="45.6717" lon="6.8254">
        <ele>2145.6</ele>
        <time>2021-10-03T11:06:16Z</time>
      </trkpt>
      <trkpt lat="45.67169" lon="6.82541">
        <ele>2144.4</ele>
        <time>2021-10-03T11:06:19Z</time>
      </trkpt>
      <trkpt lat="45.67163" lon="6.82543">
        <ele>2146</ele>
        <time>2021-10-03T11:06:27Z</time>
      </trkpt>
      <trkpt lat="45.67159" lon="6.82548">
        <ele>2147</ele>
        <time>2021-10-03T11:06:37Z</time>
      </trkpt>
      <trkpt lat="45.67157" lon="6.82552">
        <ele>2148.4</ele>
        <time>2021-10-03T11:06:48Z</time>
      </trkpt>
      <trkpt lat="45.67157" lon="6.82554">
        <ele>2149.8</ele>
        <time>2021-10-03T11:06:50Z</time>
      </trkpt>
      <trkpt lat="45.67156" lon="6.82556">
        <ele>2150.8</ele>
        <time>2021-10-03T11:06:53Z</time>
      </trkpt>
      <trkpt lat="45.67154" lon="6.82559">
        <ele>2152</ele>
        <time>2021-10-03T11:06:58Z</time>
      </trkpt>
      <trkpt lat="45.67153" lon="6.82561">
        <ele>2153.2</ele>
        <time>2021-10-03T11:07:02Z</time>
      </trkpt>
      <trkpt lat="45.67151" lon="6.82561">
        <ele>2154.2</ele>
        <time>2021-10-03T11:07:04Z</time>
      </trkpt>
      <trkpt lat="45.67149" lon="6.8256">
        <ele>2155.8</ele>
        <time>2021-10-03T11:07:07Z</time>
      </trkpt>
      <trkpt lat="45.67147" lon="6.82563">
        <ele>2154.6</ele>
        <time>2021-10-03T11:07:14Z</time>
      </trkpt>
      <trkpt lat="45.67147" lon="6.8257">
        <ele>2155.8</ele>
        <time>2021-10-03T11:07:22Z</time>
      </trkpt>
      <trkpt lat="45.67145" lon="6.82572">
        <ele>2157</ele>
        <time>2021-10-03T11:07:26Z</time>
      </trkpt>
      <trkpt lat="45.67143" lon="6.82575">
        <ele>2158</ele>
        <time>2021-10-03T11:07:29Z</time>
      </trkpt>
      <trkpt lat="45.67141" lon="6.82576">
        <ele>2159</ele>
        <time>2021-10-03T11:07:33Z</time>
      </trkpt>
      <trkpt lat="45.67136" lon="6.8258">
        <ele>2160.2</ele>
        <time>2021-10-03T11:07:45Z</time>
      </trkpt>
      <trkpt lat="45.67134" lon="6.82587">
        <ele>2161.2</ele>
        <time>2021-10-03T11:07:58Z</time>
      </trkpt>
      <trkpt lat="45.67134" lon="6.8259">
        <ele>2162.2</ele>
        <time>2021-10-03T11:08:03Z</time>
      </trkpt>
      <trkpt lat="45.67134" lon="6.82592">
        <ele>2163.8</ele>
        <time>2021-10-03T11:08:07Z</time>
      </trkpt>
      <trkpt lat="45.67132" lon="6.82593">
        <ele>2165</ele>
        <time>2021-10-03T11:08:11Z</time>
      </trkpt>
      <trkpt lat="45.67131" lon="6.82596">
        <ele>2166.2</ele>
        <time>2021-10-03T11:08:16Z</time>
      </trkpt>
      <trkpt lat="45.67131" lon="6.82601">
        <ele>2167.2</ele>
        <time>2021-10-03T11:08:22Z</time>
      </trkpt>
      <trkpt lat="45.67129" lon="6.82602">
        <ele>2168.4</ele>
        <time>2021-10-03T11:08:27Z</time>
      </trkpt>
      <trkpt lat="45.67126" lon="6.82605">
        <ele>2169.4</ele>
        <time>2021-10-03T11:08:34Z</time>
      </trkpt>
      <trkpt lat="45.67122" lon="6.82599">
        <ele>2170.6</ele>
        <time>2021-10-03T11:08:44Z</time>
      </trkpt>
      <trkpt lat="45.67121" lon="6.82595">
        <ele>2172</ele>
        <time>2021-10-03T11:08:48Z</time>
      </trkpt>
      <trkpt lat="45.6712" lon="6.82593">
        <ele>2173.6</ele>
        <time>2021-10-03T11:08:50Z</time>
      </trkpt>
      <trkpt lat="45.67118" lon="6.82591">
        <ele>2175.2</ele>
        <time>2021-10-03T11:08:53Z</time>
      </trkpt>
      <trkpt lat="45.67117" lon="6.82589">
        <ele>2176.4</ele>
        <time>2021-10-03T11:08:56Z</time>
      </trkpt>
      <trkpt lat="45.67116" lon="6.82588">
        <ele>2177.6</ele>
        <time>2021-10-03T11:08:59Z</time>
      </trkpt>
      <trkpt lat="45.67114" lon="6.82587">
        <ele>2178.8</ele>
        <time>2021-10-03T11:09:02Z</time>
      </trkpt>
      <trkpt lat="45.67111" lon="6.82583">
        <ele>2180</ele>
        <time>2021-10-03T11:09:09Z</time>
      </trkpt>
      <trkpt lat="45.67109" lon="6.82583">
        <ele>2181.2</ele>
        <time>2021-10-03T11:09:13Z</time>
      </trkpt>
      <trkpt lat="45.67104" lon="6.82583">
        <ele>2181.4</ele>
        <time>2021-10-03T11:09:18Z</time>
      </trkpt>
      <trkpt lat="45.67101" lon="6.82582">
        <ele>2182.6</ele>
        <time>2021-10-03T11:09:21Z</time>
      </trkpt>
      <trkpt lat="45.67099" lon="6.82579">
        <ele>2183.6</ele>
        <time>2021-10-03T11:09:25Z</time>
      </trkpt>
      <trkpt lat="45.67093" lon="6.82585">
        <ele>2184.4</ele>
        <time>2021-10-03T11:09:33Z</time>
      </trkpt>
      <trkpt lat="45.67083" lon="6.82597">
        <ele>2185</ele>
        <time>2021-10-03T11:09:43Z</time>
      </trkpt>
      <trkpt lat="45.6708" lon="6.82598">
        <ele>2186</ele>
        <time>2021-10-03T11:09:45Z</time>
      </trkpt>
      <trkpt lat="45.67075" lon="6.82604">
        <ele>2185.8</ele>
        <time>2021-10-03T11:09:50Z</time>
      </trkpt>
      <trkpt lat="45.67066" lon="6.82607">
        <ele>2186.2</ele>
        <time>2021-10-03T11:09:57Z</time>
      </trkpt>
      <trkpt lat="45.67057" lon="6.82618">
        <ele>2186.6</ele>
        <time>2021-10-03T11:10:10Z</time>
      </trkpt>
      <trkpt lat="45.67056" lon="6.8262">
        <ele>2187.6</ele>
        <time>2021-10-03T11:10:12Z</time>
      </trkpt>
      <trkpt lat="45.67055" lon="6.82622">
        <ele>2188.2</ele>
        <time>2021-10-03T11:10:14Z</time>
      </trkpt>
      <trkpt lat="45.67051" lon="6.82626">
        <ele>2188.2</ele>
        <time>2021-10-03T11:10:19Z</time>
      </trkpt>
      <trkpt lat="45.67049" lon="6.82626">
        <ele>2188</ele>
        <time>2021-10-03T11:10:21Z</time>
      </trkpt>
      <trkpt lat="45.67047" lon="6.82622">
        <ele>2187.8</ele>
        <time>2021-10-03T11:10:24Z</time>
      </trkpt>
      <trkpt lat="45.67043" lon="6.82617">
        <ele>2188.6</ele>
        <time>2021-10-03T11:10:30Z</time>
      </trkpt>
      <trkpt lat="45.67042" lon="6.82615">
        <ele>2189.2</ele>
        <time>2021-10-03T11:10:32Z</time>
      </trkpt>
      <trkpt lat="45.67041" lon="6.82614">
        <ele>2189.6</ele>
        <time>2021-10-03T11:10:34Z</time>
      </trkpt>
      <trkpt lat="45.67038" lon="6.82608">
        <ele>2190.4</ele>
        <time>2021-10-03T11:10:39Z</time>
      </trkpt>
      <trkpt lat="45.67037" lon="6.82606">
        <ele>2190.6</ele>
        <time>2021-10-03T11:10:41Z</time>
      </trkpt>
      <trkpt lat="45.67036" lon="6.82605">
        <ele>2190.8</ele>
        <time>2021-10-03T11:10:42Z</time>
      </trkpt>
      <trkpt lat="45.67035" lon="6.82603">
        <ele>2192</ele>
        <time>2021-10-03T11:10:45Z</time>
      </trkpt>
      <trkpt lat="45.67035" lon="6.82601">
        <ele>2193</ele>
        <time>2021-10-03T11:10:47Z</time>
      </trkpt>
      <trkpt lat="45.67032" lon="6.82597">
        <ele>2194.2</ele>
        <time>2021-10-03T11:10:52Z</time>
      </trkpt>
      <trkpt lat="45.67025" lon="6.82582">
        <ele>2195.4</ele>
        <time>2021-10-03T11:11:11Z</time>
      </trkpt>
      <trkpt lat="45.67025" lon="6.82582">
        <ele>2196.4</ele>
        <time>2021-10-03T11:11:14Z</time>
      </trkpt>
      <trkpt lat="45.67025" lon="6.8258">
        <ele>2198.4</ele>
        <time>2021-10-03T11:11:16Z</time>
      </trkpt>
      <trkpt lat="45.67024" lon="6.8258">
        <ele>2199.6</ele>
        <time>2021-10-03T11:11:17Z</time>
      </trkpt>
      <trkpt lat="45.67024" lon="6.82578">
        <ele>2201</ele>
        <time>2021-10-03T11:11:19Z</time>
      </trkpt>
      <trkpt lat="45.67022" lon="6.82577">
        <ele>2202</ele>
        <time>2021-10-03T11:11:22Z</time>
      </trkpt>
      <trkpt lat="45.67016" lon="6.82582">
        <ele>2201.6</ele>
        <time>2021-10-03T11:11:31Z</time>
      </trkpt>
      <trkpt lat="45.67015" lon="6.82583">
        <ele>2203.6</ele>
        <time>2021-10-03T11:11:33Z</time>
      </trkpt>
      <trkpt lat="45.67015" lon="6.82586">
        <ele>2204.8</ele>
        <time>2021-10-03T11:11:35Z</time>
      </trkpt>
      <trkpt lat="45.67014" lon="6.8259">
        <ele>2205.8</ele>
        <time>2021-10-03T11:11:39Z</time>
      </trkpt>
      <trkpt lat="45.67014" lon="6.82591">
        <ele>2206</ele>
        <time>2021-10-03T11:11:40Z</time>
      </trkpt>
      <trkpt lat="45.67011" lon="6.82595">
        <ele>2206.4</ele>
        <time>2021-10-03T11:11:44Z</time>
      </trkpt>
      <trkpt lat="45.6701" lon="6.82596">
        <ele>2207.2</ele>
        <time>2021-10-03T11:11:46Z</time>
      </trkpt>
      <trkpt lat="45.67009" lon="6.82597">
        <ele>2207.4</ele>
        <time>2021-10-03T11:11:47Z</time>
      </trkpt>
      <trkpt lat="45.67009" lon="6.826">
        <ele>2207</ele>
        <time>2021-10-03T11:11:49Z</time>
      </trkpt>
      <trkpt lat="45.67008" lon="6.82602">
        <ele>2207</ele>
        <time>2021-10-03T11:11:51Z</time>
      </trkpt>
      <trkpt lat="45.67007" lon="6.82604">
        <ele>2207.6</ele>
        <time>2021-10-03T11:11:53Z</time>
      </trkpt>
      <trkpt lat="45.67006" lon="6.82605">
        <ele>2208</ele>
        <time>2021-10-03T11:11:55Z</time>
      </trkpt>
      <trkpt lat="45.67006" lon="6.82606">
        <ele>2208.6</ele>
        <time>2021-10-03T11:11:56Z</time>
      </trkpt>
      <trkpt lat="45.67005" lon="6.82607">
        <ele>2208.4</ele>
        <time>2021-10-03T11:11:57Z</time>
      </trkpt>
      <trkpt lat="45.67004" lon="6.82611">
        <ele>2209.6</ele>
        <time>2021-10-03T11:12:02Z</time>
      </trkpt>
      <trkpt lat="45.67002" lon="6.82619">
        <ele>2208.4</ele>
        <time>2021-10-03T11:12:09Z</time>
      </trkpt>
      <trkpt lat="45.67001" lon="6.82623">
        <ele>2209.4</ele>
        <time>2021-10-03T11:12:13Z</time>
      </trkpt>
      <trkpt lat="45.67" lon="6.82625">
        <ele>2210.6</ele>
        <time>2021-10-03T11:12:15Z</time>
      </trkpt>
      <trkpt lat="45.67" lon="6.82627">
        <ele>2211.8</ele>
        <time>2021-10-03T11:12:17Z</time>
      </trkpt>
      <trkpt lat="45.67001" lon="6.82635">
        <ele>2213.2</ele>
        <time>2021-10-03T11:12:26Z</time>
      </trkpt>
      <trkpt lat="45.67" lon="6.82638">
        <ele>2214.4</ele>
        <time>2021-10-03T11:12:29Z</time>
      </trkpt>
      <trkpt lat="45.66999" lon="6.82639">
        <ele>2215.6</ele>
        <time>2021-10-03T11:12:31Z</time>
      </trkpt>
      <trkpt lat="45.66996" lon="6.82646">
        <ele>2214.6</ele>
        <time>2021-10-03T11:12:40Z</time>
      </trkpt>
      <trkpt lat="45.66996" lon="6.8265">
        <ele>2216.6</ele>
        <time>2021-10-03T11:12:44Z</time>
      </trkpt>
      <trkpt lat="45.66996" lon="6.82651">
        <ele>2217.6</ele>
        <time>2021-10-03T11:12:46Z</time>
      </trkpt>
      <trkpt lat="45.66998" lon="6.82656">
        <ele>2218.8</ele>
        <time>2021-10-03T11:12:52Z</time>
      </trkpt>
      <trkpt lat="45.66998" lon="6.82657">
        <ele>2220</ele>
        <time>2021-10-03T11:12:54Z</time>
      </trkpt>
      <trkpt lat="45.66999" lon="6.82661">
        <ele>2221</ele>
        <time>2021-10-03T11:12:59Z</time>
      </trkpt>
      <trkpt lat="45.66998" lon="6.82672">
        <ele>2222.6</ele>
        <time>2021-10-03T11:13:11Z</time>
      </trkpt>
      <trkpt lat="45.66997" lon="6.82673">
        <ele>2224</ele>
        <time>2021-10-03T11:13:13Z</time>
      </trkpt>
      <trkpt lat="45.66996" lon="6.8268">
        <ele>2225.2</ele>
        <time>2021-10-03T11:13:22Z</time>
      </trkpt>
      <trkpt lat="45.66998" lon="6.82689">
        <ele>2223.8</ele>
        <time>2021-10-03T11:13:31Z</time>
      </trkpt>
      <trkpt lat="45.66999" lon="6.82691">
        <ele>2225</ele>
        <time>2021-10-03T11:13:34Z</time>
      </trkpt>
      <trkpt lat="45.67001" lon="6.82693">
        <ele>2226.8</ele>
        <time>2021-10-03T11:13:38Z</time>
      </trkpt>
      <trkpt lat="45.67002" lon="6.82694">
        <ele>2228.2</ele>
        <time>2021-10-03T11:13:40Z</time>
      </trkpt>
      <trkpt lat="45.67003" lon="6.82701">
        <ele>2229.2</ele>
        <time>2021-10-03T11:13:48Z</time>
      </trkpt>
      <trkpt lat="45.67003" lon="6.82703">
        <ele>2230.4</ele>
        <time>2021-10-03T11:13:50Z</time>
      </trkpt>
      <trkpt lat="45.67003" lon="6.82706">
        <ele>2231.6</ele>
        <time>2021-10-03T11:13:53Z</time>
      </trkpt>
      <trkpt lat="45.67001" lon="6.82708">
        <ele>2232.8</ele>
        <time>2021-10-03T11:13:57Z</time>
      </trkpt>
      <trkpt lat="45.66998" lon="6.82714">
        <ele>2231.6</ele>
        <time>2021-10-03T11:14:07Z</time>
      </trkpt>
      <trkpt lat="45.66998" lon="6.82718">
        <ele>2233</ele>
        <time>2021-10-03T11:14:13Z</time>
      </trkpt>
      <trkpt lat="45.66999" lon="6.82722">
        <ele>2234.4</ele>
        <time>2021-10-03T11:14:19Z</time>
      </trkpt>
      <trkpt lat="45.66999" lon="6.82725">
        <ele>2235.4</ele>
        <time>2021-10-03T11:14:22Z</time>
      </trkpt>
      <trkpt lat="45.67003" lon="6.82729">
        <ele>2236.4</ele>
        <time>2021-10-03T11:14:28Z</time>
      </trkpt>
      <trkpt lat="45.67007" lon="6.82733">
        <ele>2238.4</ele>
        <time>2021-10-03T11:14:35Z</time>
      </trkpt>
      <trkpt lat="45.67007" lon="6.82734">
        <ele>2239.4</ele>
        <time>2021-10-03T11:14:36Z</time>
      </trkpt>
      <trkpt lat="45.67008" lon="6.82737">
        <ele>2240.6</ele>
        <time>2021-10-03T11:14:39Z</time>
      </trkpt>
      <trkpt lat="45.67007" lon="6.82743">
        <ele>2241.6</ele>
        <time>2021-10-03T11:14:44Z</time>
      </trkpt>
      <trkpt lat="45.67007" lon="6.82744">
        <ele>2243.2</ele>
        <time>2021-10-03T11:14:46Z</time>
      </trkpt>
      <trkpt lat="45.66999" lon="6.82746">
        <ele>2244.6</ele>
        <time>2021-10-03T11:14:55Z</time>
      </trkpt>
      <trkpt lat="45.66997" lon="6.82753">
        <ele>2245.6</ele>
        <time>2021-10-03T11:15:07Z</time>
      </trkpt>
      <trkpt lat="45.66999" lon="6.82757">
        <ele>2247.2</ele>
        <time>2021-10-03T11:15:14Z</time>
      </trkpt>
      <trkpt lat="45.66999" lon="6.82759">
        <ele>2248.4</ele>
        <time>2021-10-03T11:15:17Z</time>
      </trkpt>
      <trkpt lat="45.66997" lon="6.82764">
        <ele>2247.4</ele>
        <time>2021-10-03T11:15:25Z</time>
      </trkpt>
      <trkpt lat="45.66993" lon="6.82767">
        <ele>2248.6</ele>
        <time>2021-10-03T11:15:35Z</time>
      </trkpt>
      <trkpt lat="45.66992" lon="6.82768">
        <ele>2250</ele>
        <time>2021-10-03T11:15:39Z</time>
      </trkpt>
      <trkpt lat="45.66994" lon="6.8277">
        <ele>2251</ele>
        <time>2021-10-03T11:15:42Z</time>
      </trkpt>
      <trkpt lat="45.66994" lon="6.82772">
        <ele>2252.2</ele>
        <time>2021-10-03T11:15:45Z</time>
      </trkpt>
      <trkpt lat="45.66987" lon="6.82775">
        <ele>2253.4</ele>
        <time>2021-10-03T11:16:01Z</time>
      </trkpt>
      <trkpt lat="45.66989" lon="6.82778">
        <ele>2254.6</ele>
        <time>2021-10-03T11:16:06Z</time>
      </trkpt>
      <trkpt lat="45.66989" lon="6.8278">
        <ele>2256</ele>
        <time>2021-10-03T11:16:08Z</time>
      </trkpt>
      <trkpt lat="45.66989" lon="6.8278">
        <ele>2257.4</ele>
        <time>2021-10-03T11:16:09Z</time>
      </trkpt>
      <trkpt lat="45.66986" lon="6.82781">
        <ele>2258.4</ele>
        <time>2021-10-03T11:16:14Z</time>
      </trkpt>
      <trkpt lat="45.66983" lon="6.82785">
        <ele>2260.2</ele>
        <time>2021-10-03T11:16:26Z</time>
      </trkpt>
      <trkpt lat="45.66981" lon="6.82785">
        <ele>2261.6</ele>
        <time>2021-10-03T11:16:28Z</time>
      </trkpt>
      <trkpt lat="45.66982" lon="6.82798">
        <ele>2262.6</ele>
        <time>2021-10-03T11:16:47Z</time>
      </trkpt>
      <trkpt lat="45.66981" lon="6.82799">
        <ele>2264.2</ele>
        <time>2021-10-03T11:16:50Z</time>
      </trkpt>
      <trkpt lat="45.66979" lon="6.82797">
        <ele>2265.6</ele>
        <time>2021-10-03T11:16:53Z</time>
      </trkpt>
      <trkpt lat="45.66979" lon="6.82797">
        <ele>2266.6</ele>
        <time>2021-10-03T11:16:55Z</time>
      </trkpt>
      <trkpt lat="45.66977" lon="6.82797">
        <ele>2268</ele>
        <time>2021-10-03T11:16:57Z</time>
      </trkpt>
      <trkpt lat="45.66976" lon="6.82797">
        <ele>2269</ele>
        <time>2021-10-03T11:16:59Z</time>
      </trkpt>
      <trkpt lat="45.66974" lon="6.828">
        <ele>2267.8</ele>
        <time>2021-10-03T11:17:07Z</time>
      </trkpt>
      <trkpt lat="45.66976" lon="6.82808">
        <ele>2268.8</ele>
        <time>2021-10-03T11:17:19Z</time>
      </trkpt>
      <trkpt lat="45.66976" lon="6.82811">
        <ele>2270</ele>
        <time>2021-10-03T11:17:25Z</time>
      </trkpt>
      <trkpt lat="45.66976" lon="6.82809">
        <ele>2271.4</ele>
        <time>2021-10-03T11:17:26Z</time>
      </trkpt>
      <trkpt lat="45.66975" lon="6.82809">
        <ele>2272.8</ele>
        <time>2021-10-03T11:17:27Z</time>
      </trkpt>
      <trkpt lat="45.66973" lon="6.82808">
        <ele>2274.2</ele>
        <time>2021-10-03T11:17:29Z</time>
      </trkpt>
      <trkpt lat="45.66972" lon="6.82808">
        <ele>2275.2</ele>
        <time>2021-10-03T11:17:33Z</time>
      </trkpt>
      <trkpt lat="45.66971" lon="6.82807">
        <ele>2276.6</ele>
        <time>2021-10-03T11:17:35Z</time>
      </trkpt>
      <trkpt lat="45.6697" lon="6.82807">
        <ele>2277.8</ele>
        <time>2021-10-03T11:17:37Z</time>
      </trkpt>
      <trkpt lat="45.66971" lon="6.82811">
        <ele>2276.6</ele>
        <time>2021-10-03T11:17:43Z</time>
      </trkpt>
      <trkpt lat="45.66972" lon="6.82813">
        <ele>2275.4</ele>
        <time>2021-10-03T11:17:44Z</time>
      </trkpt>
      <trkpt lat="45.66974" lon="6.8282">
        <ele>2276.6</ele>
        <time>2021-10-03T11:17:54Z</time>
      </trkpt>
      <trkpt lat="45.66974" lon="6.82828">
        <ele>2277.6</ele>
        <time>2021-10-03T11:18:02Z</time>
      </trkpt>
      <trkpt lat="45.66972" lon="6.82827">
        <ele>2278.8</ele>
        <time>2021-10-03T11:18:05Z</time>
      </trkpt>
      <trkpt lat="45.6697" lon="6.82829">
        <ele>2280</ele>
        <time>2021-10-03T11:18:08Z</time>
      </trkpt>
      <trkpt lat="45.66967" lon="6.82829">
        <ele>2281.4</ele>
        <time>2021-10-03T11:18:14Z</time>
      </trkpt>
      <trkpt lat="45.66966" lon="6.82829">
        <ele>2282.8</ele>
        <time>2021-10-03T11:18:16Z</time>
      </trkpt>
      <trkpt lat="45.66963" lon="6.82826">
        <ele>2284</ele>
        <time>2021-10-03T11:18:19Z</time>
      </trkpt>
      <trkpt lat="45.66963" lon="6.8282">
        <ele>2285.2</ele>
        <time>2021-10-03T11:18:27Z</time>
      </trkpt>
      <trkpt lat="45.66962" lon="6.82818">
        <ele>2286.4</ele>
        <time>2021-10-03T11:18:30Z</time>
      </trkpt>
      <trkpt lat="45.66961" lon="6.82817">
        <ele>2287.6</ele>
        <time>2021-10-03T11:18:35Z</time>
      </trkpt>
      <trkpt lat="45.66962" lon="6.82826">
        <ele>2288.6</ele>
        <time>2021-10-03T11:18:46Z</time>
      </trkpt>
      <trkpt lat="45.66964" lon="6.82832">
        <ele>2289.8</ele>
        <time>2021-10-03T11:18:54Z</time>
      </trkpt>
      <trkpt lat="45.66965" lon="6.82833">
        <ele>2291</ele>
        <time>2021-10-03T11:18:57Z</time>
      </trkpt>
      <trkpt lat="45.66964" lon="6.82845">
        <ele>2292.4</ele>
        <time>2021-10-03T11:19:10Z</time>
      </trkpt>
      <trkpt lat="45.66963" lon="6.82846">
        <ele>2294</ele>
        <time>2021-10-03T11:19:12Z</time>
      </trkpt>
      <trkpt lat="45.66962" lon="6.82847">
        <ele>2295.6</ele>
        <time>2021-10-03T11:19:14Z</time>
      </trkpt>
      <trkpt lat="45.66961" lon="6.82846">
        <ele>2296.8</ele>
        <time>2021-10-03T11:19:16Z</time>
      </trkpt>
      <trkpt lat="45.66959" lon="6.82848">
        <ele>2297.8</ele>
        <time>2021-10-03T11:19:20Z</time>
      </trkpt>
      <trkpt lat="45.66955" lon="6.82849">
        <ele>2299</ele>
        <time>2021-10-03T11:19:26Z</time>
      </trkpt>
      <trkpt lat="45.66952" lon="6.82849">
        <ele>2300</ele>
        <time>2021-10-03T11:19:31Z</time>
      </trkpt>
      <trkpt lat="45.6695" lon="6.82846">
        <ele>2301.4</ele>
        <time>2021-10-03T11:19:35Z</time>
      </trkpt>
      <trkpt lat="45.66949" lon="6.82849">
        <ele>2300.2</ele>
        <time>2021-10-03T11:19:44Z</time>
      </trkpt>
      <trkpt lat="45.66953" lon="6.82854">
        <ele>2302.4</ele>
        <time>2021-10-03T11:19:53Z</time>
      </trkpt>
      <trkpt lat="45.66954" lon="6.82855">
        <ele>2304</ele>
        <time>2021-10-03T11:19:55Z</time>
      </trkpt>
      <trkpt lat="45.66954" lon="6.82858">
        <ele>2303</ele>
        <time>2021-10-03T11:19:58Z</time>
      </trkpt>
      <trkpt lat="45.66957" lon="6.8287">
        <ele>2304.2</ele>
        <time>2021-10-03T11:20:21Z</time>
      </trkpt>
      <trkpt lat="45.66957" lon="6.82871">
        <ele>2305.6</ele>
        <time>2021-10-03T11:20:23Z</time>
      </trkpt>
      <trkpt lat="45.66958" lon="6.82875">
        <ele>2307</ele>
        <time>2021-10-03T11:20:26Z</time>
      </trkpt>
      <trkpt lat="45.66958" lon="6.82882">
        <ele>2308.2</ele>
        <time>2021-10-03T11:20:34Z</time>
      </trkpt>
      <trkpt lat="45.6696" lon="6.82886">
        <ele>2309.2</ele>
        <time>2021-10-03T11:20:42Z</time>
      </trkpt>
      <trkpt lat="45.66961" lon="6.8289">
        <ele>2310.2</ele>
        <time>2021-10-03T11:20:48Z</time>
      </trkpt>
      <trkpt lat="45.66962" lon="6.82893">
        <ele>2311.6</ele>
        <time>2021-10-03T11:20:51Z</time>
      </trkpt>
      <trkpt lat="45.66963" lon="6.82893">
        <ele>2313</ele>
        <time>2021-10-03T11:20:53Z</time>
      </trkpt>
      <trkpt lat="45.66962" lon="6.82893">
        <ele>2314.2</ele>
        <time>2021-10-03T11:20:55Z</time>
      </trkpt>
      <trkpt lat="45.66961" lon="6.82891">
        <ele>2315.4</ele>
        <time>2021-10-03T11:20:57Z</time>
      </trkpt>
      <trkpt lat="45.66959" lon="6.82891">
        <ele>2316.4</ele>
        <time>2021-10-03T11:21:00Z</time>
      </trkpt>
      <trkpt lat="45.6695" lon="6.82894">
        <ele>2317.6</ele>
        <time>2021-10-03T11:21:08Z</time>
      </trkpt>
      <trkpt lat="45.66946" lon="6.82895">
        <ele>2318.8</ele>
        <time>2021-10-03T11:21:14Z</time>
      </trkpt>
      <trkpt lat="45.66944" lon="6.82895">
        <ele>2320</ele>
        <time>2021-10-03T11:21:18Z</time>
      </trkpt>
      <trkpt lat="45.66942" lon="6.82896">
        <ele>2321.2</ele>
        <time>2021-10-03T11:21:22Z</time>
      </trkpt>
      <trkpt lat="45.66944" lon="6.82901">
        <ele>2322.4</ele>
        <time>2021-10-03T11:21:40Z</time>
      </trkpt>
      <trkpt lat="45.66945" lon="6.82906">
        <ele>2323.6</ele>
        <time>2021-10-03T11:21:47Z</time>
      </trkpt>
      <trkpt lat="45.66945" lon="6.82915">
        <ele>2325</ele>
        <time>2021-10-03T11:21:57Z</time>
      </trkpt>
      <trkpt lat="45.66944" lon="6.82914">
        <ele>2326.6</ele>
        <time>2021-10-03T11:21:59Z</time>
      </trkpt>
      <trkpt lat="45.66943" lon="6.82913">
        <ele>2328.4</ele>
        <time>2021-10-03T11:22:01Z</time>
      </trkpt>
      <trkpt lat="45.66941" lon="6.82912">
        <ele>2329.6</ele>
        <time>2021-10-03T11:22:04Z</time>
      </trkpt>
      <trkpt lat="45.66936" lon="6.82915">
        <ele>2330.6</ele>
        <time>2021-10-03T11:22:14Z</time>
      </trkpt>
      <trkpt lat="45.66935" lon="6.82912">
        <ele>2331.8</ele>
        <time>2021-10-03T11:22:22Z</time>
      </trkpt>
      <trkpt lat="45.66932" lon="6.82912">
        <ele>2333</ele>
        <time>2021-10-03T11:22:28Z</time>
      </trkpt>
      <trkpt lat="45.66928" lon="6.82914">
        <ele>2334.4</ele>
        <time>2021-10-03T11:22:36Z</time>
      </trkpt>
      <trkpt lat="45.66927" lon="6.82914">
        <ele>2336.2</ele>
        <time>2021-10-03T11:22:38Z</time>
      </trkpt>
      <trkpt lat="45.66927" lon="6.82917">
        <ele>2334.8</ele>
        <time>2021-10-03T11:22:44Z</time>
      </trkpt>
      <trkpt lat="45.66928" lon="6.8292">
        <ele>2336.2</ele>
        <time>2021-10-03T11:22:49Z</time>
      </trkpt>
      <trkpt lat="45.66929" lon="6.8292">
        <ele>2337.8</ele>
        <time>2021-10-03T11:22:51Z</time>
      </trkpt>
      <trkpt lat="45.66929" lon="6.82922">
        <ele>2339</ele>
        <time>2021-10-03T11:22:53Z</time>
      </trkpt>
      <trkpt lat="45.66928" lon="6.82921">
        <ele>2340.2</ele>
        <time>2021-10-03T11:22:55Z</time>
      </trkpt>
      <trkpt lat="45.66927" lon="6.82919">
        <ele>2341.2</ele>
        <time>2021-10-03T11:22:58Z</time>
      </trkpt>
      <trkpt lat="45.66925" lon="6.82917">
        <ele>2342.6</ele>
        <time>2021-10-03T11:23:01Z</time>
      </trkpt>
      <trkpt lat="45.66921" lon="6.82915">
        <ele>2343.8</ele>
        <time>2021-10-03T11:23:07Z</time>
      </trkpt>
      <trkpt lat="45.66917" lon="6.82913">
        <ele>2344.8</ele>
        <time>2021-10-03T11:23:12Z</time>
      </trkpt>
      <trkpt lat="45.66913" lon="6.82915">
        <ele>2346.2</ele>
        <time>2021-10-03T11:23:17Z</time>
      </trkpt>
      <trkpt lat="45.66907" lon="6.82917">
        <ele>2347.4</ele>
        <time>2021-10-03T11:23:23Z</time>
      </trkpt>
      <trkpt lat="45.66904" lon="6.82913">
        <ele>2348.4</ele>
        <time>2021-10-03T11:23:32Z</time>
      </trkpt>
      <trkpt lat="45.66902" lon="6.82911">
        <ele>2349.6</ele>
        <time>2021-10-03T11:23:36Z</time>
      </trkpt>
      <trkpt lat="45.66898" lon="6.82906">
        <ele>2351</ele>
        <time>2021-10-03T11:23:44Z</time>
      </trkpt>
      <trkpt lat="45.66895" lon="6.82903">
        <ele>2352</ele>
        <time>2021-10-03T11:23:49Z</time>
      </trkpt>
      <trkpt lat="45.66892" lon="6.82892">
        <ele>2353.2</ele>
        <time>2021-10-03T11:23:58Z</time>
      </trkpt>
      <trkpt lat="45.6689" lon="6.8289">
        <ele>2354.4</ele>
        <time>2021-10-03T11:24:00Z</time>
      </trkpt>
      <trkpt lat="45.6689" lon="6.82888">
        <ele>2355.6</ele>
        <time>2021-10-03T11:24:02Z</time>
      </trkpt>
      <trkpt lat="45.66889" lon="6.82885">
        <ele>2356.8</ele>
        <time>2021-10-03T11:24:04Z</time>
      </trkpt>
      <trkpt lat="45.66889" lon="6.82883">
        <ele>2357.8</ele>
        <time>2021-10-03T11:24:06Z</time>
      </trkpt>
      <trkpt lat="45.66888" lon="6.8288">
        <ele>2359.4</ele>
        <time>2021-10-03T11:24:08Z</time>
      </trkpt>
      <trkpt lat="45.66888" lon="6.82878">
        <ele>2360.6</ele>
        <time>2021-10-03T11:24:09Z</time>
      </trkpt>
      <trkpt lat="45.66888" lon="6.82876">
        <ele>2362</ele>
        <time>2021-10-03T11:24:11Z</time>
      </trkpt>
      <trkpt lat="45.66876" lon="6.8287">
        <ele>2363</ele>
        <time>2021-10-03T11:24:28Z</time>
      </trkpt>
      <trkpt lat="45.66871" lon="6.82871">
        <ele>2364.2</ele>
        <time>2021-10-03T11:24:34Z</time>
      </trkpt>
      <trkpt lat="45.66869" lon="6.82866">
        <ele>2365.4</ele>
        <time>2021-10-03T11:24:38Z</time>
      </trkpt>
      <trkpt lat="45.66865" lon="6.82864">
        <ele>2366.8</ele>
        <time>2021-10-03T11:24:42Z</time>
      </trkpt>
      <trkpt lat="45.66865" lon="6.82863">
        <ele>2367.2</ele>
        <time>2021-10-03T11:24:43Z</time>
      </trkpt>
      <trkpt lat="45.66862" lon="6.82863">
        <ele>2367.8</ele>
        <time>2021-10-03T11:24:45Z</time>
      </trkpt>
      <trkpt lat="45.66861" lon="6.82862">
        <ele>2368.2</ele>
        <time>2021-10-03T11:24:46Z</time>
      </trkpt>
      <trkpt lat="45.6686" lon="6.82861">
        <ele>2369.2</ele>
        <time>2021-10-03T11:24:48Z</time>
      </trkpt>
      <trkpt lat="45.66859" lon="6.82861">
        <ele>2369.4</ele>
        <time>2021-10-03T11:24:49Z</time>
      </trkpt>
      <trkpt lat="45.66858" lon="6.8286">
        <ele>2370</ele>
        <time>2021-10-03T11:24:51Z</time>
      </trkpt>
      <trkpt lat="45.66857" lon="6.8286">
        <ele>2370.4</ele>
        <time>2021-10-03T11:24:53Z</time>
      </trkpt>
      <trkpt lat="45.66855" lon="6.82858">
        <ele>2371.6</ele>
        <time>2021-10-03T11:24:57Z</time>
      </trkpt>
      <trkpt lat="45.66854" lon="6.82856">
        <ele>2372.6</ele>
        <time>2021-10-03T11:24:59Z</time>
      </trkpt>
      <trkpt lat="45.66837" lon="6.82856">
        <ele>2373.4</ele>
        <time>2021-10-03T11:25:24Z</time>
      </trkpt>
      <trkpt lat="45.66835" lon="6.82853">
        <ele>2373.8</ele>
        <time>2021-10-03T11:25:27Z</time>
      </trkpt>
      <trkpt lat="45.6683" lon="6.82852">
        <ele>2374.8</ele>
        <time>2021-10-03T11:25:32Z</time>
      </trkpt>
      <trkpt lat="45.66828" lon="6.82852">
        <ele>2376</ele>
        <time>2021-10-03T11:25:35Z</time>
      </trkpt>
      <trkpt lat="45.66825" lon="6.82851">
        <ele>2377.2</ele>
        <time>2021-10-03T11:25:38Z</time>
      </trkpt>
      <trkpt lat="45.66823" lon="6.82845">
        <ele>2378.4</ele>
        <time>2021-10-03T11:25:42Z</time>
      </trkpt>
      <trkpt lat="45.6682" lon="6.82841">
        <ele>2379</ele>
        <time>2021-10-03T11:25:46Z</time>
      </trkpt>
      <trkpt lat="45.66816" lon="6.82838">
        <ele>2379.4</ele>
        <time>2021-10-03T11:25:50Z</time>
      </trkpt>
      <trkpt lat="45.66815" lon="6.82839">
        <ele>2379.2</ele>
        <time>2021-10-03T11:25:52Z</time>
      </trkpt>
      <trkpt lat="45.66812" lon="6.8284">
        <ele>2378.8</ele>
        <time>2021-10-03T11:25:54Z</time>
      </trkpt>
      <trkpt lat="45.66811" lon="6.82843">
        <ele>2378.4</ele>
        <time>2021-10-03T11:25:57Z</time>
      </trkpt>
      <trkpt lat="45.66813" lon="6.82845">
        <ele>2378</ele>
        <time>2021-10-03T11:26:00Z</time>
      </trkpt>
      <trkpt lat="45.66814" lon="6.82848">
        <ele>2378</ele>
        <time>2021-10-03T11:26:02Z</time>
      </trkpt>
      <trkpt lat="45.66815" lon="6.82849">
        <ele>2378</ele>
        <time>2021-10-03T11:26:04Z</time>
      </trkpt>
      <trkpt lat="45.66815" lon="6.82851">
        <ele>2378.4</ele>
        <time>2021-10-03T11:26:06Z</time>
      </trkpt>
      <trkpt lat="45.66815" lon="6.82854">
        <ele>2379.8</ele>
        <time>2021-10-03T11:26:10Z</time>
      </trkpt>
      <trkpt lat="45.66815" lon="6.82859">
        <ele>2381</ele>
        <time>2021-10-03T11:26:15Z</time>
      </trkpt>
      <trkpt lat="45.66818" lon="6.82865">
        <ele>2382.2</ele>
        <time>2021-10-03T11:26:23Z</time>
      </trkpt>
      <trkpt lat="45.66819" lon="6.82866">
        <ele>2383.8</ele>
        <time>2021-10-03T11:26:28Z</time>
      </trkpt>
      <trkpt lat="45.66819" lon="6.82865">
        <ele>2385</ele>
        <time>2021-10-03T11:26:31Z</time>
      </trkpt>
      <trkpt lat="45.66816" lon="6.82864">
        <ele>2386.2</ele>
        <time>2021-10-03T11:26:34Z</time>
      </trkpt>
      <trkpt lat="45.6681" lon="6.82865">
        <ele>2387.2</ele>
        <time>2021-10-03T11:26:43Z</time>
      </trkpt>
      <trkpt lat="45.66809" lon="6.82866">
        <ele>2388.6</ele>
        <time>2021-10-03T11:26:52Z</time>
      </trkpt>
      <trkpt lat="45.66808" lon="6.82868">
        <ele>2389.6</ele>
        <time>2021-10-03T11:26:55Z</time>
      </trkpt>
      <trkpt lat="45.66809" lon="6.82872">
        <ele>2390.6</ele>
        <time>2021-10-03T11:27:01Z</time>
      </trkpt>
      <trkpt lat="45.66809" lon="6.82875">
        <ele>2392</ele>
        <time>2021-10-03T11:27:05Z</time>
      </trkpt>
      <trkpt lat="45.6681" lon="6.82881">
        <ele>2393</ele>
        <time>2021-10-03T11:27:10Z</time>
      </trkpt>
      <trkpt lat="45.66812" lon="6.82885">
        <ele>2394.2</ele>
        <time>2021-10-03T11:27:16Z</time>
      </trkpt>
      <trkpt lat="45.66809" lon="6.82888">
        <ele>2395.2</ele>
        <time>2021-10-03T11:27:22Z</time>
      </trkpt>
      <trkpt lat="45.66806" lon="6.82889">
        <ele>2396.2</ele>
        <time>2021-10-03T11:27:35Z</time>
      </trkpt>
      <trkpt lat="45.66802" lon="6.82892">
        <ele>2397.4</ele>
        <time>2021-10-03T11:27:43Z</time>
      </trkpt>
      <trkpt lat="45.66799" lon="6.82892">
        <ele>2398.4</ele>
        <time>2021-10-03T11:27:49Z</time>
      </trkpt>
      <trkpt lat="45.66795" lon="6.82891">
        <ele>2399.6</ele>
        <time>2021-10-03T11:27:55Z</time>
      </trkpt>
      <trkpt lat="45.6679" lon="6.82891">
        <ele>2400.8</ele>
        <time>2021-10-03T11:28:04Z</time>
      </trkpt>
      <trkpt lat="45.6679" lon="6.8289">
        <ele>2402</ele>
        <time>2021-10-03T11:28:07Z</time>
      </trkpt>
      <trkpt lat="45.66791" lon="6.82892">
        <ele>2403.2</ele>
        <time>2021-10-03T11:28:10Z</time>
      </trkpt>
      <trkpt lat="45.66795" lon="6.82898">
        <ele>2404.4</ele>
        <time>2021-10-03T11:28:18Z</time>
      </trkpt>
      <trkpt lat="45.66797" lon="6.82901">
        <ele>2405.4</ele>
        <time>2021-10-03T11:28:24Z</time>
      </trkpt>
      <trkpt lat="45.668" lon="6.82909">
        <ele>2406.6</ele>
        <time>2021-10-03T11:28:35Z</time>
      </trkpt>
      <trkpt lat="45.66801" lon="6.82911">
        <ele>2408</ele>
        <time>2021-10-03T11:28:37Z</time>
      </trkpt>
      <trkpt lat="45.66802" lon="6.82913">
        <ele>2409.2</ele>
        <time>2021-10-03T11:28:39Z</time>
      </trkpt>
      <trkpt lat="45.66804" lon="6.82912">
        <ele>2410.2</ele>
        <time>2021-10-03T11:28:43Z</time>
      </trkpt>
      <trkpt lat="45.66807" lon="6.82913">
        <ele>2411.4</ele>
        <time>2021-10-03T11:28:47Z</time>
      </trkpt>
      <trkpt lat="45.66812" lon="6.82922">
        <ele>2412.8</ele>
        <time>2021-10-03T11:29:00Z</time>
      </trkpt>
      <trkpt lat="45.66814" lon="6.82925">
        <ele>2414.2</ele>
        <time>2021-10-03T11:29:03Z</time>
      </trkpt>
      <trkpt lat="45.66817" lon="6.82936">
        <ele>2415.6</ele>
        <time>2021-10-03T11:29:18Z</time>
      </trkpt>
      <trkpt lat="45.66816" lon="6.82937">
        <ele>2417</ele>
        <time>2021-10-03T11:29:19Z</time>
      </trkpt>
      <trkpt lat="45.66815" lon="6.82936">
        <ele>2418</ele>
        <time>2021-10-03T11:29:20Z</time>
      </trkpt>
      <trkpt lat="45.66798" lon="6.82932">
        <ele>2418.2</ele>
        <time>2021-10-03T11:29:46Z</time>
      </trkpt>
      <trkpt lat="45.66797" lon="6.82931">
        <ele>2419.4</ele>
        <time>2021-10-03T11:29:49Z</time>
      </trkpt>
      <trkpt lat="45.66794" lon="6.8293">
        <ele>2420.4</ele>
        <time>2021-10-03T11:29:52Z</time>
      </trkpt>
      <trkpt lat="45.66783" lon="6.82933">
        <ele>2421.4</ele>
        <time>2021-10-03T11:30:13Z</time>
      </trkpt>
      <trkpt lat="45.66781" lon="6.82934">
        <ele>2422.6</ele>
        <time>2021-10-03T11:30:16Z</time>
      </trkpt>
      <trkpt lat="45.66779" lon="6.82935">
        <ele>2423.8</ele>
        <time>2021-10-03T11:30:19Z</time>
      </trkpt>
      <trkpt lat="45.66778" lon="6.82935">
        <ele>2425</ele>
        <time>2021-10-03T11:30:22Z</time>
      </trkpt>
      <trkpt lat="45.66777" lon="6.82935">
        <ele>2426.2</ele>
        <time>2021-10-03T11:30:26Z</time>
      </trkpt>
      <trkpt lat="45.66776" lon="6.82934">
        <ele>2427.4</ele>
        <time>2021-10-03T11:30:29Z</time>
      </trkpt>
      <trkpt lat="45.66774" lon="6.82937">
        <ele>2428.4</ele>
        <time>2021-10-03T11:30:34Z</time>
      </trkpt>
      <trkpt lat="45.66776" lon="6.82939">
        <ele>2429.6</ele>
        <time>2021-10-03T11:30:40Z</time>
      </trkpt>
      <trkpt lat="45.66777" lon="6.82941">
        <ele>2430.8</ele>
        <time>2021-10-03T11:30:43Z</time>
      </trkpt>
      <trkpt lat="45.66777" lon="6.82944">
        <ele>2431.8</ele>
        <time>2021-10-03T11:30:48Z</time>
      </trkpt>
      <trkpt lat="45.66777" lon="6.82946">
        <ele>2432.8</ele>
        <time>2021-10-03T11:30:51Z</time>
      </trkpt>
      <trkpt lat="45.66779" lon="6.82949">
        <ele>2434</ele>
        <time>2021-10-03T11:30:57Z</time>
      </trkpt>
      <trkpt lat="45.66781" lon="6.82952">
        <ele>2435</ele>
        <time>2021-10-03T11:31:03Z</time>
      </trkpt>
      <trkpt lat="45.66781" lon="6.82955">
        <ele>2436.2</ele>
        <time>2021-10-03T11:31:06Z</time>
      </trkpt>
      <trkpt lat="45.66782" lon="6.82956">
        <ele>2437.4</ele>
        <time>2021-10-03T11:31:09Z</time>
      </trkpt>
      <trkpt lat="45.66784" lon="6.82958">
        <ele>2438.6</ele>
        <time>2021-10-03T11:31:16Z</time>
      </trkpt>
      <trkpt lat="45.66784" lon="6.82961">
        <ele>2440.4</ele>
        <time>2021-10-03T11:31:20Z</time>
      </trkpt>
      <trkpt lat="45.66783" lon="6.82963">
        <ele>2441.4</ele>
        <time>2021-10-03T11:31:23Z</time>
      </trkpt>
      <trkpt lat="45.66782" lon="6.82963">
        <ele>2442.8</ele>
        <time>2021-10-03T11:31:25Z</time>
      </trkpt>
      <trkpt lat="45.66781" lon="6.82963">
        <ele>2443.8</ele>
        <time>2021-10-03T11:31:26Z</time>
      </trkpt>
      <trkpt lat="45.66781" lon="6.82963">
        <ele>2445</ele>
        <time>2021-10-03T11:31:28Z</time>
      </trkpt>
      <trkpt lat="45.66771" lon="6.82964">
        <ele>2444</ele>
        <time>2021-10-03T11:31:46Z</time>
      </trkpt>
      <trkpt lat="45.66769" lon="6.82966">
        <ele>2445.2</ele>
        <time>2021-10-03T11:31:52Z</time>
      </trkpt>
      <trkpt lat="45.66768" lon="6.82965">
        <ele>2446.2</ele>
        <time>2021-10-03T11:31:56Z</time>
      </trkpt>
      <trkpt lat="45.66766" lon="6.82964">
        <ele>2447.2</ele>
        <time>2021-10-03T11:32:01Z</time>
      </trkpt>
      <trkpt lat="45.66762" lon="6.82967">
        <ele>2448.2</ele>
        <time>2021-10-03T11:32:10Z</time>
      </trkpt>
      <trkpt lat="45.66764" lon="6.82968">
        <ele>2449.4</ele>
        <time>2021-10-03T11:32:13Z</time>
      </trkpt>
      <trkpt lat="45.66765" lon="6.8297">
        <ele>2450.4</ele>
        <time>2021-10-03T11:32:16Z</time>
      </trkpt>
      <trkpt lat="45.66766" lon="6.82971">
        <ele>2451.6</ele>
        <time>2021-10-03T11:32:21Z</time>
      </trkpt>
      <trkpt lat="45.66765" lon="6.82973">
        <ele>2452.6</ele>
        <time>2021-10-03T11:32:28Z</time>
      </trkpt>
      <trkpt lat="45.66766" lon="6.82976">
        <ele>2453.6</ele>
        <time>2021-10-03T11:32:32Z</time>
      </trkpt>
      <trkpt lat="45.66767" lon="6.82979">
        <ele>2454.8</ele>
        <time>2021-10-03T11:32:37Z</time>
      </trkpt>
      <trkpt lat="45.66771" lon="6.82981">
        <ele>2456.2</ele>
        <time>2021-10-03T11:32:42Z</time>
      </trkpt>
      <trkpt lat="45.66773" lon="6.82987">
        <ele>2457.4</ele>
        <time>2021-10-03T11:32:53Z</time>
      </trkpt>
      <trkpt lat="45.66771" lon="6.8299">
        <ele>2458.6</ele>
        <time>2021-10-03T11:32:57Z</time>
      </trkpt>
      <trkpt lat="45.6677" lon="6.82997">
        <ele>2459.8</ele>
        <time>2021-10-03T11:33:04Z</time>
      </trkpt>
      <trkpt lat="45.6677" lon="6.82998">
        <ele>2461</ele>
        <time>2021-10-03T11:33:09Z</time>
      </trkpt>
      <trkpt lat="45.66769" lon="6.82998">
        <ele>2462</ele>
        <time>2021-10-03T11:33:13Z</time>
      </trkpt>
      <trkpt lat="45.66768" lon="6.82997">
        <ele>2463.2</ele>
        <time>2021-10-03T11:33:18Z</time>
      </trkpt>
      <trkpt lat="45.66764" lon="6.82997">
        <ele>2464.2</ele>
        <time>2021-10-03T11:33:23Z</time>
      </trkpt>
      <trkpt lat="45.6676" lon="6.82999">
        <ele>2465.2</ele>
        <time>2021-10-03T11:33:29Z</time>
      </trkpt>
      <trkpt lat="45.66755" lon="6.83001">
        <ele>2466.2</ele>
        <time>2021-10-03T11:33:34Z</time>
      </trkpt>
      <trkpt lat="45.66752" lon="6.83002">
        <ele>2467.4</ele>
        <time>2021-10-03T11:33:37Z</time>
      </trkpt>
      <trkpt lat="45.66747" lon="6.82999">
        <ele>2468.4</ele>
        <time>2021-10-03T11:33:49Z</time>
      </trkpt>
      <trkpt lat="45.66743" lon="6.83">
        <ele>2469.6</ele>
        <time>2021-10-03T11:33:56Z</time>
      </trkpt>
      <trkpt lat="45.6674" lon="6.83">
        <ele>2470.8</ele>
        <time>2021-10-03T11:33:59Z</time>
      </trkpt>
      <trkpt lat="45.66737" lon="6.82998">
        <ele>2472</ele>
        <time>2021-10-03T11:34:08Z</time>
      </trkpt>
      <trkpt lat="45.66731" lon="6.82998">
        <ele>2473.2</ele>
        <time>2021-10-03T11:34:15Z</time>
      </trkpt>
      <trkpt lat="45.66727" lon="6.82996">
        <ele>2474.6</ele>
        <time>2021-10-03T11:34:19Z</time>
      </trkpt>
      <trkpt lat="45.66725" lon="6.82994">
        <ele>2475.6</ele>
        <time>2021-10-03T11:34:23Z</time>
      </trkpt>
      <trkpt lat="45.66719" lon="6.82991">
        <ele>2476.6</ele>
        <time>2021-10-03T11:34:31Z</time>
      </trkpt>
      <trkpt lat="45.66716" lon="6.82989">
        <ele>2478</ele>
        <time>2021-10-03T11:34:36Z</time>
      </trkpt>
      <trkpt lat="45.66707" lon="6.82984">
        <ele>2479</ele>
        <time>2021-10-03T11:34:50Z</time>
      </trkpt>
      <trkpt lat="45.66705" lon="6.82983">
        <ele>2480.2</ele>
        <time>2021-10-03T11:34:56Z</time>
      </trkpt>
      <trkpt lat="45.66703" lon="6.82977">
        <ele>2481.4</ele>
        <time>2021-10-03T11:35:03Z</time>
      </trkpt>
      <trkpt lat="45.66698" lon="6.82974">
        <ele>2482.4</ele>
        <time>2021-10-03T11:35:09Z</time>
      </trkpt>
      <trkpt lat="45.66697" lon="6.82972">
        <ele>2483.6</ele>
        <time>2021-10-03T11:35:13Z</time>
      </trkpt>
      <trkpt lat="45.66696" lon="6.82971">
        <ele>2484.6</ele>
        <time>2021-10-03T11:35:16Z</time>
      </trkpt>
      <trkpt lat="45.66694" lon="6.8297">
        <ele>2485.8</ele>
        <time>2021-10-03T11:35:19Z</time>
      </trkpt>
      <trkpt lat="45.66692" lon="6.82969">
        <ele>2487</ele>
        <time>2021-10-03T11:35:23Z</time>
      </trkpt>
      <trkpt lat="45.6669" lon="6.82969">
        <ele>2488.2</ele>
        <time>2021-10-03T11:35:26Z</time>
      </trkpt>
      <trkpt lat="45.66688" lon="6.82967">
        <ele>2489.2</ele>
        <time>2021-10-03T11:35:31Z</time>
      </trkpt>
      <trkpt lat="45.66686" lon="6.82965">
        <ele>2490.6</ele>
        <time>2021-10-03T11:35:35Z</time>
      </trkpt>
      <trkpt lat="45.66686" lon="6.82963">
        <ele>2491.8</ele>
        <time>2021-10-03T11:35:38Z</time>
      </trkpt>
      <trkpt lat="45.66686" lon="6.82963">
        <ele>2493</ele>
        <time>2021-10-03T11:35:41Z</time>
      </trkpt>
      <trkpt lat="45.66685" lon="6.82964">
        <ele>2494.2</ele>
        <time>2021-10-03T11:35:43Z</time>
      </trkpt>
      <trkpt lat="45.66686" lon="6.82966">
        <ele>2495.4</ele>
        <time>2021-10-03T11:35:46Z</time>
      </trkpt>
      <trkpt lat="45.66681" lon="6.82962">
        <ele>2496.4</ele>
        <time>2021-10-03T11:35:56Z</time>
      </trkpt>
      <trkpt lat="45.66677" lon="6.82961">
        <ele>2497.4</ele>
        <time>2021-10-03T11:36:03Z</time>
      </trkpt>
      <trkpt lat="45.66674" lon="6.82961">
        <ele>2498.6</ele>
        <time>2021-10-03T11:36:07Z</time>
      </trkpt>
      <trkpt lat="45.66673" lon="6.82961">
        <ele>2499.6</ele>
        <time>2021-10-03T11:36:09Z</time>
      </trkpt>
      <trkpt lat="45.6667" lon="6.8296">
        <ele>2501</ele>
        <time>2021-10-03T11:36:14Z</time>
      </trkpt>
      <trkpt lat="45.66669" lon="6.82959">
        <ele>2503</ele>
        <time>2021-10-03T11:36:16Z</time>
      </trkpt>
      <trkpt lat="45.66669" lon="6.82958">
        <ele>2504.2</ele>
        <time>2021-10-03T11:36:17Z</time>
      </trkpt>
      <trkpt lat="45.66668" lon="6.82958">
        <ele>2505.2</ele>
        <time>2021-10-03T11:36:19Z</time>
      </trkpt>
      <trkpt lat="45.66662" lon="6.82954">
        <ele>2504.2</ele>
        <time>2021-10-03T11:36:28Z</time>
      </trkpt>
      <trkpt lat="45.66658" lon="6.82953">
        <ele>2503.2</ele>
        <time>2021-10-03T11:36:32Z</time>
      </trkpt>
      <trkpt lat="45.66652" lon="6.82952">
        <ele>2502</ele>
        <time>2021-10-03T11:36:36Z</time>
      </trkpt>
      <trkpt lat="45.66649" lon="6.82952">
        <ele>2500.6</ele>
        <time>2021-10-03T11:36:39Z</time>
      </trkpt>
      <trkpt lat="45.66647" lon="6.82952">
        <ele>2499.4</ele>
        <time>2021-10-03T11:36:41Z</time>
      </trkpt>
      <trkpt lat="45.66643" lon="6.8295">
        <ele>2498.6</ele>
        <time>2021-10-03T11:36:45Z</time>
      </trkpt>
      <trkpt lat="45.66641" lon="6.82948">
        <ele>2498.4</ele>
        <time>2021-10-03T11:36:47Z</time>
      </trkpt>
      <trkpt lat="45.66631" lon="6.82939">
        <ele>2498.2</ele>
        <time>2021-10-03T11:36:57Z</time>
      </trkpt>
      <trkpt lat="45.66621" lon="6.82935">
        <ele>2499.8</ele>
        <time>2021-10-03T11:37:08Z</time>
      </trkpt>
      <trkpt lat="45.66619" lon="6.82933">
        <ele>2501</ele>
        <time>2021-10-03T11:37:11Z</time>
      </trkpt>
      <trkpt lat="45.66609" lon="6.82927">
        <ele>2502</ele>
        <time>2021-10-03T11:37:23Z</time>
      </trkpt>
      <trkpt lat="45.66597" lon="6.82929">
        <ele>2503</ele>
        <time>2021-10-03T11:37:34Z</time>
      </trkpt>
      <trkpt lat="45.6658" lon="6.82939">
        <ele>2504</ele>
        <time>2021-10-03T11:37:50Z</time>
      </trkpt>
      <trkpt lat="45.66579" lon="6.82939">
        <ele>2504.2</ele>
        <time>2021-10-03T11:37:51Z</time>
      </trkpt>
      <trkpt lat="45.66578" lon="6.8294">
        <ele>2504.4</ele>
        <time>2021-10-03T11:37:52Z</time>
      </trkpt>
      <trkpt lat="45.66577" lon="6.82941">
        <ele>2504.4</ele>
        <time>2021-10-03T11:37:54Z</time>
      </trkpt>
      <trkpt lat="45.6657" lon="6.82944">
        <ele>2504.8</ele>
        <time>2021-10-03T11:38:07Z</time>
      </trkpt>
      <trkpt lat="45.66567" lon="6.82946">
        <ele>2505.4</ele>
        <time>2021-10-03T11:38:14Z</time>
      </trkpt>
      <trkpt lat="45.66562" lon="6.82946">
        <ele>2506.4</ele>
        <time>2021-10-03T11:38:20Z</time>
      </trkpt>
      <trkpt lat="45.66558" lon="6.82948">
        <ele>2507.6</ele>
        <time>2021-10-03T11:38:25Z</time>
      </trkpt>
      <trkpt lat="45.66554" lon="6.82952">
        <ele>2508.6</ele>
        <time>2021-10-03T11:38:29Z</time>
      </trkpt>
      <trkpt lat="45.66553" lon="6.82956">
        <ele>2509.8</ele>
        <time>2021-10-03T11:38:32Z</time>
      </trkpt>
      <trkpt lat="45.66547" lon="6.82965">
        <ele>2508.6</ele>
        <time>2021-10-03T11:38:46Z</time>
      </trkpt>
      <trkpt lat="45.6653" lon="6.82975">
        <ele>2508</ele>
        <time>2021-10-03T11:39:00Z</time>
      </trkpt>
      <trkpt lat="45.66524" lon="6.8298">
        <ele>2508.8</ele>
        <time>2021-10-03T11:39:09Z</time>
      </trkpt>
      <trkpt lat="45.66523" lon="6.82982">
        <ele>2509.6</ele>
        <time>2021-10-03T11:39:11Z</time>
      </trkpt>
      <trkpt lat="45.66521" lon="6.82983">
        <ele>2510.4</ele>
        <time>2021-10-03T11:39:13Z</time>
      </trkpt>
      <trkpt lat="45.6652" lon="6.82984">
        <ele>2511</ele>
        <time>2021-10-03T11:39:14Z</time>
      </trkpt>
      <trkpt lat="45.66516" lon="6.82986">
        <ele>2512.2</ele>
        <time>2021-10-03T11:39:18Z</time>
      </trkpt>
      <trkpt lat="45.66516" lon="6.82987">
        <ele>2512.2</ele>
        <time>2021-10-03T11:39:19Z</time>
      </trkpt>
      <trkpt lat="45.66514" lon="6.83">
        <ele>2512</ele>
        <time>2021-10-03T11:39:25Z</time>
      </trkpt>
      <trkpt lat="45.66508" lon="6.83008">
        <ele>2511</ele>
        <time>2021-10-03T11:39:29Z</time>
      </trkpt>
      <trkpt lat="45.66504" lon="6.83011">
        <ele>2510.8</ele>
        <time>2021-10-03T11:39:32Z</time>
      </trkpt>
      <trkpt lat="45.66498" lon="6.83021">
        <ele>2512.2</ele>
        <time>2021-10-03T11:39:38Z</time>
      </trkpt>
      <trkpt lat="45.66496" lon="6.83023">
        <ele>2512.6</ele>
        <time>2021-10-03T11:39:40Z</time>
      </trkpt>
      <trkpt lat="45.66497" lon="6.83026">
        <ele>2513.4</ele>
        <time>2021-10-03T11:39:43Z</time>
      </trkpt>
      <trkpt lat="45.66495" lon="6.8303">
        <ele>2514.4</ele>
        <time>2021-10-03T11:39:48Z</time>
      </trkpt>
      <trkpt lat="45.66493" lon="6.83035">
        <ele>2515.8</ele>
        <time>2021-10-03T11:39:53Z</time>
      </trkpt>
      <trkpt lat="45.66491" lon="6.83038">
        <ele>2516.8</ele>
        <time>2021-10-03T11:39:56Z</time>
      </trkpt>
      <trkpt lat="45.66489" lon="6.8304">
        <ele>2518.2</ele>
        <time>2021-10-03T11:39:59Z</time>
      </trkpt>
      <trkpt lat="45.66488" lon="6.83042">
        <ele>2519</ele>
        <time>2021-10-03T11:40:02Z</time>
      </trkpt>
      <trkpt lat="45.66487" lon="6.83043">
        <ele>2519.2</ele>
        <time>2021-10-03T11:40:03Z</time>
      </trkpt>
      <trkpt lat="45.66486" lon="6.83044">
        <ele>2519.2</ele>
        <time>2021-10-03T11:40:04Z</time>
      </trkpt>
      <trkpt lat="45.66485" lon="6.83047">
        <ele>2520.4</ele>
        <time>2021-10-03T11:40:08Z</time>
      </trkpt>
      <trkpt lat="45.66485" lon="6.83049">
        <ele>2521.6</ele>
        <time>2021-10-03T11:40:10Z</time>
      </trkpt>
      <trkpt lat="45.66484" lon="6.83051">
        <ele>2523</ele>
        <time>2021-10-03T11:40:13Z</time>
      </trkpt>
      <trkpt lat="45.66482" lon="6.83055">
        <ele>2524.2</ele>
        <time>2021-10-03T11:40:17Z</time>
      </trkpt>
      <trkpt lat="45.66481" lon="6.83055">
        <ele>2525.4</ele>
        <time>2021-10-03T11:40:19Z</time>
      </trkpt>
      <trkpt lat="45.6648" lon="6.83055">
        <ele>2526.6</ele>
        <time>2021-10-03T11:40:21Z</time>
      </trkpt>
      <trkpt lat="45.66478" lon="6.83055">
        <ele>2527.6</ele>
        <time>2021-10-03T11:40:26Z</time>
      </trkpt>
      <trkpt lat="45.66472" lon="6.83057">
        <ele>2528.8</ele>
        <time>2021-10-03T11:40:39Z</time>
      </trkpt>
      <trkpt lat="45.6647" lon="6.83057">
        <ele>2527.4</ele>
        <time>2021-10-03T11:40:44Z</time>
      </trkpt>
      <trkpt lat="45.66469" lon="6.83057">
        <ele>2526.2</ele>
        <time>2021-10-03T11:40:45Z</time>
      </trkpt>
      <trkpt lat="45.66468" lon="6.83056">
        <ele>2525</ele>
        <time>2021-10-03T11:40:46Z</time>
      </trkpt>
      <trkpt lat="45.66467" lon="6.83054">
        <ele>2524</ele>
        <time>2021-10-03T11:40:48Z</time>
      </trkpt>
      <trkpt lat="45.66465" lon="6.83049">
        <ele>2523</ele>
        <time>2021-10-03T11:40:52Z</time>
      </trkpt>
      <trkpt lat="45.66463" lon="6.83047">
        <ele>2521.8</ele>
        <time>2021-10-03T11:40:56Z</time>
      </trkpt>
      <trkpt lat="45.66458" lon="6.83045">
        <ele>2520.8</ele>
        <time>2021-10-03T11:41:00Z</time>
      </trkpt>
      <trkpt lat="45.66445" lon="6.83044">
        <ele>2519.8</ele>
        <time>2021-10-03T11:41:07Z</time>
      </trkpt>
      <trkpt lat="45.66442" lon="6.83044">
        <ele>2517.8</ele>
        <time>2021-10-03T11:41:09Z</time>
      </trkpt>
      <trkpt lat="45.66437" lon="6.83044">
        <ele>2516.6</ele>
        <time>2021-10-03T11:41:11Z</time>
      </trkpt>
      <trkpt lat="45.66434" lon="6.83045">
        <ele>2516.4</ele>
        <time>2021-10-03T11:41:13Z</time>
      </trkpt>
      <trkpt lat="45.66433" lon="6.8305">
        <ele>2517.2</ele>
        <time>2021-10-03T11:41:15Z</time>
      </trkpt>
      <trkpt lat="45.66434" lon="6.83056">
        <ele>2518.2</ele>
        <time>2021-10-03T11:41:17Z</time>
      </trkpt>
      <trkpt lat="45.6644" lon="6.83071">
        <ele>2517</ele>
        <time>2021-10-03T11:41:22Z</time>
      </trkpt>
      <trkpt lat="45.66442" lon="6.83077">
        <ele>2515.8</ele>
        <time>2021-10-03T11:41:24Z</time>
      </trkpt>
      <trkpt lat="45.66446" lon="6.83084">
        <ele>2515</ele>
        <time>2021-10-03T11:41:27Z</time>
      </trkpt>
      <trkpt lat="45.66446" lon="6.8309">
        <ele>2514.4</ele>
        <time>2021-10-03T11:41:29Z</time>
      </trkpt>
      <trkpt lat="45.66446" lon="6.83093">
        <ele>2513.2</ele>
        <time>2021-10-03T11:41:30Z</time>
      </trkpt>
      <trkpt lat="45.66445" lon="6.831">
        <ele>2511.4</ele>
        <time>2021-10-03T11:41:32Z</time>
      </trkpt>
      <trkpt lat="45.66444" lon="6.83104">
        <ele>2510.4</ele>
        <time>2021-10-03T11:41:33Z</time>
      </trkpt>
      <trkpt lat="45.66443" lon="6.83107">
        <ele>2509.2</ele>
        <time>2021-10-03T11:41:34Z</time>
      </trkpt>
      <trkpt lat="45.66441" lon="6.83112">
        <ele>2507.6</ele>
        <time>2021-10-03T11:41:36Z</time>
      </trkpt>
      <trkpt lat="45.66439" lon="6.83116">
        <ele>2506.4</ele>
        <time>2021-10-03T11:41:38Z</time>
      </trkpt>
      <trkpt lat="45.66438" lon="6.83121">
        <ele>2505.2</ele>
        <time>2021-10-03T11:41:40Z</time>
      </trkpt>
      <trkpt lat="45.66438" lon="6.83126">
        <ele>2503.6</ele>
        <time>2021-10-03T11:41:42Z</time>
      </trkpt>
      <trkpt lat="45.66437" lon="6.8313">
        <ele>2502.2</ele>
        <time>2021-10-03T11:41:44Z</time>
      </trkpt>
      <trkpt lat="45.66436" lon="6.83135">
        <ele>2501</ele>
        <time>2021-10-03T11:41:46Z</time>
      </trkpt>
      <trkpt lat="45.66435" lon="6.83142">
        <ele>2500</ele>
        <time>2021-10-03T11:41:49Z</time>
      </trkpt>
      <trkpt lat="45.66435" lon="6.83148">
        <ele>2498.6</ele>
        <time>2021-10-03T11:41:52Z</time>
      </trkpt>
      <trkpt lat="45.66433" lon="6.83159">
        <ele>2497.4</ele>
        <time>2021-10-03T11:41:57Z</time>
      </trkpt>
      <trkpt lat="45.66434" lon="6.83162">
        <ele>2497.2</ele>
        <time>2021-10-03T11:41:58Z</time>
      </trkpt>
      <trkpt lat="45.66436" lon="6.83168">
        <ele>2496.2</ele>
        <time>2021-10-03T11:42:00Z</time>
      </trkpt>
      <trkpt lat="45.66437" lon="6.83174">
        <ele>2494.8</ele>
        <time>2021-10-03T11:42:02Z</time>
      </trkpt>
      <trkpt lat="45.66444" lon="6.83192">
        <ele>2493.8</ele>
        <time>2021-10-03T11:42:10Z</time>
      </trkpt>
      <trkpt lat="45.66445" lon="6.83196">
        <ele>2492.4</ele>
        <time>2021-10-03T11:42:12Z</time>
      </trkpt>
      <trkpt lat="45.66445" lon="6.83201">
        <ele>2491</ele>
        <time>2021-10-03T11:42:14Z</time>
      </trkpt>
      <trkpt lat="45.66446" lon="6.83204">
        <ele>2490</ele>
        <time>2021-10-03T11:42:16Z</time>
      </trkpt>
      <trkpt lat="45.66451" lon="6.83218">
        <ele>2488.8</ele>
        <time>2021-10-03T11:42:22Z</time>
      </trkpt>
      <trkpt lat="45.66451" lon="6.83221">
        <ele>2487.6</ele>
        <time>2021-10-03T11:42:23Z</time>
      </trkpt>
      <trkpt lat="45.6645" lon="6.83225">
        <ele>2486</ele>
        <time>2021-10-03T11:42:25Z</time>
      </trkpt>
      <trkpt lat="45.66447" lon="6.83235">
        <ele>2485</ele>
        <time>2021-10-03T11:42:30Z</time>
      </trkpt>
      <trkpt lat="45.66447" lon="6.83238">
        <ele>2484.8</ele>
        <time>2021-10-03T11:42:31Z</time>
      </trkpt>
      <trkpt lat="45.66447" lon="6.8324">
        <ele>2484.2</ele>
        <time>2021-10-03T11:42:32Z</time>
      </trkpt>
      <trkpt lat="45.66447" lon="6.83244">
        <ele>2483.4</ele>
        <time>2021-10-03T11:42:34Z</time>
      </trkpt>
      <trkpt lat="45.66447" lon="6.83253">
        <ele>2482.4</ele>
        <time>2021-10-03T11:42:37Z</time>
      </trkpt>
      <trkpt lat="45.66447" lon="6.83281">
        <ele>2482.4</ele>
        <time>2021-10-03T11:42:47Z</time>
      </trkpt>
      <trkpt lat="45.66451" lon="6.83293">
        <ele>2480.8</ele>
        <time>2021-10-03T11:42:53Z</time>
      </trkpt>
      <trkpt lat="45.66452" lon="6.83299">
        <ele>2479.2</ele>
        <time>2021-10-03T11:42:55Z</time>
      </trkpt>
      <trkpt lat="45.66456" lon="6.83307">
        <ele>2477.8</ele>
        <time>2021-10-03T11:42:58Z</time>
      </trkpt>
      <trkpt lat="45.66462" lon="6.8332">
        <ele>2476.4</ele>
        <time>2021-10-03T11:43:03Z</time>
      </trkpt>
      <trkpt lat="45.66469" lon="6.83335">
        <ele>2475.4</ele>
        <time>2021-10-03T11:43:09Z</time>
      </trkpt>
      <trkpt lat="45.6647" lon="6.83337">
        <ele>2474.8</ele>
        <time>2021-10-03T11:43:10Z</time>
      </trkpt>
      <trkpt lat="45.66472" lon="6.83342">
        <ele>2473.8</ele>
        <time>2021-10-03T11:43:12Z</time>
      </trkpt>
      <trkpt lat="45.66476" lon="6.83349">
        <ele>2472.4</ele>
        <time>2021-10-03T11:43:15Z</time>
      </trkpt>
      <trkpt lat="45.66478" lon="6.83353">
        <ele>2471.4</ele>
        <time>2021-10-03T11:43:17Z</time>
      </trkpt>
      <trkpt lat="45.66479" lon="6.83359">
        <ele>2470.8</ele>
        <time>2021-10-03T11:43:20Z</time>
      </trkpt>
      <trkpt lat="45.66481" lon="6.83362">
        <ele>2470.2</ele>
        <time>2021-10-03T11:43:22Z</time>
      </trkpt>
      <trkpt lat="45.66485" lon="6.8337">
        <ele>2469</ele>
        <time>2021-10-03T11:43:26Z</time>
      </trkpt>
      <trkpt lat="45.66486" lon="6.83372">
        <ele>2467.8</ele>
        <time>2021-10-03T11:43:27Z</time>
      </trkpt>
      <trkpt lat="45.66487" lon="6.83375">
        <ele>2466.6</ele>
        <time>2021-10-03T11:43:28Z</time>
      </trkpt>
      <trkpt lat="45.6649" lon="6.83381">
        <ele>2465</ele>
        <time>2021-10-03T11:43:30Z</time>
      </trkpt>
      <trkpt lat="45.66494" lon="6.83392">
        <ele>2463.4</ele>
        <time>2021-10-03T11:43:33Z</time>
      </trkpt>
      <trkpt lat="45.66498" lon="6.834">
        <ele>2462.2</ele>
        <time>2021-10-03T11:43:35Z</time>
      </trkpt>
      <trkpt lat="45.66503" lon="6.8341">
        <ele>2460.8</ele>
        <time>2021-10-03T11:43:38Z</time>
      </trkpt>
      <trkpt lat="45.66509" lon="6.83422">
        <ele>2459.8</ele>
        <time>2021-10-03T11:43:42Z</time>
      </trkpt>
      <trkpt lat="45.66513" lon="6.83448">
        <ele>2459.6</ele>
        <time>2021-10-03T11:43:50Z</time>
      </trkpt>
      <trkpt lat="45.66513" lon="6.8345">
        <ele>2458.8</ele>
        <time>2021-10-03T11:43:51Z</time>
      </trkpt>
      <trkpt lat="45.66514" lon="6.83455">
        <ele>2456.8</ele>
        <time>2021-10-03T11:43:53Z</time>
      </trkpt>
      <trkpt lat="45.66514" lon="6.83457">
        <ele>2456.2</ele>
        <time>2021-10-03T11:43:54Z</time>
      </trkpt>
      <trkpt lat="45.66514" lon="6.8346">
        <ele>2455.4</ele>
        <time>2021-10-03T11:43:55Z</time>
      </trkpt>
      <trkpt lat="45.66516" lon="6.83467">
        <ele>2454.2</ele>
        <time>2021-10-03T11:43:58Z</time>
      </trkpt>
      <trkpt lat="45.6652" lon="6.83474">
        <ele>2453</ele>
        <time>2021-10-03T11:44:01Z</time>
      </trkpt>
      <trkpt lat="45.66521" lon="6.83479">
        <ele>2451.4</ele>
        <time>2021-10-03T11:44:03Z</time>
      </trkpt>
      <trkpt lat="45.66524" lon="6.83484">
        <ele>2449.8</ele>
        <time>2021-10-03T11:44:05Z</time>
      </trkpt>
      <trkpt lat="45.66528" lon="6.83491">
        <ele>2448.8</ele>
        <time>2021-10-03T11:44:08Z</time>
      </trkpt>
      <trkpt lat="45.66534" lon="6.835">
        <ele>2447.6</ele>
        <time>2021-10-03T11:44:12Z</time>
      </trkpt>
      <trkpt lat="45.66537" lon="6.83507">
        <ele>2446.2</ele>
        <time>2021-10-03T11:44:15Z</time>
      </trkpt>
      <trkpt lat="45.66538" lon="6.83516">
        <ele>2444.4</ele>
        <time>2021-10-03T11:44:18Z</time>
      </trkpt>
      <trkpt lat="45.66539" lon="6.83519">
        <ele>2443.6</ele>
        <time>2021-10-03T11:44:19Z</time>
      </trkpt>
      <trkpt lat="45.66539" lon="6.83522">
        <ele>2443</ele>
        <time>2021-10-03T11:44:20Z</time>
      </trkpt>
      <trkpt lat="45.6654" lon="6.83528">
        <ele>2441.8</ele>
        <time>2021-10-03T11:44:22Z</time>
      </trkpt>
      <trkpt lat="45.66542" lon="6.83534">
        <ele>2440.4</ele>
        <time>2021-10-03T11:44:24Z</time>
      </trkpt>
      <trkpt lat="45.66542" lon="6.83539">
        <ele>2439</ele>
        <time>2021-10-03T11:44:26Z</time>
      </trkpt>
      <trkpt lat="45.66543" lon="6.83544">
        <ele>2437</ele>
        <time>2021-10-03T11:44:28Z</time>
      </trkpt>
      <trkpt lat="45.66543" lon="6.83547">
        <ele>2435.2</ele>
        <time>2021-10-03T11:44:30Z</time>
      </trkpt>
      <trkpt lat="45.66544" lon="6.8355">
        <ele>2433.4</ele>
        <time>2021-10-03T11:44:32Z</time>
      </trkpt>
      <trkpt lat="45.66545" lon="6.83554">
        <ele>2432.4</ele>
        <time>2021-10-03T11:44:34Z</time>
      </trkpt>
      <trkpt lat="45.66546" lon="6.83559">
        <ele>2431.4</ele>
        <time>2021-10-03T11:44:37Z</time>
      </trkpt>
      <trkpt lat="45.66548" lon="6.83567">
        <ele>2430.2</ele>
        <time>2021-10-03T11:44:41Z</time>
      </trkpt>
      <trkpt lat="45.66551" lon="6.83576">
        <ele>2429</ele>
        <time>2021-10-03T11:44:44Z</time>
      </trkpt>
      <trkpt lat="45.66554" lon="6.83581">
        <ele>2427.8</ele>
        <time>2021-10-03T11:44:46Z</time>
      </trkpt>
      <trkpt lat="45.66554" lon="6.83585">
        <ele>2426.8</ele>
        <time>2021-10-03T11:44:48Z</time>
      </trkpt>
      <trkpt lat="45.66556" lon="6.83592">
        <ele>2425.8</ele>
        <time>2021-10-03T11:44:51Z</time>
      </trkpt>
      <trkpt lat="45.66557" lon="6.83594">
        <ele>2425.6</ele>
        <time>2021-10-03T11:44:52Z</time>
      </trkpt>
      <trkpt lat="45.66571" lon="6.83605">
        <ele>2424.6</ele>
        <time>2021-10-03T11:44:59Z</time>
      </trkpt>
      <trkpt lat="45.66588" lon="6.83619">
        <ele>2423.8</ele>
        <time>2021-10-03T11:45:07Z</time>
      </trkpt>
      <trkpt lat="45.66595" lon="6.83621">
        <ele>2423.4</ele>
        <time>2021-10-03T11:45:10Z</time>
      </trkpt>
      <trkpt lat="45.66602" lon="6.83626">
        <ele>2423.4</ele>
        <time>2021-10-03T11:45:14Z</time>
      </trkpt>
      <trkpt lat="45.66599" lon="6.8365">
        <ele>2423.2</ele>
        <time>2021-10-03T11:45:25Z</time>
      </trkpt>
      <trkpt lat="45.66598" lon="6.83658">
        <ele>2423.6</ele>
        <time>2021-10-03T11:45:30Z</time>
      </trkpt>
      <trkpt lat="45.66597" lon="6.83676">
        <ele>2421.8</ele>
        <time>2021-10-03T11:45:37Z</time>
      </trkpt>
      <trkpt lat="45.66597" lon="6.83685">
        <ele>2420.8</ele>
        <time>2021-10-03T11:45:40Z</time>
      </trkpt>
      <trkpt lat="45.66597" lon="6.83694">
        <ele>2419.4</ele>
        <time>2021-10-03T11:45:44Z</time>
      </trkpt>
      <trkpt lat="45.66596" lon="6.83699">
        <ele>2418.4</ele>
        <time>2021-10-03T11:45:46Z</time>
      </trkpt>
      <trkpt lat="45.66598" lon="6.83704">
        <ele>2417.2</ele>
        <time>2021-10-03T11:45:48Z</time>
      </trkpt>
      <trkpt lat="45.66598" lon="6.83711">
        <ele>2416.2</ele>
        <time>2021-10-03T11:45:51Z</time>
      </trkpt>
      <trkpt lat="45.66599" lon="6.83719">
        <ele>2414.4</ele>
        <time>2021-10-03T11:45:54Z</time>
      </trkpt>
      <trkpt lat="45.66599" lon="6.83722">
        <ele>2413.4</ele>
        <time>2021-10-03T11:45:55Z</time>
      </trkpt>
      <trkpt lat="45.66604" lon="6.83745">
        <ele>2412.4</ele>
        <time>2021-10-03T11:46:03Z</time>
      </trkpt>
      <trkpt lat="45.66604" lon="6.83748">
        <ele>2412.2</ele>
        <time>2021-10-03T11:46:04Z</time>
      </trkpt>
      <trkpt lat="45.66602" lon="6.8377">
        <ele>2411.2</ele>
        <time>2021-10-03T11:46:11Z</time>
      </trkpt>
      <trkpt lat="45.66601" lon="6.83777">
        <ele>2410</ele>
        <time>2021-10-03T11:46:13Z</time>
      </trkpt>
      <trkpt lat="45.66602" lon="6.83782">
        <ele>2409.4</ele>
        <time>2021-10-03T11:46:15Z</time>
      </trkpt>
      <trkpt lat="45.66596" lon="6.83806">
        <ele>2409</ele>
        <time>2021-10-03T11:46:24Z</time>
      </trkpt>
      <trkpt lat="45.66593" lon="6.83835">
        <ele>2408.2</ele>
        <time>2021-10-03T11:46:32Z</time>
      </trkpt>
      <trkpt lat="45.66593" lon="6.83838">
        <ele>2407.8</ele>
        <time>2021-10-03T11:46:33Z</time>
      </trkpt>
      <trkpt lat="45.66593" lon="6.83849">
        <ele>2406.6</ele>
        <time>2021-10-03T11:46:36Z</time>
      </trkpt>
      <trkpt lat="45.66592" lon="6.83864">
        <ele>2405.6</ele>
        <time>2021-10-03T11:46:41Z</time>
      </trkpt>
      <trkpt lat="45.66592" lon="6.8387">
        <ele>2404</ele>
        <time>2021-10-03T11:46:43Z</time>
      </trkpt>
      <trkpt lat="45.66593" lon="6.83881">
        <ele>2403</ele>
        <time>2021-10-03T11:46:46Z</time>
      </trkpt>
      <trkpt lat="45.66593" lon="6.83896">
        <ele>2401.8</ele>
        <time>2021-10-03T11:46:50Z</time>
      </trkpt>
      <trkpt lat="45.66594" lon="6.83906">
        <ele>2400.6</ele>
        <time>2021-10-03T11:46:53Z</time>
      </trkpt>
      <trkpt lat="45.66594" lon="6.83916">
        <ele>2399.4</ele>
        <time>2021-10-03T11:46:56Z</time>
      </trkpt>
      <trkpt lat="45.66594" lon="6.83927">
        <ele>2398.4</ele>
        <time>2021-10-03T11:46:59Z</time>
      </trkpt>
      <trkpt lat="45.66594" lon="6.8394">
        <ele>2397.2</ele>
        <time>2021-10-03T11:47:02Z</time>
      </trkpt>
      <trkpt lat="45.66595" lon="6.8395">
        <ele>2395.6</ele>
        <time>2021-10-03T11:47:05Z</time>
      </trkpt>
      <trkpt lat="45.66596" lon="6.83962">
        <ele>2394.2</ele>
        <time>2021-10-03T11:47:08Z</time>
      </trkpt>
      <trkpt lat="45.66594" lon="6.83973">
        <ele>2392.8</ele>
        <time>2021-10-03T11:47:11Z</time>
      </trkpt>
      <trkpt lat="45.66592" lon="6.83985">
        <ele>2391.6</ele>
        <time>2021-10-03T11:47:14Z</time>
      </trkpt>
      <trkpt lat="45.66589" lon="6.83996">
        <ele>2390.2</ele>
        <time>2021-10-03T11:47:17Z</time>
      </trkpt>
      <trkpt lat="45.66587" lon="6.84005">
        <ele>2389.6</ele>
        <time>2021-10-03T11:47:20Z</time>
      </trkpt>
      <trkpt lat="45.66588" lon="6.84011">
        <ele>2389</ele>
        <time>2021-10-03T11:47:22Z</time>
      </trkpt>
      <trkpt lat="45.6659" lon="6.84017">
        <ele>2387.8</ele>
        <time>2021-10-03T11:47:24Z</time>
      </trkpt>
      <trkpt lat="45.66592" lon="6.84032">
        <ele>2386.6</ele>
        <time>2021-10-03T11:47:28Z</time>
      </trkpt>
      <trkpt lat="45.66586" lon="6.84058">
        <ele>2385.4</ele>
        <time>2021-10-03T11:47:35Z</time>
      </trkpt>
      <trkpt lat="45.66584" lon="6.84071">
        <ele>2384.4</ele>
        <time>2021-10-03T11:47:39Z</time>
      </trkpt>
      <trkpt lat="45.66584" lon="6.8408">
        <ele>2383.2</ele>
        <time>2021-10-03T11:47:42Z</time>
      </trkpt>
      <trkpt lat="45.66588" lon="6.8409">
        <ele>2382.2</ele>
        <time>2021-10-03T11:47:46Z</time>
      </trkpt>
      <trkpt lat="45.66588" lon="6.84097">
        <ele>2381.8</ele>
        <time>2021-10-03T11:47:50Z</time>
      </trkpt>
      <trkpt lat="45.66589" lon="6.84102">
        <ele>2381</ele>
        <time>2021-10-03T11:47:52Z</time>
      </trkpt>
      <trkpt lat="45.66589" lon="6.84109">
        <ele>2380</ele>
        <time>2021-10-03T11:47:55Z</time>
      </trkpt>
      <trkpt lat="45.66575" lon="6.8413">
        <ele>2379.4</ele>
        <time>2021-10-03T11:48:03Z</time>
      </trkpt>
      <trkpt lat="45.66565" lon="6.84142">
        <ele>2379</ele>
        <time>2021-10-03T11:48:08Z</time>
      </trkpt>
      <trkpt lat="45.66554" lon="6.84155">
        <ele>2378</ele>
        <time>2021-10-03T11:48:13Z</time>
      </trkpt>
      <trkpt lat="45.66552" lon="6.84161">
        <ele>2376.6</ele>
        <time>2021-10-03T11:48:15Z</time>
      </trkpt>
      <trkpt lat="45.66549" lon="6.84167">
        <ele>2375</ele>
        <time>2021-10-03T11:48:17Z</time>
      </trkpt>
      <trkpt lat="45.66546" lon="6.84172">
        <ele>2373.6</ele>
        <time>2021-10-03T11:48:19Z</time>
      </trkpt>
      <trkpt lat="45.66534" lon="6.84194">
        <ele>2373.2</ele>
        <time>2021-10-03T11:48:28Z</time>
      </trkpt>
      <trkpt lat="45.66533" lon="6.842">
        <ele>2372.2</ele>
        <time>2021-10-03T11:48:30Z</time>
      </trkpt>
      <trkpt lat="45.66532" lon="6.84209">
        <ele>2371</ele>
        <time>2021-10-03T11:48:33Z</time>
      </trkpt>
      <trkpt lat="45.66533" lon="6.84227">
        <ele>2369.8</ele>
        <time>2021-10-03T11:48:39Z</time>
      </trkpt>
      <trkpt lat="45.66538" lon="6.84246">
        <ele>2368.8</ele>
        <time>2021-10-03T11:48:46Z</time>
      </trkpt>
      <trkpt lat="45.6654" lon="6.84254">
        <ele>2367.4</ele>
        <time>2021-10-03T11:48:50Z</time>
      </trkpt>
      <trkpt lat="45.66542" lon="6.84274">
        <ele>2366.4</ele>
        <time>2021-10-03T11:48:57Z</time>
      </trkpt>
      <trkpt lat="45.66539" lon="6.84281">
        <ele>2365</ele>
        <time>2021-10-03T11:48:59Z</time>
      </trkpt>
      <trkpt lat="45.66535" lon="6.84289">
        <ele>2364</ele>
        <time>2021-10-03T11:49:02Z</time>
      </trkpt>
      <trkpt lat="45.66529" lon="6.843">
        <ele>2362.8</ele>
        <time>2021-10-03T11:49:07Z</time>
      </trkpt>
      <trkpt lat="45.66523" lon="6.84311">
        <ele>2361.4</ele>
        <time>2021-10-03T11:49:12Z</time>
      </trkpt>
      <trkpt lat="45.66519" lon="6.84316">
        <ele>2359.8</ele>
        <time>2021-10-03T11:49:15Z</time>
      </trkpt>
      <trkpt lat="45.66516" lon="6.84322">
        <ele>2358.2</ele>
        <time>2021-10-03T11:49:17Z</time>
      </trkpt>
      <trkpt lat="45.66509" lon="6.84334">
        <ele>2357</ele>
        <time>2021-10-03T11:49:22Z</time>
      </trkpt>
      <trkpt lat="45.66502" lon="6.84342">
        <ele>2355.4</ele>
        <time>2021-10-03T11:49:26Z</time>
      </trkpt>
      <trkpt lat="45.66495" lon="6.8435">
        <ele>2354.2</ele>
        <time>2021-10-03T11:49:30Z</time>
      </trkpt>
      <trkpt lat="45.66489" lon="6.84356">
        <ele>2353</ele>
        <time>2021-10-03T11:49:33Z</time>
      </trkpt>
      <trkpt lat="45.66483" lon="6.84364">
        <ele>2352.2</ele>
        <time>2021-10-03T11:49:37Z</time>
      </trkpt>
      <trkpt lat="45.66479" lon="6.84366">
        <ele>2351.8</ele>
        <time>2021-10-03T11:49:39Z</time>
      </trkpt>
      <trkpt lat="45.66472" lon="6.84368">
        <ele>2350.6</ele>
        <time>2021-10-03T11:49:43Z</time>
      </trkpt>
      <trkpt lat="45.66459" lon="6.84363">
        <ele>2349.4</ele>
        <time>2021-10-03T11:49:50Z</time>
      </trkpt>
      <trkpt lat="45.66455" lon="6.84361">
        <ele>2348.2</ele>
        <time>2021-10-03T11:49:52Z</time>
      </trkpt>
      <trkpt lat="45.66452" lon="6.8436">
        <ele>2347</ele>
        <time>2021-10-03T11:49:54Z</time>
      </trkpt>
      <trkpt lat="45.66449" lon="6.84358">
        <ele>2345.4</ele>
        <time>2021-10-03T11:49:56Z</time>
      </trkpt>
      <trkpt lat="45.66446" lon="6.84356">
        <ele>2344.2</ele>
        <time>2021-10-03T11:49:58Z</time>
      </trkpt>
      <trkpt lat="45.66444" lon="6.84353">
        <ele>2342.8</ele>
        <time>2021-10-03T11:50:00Z</time>
      </trkpt>
      <trkpt lat="45.66443" lon="6.84351">
        <ele>2341.2</ele>
        <time>2021-10-03T11:50:02Z</time>
      </trkpt>
      <trkpt lat="45.6644" lon="6.84347">
        <ele>2340</ele>
        <time>2021-10-03T11:50:04Z</time>
      </trkpt>
      <trkpt lat="45.66439" lon="6.84346">
        <ele>2339.2</ele>
        <time>2021-10-03T11:50:05Z</time>
      </trkpt>
      <trkpt lat="45.66438" lon="6.84346">
        <ele>2338.2</ele>
        <time>2021-10-03T11:50:06Z</time>
      </trkpt>
      <trkpt lat="45.66436" lon="6.84348">
        <ele>2337.2</ele>
        <time>2021-10-03T11:50:07Z</time>
      </trkpt>
      <trkpt lat="45.66433" lon="6.84352">
        <ele>2336.2</ele>
        <time>2021-10-03T11:50:09Z</time>
      </trkpt>
      <trkpt lat="45.6643" lon="6.84352">
        <ele>2336</ele>
        <time>2021-10-03T11:50:10Z</time>
      </trkpt>
      <trkpt lat="45.66424" lon="6.84351">
        <ele>2335</ele>
        <time>2021-10-03T11:50:13Z</time>
      </trkpt>
      <trkpt lat="45.66419" lon="6.84348">
        <ele>2333.6</ele>
        <time>2021-10-03T11:50:16Z</time>
      </trkpt>
      <trkpt lat="45.66416" lon="6.84345">
        <ele>2332.4</ele>
        <time>2021-10-03T11:50:18Z</time>
      </trkpt>
      <trkpt lat="45.66412" lon="6.84345">
        <ele>2331.2</ele>
        <time>2021-10-03T11:50:20Z</time>
      </trkpt>
      <trkpt lat="45.66408" lon="6.84349">
        <ele>2330</ele>
        <time>2021-10-03T11:50:22Z</time>
      </trkpt>
      <trkpt lat="45.66404" lon="6.84354">
        <ele>2329</ele>
        <time>2021-10-03T11:50:24Z</time>
      </trkpt>
      <trkpt lat="45.66388" lon="6.84363">
        <ele>2327.6</ele>
        <time>2021-10-03T11:50:31Z</time>
      </trkpt>
      <trkpt lat="45.66382" lon="6.84367">
        <ele>2325.8</ele>
        <time>2021-10-03T11:50:34Z</time>
      </trkpt>
      <trkpt lat="45.66378" lon="6.84371">
        <ele>2324.4</ele>
        <time>2021-10-03T11:50:36Z</time>
      </trkpt>
      <trkpt lat="45.66372" lon="6.84378">
        <ele>2322.4</ele>
        <time>2021-10-03T11:50:39Z</time>
      </trkpt>
      <trkpt lat="45.6637" lon="6.84384">
        <ele>2320.6</ele>
        <time>2021-10-03T11:50:41Z</time>
      </trkpt>
      <trkpt lat="45.66367" lon="6.8439">
        <ele>2319.4</ele>
        <time>2021-10-03T11:50:43Z</time>
      </trkpt>
      <trkpt lat="45.66359" lon="6.84405">
        <ele>2318</ele>
        <time>2021-10-03T11:50:48Z</time>
      </trkpt>
      <trkpt lat="45.66357" lon="6.84413">
        <ele>2316.6</ele>
        <time>2021-10-03T11:50:51Z</time>
      </trkpt>
      <trkpt lat="45.66357" lon="6.84416">
        <ele>2315.6</ele>
        <time>2021-10-03T11:50:53Z</time>
      </trkpt>
      <trkpt lat="45.66361" lon="6.84416">
        <ele>2314.4</ele>
        <time>2021-10-03T11:50:56Z</time>
      </trkpt>
      <trkpt lat="45.66365" lon="6.84413">
        <ele>2313.2</ele>
        <time>2021-10-03T11:50:58Z</time>
      </trkpt>
      <trkpt lat="45.66368" lon="6.8441">
        <ele>2312</ele>
        <time>2021-10-03T11:51:00Z</time>
      </trkpt>
      <trkpt lat="45.66372" lon="6.84408">
        <ele>2311</ele>
        <time>2021-10-03T11:51:02Z</time>
      </trkpt>
      <trkpt lat="45.66374" lon="6.84409">
        <ele>2310.8</ele>
        <time>2021-10-03T11:51:03Z</time>
      </trkpt>
      <trkpt lat="45.66374" lon="6.8442">
        <ele>2309.8</ele>
        <time>2021-10-03T11:51:09Z</time>
      </trkpt>
      <trkpt lat="45.66377" lon="6.8444">
        <ele>2310.8</ele>
        <time>2021-10-03T11:51:20Z</time>
      </trkpt>
      <trkpt lat="45.66382" lon="6.84467">
        <ele>2310.6</ele>
        <time>2021-10-03T11:51:30Z</time>
      </trkpt>
      <trkpt lat="45.66387" lon="6.84485">
        <ele>2309.8</ele>
        <time>2021-10-03T11:51:37Z</time>
      </trkpt>
      <trkpt lat="45.66393" lon="6.84499">
        <ele>2308</ele>
        <time>2021-10-03T11:51:43Z</time>
      </trkpt>
      <trkpt lat="45.66398" lon="6.84506">
        <ele>2306.6</ele>
        <time>2021-10-03T11:51:46Z</time>
      </trkpt>
      <trkpt lat="45.664" lon="6.84508">
        <ele>2305.4</ele>
        <time>2021-10-03T11:51:47Z</time>
      </trkpt>
      <trkpt lat="45.66403" lon="6.84518">
        <ele>2304.4</ele>
        <time>2021-10-03T11:51:50Z</time>
      </trkpt>
      <trkpt lat="45.66408" lon="6.84544">
        <ele>2304.8</ele>
        <time>2021-10-03T11:51:58Z</time>
      </trkpt>
      <trkpt lat="45.66414" lon="6.84569">
        <ele>2302.8</ele>
        <time>2021-10-03T11:52:06Z</time>
      </trkpt>
      <trkpt lat="45.66413" lon="6.84584">
        <ele>2301.8</ele>
        <time>2021-10-03T11:52:11Z</time>
      </trkpt>
      <trkpt lat="45.66412" lon="6.84596">
        <ele>2301.2</ele>
        <time>2021-10-03T11:52:15Z</time>
      </trkpt>
      <trkpt lat="45.66415" lon="6.84598">
        <ele>2300.4</ele>
        <time>2021-10-03T11:52:17Z</time>
      </trkpt>
      <trkpt lat="45.6642" lon="6.84602">
        <ele>2299.4</ele>
        <time>2021-10-03T11:52:20Z</time>
      </trkpt>
      <trkpt lat="45.66423" lon="6.84605">
        <ele>2298.8</ele>
        <time>2021-10-03T11:52:22Z</time>
      </trkpt>
      <trkpt lat="45.66415" lon="6.84626">
        <ele>2297.6</ele>
        <time>2021-10-03T11:52:33Z</time>
      </trkpt>
      <trkpt lat="45.66415" lon="6.84628">
        <ele>2296.4</ele>
        <time>2021-10-03T11:52:34Z</time>
      </trkpt>
      <trkpt lat="45.66412" lon="6.84634">
        <ele>2294.8</ele>
        <time>2021-10-03T11:52:36Z</time>
      </trkpt>
      <trkpt lat="45.66413" lon="6.84642">
        <ele>2293.6</ele>
        <time>2021-10-03T11:52:39Z</time>
      </trkpt>
      <trkpt lat="45.66413" lon="6.84647">
        <ele>2292.6</ele>
        <time>2021-10-03T11:52:41Z</time>
      </trkpt>
      <trkpt lat="45.66413" lon="6.8466">
        <ele>2291.2</ele>
        <time>2021-10-03T11:52:46Z</time>
      </trkpt>
      <trkpt lat="45.66417" lon="6.84673">
        <ele>2288.8</ele>
        <time>2021-10-03T11:52:52Z</time>
      </trkpt>
      <trkpt lat="45.6642" lon="6.84676">
        <ele>2286.6</ele>
        <time>2021-10-03T11:52:54Z</time>
      </trkpt>
      <trkpt lat="45.66421" lon="6.84678">
        <ele>2285.2</ele>
        <time>2021-10-03T11:52:55Z</time>
      </trkpt>
      <trkpt lat="45.66423" lon="6.8468">
        <ele>2284.2</ele>
        <time>2021-10-03T11:52:56Z</time>
      </trkpt>
      <trkpt lat="45.66424" lon="6.84686">
        <ele>2282.6</ele>
        <time>2021-10-03T11:52:58Z</time>
      </trkpt>
      <trkpt lat="45.66423" lon="6.84703">
        <ele>2281.4</ele>
        <time>2021-10-03T11:53:03Z</time>
      </trkpt>
      <trkpt lat="45.66423" lon="6.84709">
        <ele>2280</ele>
        <time>2021-10-03T11:53:05Z</time>
      </trkpt>
      <trkpt lat="45.66424" lon="6.84715">
        <ele>2278.8</ele>
        <time>2021-10-03T11:53:07Z</time>
      </trkpt>
      <trkpt lat="45.66426" lon="6.84723">
        <ele>2277.4</ele>
        <time>2021-10-03T11:53:10Z</time>
      </trkpt>
      <trkpt lat="45.66427" lon="6.8473">
        <ele>2275.8</ele>
        <time>2021-10-03T11:53:12Z</time>
      </trkpt>
      <trkpt lat="45.6643" lon="6.84738">
        <ele>2274.6</ele>
        <time>2021-10-03T11:53:15Z</time>
      </trkpt>
      <trkpt lat="45.66435" lon="6.84745">
        <ele>2274</ele>
        <time>2021-10-03T11:53:18Z</time>
      </trkpt>
      <trkpt lat="45.66432" lon="6.84759">
        <ele>2273.6</ele>
        <time>2021-10-03T11:53:23Z</time>
      </trkpt>
      <trkpt lat="45.66433" lon="6.84769">
        <ele>2272.4</ele>
        <time>2021-10-03T11:53:26Z</time>
      </trkpt>
      <trkpt lat="45.66432" lon="6.84773">
        <ele>2271.2</ele>
        <time>2021-10-03T11:53:28Z</time>
      </trkpt>
      <trkpt lat="45.66432" lon="6.84777">
        <ele>2270</ele>
        <time>2021-10-03T11:53:30Z</time>
      </trkpt>
      <trkpt lat="45.66433" lon="6.8478">
        <ele>2268.8</ele>
        <time>2021-10-03T11:53:32Z</time>
      </trkpt>
      <trkpt lat="45.66433" lon="6.84782">
        <ele>2268.4</ele>
        <time>2021-10-03T11:53:33Z</time>
      </trkpt>
      <trkpt lat="45.66434" lon="6.84786">
        <ele>2268</ele>
        <time>2021-10-03T11:53:34Z</time>
      </trkpt>
      <trkpt lat="45.66436" lon="6.84795">
        <ele>2267.8</ele>
        <time>2021-10-03T11:53:37Z</time>
      </trkpt>
      <trkpt lat="45.66436" lon="6.84806">
        <ele>2266.6</ele>
        <time>2021-10-03T11:53:40Z</time>
      </trkpt>
      <trkpt lat="45.66439" lon="6.84816">
        <ele>2265.4</ele>
        <time>2021-10-03T11:53:44Z</time>
      </trkpt>
      <trkpt lat="45.66444" lon="6.84822">
        <ele>2264.8</ele>
        <time>2021-10-03T11:53:47Z</time>
      </trkpt>
      <trkpt lat="45.66448" lon="6.84823">
        <ele>2264.8</ele>
        <time>2021-10-03T11:53:49Z</time>
      </trkpt>
      <trkpt lat="45.66443" lon="6.84845">
        <ele>2264.2</ele>
        <time>2021-10-03T11:53:56Z</time>
      </trkpt>
      <trkpt lat="45.66442" lon="6.84851">
        <ele>2263</ele>
        <time>2021-10-03T11:53:58Z</time>
      </trkpt>
      <trkpt lat="45.66443" lon="6.84858">
        <ele>2262</ele>
        <time>2021-10-03T11:54:00Z</time>
      </trkpt>
      <trkpt lat="45.66448" lon="6.84868">
        <ele>2260.8</ele>
        <time>2021-10-03T11:54:04Z</time>
      </trkpt>
      <trkpt lat="45.66452" lon="6.84894">
        <ele>2259.8</ele>
        <time>2021-10-03T11:54:11Z</time>
      </trkpt>
      <trkpt lat="45.66453" lon="6.84912">
        <ele>2258.4</ele>
        <time>2021-10-03T11:54:16Z</time>
      </trkpt>
      <trkpt lat="45.66454" lon="6.84923">
        <ele>2257</ele>
        <time>2021-10-03T11:54:19Z</time>
      </trkpt>
      <trkpt lat="45.66454" lon="6.84939">
        <ele>2256</ele>
        <time>2021-10-03T11:54:23Z</time>
      </trkpt>
      <trkpt lat="45.66452" lon="6.84954">
        <ele>2254.8</ele>
        <time>2021-10-03T11:54:27Z</time>
      </trkpt>
      <trkpt lat="45.66451" lon="6.84965">
        <ele>2253.4</ele>
        <time>2021-10-03T11:54:30Z</time>
      </trkpt>
      <trkpt lat="45.66451" lon="6.84972">
        <ele>2252.6</ele>
        <time>2021-10-03T11:54:32Z</time>
      </trkpt>
      <trkpt lat="45.66451" lon="6.84975">
        <ele>2252</ele>
        <time>2021-10-03T11:54:33Z</time>
      </trkpt>
      <trkpt lat="45.66457" lon="6.85001">
        <ele>2251.4</ele>
        <time>2021-10-03T11:54:41Z</time>
      </trkpt>
      <trkpt lat="45.66459" lon="6.8501">
        <ele>2250.8</ele>
        <time>2021-10-03T11:54:44Z</time>
      </trkpt>
      <trkpt lat="45.6646" lon="6.85012">
        <ele>2250.6</ele>
        <time>2021-10-03T11:54:45Z</time>
      </trkpt>
      <trkpt lat="45.66469" lon="6.85037">
        <ele>2251</ele>
        <time>2021-10-03T11:54:54Z</time>
      </trkpt>
      <trkpt lat="45.66479" lon="6.85054">
        <ele>2249.6</ele>
        <time>2021-10-03T11:55:01Z</time>
      </trkpt>
      <trkpt lat="45.66485" lon="6.85066">
        <ele>2249</ele>
        <time>2021-10-03T11:55:08Z</time>
      </trkpt>
      <trkpt lat="45.6649" lon="6.85077">
        <ele>2249.8</ele>
        <time>2021-10-03T11:55:16Z</time>
      </trkpt>
      <trkpt lat="45.66496" lon="6.85088">
        <ele>2250.8</ele>
        <time>2021-10-03T11:55:24Z</time>
      </trkpt>
      <trkpt lat="45.66499" lon="6.85097">
        <ele>2252.2</ele>
        <time>2021-10-03T11:55:29Z</time>
      </trkpt>
      <trkpt lat="45.66501" lon="6.851">
        <ele>2253.4</ele>
        <time>2021-10-03T11:55:31Z</time>
      </trkpt>
      <trkpt lat="45.66501" lon="6.85102">
        <ele>2254.4</ele>
        <time>2021-10-03T11:55:32Z</time>
      </trkpt>
      <trkpt lat="45.66503" lon="6.85105">
        <ele>2256</ele>
        <time>2021-10-03T11:55:34Z</time>
      </trkpt>
      <trkpt lat="45.66508" lon="6.8511">
        <ele>2257</ele>
        <time>2021-10-03T11:55:39Z</time>
      </trkpt>
      <trkpt lat="45.66515" lon="6.85133">
        <ele>2258</ele>
        <time>2021-10-03T11:55:52Z</time>
      </trkpt>
      <trkpt lat="45.66526" lon="6.85146">
        <ele>2257</ele>
        <time>2021-10-03T11:56:01Z</time>
      </trkpt>
      <trkpt lat="45.66528" lon="6.85149">
        <ele>2255.6</ele>
        <time>2021-10-03T11:56:03Z</time>
      </trkpt>
      <trkpt lat="45.66529" lon="6.85152">
        <ele>2254.4</ele>
        <time>2021-10-03T11:56:05Z</time>
      </trkpt>
      <trkpt lat="45.66531" lon="6.85155">
        <ele>2253.2</ele>
        <time>2021-10-03T11:56:07Z</time>
      </trkpt>
      <trkpt lat="45.66532" lon="6.85156">
        <ele>2252.2</ele>
        <time>2021-10-03T11:56:08Z</time>
      </trkpt>
      <trkpt lat="45.66533" lon="6.85158">
        <ele>2251</ele>
        <time>2021-10-03T11:56:09Z</time>
      </trkpt>
      <trkpt lat="45.66538" lon="6.8517">
        <ele>2250</ele>
        <time>2021-10-03T11:56:16Z</time>
      </trkpt>
      <trkpt lat="45.6654" lon="6.85177">
        <ele>2248.8</ele>
        <time>2021-10-03T11:56:19Z</time>
      </trkpt>
      <trkpt lat="45.66544" lon="6.85181">
        <ele>2252</ele>
        <time>2021-10-03T11:56:22Z</time>
      </trkpt>
      <trkpt lat="45.66545" lon="6.85182">
        <ele>2253.8</ele>
        <time>2021-10-03T11:56:23Z</time>
      </trkpt>
      <trkpt lat="45.66546" lon="6.85186">
        <ele>2255.8</ele>
        <time>2021-10-03T11:56:25Z</time>
      </trkpt>
      <trkpt lat="45.66554" lon="6.85199">
        <ele>2256.8</ele>
        <time>2021-10-03T11:56:34Z</time>
      </trkpt>
      <trkpt lat="45.66561" lon="6.85209">
        <ele>2255.4</ele>
        <time>2021-10-03T11:56:40Z</time>
      </trkpt>
      <trkpt lat="45.66562" lon="6.8521">
        <ele>2254.2</ele>
        <time>2021-10-03T11:56:41Z</time>
      </trkpt>
      <trkpt lat="45.66563" lon="6.85214">
        <ele>2252.2</ele>
        <time>2021-10-03T11:56:43Z</time>
      </trkpt>
      <trkpt lat="45.66565" lon="6.85217">
        <ele>2251.2</ele>
        <time>2021-10-03T11:56:45Z</time>
      </trkpt>
      <trkpt lat="45.66565" lon="6.85219">
        <ele>2250.8</ele>
        <time>2021-10-03T11:56:46Z</time>
      </trkpt>
      <trkpt lat="45.66569" lon="6.85223">
        <ele>2252.2</ele>
        <time>2021-10-03T11:56:50Z</time>
      </trkpt>
      <trkpt lat="45.66571" lon="6.85232">
        <ele>2253</ele>
        <time>2021-10-03T11:56:55Z</time>
      </trkpt>
      <trkpt lat="45.66574" lon="6.85238">
        <ele>2253.2</ele>
        <time>2021-10-03T11:56:58Z</time>
      </trkpt>
      <trkpt lat="45.66581" lon="6.85247">
        <ele>2254.6</ele>
        <time>2021-10-03T11:57:04Z</time>
      </trkpt>
      <trkpt lat="45.66584" lon="6.85251">
        <ele>2255</ele>
        <time>2021-10-03T11:57:07Z</time>
      </trkpt>
      <trkpt lat="45.66586" lon="6.85259">
        <ele>2255.8</ele>
        <time>2021-10-03T11:57:13Z</time>
      </trkpt>
      <trkpt lat="45.66587" lon="6.85262">
        <ele>2257.6</ele>
        <time>2021-10-03T11:57:15Z</time>
      </trkpt>
      <trkpt lat="45.66589" lon="6.85265">
        <ele>2258.8</ele>
        <time>2021-10-03T11:57:17Z</time>
      </trkpt>
      <trkpt lat="45.6659" lon="6.85268">
        <ele>2259</ele>
        <time>2021-10-03T11:57:20Z</time>
      </trkpt>
      <trkpt lat="45.66596" lon="6.85276">
        <ele>2259.8</ele>
        <time>2021-10-03T11:57:26Z</time>
      </trkpt>
      <trkpt lat="45.66597" lon="6.85279">
        <ele>2260.8</ele>
        <time>2021-10-03T11:57:28Z</time>
      </trkpt>
      <trkpt lat="45.66598" lon="6.85283">
        <ele>2262.2</ele>
        <time>2021-10-03T11:57:30Z</time>
      </trkpt>
      <trkpt lat="45.66598" lon="6.85284">
        <ele>2263.2</ele>
        <time>2021-10-03T11:57:31Z</time>
      </trkpt>
      <trkpt lat="45.666" lon="6.85286">
        <ele>2264.2</ele>
        <time>2021-10-03T11:57:33Z</time>
      </trkpt>
      <trkpt lat="45.66601" lon="6.85287">
        <ele>2265.4</ele>
        <time>2021-10-03T11:57:34Z</time>
      </trkpt>
      <trkpt lat="45.66603" lon="6.8529">
        <ele>2266.8</ele>
        <time>2021-10-03T11:57:36Z</time>
      </trkpt>
      <trkpt lat="45.66607" lon="6.85294">
        <ele>2265.2</ele>
        <time>2021-10-03T11:57:41Z</time>
      </trkpt>
      <trkpt lat="45.66608" lon="6.85294">
        <ele>2264</ele>
        <time>2021-10-03T11:57:42Z</time>
      </trkpt>
      <trkpt lat="45.6661" lon="6.85295">
        <ele>2263</ele>
        <time>2021-10-03T11:57:44Z</time>
      </trkpt>
      <trkpt lat="45.66613" lon="6.85296">
        <ele>2265</ele>
        <time>2021-10-03T11:57:47Z</time>
      </trkpt>
      <trkpt lat="45.66614" lon="6.85296">
        <ele>2265</ele>
        <time>2021-10-03T11:57:48Z</time>
      </trkpt>
      <trkpt lat="45.66616" lon="6.85297">
        <ele>2263</ele>
        <time>2021-10-03T11:57:51Z</time>
      </trkpt>
      <trkpt lat="45.66617" lon="6.85297">
        <ele>2261.4</ele>
        <time>2021-10-03T11:57:52Z</time>
      </trkpt>
      <trkpt lat="45.66618" lon="6.85298">
        <ele>2259.8</ele>
        <time>2021-10-03T11:57:53Z</time>
      </trkpt>
      <trkpt lat="45.66621" lon="6.85298">
        <ele>2258.4</ele>
        <time>2021-10-03T11:57:55Z</time>
      </trkpt>
      <trkpt lat="45.66634" lon="6.85297">
        <ele>2257.4</ele>
        <time>2021-10-03T11:58:04Z</time>
      </trkpt>
      <trkpt lat="45.66635" lon="6.85298">
        <ele>2257.2</ele>
        <time>2021-10-03T11:58:05Z</time>
      </trkpt>
      <trkpt lat="45.66642" lon="6.853">
        <ele>2256.6</ele>
        <time>2021-10-03T11:58:11Z</time>
      </trkpt>
      <trkpt lat="45.66643" lon="6.85312">
        <ele>2257.6</ele>
        <time>2021-10-03T11:58:17Z</time>
      </trkpt>
      <trkpt lat="45.66642" lon="6.85318">
        <ele>2256.4</ele>
        <time>2021-10-03T11:58:19Z</time>
      </trkpt>
      <trkpt lat="45.66641" lon="6.85323">
        <ele>2255</ele>
        <time>2021-10-03T11:58:21Z</time>
      </trkpt>
      <trkpt lat="45.66642" lon="6.85328">
        <ele>2253.8</ele>
        <time>2021-10-03T11:58:24Z</time>
      </trkpt>
      <trkpt lat="45.66642" lon="6.85329">
        <ele>2253.8</ele>
        <time>2021-10-03T11:58:26Z</time>
      </trkpt>
      <trkpt lat="45.66642" lon="6.85332">
        <ele>2255</ele>
        <time>2021-10-03T11:58:29Z</time>
      </trkpt>
      <trkpt lat="45.66643" lon="6.85334">
        <ele>2255.4</ele>
        <time>2021-10-03T11:58:31Z</time>
      </trkpt>
      <trkpt lat="45.66643" lon="6.85336">
        <ele>2256</ele>
        <time>2021-10-03T11:58:33Z</time>
      </trkpt>
      <trkpt lat="45.66644" lon="6.85342">
        <ele>2257.2</ele>
        <time>2021-10-03T11:58:37Z</time>
      </trkpt>
      <trkpt lat="45.66646" lon="6.85348">
        <ele>2258.2</ele>
        <time>2021-10-03T11:58:42Z</time>
      </trkpt>
      <trkpt lat="45.66647" lon="6.85355">
        <ele>2259.4</ele>
        <time>2021-10-03T11:58:48Z</time>
      </trkpt>
      <trkpt lat="45.66648" lon="6.85355">
        <ele>2259.4</ele>
        <time>2021-10-03T11:58:49Z</time>
      </trkpt>
      <trkpt lat="45.66649" lon="6.85358">
        <ele>2259</ele>
        <time>2021-10-03T11:58:53Z</time>
      </trkpt>
      <trkpt lat="45.6665" lon="6.85361">
        <ele>2258.2</ele>
        <time>2021-10-03T11:58:55Z</time>
      </trkpt>
      <trkpt lat="45.66654" lon="6.85366">
        <ele>2258</ele>
        <time>2021-10-03T11:58:58Z</time>
      </trkpt>
      <trkpt lat="45.66657" lon="6.85374">
        <ele>2258.6</ele>
        <time>2021-10-03T11:59:04Z</time>
      </trkpt>
      <trkpt lat="45.66661" lon="6.8538">
        <ele>2259.2</ele>
        <time>2021-10-03T11:59:09Z</time>
      </trkpt>
      <trkpt lat="45.66662" lon="6.85383">
        <ele>2260.2</ele>
        <time>2021-10-03T11:59:11Z</time>
      </trkpt>
      <trkpt lat="45.66665" lon="6.85388">
        <ele>2261.6</ele>
        <time>2021-10-03T11:59:14Z</time>
      </trkpt>
      <trkpt lat="45.66668" lon="6.85389">
        <ele>2262.6</ele>
        <time>2021-10-03T11:59:17Z</time>
      </trkpt>
      <trkpt lat="45.66671" lon="6.85393">
        <ele>2263.6</ele>
        <time>2021-10-03T11:59:20Z</time>
      </trkpt>
      <trkpt lat="45.66678" lon="6.85401">
        <ele>2262.4</ele>
        <time>2021-10-03T11:59:27Z</time>
      </trkpt>
      <trkpt lat="45.66683" lon="6.85407">
        <ele>2261.4</ele>
        <time>2021-10-03T11:59:32Z</time>
      </trkpt>
      <trkpt lat="45.66687" lon="6.8541">
        <ele>2259.8</ele>
        <time>2021-10-03T11:59:35Z</time>
      </trkpt>
      <trkpt lat="45.66696" lon="6.8543">
        <ele>2258.8</ele>
        <time>2021-10-03T11:59:45Z</time>
      </trkpt>
      <trkpt lat="45.66704" lon="6.85443">
        <ele>2257</ele>
        <time>2021-10-03T11:59:50Z</time>
      </trkpt>
      <trkpt lat="45.66711" lon="6.85455">
        <ele>2257.4</ele>
        <time>2021-10-03T11:59:55Z</time>
      </trkpt>
      <trkpt lat="45.66713" lon="6.85458">
        <ele>2258</ele>
        <time>2021-10-03T11:59:57Z</time>
      </trkpt>
      <trkpt lat="45.66723" lon="6.85468">
        <ele>2256.6</ele>
        <time>2021-10-03T12:00:02Z</time>
      </trkpt>
      <trkpt lat="45.66726" lon="6.85472">
        <ele>2255.6</ele>
        <time>2021-10-03T12:00:04Z</time>
      </trkpt>
      <trkpt lat="45.66742" lon="6.85485">
        <ele>2256</ele>
        <time>2021-10-03T12:00:13Z</time>
      </trkpt>
      <trkpt lat="45.66761" lon="6.8549">
        <ele>2256.4</ele>
        <time>2021-10-03T12:00:24Z</time>
      </trkpt>
      <trkpt lat="45.66764" lon="6.85489">
        <ele>2257</ele>
        <time>2021-10-03T12:00:25Z</time>
      </trkpt>
      <trkpt lat="45.66773" lon="6.85486">
        <ele>2255.6</ele>
        <time>2021-10-03T12:00:30Z</time>
      </trkpt>
      <trkpt lat="45.66777" lon="6.85488">
        <ele>2254</ele>
        <time>2021-10-03T12:00:32Z</time>
      </trkpt>
      <trkpt lat="45.66778" lon="6.8549">
        <ele>2252.6</ele>
        <time>2021-10-03T12:00:33Z</time>
      </trkpt>
      <trkpt lat="45.66782" lon="6.85494">
        <ele>2250.8</ele>
        <time>2021-10-03T12:00:35Z</time>
      </trkpt>
      <trkpt lat="45.66786" lon="6.85496">
        <ele>2249.6</ele>
        <time>2021-10-03T12:00:37Z</time>
      </trkpt>
      <trkpt lat="45.66793" lon="6.85499">
        <ele>2251</ele>
        <time>2021-10-03T12:00:41Z</time>
      </trkpt>
      <trkpt lat="45.66794" lon="6.85501">
        <ele>2251.2</ele>
        <time>2021-10-03T12:00:42Z</time>
      </trkpt>
      <trkpt lat="45.668" lon="6.85506">
        <ele>2249.6</ele>
        <time>2021-10-03T12:00:46Z</time>
      </trkpt>
      <trkpt lat="45.66806" lon="6.8551">
        <ele>2248.6</ele>
        <time>2021-10-03T12:00:49Z</time>
      </trkpt>
      <trkpt lat="45.66807" lon="6.85512">
        <ele>2248.6</ele>
        <time>2021-10-03T12:00:50Z</time>
      </trkpt>
      <trkpt lat="45.66814" lon="6.85515">
        <ele>2247.4</ele>
        <time>2021-10-03T12:00:53Z</time>
      </trkpt>
      <trkpt lat="45.66818" lon="6.85515">
        <ele>2246</ele>
        <time>2021-10-03T12:00:55Z</time>
      </trkpt>
      <trkpt lat="45.66828" lon="6.85518">
        <ele>2244.8</ele>
        <time>2021-10-03T12:01:00Z</time>
      </trkpt>
      <trkpt lat="45.66832" lon="6.85518">
        <ele>2243.6</ele>
        <time>2021-10-03T12:01:02Z</time>
      </trkpt>
      <trkpt lat="45.66843" lon="6.85538">
        <ele>2243</ele>
        <time>2021-10-03T12:01:11Z</time>
      </trkpt>
      <trkpt lat="45.66843" lon="6.85545">
        <ele>2242.6</ele>
        <time>2021-10-03T12:01:14Z</time>
      </trkpt>
      <trkpt lat="45.66851" lon="6.85569">
        <ele>2242.6</ele>
        <time>2021-10-03T12:01:24Z</time>
      </trkpt>
      <trkpt lat="45.66851" lon="6.85572">
        <ele>2243.6</ele>
        <time>2021-10-03T12:01:26Z</time>
      </trkpt>
      <trkpt lat="45.66851" lon="6.8558">
        <ele>2245</ele>
        <time>2021-10-03T12:01:30Z</time>
      </trkpt>
      <trkpt lat="45.66852" lon="6.85583">
        <ele>2245.2</ele>
        <time>2021-10-03T12:01:32Z</time>
      </trkpt>
      <trkpt lat="45.66854" lon="6.85588">
        <ele>2245.2</ele>
        <time>2021-10-03T12:01:35Z</time>
      </trkpt>
      <trkpt lat="45.66856" lon="6.85596">
        <ele>2243.8</ele>
        <time>2021-10-03T12:01:38Z</time>
      </trkpt>
      <trkpt lat="45.66857" lon="6.85606">
        <ele>2242.8</ele>
        <time>2021-10-03T12:01:41Z</time>
      </trkpt>
      <trkpt lat="45.6686" lon="6.85633">
        <ele>2241.8</ele>
        <time>2021-10-03T12:01:50Z</time>
      </trkpt>
      <trkpt lat="45.66861" lon="6.85636">
        <ele>2241.6</ele>
        <time>2021-10-03T12:01:51Z</time>
      </trkpt>
      <trkpt lat="45.66872" lon="6.85654">
        <ele>2240.4</ele>
        <time>2021-10-03T12:02:00Z</time>
      </trkpt>
      <trkpt lat="45.66873" lon="6.85669">
        <ele>2240</ele>
        <time>2021-10-03T12:02:06Z</time>
      </trkpt>
      <trkpt lat="45.66868" lon="6.85672">
        <ele>2240.4</ele>
        <time>2021-10-03T12:02:15Z</time>
      </trkpt>
      <trkpt lat="45.66862" lon="6.85672">
        <ele>2240.6</ele>
        <time>2021-10-03T12:02:21Z</time>
      </trkpt>
      <trkpt lat="45.66848" lon="6.85685">
        <ele>2239.4</ele>
        <time>2021-10-03T12:02:33Z</time>
      </trkpt>
      <trkpt lat="45.66842" lon="6.857">
        <ele>2238</ele>
        <time>2021-10-03T12:02:40Z</time>
      </trkpt>
      <trkpt lat="45.6684" lon="6.85707">
        <ele>2236.6</ele>
        <time>2021-10-03T12:02:42Z</time>
      </trkpt>
      <trkpt lat="45.66838" lon="6.85717">
        <ele>2235.2</ele>
        <time>2021-10-03T12:02:45Z</time>
      </trkpt>
      <trkpt lat="45.66836" lon="6.85726">
        <ele>2234</ele>
        <time>2021-10-03T12:02:48Z</time>
      </trkpt>
      <trkpt lat="45.66833" lon="6.85736">
        <ele>2232.6</ele>
        <time>2021-10-03T12:02:51Z</time>
      </trkpt>
      <trkpt lat="45.66828" lon="6.85744">
        <ele>2231.4</ele>
        <time>2021-10-03T12:02:54Z</time>
      </trkpt>
      <trkpt lat="45.66828" lon="6.8575">
        <ele>2230.2</ele>
        <time>2021-10-03T12:02:56Z</time>
      </trkpt>
      <trkpt lat="45.66828" lon="6.85756">
        <ele>2229.2</ele>
        <time>2021-10-03T12:02:58Z</time>
      </trkpt>
      <trkpt lat="45.66831" lon="6.85765">
        <ele>2228.2</ele>
        <time>2021-10-03T12:03:01Z</time>
      </trkpt>
      <trkpt lat="45.66842" lon="6.85786">
        <ele>2228.8</ele>
        <time>2021-10-03T12:03:10Z</time>
      </trkpt>
      <trkpt lat="45.66849" lon="6.858">
        <ele>2227</ele>
        <time>2021-10-03T12:03:16Z</time>
      </trkpt>
      <trkpt lat="45.66859" lon="6.85817">
        <ele>2228.2</ele>
        <time>2021-10-03T12:03:25Z</time>
      </trkpt>
      <trkpt lat="45.66866" lon="6.85821">
        <ele>2229.4</ele>
        <time>2021-10-03T12:03:29Z</time>
      </trkpt>
      <trkpt lat="45.66879" lon="6.85824">
        <ele>2228</ele>
        <time>2021-10-03T12:03:36Z</time>
      </trkpt>
      <trkpt lat="45.66885" lon="6.85828">
        <ele>2227</ele>
        <time>2021-10-03T12:03:39Z</time>
      </trkpt>
      <trkpt lat="45.66889" lon="6.85834">
        <ele>2225.8</ele>
        <time>2021-10-03T12:03:44Z</time>
      </trkpt>
      <trkpt lat="45.66889" lon="6.85855">
        <ele>2226</ele>
        <time>2021-10-03T12:03:55Z</time>
      </trkpt>
      <trkpt lat="45.66896" lon="6.85879">
        <ele>2225.6</ele>
        <time>2021-10-03T12:04:03Z</time>
      </trkpt>
      <trkpt lat="45.66901" lon="6.85904">
        <ele>2226.6</ele>
        <time>2021-10-03T12:04:11Z</time>
      </trkpt>
      <trkpt lat="45.66901" lon="6.85907">
        <ele>2226.8</ele>
        <time>2021-10-03T12:04:12Z</time>
      </trkpt>
      <trkpt lat="45.66911" lon="6.85929">
        <ele>2227.2</ele>
        <time>2021-10-03T12:04:22Z</time>
      </trkpt>
      <trkpt lat="45.66917" lon="6.85938">
        <ele>2227.4</ele>
        <time>2021-10-03T12:04:30Z</time>
      </trkpt>
      <trkpt lat="45.66924" lon="6.85945">
        <ele>2225.4</ele>
        <time>2021-10-03T12:04:38Z</time>
      </trkpt>
      <trkpt lat="45.66924" lon="6.85947">
        <ele>2224.4</ele>
        <time>2021-10-03T12:04:40Z</time>
      </trkpt>
      <trkpt lat="45.66928" lon="6.85955">
        <ele>2225</ele>
        <time>2021-10-03T12:04:47Z</time>
      </trkpt>
      <trkpt lat="45.66928" lon="6.85958">
        <ele>2225.4</ele>
        <time>2021-10-03T12:04:49Z</time>
      </trkpt>
      <trkpt lat="45.66928" lon="6.85968">
        <ele>2226.4</ele>
        <time>2021-10-03T12:04:54Z</time>
      </trkpt>
      <trkpt lat="45.66926" lon="6.85985">
        <ele>2227.8</ele>
        <time>2021-10-03T12:05:03Z</time>
      </trkpt>
      <trkpt lat="45.66925" lon="6.85989">
        <ele>2228.8</ele>
        <time>2021-10-03T12:05:05Z</time>
      </trkpt>
      <trkpt lat="45.66926" lon="6.85991">
        <ele>2230</ele>
        <time>2021-10-03T12:05:06Z</time>
      </trkpt>
      <trkpt lat="45.66928" lon="6.85994">
        <ele>2231.2</ele>
        <time>2021-10-03T12:05:08Z</time>
      </trkpt>
      <trkpt lat="45.66935" lon="6.86006">
        <ele>2231</ele>
        <time>2021-10-03T12:05:15Z</time>
      </trkpt>
      <trkpt lat="45.66936" lon="6.86014">
        <ele>2229.4</ele>
        <time>2021-10-03T12:05:18Z</time>
      </trkpt>
      <trkpt lat="45.66937" lon="6.86023">
        <ele>2227.4</ele>
        <time>2021-10-03T12:05:21Z</time>
      </trkpt>
      <trkpt lat="45.66937" lon="6.86027">
        <ele>2226.4</ele>
        <time>2021-10-03T12:05:22Z</time>
      </trkpt>
      <trkpt lat="45.66937" lon="6.86034">
        <ele>2224.8</ele>
        <time>2021-10-03T12:05:24Z</time>
      </trkpt>
      <trkpt lat="45.66937" lon="6.86041">
        <ele>2223.8</ele>
        <time>2021-10-03T12:05:26Z</time>
      </trkpt>
      <trkpt lat="45.66936" lon="6.86048">
        <ele>2222.2</ele>
        <time>2021-10-03T12:05:28Z</time>
      </trkpt>
      <trkpt lat="45.66937" lon="6.86059">
        <ele>2220.8</ele>
        <time>2021-10-03T12:05:31Z</time>
      </trkpt>
      <trkpt lat="45.66939" lon="6.86066">
        <ele>2219.8</ele>
        <time>2021-10-03T12:05:33Z</time>
      </trkpt>
      <trkpt lat="45.66944" lon="6.86074">
        <ele>2218.8</ele>
        <time>2021-10-03T12:05:36Z</time>
      </trkpt>
      <trkpt lat="45.66951" lon="6.86081">
        <ele>2217.6</ele>
        <time>2021-10-03T12:05:39Z</time>
      </trkpt>
      <trkpt lat="45.6696" lon="6.86094">
        <ele>2218.8</ele>
        <time>2021-10-03T12:05:43Z</time>
      </trkpt>
      <trkpt lat="45.66963" lon="6.86102">
        <ele>2220</ele>
        <time>2021-10-03T12:05:46Z</time>
      </trkpt>
      <trkpt lat="45.6697" lon="6.86121">
        <ele>2218.6</ele>
        <time>2021-10-03T12:05:55Z</time>
      </trkpt>
      <trkpt lat="45.66977" lon="6.86148">
        <ele>2218.4</ele>
        <time>2021-10-03T12:06:03Z</time>
      </trkpt>
      <trkpt lat="45.6698" lon="6.86166">
        <ele>2217.4</ele>
        <time>2021-10-03T12:06:08Z</time>
      </trkpt>
      <trkpt lat="45.66985" lon="6.86191">
        <ele>2216.8</ele>
        <time>2021-10-03T12:06:16Z</time>
      </trkpt>
      <trkpt lat="45.66988" lon="6.86199">
        <ele>2216.4</ele>
        <time>2021-10-03T12:06:18Z</time>
      </trkpt>
      <trkpt lat="45.66991" lon="6.86205">
        <ele>2214.6</ele>
        <time>2021-10-03T12:06:20Z</time>
      </trkpt>
      <trkpt lat="45.66992" lon="6.86208">
        <ele>2213.6</ele>
        <time>2021-10-03T12:06:21Z</time>
      </trkpt>
      <trkpt lat="45.66994" lon="6.86211">
        <ele>2212.4</ele>
        <time>2021-10-03T12:06:22Z</time>
      </trkpt>
      <trkpt lat="45.66995" lon="6.86214">
        <ele>2211.4</ele>
        <time>2021-10-03T12:06:23Z</time>
      </trkpt>
      <trkpt lat="45.66998" lon="6.8622">
        <ele>2209.6</ele>
        <time>2021-10-03T12:06:25Z</time>
      </trkpt>
      <trkpt lat="45.66999" lon="6.86224">
        <ele>2208.2</ele>
        <time>2021-10-03T12:06:26Z</time>
      </trkpt>
      <trkpt lat="45.67" lon="6.86227">
        <ele>2207</ele>
        <time>2021-10-03T12:06:27Z</time>
      </trkpt>
      <trkpt lat="45.67002" lon="6.86233">
        <ele>2205.6</ele>
        <time>2021-10-03T12:06:29Z</time>
      </trkpt>
      <trkpt lat="45.67011" lon="6.86257">
        <ele>2203.6</ele>
        <time>2021-10-03T12:06:37Z</time>
      </trkpt>
      <trkpt lat="45.67016" lon="6.86264">
        <ele>2201.8</ele>
        <time>2021-10-03T12:06:40Z</time>
      </trkpt>
      <trkpt lat="45.67032" lon="6.8628">
        <ele>2202.2</ele>
        <time>2021-10-03T12:06:48Z</time>
      </trkpt>
      <trkpt lat="45.67043" lon="6.86292">
        <ele>2200.6</ele>
        <time>2021-10-03T12:06:53Z</time>
      </trkpt>
      <trkpt lat="45.67047" lon="6.86298">
        <ele>2199.4</ele>
        <time>2021-10-03T12:06:55Z</time>
      </trkpt>
      <trkpt lat="45.67056" lon="6.86307">
        <ele>2198.4</ele>
        <time>2021-10-03T12:07:00Z</time>
      </trkpt>
      <trkpt lat="45.67065" lon="6.86309">
        <ele>2197</ele>
        <time>2021-10-03T12:07:04Z</time>
      </trkpt>
      <trkpt lat="45.67072" lon="6.86312">
        <ele>2195.8</ele>
        <time>2021-10-03T12:07:07Z</time>
      </trkpt>
      <trkpt lat="45.67082" lon="6.86322">
        <ele>2194.8</ele>
        <time>2021-10-03T12:07:12Z</time>
      </trkpt>
      <trkpt lat="45.67098" lon="6.86333">
        <ele>2193</ele>
        <time>2021-10-03T12:07:20Z</time>
      </trkpt>
      <trkpt lat="45.67103" lon="6.86334">
        <ele>2192</ele>
        <time>2021-10-03T12:07:22Z</time>
      </trkpt>
      <trkpt lat="45.67121" lon="6.86336">
        <ele>2192.6</ele>
        <time>2021-10-03T12:07:30Z</time>
      </trkpt>
      <trkpt lat="45.67124" lon="6.86336">
        <ele>2193</ele>
        <time>2021-10-03T12:07:31Z</time>
      </trkpt>
      <trkpt lat="45.67133" lon="6.86339">
        <ele>2191.8</ele>
        <time>2021-10-03T12:07:35Z</time>
      </trkpt>
      <trkpt lat="45.67138" lon="6.86348">
        <ele>2191.4</ele>
        <time>2021-10-03T12:07:40Z</time>
      </trkpt>
      <trkpt lat="45.67138" lon="6.86352">
        <ele>2191.2</ele>
        <time>2021-10-03T12:07:42Z</time>
      </trkpt>
      <trkpt lat="45.67131" lon="6.86376">
        <ele>2192.8</ele>
        <time>2021-10-03T12:07:55Z</time>
      </trkpt>
      <trkpt lat="45.67128" lon="6.86381">
        <ele>2194</ele>
        <time>2021-10-03T12:07:59Z</time>
      </trkpt>
      <trkpt lat="45.67125" lon="6.86385">
        <ele>2195.2</ele>
        <time>2021-10-03T12:08:02Z</time>
      </trkpt>
      <trkpt lat="45.67122" lon="6.86389">
        <ele>2196.2</ele>
        <time>2021-10-03T12:08:05Z</time>
      </trkpt>
      <trkpt lat="45.6711" lon="6.86412">
        <ele>2195.4</ele>
        <time>2021-10-03T12:08:14Z</time>
      </trkpt>
      <trkpt lat="45.67109" lon="6.86416">
        <ele>2195</ele>
        <time>2021-10-03T12:08:15Z</time>
      </trkpt>
      <trkpt lat="45.67102" lon="6.86427">
        <ele>2193.6</ele>
        <time>2021-10-03T12:08:19Z</time>
      </trkpt>
      <trkpt lat="45.67092" lon="6.8644">
        <ele>2192.4</ele>
        <time>2021-10-03T12:08:24Z</time>
      </trkpt>
      <trkpt lat="45.6708" lon="6.86454">
        <ele>2191.4</ele>
        <time>2021-10-03T12:08:30Z</time>
      </trkpt>
      <trkpt lat="45.67067" lon="6.86462">
        <ele>2190</ele>
        <time>2021-10-03T12:08:36Z</time>
      </trkpt>
      <trkpt lat="45.67049" lon="6.86463">
        <ele>2189.2</ele>
        <time>2021-10-03T12:08:42Z</time>
      </trkpt>
      <trkpt lat="45.67044" lon="6.86466">
        <ele>2189</ele>
        <time>2021-10-03T12:08:44Z</time>
      </trkpt>
      <trkpt lat="45.67032" lon="6.86471">
        <ele>2187.8</ele>
        <time>2021-10-03T12:08:48Z</time>
      </trkpt>
      <trkpt lat="45.67015" lon="6.86479">
        <ele>2188.4</ele>
        <time>2021-10-03T12:08:55Z</time>
      </trkpt>
      <trkpt lat="45.6701" lon="6.86482">
        <ele>2186.6</ele>
        <time>2021-10-03T12:08:57Z</time>
      </trkpt>
      <trkpt lat="45.67008" lon="6.86484">
        <ele>2185.6</ele>
        <time>2021-10-03T12:08:58Z</time>
      </trkpt>
      <trkpt lat="45.67003" lon="6.86488">
        <ele>2184.2</ele>
        <time>2021-10-03T12:09:00Z</time>
      </trkpt>
      <trkpt lat="45.66998" lon="6.86492">
        <ele>2182.8</ele>
        <time>2021-10-03T12:09:02Z</time>
      </trkpt>
      <trkpt lat="45.66992" lon="6.86498">
        <ele>2181.6</ele>
        <time>2021-10-03T12:09:05Z</time>
      </trkpt>
      <trkpt lat="45.66986" lon="6.86503">
        <ele>2180.6</ele>
        <time>2021-10-03T12:09:08Z</time>
      </trkpt>
      <trkpt lat="45.66981" lon="6.86506">
        <ele>2179.4</ele>
        <time>2021-10-03T12:09:10Z</time>
      </trkpt>
      <trkpt lat="45.66974" lon="6.86508">
        <ele>2178.2</ele>
        <time>2021-10-03T12:09:13Z</time>
      </trkpt>
      <trkpt lat="45.66965" lon="6.86513">
        <ele>2177</ele>
        <time>2021-10-03T12:09:16Z</time>
      </trkpt>
      <trkpt lat="45.66957" lon="6.86516">
        <ele>2176</ele>
        <time>2021-10-03T12:09:19Z</time>
      </trkpt>
      <trkpt lat="45.66948" lon="6.86519">
        <ele>2174.8</ele>
        <time>2021-10-03T12:09:22Z</time>
      </trkpt>
      <trkpt lat="45.66939" lon="6.86521">
        <ele>2173.6</ele>
        <time>2021-10-03T12:09:25Z</time>
      </trkpt>
      <trkpt lat="45.66928" lon="6.86525">
        <ele>2172.6</ele>
        <time>2021-10-03T12:09:29Z</time>
      </trkpt>
      <trkpt lat="45.66915" lon="6.86528">
        <ele>2171.4</ele>
        <time>2021-10-03T12:09:33Z</time>
      </trkpt>
      <trkpt lat="45.66905" lon="6.86532">
        <ele>2170.4</ele>
        <time>2021-10-03T12:09:37Z</time>
      </trkpt>
      <trkpt lat="45.66898" lon="6.86536">
        <ele>2169.2</ele>
        <time>2021-10-03T12:09:40Z</time>
      </trkpt>
      <trkpt lat="45.6689" lon="6.86546">
        <ele>2168.2</ele>
        <time>2021-10-03T12:09:44Z</time>
      </trkpt>
      <trkpt lat="45.66885" lon="6.86556">
        <ele>2167.2</ele>
        <time>2021-10-03T12:09:47Z</time>
      </trkpt>
      <trkpt lat="45.66882" lon="6.86567">
        <ele>2165.8</ele>
        <time>2021-10-03T12:09:50Z</time>
      </trkpt>
      <trkpt lat="45.6688" lon="6.86578">
        <ele>2164.4</ele>
        <time>2021-10-03T12:09:53Z</time>
      </trkpt>
      <trkpt lat="45.66879" lon="6.86587">
        <ele>2163.2</ele>
        <time>2021-10-03T12:09:56Z</time>
      </trkpt>
      <trkpt lat="45.6688" lon="6.866">
        <ele>2162.2</ele>
        <time>2021-10-03T12:10:00Z</time>
      </trkpt>
      <trkpt lat="45.66885" lon="6.86611">
        <ele>2161</ele>
        <time>2021-10-03T12:10:04Z</time>
      </trkpt>
      <trkpt lat="45.66888" lon="6.86621">
        <ele>2160</ele>
        <time>2021-10-03T12:10:08Z</time>
      </trkpt>
      <trkpt lat="45.66895" lon="6.86635">
        <ele>2159.2</ele>
        <time>2021-10-03T12:10:15Z</time>
      </trkpt>
      <trkpt lat="45.66897" lon="6.86638">
        <ele>2158.6</ele>
        <time>2021-10-03T12:10:17Z</time>
      </trkpt>
      <trkpt lat="45.66904" lon="6.86654">
        <ele>2157.6</ele>
        <time>2021-10-03T12:10:22Z</time>
      </trkpt>
      <trkpt lat="45.66911" lon="6.86679">
        <ele>2156.6</ele>
        <time>2021-10-03T12:10:29Z</time>
      </trkpt>
      <trkpt lat="45.66911" lon="6.86683">
        <ele>2156.2</ele>
        <time>2021-10-03T12:10:30Z</time>
      </trkpt>
      <trkpt lat="45.66912" lon="6.86699">
        <ele>2155.2</ele>
        <time>2021-10-03T12:10:34Z</time>
      </trkpt>
      <trkpt lat="45.66913" lon="6.86715">
        <ele>2154.2</ele>
        <time>2021-10-03T12:10:38Z</time>
      </trkpt>
      <trkpt lat="45.66913" lon="6.86742">
        <ele>2154</ele>
        <time>2021-10-03T12:10:45Z</time>
      </trkpt>
      <trkpt lat="45.66908" lon="6.86768">
        <ele>2153.2</ele>
        <time>2021-10-03T12:10:52Z</time>
      </trkpt>
      <trkpt lat="45.66908" lon="6.86771">
        <ele>2152.8</ele>
        <time>2021-10-03T12:10:53Z</time>
      </trkpt>
      <trkpt lat="45.66903" lon="6.86794">
        <ele>2151.8</ele>
        <time>2021-10-03T12:10:59Z</time>
      </trkpt>
      <trkpt lat="45.66898" lon="6.86811">
        <ele>2150.2</ele>
        <time>2021-10-03T12:11:04Z</time>
      </trkpt>
      <trkpt lat="45.66897" lon="6.86827">
        <ele>2149.2</ele>
        <time>2021-10-03T12:11:08Z</time>
      </trkpt>
      <trkpt lat="45.66897" lon="6.86843">
        <ele>2147.8</ele>
        <time>2021-10-03T12:11:12Z</time>
      </trkpt>
      <trkpt lat="45.66895" lon="6.86862">
        <ele>2146.4</ele>
        <time>2021-10-03T12:11:17Z</time>
      </trkpt>
      <trkpt lat="45.66892" lon="6.86873">
        <ele>2144.6</ele>
        <time>2021-10-03T12:11:20Z</time>
      </trkpt>
      <trkpt lat="45.66891" lon="6.86881">
        <ele>2143</ele>
        <time>2021-10-03T12:11:22Z</time>
      </trkpt>
      <trkpt lat="45.66886" lon="6.86901">
        <ele>2141.8</ele>
        <time>2021-10-03T12:11:27Z</time>
      </trkpt>
      <trkpt lat="45.66883" lon="6.86921">
        <ele>2140.8</ele>
        <time>2021-10-03T12:11:33Z</time>
      </trkpt>
      <trkpt lat="45.66886" lon="6.86938">
        <ele>2139.6</ele>
        <time>2021-10-03T12:11:38Z</time>
      </trkpt>
      <trkpt lat="45.66887" lon="6.86955">
        <ele>2138.6</ele>
        <time>2021-10-03T12:11:42Z</time>
      </trkpt>
      <trkpt lat="45.66887" lon="6.86965">
        <ele>2137.6</ele>
        <time>2021-10-03T12:11:45Z</time>
      </trkpt>
      <trkpt lat="45.6689" lon="6.86983">
        <ele>2136.4</ele>
        <time>2021-10-03T12:11:50Z</time>
      </trkpt>
      <trkpt lat="45.66892" lon="6.86994">
        <ele>2135.4</ele>
        <time>2021-10-03T12:11:53Z</time>
      </trkpt>
      <trkpt lat="45.66896" lon="6.87015">
        <ele>2134.2</ele>
        <time>2021-10-03T12:11:59Z</time>
      </trkpt>
      <trkpt lat="45.66897" lon="6.8703">
        <ele>2133</ele>
        <time>2021-10-03T12:12:03Z</time>
      </trkpt>
      <trkpt lat="45.66898" lon="6.87033">
        <ele>2132.6</ele>
        <time>2021-10-03T12:12:04Z</time>
      </trkpt>
      <trkpt lat="45.66899" lon="6.87036">
        <ele>2131.8</ele>
        <time>2021-10-03T12:12:05Z</time>
      </trkpt>
      <trkpt lat="45.66902" lon="6.87042">
        <ele>2130.6</ele>
        <time>2021-10-03T12:12:07Z</time>
      </trkpt>
      <trkpt lat="45.66907" lon="6.87051">
        <ele>2129.6</ele>
        <time>2021-10-03T12:12:10Z</time>
      </trkpt>
      <trkpt lat="45.66912" lon="6.87056">
        <ele>2128.4</ele>
        <time>2021-10-03T12:12:12Z</time>
      </trkpt>
      <trkpt lat="45.66916" lon="6.87064">
        <ele>2127.4</ele>
        <time>2021-10-03T12:12:15Z</time>
      </trkpt>
      <trkpt lat="45.66928" lon="6.87085">
        <ele>2126.6</ele>
        <time>2021-10-03T12:12:22Z</time>
      </trkpt>
      <trkpt lat="45.66935" lon="6.871">
        <ele>2126.2</ele>
        <time>2021-10-03T12:12:27Z</time>
      </trkpt>
      <trkpt lat="45.66946" lon="6.87122">
        <ele>2125.2</ele>
        <time>2021-10-03T12:12:34Z</time>
      </trkpt>
      <trkpt lat="45.66947" lon="6.87125">
        <ele>2124.8</ele>
        <time>2021-10-03T12:12:35Z</time>
      </trkpt>
      <trkpt lat="45.66954" lon="6.87152">
        <ele>2124.6</ele>
        <time>2021-10-03T12:12:43Z</time>
      </trkpt>
      <trkpt lat="45.66958" lon="6.87178">
        <ele>2124.4</ele>
        <time>2021-10-03T12:12:51Z</time>
      </trkpt>
      <trkpt lat="45.66962" lon="6.87188">
        <ele>2123.8</ele>
        <time>2021-10-03T12:12:54Z</time>
      </trkpt>
      <trkpt lat="45.66968" lon="6.87198">
        <ele>2122.6</ele>
        <time>2021-10-03T12:12:57Z</time>
      </trkpt>
      <trkpt lat="45.66973" lon="6.87206">
        <ele>2121.6</ele>
        <time>2021-10-03T12:13:00Z</time>
      </trkpt>
      <trkpt lat="45.66985" lon="6.87228">
        <ele>2120.8</ele>
        <time>2021-10-03T12:13:08Z</time>
      </trkpt>
      <trkpt lat="45.66986" lon="6.87231">
        <ele>2120.4</ele>
        <time>2021-10-03T12:13:09Z</time>
      </trkpt>
      <trkpt lat="45.66998" lon="6.87253">
        <ele>2120.8</ele>
        <time>2021-10-03T12:13:18Z</time>
      </trkpt>
      <trkpt lat="45.67002" lon="6.87258">
        <ele>2121.2</ele>
        <time>2021-10-03T12:13:20Z</time>
      </trkpt>
      <trkpt lat="45.67004" lon="6.87265">
        <ele>2119.2</ele>
        <time>2021-10-03T12:13:24Z</time>
      </trkpt>
      <trkpt lat="45.67003" lon="6.87271">
        <ele>2119</ele>
        <time>2021-10-03T12:13:27Z</time>
      </trkpt>
      <trkpt lat="45.66999" lon="6.87276">
        <ele>2119</ele>
        <time>2021-10-03T12:13:30Z</time>
      </trkpt>
      <trkpt lat="45.67007" lon="6.87282">
        <ele>2120.6</ele>
        <time>2021-10-03T12:13:35Z</time>
      </trkpt>
      <trkpt lat="45.67014" lon="6.87287">
        <ele>2121.8</ele>
        <time>2021-10-03T12:13:40Z</time>
      </trkpt>
      <trkpt lat="45.6702" lon="6.87292">
        <ele>2122</ele>
        <time>2021-10-03T12:13:45Z</time>
      </trkpt>
      <trkpt lat="45.67026" lon="6.87294">
        <ele>2122.8</ele>
        <time>2021-10-03T12:13:48Z</time>
      </trkpt>
      <trkpt lat="45.67033" lon="6.87302">
        <ele>2123.8</ele>
        <time>2021-10-03T12:13:56Z</time>
      </trkpt>
      <trkpt lat="45.67049" lon="6.87315">
        <ele>2123</ele>
        <time>2021-10-03T12:14:09Z</time>
      </trkpt>
      <trkpt lat="45.6705" lon="6.87316">
        <ele>2122.6</ele>
        <time>2021-10-03T12:14:10Z</time>
      </trkpt>
      <trkpt lat="45.67063" lon="6.87324">
        <ele>2123.8</ele>
        <time>2021-10-03T12:14:18Z</time>
      </trkpt>
      <trkpt lat="45.67078" lon="6.8734">
        <ele>2124.4</ele>
        <time>2021-10-03T12:14:33Z</time>
      </trkpt>
      <trkpt lat="45.6709" lon="6.87344">
        <ele>2122.8</ele>
        <time>2021-10-03T12:14:39Z</time>
      </trkpt>
      <trkpt lat="45.67105" lon="6.87354">
        <ele>2123.6</ele>
        <time>2021-10-03T12:14:48Z</time>
      </trkpt>
      <trkpt lat="45.67105" lon="6.87357">
        <ele>2124</ele>
        <time>2021-10-03T12:14:49Z</time>
      </trkpt>
      <trkpt lat="45.67104" lon="6.87364">
        <ele>2125.2</ele>
        <time>2021-10-03T12:14:52Z</time>
      </trkpt>
      <trkpt lat="45.67103" lon="6.87371">
        <ele>2125.8</ele>
        <time>2021-10-03T12:14:56Z</time>
      </trkpt>
      <trkpt lat="45.67106" lon="6.87379">
        <ele>2125.8</ele>
        <time>2021-10-03T12:15:01Z</time>
      </trkpt>
      <trkpt lat="45.67104" lon="6.87383">
        <ele>2126.4</ele>
        <time>2021-10-03T12:15:04Z</time>
      </trkpt>
      <trkpt lat="45.671" lon="6.87388">
        <ele>2126.6</ele>
        <time>2021-10-03T12:15:08Z</time>
      </trkpt>
      <trkpt lat="45.671" lon="6.87392">
        <ele>2127.8</ele>
        <time>2021-10-03T12:15:11Z</time>
      </trkpt>
      <trkpt lat="45.67102" lon="6.87394">
        <ele>2129.2</ele>
        <time>2021-10-03T12:15:13Z</time>
      </trkpt>
      <trkpt lat="45.67102" lon="6.87398">
        <ele>2130.4</ele>
        <time>2021-10-03T12:15:16Z</time>
      </trkpt>
      <trkpt lat="45.67103" lon="6.874">
        <ele>2131.2</ele>
        <time>2021-10-03T12:15:18Z</time>
      </trkpt>
      <trkpt lat="45.67104" lon="6.87401">
        <ele>2131.6</ele>
        <time>2021-10-03T12:15:19Z</time>
      </trkpt>
      <trkpt lat="45.67105" lon="6.87402">
        <ele>2131.8</ele>
        <time>2021-10-03T12:15:20Z</time>
      </trkpt>
      <trkpt lat="45.67107" lon="6.87405">
        <ele>2132.8</ele>
        <time>2021-10-03T12:15:23Z</time>
      </trkpt>
      <trkpt lat="45.67107" lon="6.87407">
        <ele>2133.2</ele>
        <time>2021-10-03T12:15:25Z</time>
      </trkpt>
      <trkpt lat="45.67108" lon="6.8741">
        <ele>2134</ele>
        <time>2021-10-03T12:15:28Z</time>
      </trkpt>
      <trkpt lat="45.6711" lon="6.87411">
        <ele>2135.2</ele>
        <time>2021-10-03T12:15:30Z</time>
      </trkpt>
      <trkpt lat="45.67113" lon="6.87412">
        <ele>2136</ele>
        <time>2021-10-03T12:15:32Z</time>
      </trkpt>
      <trkpt lat="45.67114" lon="6.87412">
        <ele>2136.4</ele>
        <time>2021-10-03T12:15:33Z</time>
      </trkpt>
      <trkpt lat="45.67117" lon="6.87411">
        <ele>2137.4</ele>
        <time>2021-10-03T12:15:36Z</time>
      </trkpt>
      <trkpt lat="45.6712" lon="6.8741">
        <ele>2138.6</ele>
        <time>2021-10-03T12:15:39Z</time>
      </trkpt>
      <trkpt lat="45.67119" lon="6.87411">
        <ele>2139.2</ele>
        <time>2021-10-03T12:15:40Z</time>
      </trkpt>
      <trkpt lat="45.67119" lon="6.8741">
        <ele>2139.6</ele>
        <time>2021-10-03T12:15:41Z</time>
      </trkpt>
      <trkpt lat="45.6712" lon="6.87414">
        <ele>2140.8</ele>
        <time>2021-10-03T12:15:45Z</time>
      </trkpt>
      <trkpt lat="45.67118" lon="6.87422">
        <ele>2139.6</ele>
        <time>2021-10-03T12:15:51Z</time>
      </trkpt>
      <trkpt lat="45.67116" lon="6.87425">
        <ele>2139.6</ele>
        <time>2021-10-03T12:15:54Z</time>
      </trkpt>
      <trkpt lat="45.67115" lon="6.87429">
        <ele>2140.8</ele>
        <time>2021-10-03T12:15:58Z</time>
      </trkpt>
      <trkpt lat="45.67114" lon="6.87434">
        <ele>2141.2</ele>
        <time>2021-10-03T12:16:01Z</time>
      </trkpt>
      <trkpt lat="45.67114" lon="6.87444">
        <ele>2141.4</ele>
        <time>2021-10-03T12:16:07Z</time>
      </trkpt>
      <trkpt lat="45.67113" lon="6.87447">
        <ele>2141.8</ele>
        <time>2021-10-03T12:16:09Z</time>
      </trkpt>
      <trkpt lat="45.67112" lon="6.87448">
        <ele>2142.2</ele>
        <time>2021-10-03T12:16:10Z</time>
      </trkpt>
      <trkpt lat="45.67112" lon="6.8745">
        <ele>2142.4</ele>
        <time>2021-10-03T12:16:11Z</time>
      </trkpt>
      <trkpt lat="45.67117" lon="6.87453">
        <ele>2142.4</ele>
        <time>2021-10-03T12:16:15Z</time>
      </trkpt>
      <trkpt lat="45.67118" lon="6.87453">
        <ele>2142</ele>
        <time>2021-10-03T12:16:17Z</time>
      </trkpt>
      <trkpt lat="45.67122" lon="6.87459">
        <ele>2143</ele>
        <time>2021-10-03T12:16:23Z</time>
      </trkpt>
      <trkpt lat="45.67124" lon="6.8746">
        <ele>2143.4</ele>
        <time>2021-10-03T12:16:24Z</time>
      </trkpt>
      <trkpt lat="45.67141" lon="6.87475">
        <ele>2143.2</ele>
        <time>2021-10-03T12:16:34Z</time>
      </trkpt>
      <trkpt lat="45.67154" lon="6.87496">
        <ele>2144.4</ele>
        <time>2021-10-03T12:16:44Z</time>
      </trkpt>
      <trkpt lat="45.67154" lon="6.87498">
        <ele>2144.8</ele>
        <time>2021-10-03T12:16:45Z</time>
      </trkpt>
      <trkpt lat="45.67154" lon="6.87501">
        <ele>2144.8</ele>
        <time>2021-10-03T12:16:46Z</time>
      </trkpt>
      <trkpt lat="45.67153" lon="6.87508">
        <ele>2145.8</ele>
        <time>2021-10-03T12:16:49Z</time>
      </trkpt>
      <trkpt lat="45.67153" lon="6.87511">
        <ele>2146.6</ele>
        <time>2021-10-03T12:16:50Z</time>
      </trkpt>
      <trkpt lat="45.67155" lon="6.87512">
        <ele>2147</ele>
        <time>2021-10-03T12:16:51Z</time>
      </trkpt>
      <trkpt lat="45.67161" lon="6.87517">
        <ele>2148.4</ele>
        <time>2021-10-03T12:16:55Z</time>
      </trkpt>
      <trkpt lat="45.67167" lon="6.87526">
        <ele>2147.2</ele>
        <time>2021-10-03T12:16:59Z</time>
      </trkpt>
      <trkpt lat="45.6717" lon="6.87529">
        <ele>2147.2</ele>
        <time>2021-10-03T12:17:02Z</time>
      </trkpt>
      <trkpt lat="45.67172" lon="6.8753">
        <ele>2149</ele>
        <time>2021-10-03T12:17:04Z</time>
      </trkpt>
      <trkpt lat="45.67179" lon="6.87533">
        <ele>2150.2</ele>
        <time>2021-10-03T12:17:08Z</time>
      </trkpt>
      <trkpt lat="45.67184" lon="6.87538">
        <ele>2148.6</ele>
        <time>2021-10-03T12:17:11Z</time>
      </trkpt>
      <trkpt lat="45.67186" lon="6.8754">
        <ele>2147.8</ele>
        <time>2021-10-03T12:17:12Z</time>
      </trkpt>
      <trkpt lat="45.67187" lon="6.87543">
        <ele>2147.2</ele>
        <time>2021-10-03T12:17:13Z</time>
      </trkpt>
      <trkpt lat="45.67182" lon="6.87564">
        <ele>2147.4</ele>
        <time>2021-10-03T12:17:20Z</time>
      </trkpt>
      <trkpt lat="45.67171" lon="6.8756">
        <ele>2148.4</ele>
        <time>2021-10-03T12:17:24Z</time>
      </trkpt>
      <trkpt lat="45.67169" lon="6.87556">
        <ele>2149</ele>
        <time>2021-10-03T12:17:27Z</time>
      </trkpt>
      <trkpt lat="45.67168" lon="6.87554">
        <ele>2149.4</ele>
        <time>2021-10-03T12:17:29Z</time>
      </trkpt>
      <trkpt lat="45.6717" lon="6.87549">
        <ele>2149.2</ele>
        <time>2021-10-03T12:17:54Z</time>
      </trkpt>
    </trkseg>
  </trk>
</gpx>